<?xml version='1.0' encoding='UTF-8'?><gpx version="1.1" creator="JPX - https://github.com/jenetics/jpx" xmlns="http://www.topografix.com/GPX/1/1"><trk><trkseg><trkpt lat="48.346235663663165" lon="-4.008138658329901"><ele>213.0</ele><time>2026-04-04T12:17:12Z</time></trkpt><trkpt lat="48.346203144385704" lon="-4.008225620328289"><ele>213.0</ele><time>2026-04-04T12:17:34.999Z</time></trkpt><trkpt lat="48.34616054400515" lon="-4.008361706687693"><ele>213.0</ele><time>2026-04-04T12:17:38.999Z</time></trkpt><trkpt lat="48.346120953784286" lon="-4.008503479068774"><ele>213.0</ele><time>2026-04-04T12:17:40.999Z</time></trkpt><trkpt lat="48.34605265846721" lon="-4.008687125361408"><ele>213.0</ele><time>2026-04-04T12:17:42.999Z</time></trkpt><trkpt lat="48.34600560223645" lon="-4.008805674375073"><ele>214.16666666666666</ele><time>2026-04-04T12:17:43.999Z</time></trkpt><trkpt lat="48.34597049924324" lon="-4.008901174856947"><ele>215.33333333333331</ele><time>2026-04-04T12:17:44.999Z</time></trkpt><trkpt lat="48.34592785390947" lon="-4.009011586750639"><ele>216.5</ele><time>2026-04-04T12:17:45.999Z</time></trkpt><trkpt lat="48.345882546672044" lon="-4.0091186830759025"><ele>217.66666666666666</ele><time>2026-04-04T12:17:46.999Z</time></trkpt><trkpt lat="48.34584495272529" lon="-4.009212017222346"><ele>218.83333333333331</ele><time>2026-04-04T12:17:47.999Z</time></trkpt><trkpt lat="48.34580397282978" lon="-4.009298152918449"><ele>220.0</ele><time>2026-04-04T12:17:48.999Z</time></trkpt><trkpt lat="48.34577411419483" lon="-4.009417758397537"><ele>220.33333333333331</ele><time>2026-04-04T12:17:50.999Z</time></trkpt><trkpt lat="48.34584557247753" lon="-4.009453218479208"><ele>220.66666666666666</ele><time>2026-04-04T12:17:52.999Z</time></trkpt><trkpt lat="48.34594370312829" lon="-4.00941312522599"><ele>221.0</ele><time>2026-04-04T12:17:54.999Z</time></trkpt><trkpt lat="48.346008870784786" lon="-4.0093983208123944"><ele>221.33333333333331</ele><time>2026-04-04T12:17:55.999Z</time></trkpt><trkpt lat="48.34608870511417" lon="-4.009400207776711"><ele>221.66666666666666</ele><time>2026-04-04T12:17:56.999Z</time></trkpt><trkpt lat="48.34618905326824" lon="-4.009375704597003"><ele>222.0</ele><time>2026-04-04T12:17:57.999Z</time></trkpt><trkpt lat="48.34630184322941" lon="-4.0093872730532585"><ele>222.5</ele><time>2026-04-04T12:17:58.999Z</time></trkpt><trkpt lat="48.3464138476546" lon="-4.009401206025501"><ele>223.0</ele><time>2026-04-04T12:17:59.999Z</time></trkpt><trkpt lat="48.3465321855293" lon="-4.0094413629009455"><ele>223.5</ele><time>2026-04-04T12:18:00.999Z</time></trkpt><trkpt lat="48.34666620651861" lon="-4.009448145749221"><ele>224.0</ele><time>2026-04-04T12:18:01.999Z</time></trkpt><trkpt lat="48.34681765986175" lon="-4.009475731336967"><ele>224.0</ele><time>2026-04-04T12:18:02.999Z</time></trkpt><trkpt lat="48.34694249808199" lon="-4.009493697956556"><ele>223.99999999999997</ele><time>2026-04-04T12:18:03.999Z</time></trkpt><trkpt lat="48.34703777251043" lon="-4.009513908522895"><ele>223.99999999999997</ele><time>2026-04-04T12:18:04.999Z</time></trkpt><trkpt lat="48.34711092589082" lon="-4.009530965699033"><ele>224.0</ele><time>2026-04-04T12:18:05.999Z</time></trkpt><trkpt lat="48.34719333689884" lon="-4.009555716044304"><ele>224.0</ele><time>2026-04-04T12:18:07.999Z</time></trkpt><trkpt lat="48.347319452290066" lon="-4.009592356830372"><ele>224.25</ele><time>2026-04-04T12:18:10.999Z</time></trkpt><trkpt lat="48.347402890739765" lon="-4.0096129795474"><ele>224.5</ele><time>2026-04-04T12:18:11.999Z</time></trkpt><trkpt lat="48.34750531880009" lon="-4.0096341388303065"><ele>224.75</ele><time>2026-04-04T12:18:12.999Z</time></trkpt><trkpt lat="48.34762525085556" lon="-4.009655962906365"><ele>225.0</ele><time>2026-04-04T12:18:13.999Z</time></trkpt><trkpt lat="48.34776691294579" lon="-4.009672781212749"><ele>225.0</ele><time>2026-04-04T12:18:14.999Z</time></trkpt><trkpt lat="48.347922394398104" lon="-4.009693665906352"><ele>225.0</ele><time>2026-04-04T12:18:16Z</time></trkpt><trkpt lat="48.34808437732719" lon="-4.009723855591137"><ele>225.0</ele><time>2026-04-04T12:18:17Z</time></trkpt><trkpt lat="48.348234638255924" lon="-4.009745123157412"><ele>225.5</ele><time>2026-04-04T12:18:18Z</time></trkpt><trkpt lat="48.34836114543965" lon="-4.009766651870306"><ele>226.0</ele><time>2026-04-04T12:18:19Z</time></trkpt><trkpt lat="48.34848198323659" lon="-4.009784853569548"><ele>226.5</ele><time>2026-04-04T12:18:20Z</time></trkpt><trkpt lat="48.3485885611327" lon="-4.0098025974091485"><ele>227.0</ele><time>2026-04-04T12:18:21Z</time></trkpt><trkpt lat="48.3486864248295" lon="-4.009816233741645"><ele>227.0</ele><time>2026-04-04T12:18:22Z</time></trkpt><trkpt lat="48.34878666806625" lon="-4.009837264596111"><ele>227.0</ele><time>2026-04-04T12:18:23Z</time></trkpt><trkpt lat="48.34886998656585" lon="-4.009849801960688"><ele>227.0</ele><time>2026-04-04T12:18:24Z</time></trkpt><trkpt lat="48.34895239765278" lon="-4.009855701819137"><ele>227.0</ele><time>2026-04-04T12:18:25Z</time></trkpt><trkpt lat="48.349030067571945" lon="-4.009861364410566"><ele>227.0</ele><time>2026-04-04T12:18:26Z</time></trkpt><trkpt lat="48.349148721544104" lon="-4.00984307902441"><ele>227.16666666666669</ele><time>2026-04-04T12:18:28Z</time></trkpt><trkpt lat="48.34924343990634" lon="-4.009827081397049"><ele>227.33333333333334</ele><time>2026-04-04T12:18:30Z</time></trkpt><trkpt lat="48.34931151375646" lon="-4.009811374138078"><ele>227.5</ele><time>2026-04-04T12:18:33Z</time></trkpt><trkpt lat="48.34926675016335" lon="-4.009982999181253"><ele>227.66666666666669</ele><time>2026-04-04T12:18:41Z</time></trkpt><trkpt lat="48.34922842549961" lon="-4.010080202827802"><ele>227.83333333333334</ele><time>2026-04-04T12:18:44Z</time></trkpt><trkpt lat="48.34921159861489" lon="-4.0101811946134385"><ele>228.0</ele><time>2026-04-04T12:18:45Z</time></trkpt><trkpt lat="48.34919331506945" lon="-4.010316516014783"><ele>227.60000000000002</ele><time>2026-04-04T12:18:46Z</time></trkpt><trkpt lat="48.34917035143972" lon="-4.010436735495414"><ele>227.20000000000002</ele><time>2026-04-04T12:18:47Z</time></trkpt><trkpt lat="48.34913895836884" lon="-4.01061061946118"><ele>226.8</ele><time>2026-04-04T12:18:49Z</time></trkpt><trkpt lat="48.34911372154803" lon="-4.010728289590996"><ele>226.4</ele><time>2026-04-04T12:18:51Z</time></trkpt><trkpt lat="48.34913144370017" lon="-4.010849658019021"><ele>226.0</ele><time>2026-04-04T12:18:53Z</time></trkpt><trkpt lat="48.349142988937636" lon="-4.011005623240081"><ele>224.8</ele><time>2026-04-04T12:18:55Z</time></trkpt><trkpt lat="48.34914839028693" lon="-4.011123128916215"><ele>223.60000000000002</ele><time>2026-04-04T12:18:57Z</time></trkpt><trkpt lat="48.349150257571516" lon="-4.011251700555769"><ele>222.4</ele><time>2026-04-04T12:18:59Z</time></trkpt><trkpt lat="48.34917024514807" lon="-4.011372772175698"><ele>221.2</ele><time>2026-04-04T12:19:01Z</time></trkpt><trkpt lat="48.34914862076227" lon="-4.011538696722536"><ele>220.0</ele><time>2026-04-04T12:19:03Z</time></trkpt><trkpt lat="48.349132972333365" lon="-4.011724296054512"><ele>218.99999999999997</ele><time>2026-04-04T12:19:05Z</time></trkpt><trkpt lat="48.349118872530426" lon="-4.011826655764597"><ele>218.0</ele><time>2026-04-04T12:19:06Z</time></trkpt><trkpt lat="48.349096220907" lon="-4.011944653304004"><ele>217.0</ele><time>2026-04-04T12:19:07Z</time></trkpt><trkpt lat="48.34906351016546" lon="-4.012085839361004"><ele>216.0</ele><time>2026-04-04T12:19:09Z</time></trkpt><trkpt lat="48.349017598717225" lon="-4.012161272677782"><ele>214.99999999999997</ele><time>2026-04-04T12:19:11Z</time></trkpt><trkpt lat="48.34890894563037" lon="-4.012149628430043"><ele>214.0</ele><time>2026-04-04T12:19:13Z</time></trkpt><trkpt lat="48.348830521239314" lon="-4.012133984894685"><ele>214.0</ele><time>2026-04-04T12:19:14Z</time></trkpt><trkpt lat="48.34871985280579" lon="-4.012170199090779"><ele>213.99999999999997</ele><time>2026-04-04T12:19:16Z</time></trkpt><trkpt lat="48.348683483947376" lon="-4.012300307038074"><ele>213.99999999999997</ele><time>2026-04-04T12:19:18Z</time></trkpt><trkpt lat="48.34867001496619" lon="-4.01249178025661"><ele>214.0</ele><time>2026-04-04T12:19:20Z</time></trkpt><trkpt lat="48.34865637000525" lon="-4.012585212165939"><ele>214.0</ele><time>2026-04-04T12:19:21Z</time></trkpt><trkpt lat="48.34863767145597" lon="-4.0126813675232205"><ele>213.14285714285717</ele><time>2026-04-04T12:19:22Z</time></trkpt><trkpt lat="48.34863562102205" lon="-4.012782505684822"><ele>212.28571428571428</ele><time>2026-04-04T12:19:23Z</time></trkpt><trkpt lat="48.34861113589865" lon="-4.0128959425658035"><ele>211.42857142857144</ele><time>2026-04-04T12:19:25Z</time></trkpt><trkpt lat="48.34862296248297" lon="-4.012990361855285"><ele>210.57142857142858</ele><time>2026-04-04T12:19:28Z</time></trkpt><trkpt lat="48.348676283603034" lon="-4.013065420130945"><ele>209.71428571428572</ele><time>2026-04-04T12:19:30Z</time></trkpt><trkpt lat="48.34867061443276" lon="-4.013197315584275"><ele>208.85714285714286</ele><time>2026-04-04T12:19:33.999Z</time></trkpt><trkpt lat="48.34864413877291" lon="-4.013302576142142"><ele>208.0</ele><time>2026-04-04T12:19:35.999Z</time></trkpt><trkpt lat="48.348617522467265" lon="-4.013395988216324"><ele>206.66666666666666</ele><time>2026-04-04T12:19:37.999Z</time></trkpt><trkpt lat="48.348589178136216" lon="-4.013500982836952"><ele>205.33333333333331</ele><time>2026-04-04T12:19:40.999Z</time></trkpt><trkpt lat="48.34857570801832" lon="-4.013609738064288"><ele>204.0</ele><time>2026-04-04T12:19:42.999Z</time></trkpt><trkpt lat="48.348543797609295" lon="-4.013716270087112"><ele>202.66666666666669</ele><time>2026-04-04T12:19:44.999Z</time></trkpt><trkpt lat="48.348513046258944" lon="-4.013809857871221"><ele>201.33333333333334</ele><time>2026-04-04T12:19:46.999Z</time></trkpt><trkpt lat="48.34848383882222" lon="-4.0139462021156955"><ele>200.0</ele><time>2026-04-04T12:19:54.999Z</time></trkpt><trkpt lat="48.34842624516889" lon="-4.014041248436048"><ele>200.00000000000003</ele><time>2026-04-04T12:19:56.999Z</time></trkpt><trkpt lat="48.34836956941022" lon="-4.014118683960726"><ele>200.0</ele><time>2026-04-04T12:19:58.999Z</time></trkpt><trkpt lat="48.34829604866551" lon="-4.01421592869447"><ele>200.0</ele><time>2026-04-04T12:20:01.999Z</time></trkpt><trkpt lat="48.34824769425835" lon="-4.014298733735887"><ele>200.0</ele><time>2026-04-04T12:20:03.999Z</time></trkpt><trkpt lat="48.348195183901" lon="-4.01437343985058"><ele>200.00000000000003</ele><time>2026-04-04T12:20:05.999Z</time></trkpt><trkpt lat="48.34814393773321" lon="-4.0144542067517595"><ele>200.0</ele><time>2026-04-04T12:20:07.999Z</time></trkpt><trkpt lat="48.348096851004385" lon="-4.014555820105938"><ele>198.83333333333334</ele><time>2026-04-04T12:20:10.999Z</time></trkpt><trkpt lat="48.34803562885107" lon="-4.014656413103545"><ele>197.66666666666669</ele><time>2026-04-04T12:20:13.999Z</time></trkpt><trkpt lat="48.34800165808827" lon="-4.014741743790805"><ele>196.5</ele><time>2026-04-04T12:20:17.999Z</time></trkpt><trkpt lat="48.34795045549743" lon="-4.014829267492192"><ele>195.33333333333331</ele><time>2026-04-04T12:20:22Z</time></trkpt><trkpt lat="48.34793731241705" lon="-4.014966552695793"><ele>194.16666666666666</ele><time>2026-04-04T12:20:25Z</time></trkpt><trkpt lat="48.347905085665076" lon="-4.015081024935643"><ele>193.0</ele><time>2026-04-04T12:20:28Z</time></trkpt><trkpt lat="48.34787537361187" lon="-4.015188144153572"><ele>191.16666666666666</ele><time>2026-04-04T12:20:31Z</time></trkpt><trkpt lat="48.34783965251767" lon="-4.0153100911758"><ele>189.33333333333331</ele><time>2026-04-04T12:20:34Z</time></trkpt><trkpt lat="48.34780183762446" lon="-4.015420026684909"><ele>187.5</ele><time>2026-04-04T12:20:37Z</time></trkpt><trkpt lat="48.34776907488929" lon="-4.015508618412254"><ele>185.66666666666666</ele><time>2026-04-04T12:20:40Z</time></trkpt><trkpt lat="48.34771223439018" lon="-4.015562717924955"><ele>183.83333333333331</ele><time>2026-04-04T12:20:43Z</time></trkpt><trkpt lat="48.34763058444205" lon="-4.0155934545888625"><ele>182.0</ele><time>2026-04-04T12:20:47Z</time></trkpt><trkpt lat="48.347543298200264" lon="-4.015593535988384"><ele>182.0</ele><time>2026-04-04T12:20:50Z</time></trkpt><trkpt lat="48.347479590143486" lon="-4.015599951134295"><ele>182.0</ele><time>2026-04-04T12:20:52Z</time></trkpt><trkpt lat="48.34738123612135" lon="-4.015659638066404"><ele>182.0</ele><time>2026-04-04T12:20:55Z</time></trkpt><trkpt lat="48.34731862911555" lon="-4.015720447509799"><ele>182.0</ele><time>2026-04-04T12:20:58Z</time></trkpt><trkpt lat="48.34726188273599" lon="-4.0157652992767305"><ele>182.0</ele><time>2026-04-04T12:21:02Z</time></trkpt><trkpt lat="48.34722013021126" lon="-4.0158397558522"><ele>182.0</ele><time>2026-04-04T12:21:04Z</time></trkpt><trkpt lat="48.347202708061445" lon="-4.015954538267529"><ele>180.2</ele><time>2026-04-04T12:21:06Z</time></trkpt><trkpt lat="48.34723540314949" lon="-4.016094846727395"><ele>178.39999999999998</ele><time>2026-04-04T12:21:08Z</time></trkpt><trkpt lat="48.34730236276122" lon="-4.016241313744018"><ele>176.60000000000002</ele><time>2026-04-04T12:21:10Z</time></trkpt><trkpt lat="48.34735767079512" lon="-4.016293399148606"><ele>174.8</ele><time>2026-04-04T12:21:11Z</time></trkpt><trkpt lat="48.34740622528574" lon="-4.0163794937797554"><ele>173.0</ele><time>2026-04-04T12:21:12Z</time></trkpt><trkpt lat="48.347472433468354" lon="-4.016476386481666"><ele>173.0</ele><time>2026-04-04T12:21:13Z</time></trkpt><trkpt lat="48.34753609276448" lon="-4.016555742950353"><ele>173.0</ele><time>2026-04-04T12:21:14Z</time></trkpt><trkpt lat="48.34761176112222" lon="-4.016636688318833"><ele>173.0</ele><time>2026-04-04T12:21:15Z</time></trkpt><trkpt lat="48.3476975847521" lon="-4.0167151432767145"><ele>173.0</ele><time>2026-04-04T12:21:16Z</time></trkpt><trkpt lat="48.34778487505842" lon="-4.016792638783302"><ele>173.0</ele><time>2026-04-04T12:21:17Z</time></trkpt><trkpt lat="48.34787366766702" lon="-4.016859186247787"><ele>172.4</ele><time>2026-04-04T12:21:18Z</time></trkpt><trkpt lat="48.34796310832004" lon="-4.0169485709144634"><ele>171.8</ele><time>2026-04-04T12:21:19Z</time></trkpt><trkpt lat="48.348055680689214" lon="-4.017011785749863"><ele>171.2</ele><time>2026-04-04T12:21:20Z</time></trkpt><trkpt lat="48.34815326752708" lon="-4.01708907001232"><ele>170.6</ele><time>2026-04-04T12:21:21Z</time></trkpt><trkpt lat="48.348252791748735" lon="-4.017167143867719"><ele>170.0</ele><time>2026-04-04T12:21:22Z</time></trkpt><trkpt lat="48.3483368071785" lon="-4.017233075251608"><ele>170.0</ele><time>2026-04-04T12:21:23Z</time></trkpt><trkpt lat="48.34841578423637" lon="-4.017290187463342"><ele>170.0</ele><time>2026-04-04T12:21:24Z</time></trkpt><trkpt lat="48.348492017479224" lon="-4.017356062389665"><ele>170.0</ele><time>2026-04-04T12:21:25Z</time></trkpt><trkpt lat="48.348579787850554" lon="-4.0174253168214475"><ele>170.0</ele><time>2026-04-04T12:21:26Z</time></trkpt><trkpt lat="48.348670607449286" lon="-4.01749284520831"><ele>170.0</ele><time>2026-04-04T12:21:27Z</time></trkpt><trkpt lat="48.34876354624314" lon="-4.017569617125553"><ele>169.2</ele><time>2026-04-04T12:21:28Z</time></trkpt><trkpt lat="48.34884179441181" lon="-4.017656636453165"><ele>168.4</ele><time>2026-04-04T12:21:29Z</time></trkpt><trkpt lat="48.34892165312028" lon="-4.017750210737098"><ele>167.60000000000002</ele><time>2026-04-04T12:21:30Z</time></trkpt><trkpt lat="48.34900061994366" lon="-4.0178398972666365"><ele>166.8</ele><time>2026-04-04T12:21:31Z</time></trkpt><trkpt lat="48.349084269623766" lon="-4.017926211012824"><ele>166.0</ele><time>2026-04-04T12:21:32Z</time></trkpt><trkpt lat="48.34916617048336" lon="-4.0180120688743814"><ele>166.0</ele><time>2026-04-04T12:21:33Z</time></trkpt><trkpt lat="48.34925018422127" lon="-4.018097335159117"><ele>166.0</ele><time>2026-04-04T12:21:34Z</time></trkpt><trkpt lat="48.34933495296582" lon="-4.018179360906102"><ele>166.0</ele><time>2026-04-04T12:21:35Z</time></trkpt><trkpt lat="48.3494259169877" lon="-4.018255315452148"><ele>166.0</ele><time>2026-04-04T12:21:36Z</time></trkpt><trkpt lat="48.34952451652152" lon="-4.0183135853580465"><ele>166.0</ele><time>2026-04-04T12:21:37Z</time></trkpt><trkpt lat="48.349624548965814" lon="-4.018360194739312"><ele>165.20000000000002</ele><time>2026-04-04T12:21:38Z</time></trkpt><trkpt lat="48.349718569123496" lon="-4.018425992655567"><ele>164.4</ele><time>2026-04-04T12:21:39Z</time></trkpt><trkpt lat="48.34979669134905" lon="-4.018526050221663"><ele>163.6</ele><time>2026-04-04T12:21:40Z</time></trkpt><trkpt lat="48.34985199024188" lon="-4.018648462958459"><ele>162.8</ele><time>2026-04-04T12:21:41Z</time></trkpt><trkpt lat="48.34988701241579" lon="-4.018797754319475"><ele>162.0</ele><time>2026-04-04T12:21:41.999Z</time></trkpt><trkpt lat="48.349900579618684" lon="-4.018965143429847"><ele>162.0</ele><time>2026-04-04T12:21:42.999Z</time></trkpt><trkpt lat="48.34989041452642" lon="-4.019150630619831"><ele>162.0</ele><time>2026-04-04T12:21:43.999Z</time></trkpt><trkpt lat="48.3498423345297" lon="-4.019343539830944"><ele>162.0</ele><time>2026-04-04T12:21:44.999Z</time></trkpt><trkpt lat="48.34977899787228" lon="-4.01953430141427"><ele>162.0</ele><time>2026-04-04T12:21:45.999Z</time></trkpt><trkpt lat="48.34970360403205" lon="-4.019747743565398"><ele>161.0</ele><time>2026-04-04T12:21:46.999Z</time></trkpt><trkpt lat="48.349641693909106" lon="-4.0199943236672295"><ele>160.0</ele><time>2026-04-04T12:21:47.999Z</time></trkpt><trkpt lat="48.34956971925435" lon="-4.02022561730102"><ele>159.0</ele><time>2026-04-04T12:21:48.999Z</time></trkpt><trkpt lat="48.349497566491706" lon="-4.020459402492379"><ele>159.0</ele><time>2026-04-04T12:21:49.999Z</time></trkpt><trkpt lat="48.34942843046575" lon="-4.020683413873665"><ele>159.0</ele><time>2026-04-04T12:21:50.999Z</time></trkpt><trkpt lat="48.349374033740744" lon="-4.0208596669795575"><ele>159.0</ele><time>2026-04-04T12:21:51.999Z</time></trkpt><trkpt lat="48.34930999453305" lon="-4.021016004575702"><ele>159.0</ele><time>2026-04-04T12:21:52.999Z</time></trkpt><trkpt lat="48.349260085061005" lon="-4.021171102546973"><ele>159.0</ele><time>2026-04-04T12:21:53.999Z</time></trkpt><trkpt lat="48.34921756738425" lon="-4.021318657918736"><ele>159.0</ele><time>2026-04-04T12:21:54.999Z</time></trkpt><trkpt lat="48.34917871642692" lon="-4.021463339345224"><ele>159.0</ele><time>2026-04-04T12:21:55.999Z</time></trkpt><trkpt lat="48.34913873635736" lon="-4.021602707281188"><ele>159.0</ele><time>2026-04-04T12:21:56.999Z</time></trkpt><trkpt lat="48.34908689415907" lon="-4.021734088157942"><ele>159.0</ele><time>2026-04-04T12:21:57.999Z</time></trkpt><trkpt lat="48.349015817328464" lon="-4.021842847521807"><ele>159.8</ele><time>2026-04-04T12:21:58.999Z</time></trkpt><trkpt lat="48.34893485069564" lon="-4.0219274423693925"><ele>160.60000000000002</ele><time>2026-04-04T12:21:59.999Z</time></trkpt><trkpt lat="48.34884074907722" lon="-4.021994673681095"><ele>161.4</ele><time>2026-04-04T12:22:00.999Z</time></trkpt><trkpt lat="48.348746797139064" lon="-4.022047236102453"><ele>162.20000000000002</ele><time>2026-04-04T12:22:01.999Z</time></trkpt><trkpt lat="48.34865408130492" lon="-4.022090266063863"><ele>163.0</ele><time>2026-04-04T12:22:02.999Z</time></trkpt><trkpt lat="48.348570561089964" lon="-4.0221320688430415"><ele>163.2</ele><time>2026-04-04T12:22:03.999Z</time></trkpt><trkpt lat="48.348488141960345" lon="-4.0221772244381135"><ele>163.4</ele><time>2026-04-04T12:22:04.999Z</time></trkpt><trkpt lat="48.34839466076101" lon="-4.022213723047138"><ele>163.6</ele><time>2026-04-04T12:22:05.999Z</time></trkpt><trkpt lat="48.34831605608624" lon="-4.022260272588003"><ele>163.79999999999998</ele><time>2026-04-04T12:22:06.999Z</time></trkpt><trkpt lat="48.34821758918723" lon="-4.022281661024443"><ele>164.0</ele><time>2026-04-04T12:22:07.999Z</time></trkpt><trkpt lat="48.34811721090405" lon="-4.022289866204477"><ele>164.0</ele><time>2026-04-04T12:22:08.999Z</time></trkpt><trkpt lat="48.34801308354036" lon="-4.022261747534799"><ele>164.0</ele><time>2026-04-04T12:22:09.999Z</time></trkpt><trkpt lat="48.34790748816657" lon="-4.022186935632441"><ele>164.0</ele><time>2026-04-04T12:22:10.999Z</time></trkpt><trkpt lat="48.347806383677856" lon="-4.022088511072776"><ele>164.0</ele><time>2026-04-04T12:22:11.999Z</time></trkpt><trkpt lat="48.34769519069416" lon="-4.021972626596915"><ele>164.0</ele><time>2026-04-04T12:22:12.999Z</time></trkpt><trkpt lat="48.34755861119978" lon="-4.0218940590727845"><ele>164.0</ele><time>2026-04-04T12:22:13.999Z</time></trkpt><trkpt lat="48.34741012947476" lon="-4.021794615074766"><ele>164.0</ele><time>2026-04-04T12:22:14.999Z</time></trkpt><trkpt lat="48.34729075747095" lon="-4.021724954926109"><ele>164.0</ele><time>2026-04-04T12:22:15.999Z</time></trkpt><trkpt lat="48.34717621824623" lon="-4.021665054584225"><ele>163.0</ele><time>2026-04-04T12:22:16.999Z</time></trkpt><trkpt lat="48.34706852353141" lon="-4.021608640219338"><ele>162.0</ele><time>2026-04-04T12:22:17.999Z</time></trkpt><trkpt lat="48.346959253245146" lon="-4.021559155489535"><ele>161.0</ele><time>2026-04-04T12:22:18.999Z</time></trkpt><trkpt lat="48.34683459262694" lon="-4.021527443015976"><ele>160.0</ele><time>2026-04-04T12:22:19.999Z</time></trkpt><trkpt lat="48.34669943877805" lon="-4.021522687640288"><ele>160.0</ele><time>2026-04-04T12:22:20.999Z</time></trkpt><trkpt lat="48.346568089609306" lon="-4.021552489264484"><ele>160.0</ele><time>2026-04-04T12:22:21.999Z</time></trkpt><trkpt lat="48.34643721707813" lon="-4.0216259089880815"><ele>160.0</ele><time>2026-04-04T12:22:22.999Z</time></trkpt><trkpt lat="48.34629769187246" lon="-4.0216872361947225"><ele>160.0</ele><time>2026-04-04T12:22:23.999Z</time></trkpt><trkpt lat="48.34615970328148" lon="-4.021740599659345"><ele>162.0</ele><time>2026-04-04T12:22:24.999Z</time></trkpt><trkpt lat="48.34603576400194" lon="-4.0217702942555285"><ele>164.0</ele><time>2026-04-04T12:22:25.999Z</time></trkpt><trkpt lat="48.34592043940397" lon="-4.021757992724062"><ele>166.0</ele><time>2026-04-04T12:22:26.999Z</time></trkpt><trkpt lat="48.34580739061852" lon="-4.02175789621412"><ele>168.0</ele><time>2026-04-04T12:22:28Z</time></trkpt><trkpt lat="48.345690571204344" lon="-4.021754193558698"><ele>168.0</ele><time>2026-04-04T12:22:29Z</time></trkpt><trkpt lat="48.34557622245193" lon="-4.021762902618421"><ele>168.0</ele><time>2026-04-04T12:22:30Z</time></trkpt><trkpt lat="48.34545897784779" lon="-4.021758232129047"><ele>168.0</ele><time>2026-04-04T12:22:31Z</time></trkpt><trkpt lat="48.34533973839166" lon="-4.0217534832354636"><ele>168.0</ele><time>2026-04-04T12:22:32Z</time></trkpt><trkpt lat="48.34521844028491" lon="-4.021746728333211"><ele>167.25</ele><time>2026-04-04T12:22:33Z</time></trkpt><trkpt lat="48.34509457232334" lon="-4.021735669619588"><ele>166.5</ele><time>2026-04-04T12:22:34Z</time></trkpt><trkpt lat="48.34496416631579" lon="-4.021718141728483"><ele>165.75</ele><time>2026-04-04T12:22:35Z</time></trkpt><trkpt lat="48.34484787547928" lon="-4.0217025891459715"><ele>165.0</ele><time>2026-04-04T12:22:36Z</time></trkpt><trkpt lat="48.34474290802028" lon="-4.021688550930062"><ele>165.0</ele><time>2026-04-04T12:22:37Z</time></trkpt><trkpt lat="48.34464503374496" lon="-4.021675461357136"><ele>165.0</ele><time>2026-04-04T12:22:38Z</time></trkpt><trkpt lat="48.34454241389606" lon="-4.021661737110242"><ele>165.0</ele><time>2026-04-04T12:22:39Z</time></trkpt><trkpt lat="48.34442730698161" lon="-4.021645453391145"><ele>165.0</ele><time>2026-04-04T12:22:40Z</time></trkpt><trkpt lat="48.34430407129539" lon="-4.021627346663227"><ele>165.0</ele><time>2026-04-04T12:22:41Z</time></trkpt><trkpt lat="48.34417342413278" lon="-4.021606963605227"><ele>162.66666666666666</ele><time>2026-04-04T12:22:42Z</time></trkpt><trkpt lat="48.344039833441585" lon="-4.021585458392959"><ele>160.33333333333331</ele><time>2026-04-04T12:22:43Z</time></trkpt><trkpt lat="48.34388703470785" lon="-4.021562437277044"><ele>158.0</ele><time>2026-04-04T12:22:44Z</time></trkpt><trkpt lat="48.343723451169154" lon="-4.021554091255158"><ele>158.0</ele><time>2026-04-04T12:22:45Z</time></trkpt><trkpt lat="48.343577111788726" lon="-4.021557952512136"><ele>158.0</ele><time>2026-04-04T12:22:46Z</time></trkpt><trkpt lat="48.34341300936245" lon="-4.021570320562471"><ele>158.0</ele><time>2026-04-04T12:22:47Z</time></trkpt><trkpt lat="48.343272336481995" lon="-4.021587591363684"><ele>158.0</ele><time>2026-04-04T12:22:48Z</time></trkpt><trkpt lat="48.3431537275828" lon="-4.021610893114194"><ele>158.0</ele><time>2026-04-04T12:22:49Z</time></trkpt><trkpt lat="48.34304363174187" lon="-4.021650433584987"><ele>158.0</ele><time>2026-04-04T12:22:50Z</time></trkpt><trkpt lat="48.342955348888" lon="-4.02169723285666"><ele>158.0</ele><time>2026-04-04T12:22:51Z</time></trkpt><trkpt lat="48.3428858779803" lon="-4.021756564789097"><ele>158.0</ele><time>2026-04-04T12:22:52Z</time></trkpt><trkpt lat="48.34280851168055" lon="-4.021823318317338"><ele>159.60000000000002</ele><time>2026-04-04T12:22:53Z</time></trkpt><trkpt lat="48.34272026766769" lon="-4.021902101631126"><ele>161.20000000000002</ele><time>2026-04-04T12:22:54Z</time></trkpt><trkpt lat="48.34262975696903" lon="-4.021983305495427"><ele>162.8</ele><time>2026-04-04T12:22:55Z</time></trkpt><trkpt lat="48.342552797878625" lon="-4.022049296243626"><ele>164.4</ele><time>2026-04-04T12:22:56Z</time></trkpt><trkpt lat="48.34245805225756" lon="-4.022130991821032"><ele>166.0</ele><time>2026-04-04T12:22:57Z</time></trkpt><trkpt lat="48.34236254805711" lon="-4.02221146160685"><ele>166.0</ele><time>2026-04-04T12:22:58Z</time></trkpt><trkpt lat="48.342243914359535" lon="-4.022300859855185"><ele>166.0</ele><time>2026-04-04T12:22:59Z</time></trkpt><trkpt lat="48.34213199618934" lon="-4.022361055673903"><ele>166.0</ele><time>2026-04-04T12:23:00Z</time></trkpt><trkpt lat="48.34201666686919" lon="-4.022415501629458"><ele>166.0</ele><time>2026-04-04T12:23:01Z</time></trkpt><trkpt lat="48.341915814412154" lon="-4.022460474032926"><ele>167.33333333333334</ele><time>2026-04-04T12:23:02Z</time></trkpt><trkpt lat="48.34182132589099" lon="-4.022502119512581"><ele>168.66666666666669</ele><time>2026-04-04T12:23:03Z</time></trkpt><trkpt lat="48.341745307407656" lon="-4.022535624353863"><ele>170.0</ele><time>2026-04-04T12:23:04Z</time></trkpt><trkpt lat="48.341657575687385" lon="-4.0225742918253475"><ele>171.33333333333334</ele><time>2026-04-04T12:23:05Z</time></trkpt><trkpt lat="48.34157899834564" lon="-4.022610049111076"><ele>172.66666666666666</ele><time>2026-04-04T12:23:06Z</time></trkpt><trkpt lat="48.34149678141951" lon="-4.022647571209865"><ele>174.0</ele><time>2026-04-04T12:23:07Z</time></trkpt><trkpt lat="48.34141408724795" lon="-4.022685311047799"><ele>173.79999999999998</ele><time>2026-04-04T12:23:08Z</time></trkpt><trkpt lat="48.3413181164603" lon="-4.022729110116652"><ele>173.6</ele><time>2026-04-04T12:23:09Z</time></trkpt><trkpt lat="48.34122283716413" lon="-4.022772591395427"><ele>173.4</ele><time>2026-04-04T12:23:10Z</time></trkpt><trkpt lat="48.34113129162336" lon="-4.0228139520569215"><ele>173.2</ele><time>2026-04-04T12:23:11Z</time></trkpt><trkpt lat="48.341052566138195" lon="-4.0228475393245455"><ele>173.0</ele><time>2026-04-04T12:23:12Z</time></trkpt><trkpt lat="48.34096320622262" lon="-4.022885546581086"><ele>173.0</ele><time>2026-04-04T12:23:13Z</time></trkpt><trkpt lat="48.340881386764295" lon="-4.022916765320848"><ele>173.0</ele><time>2026-04-04T12:23:14Z</time></trkpt><trkpt lat="48.34076756109538" lon="-4.0229536006265105"><ele>173.0</ele><time>2026-04-04T12:23:15Z</time></trkpt><trkpt lat="48.34069464186678" lon="-4.022973479749598"><ele>173.0</ele><time>2026-04-04T12:23:16Z</time></trkpt><trkpt lat="48.34063075888527" lon="-4.022991457483819"><ele>173.0</ele><time>2026-04-04T12:23:17Z</time></trkpt><trkpt lat="48.34053165547694" lon="-4.023020753255337"><ele>173.0</ele><time>2026-04-04T12:23:19Z</time></trkpt><trkpt lat="48.340423810490094" lon="-4.023014350129754"><ele>174.66666666666666</ele><time>2026-04-04T12:23:21Z</time></trkpt><trkpt lat="48.340315559408246" lon="-4.023045878551364"><ele>176.33333333333334</ele><time>2026-04-04T12:23:23Z</time></trkpt><trkpt lat="48.34019755390477" lon="-4.023107643527658"><ele>178.0</ele><time>2026-04-04T12:23:25Z</time></trkpt><trkpt lat="48.33993569583978" lon="-4.023069665461007"><ele>178.0</ele><time>2026-04-04T12:23:26Z</time></trkpt><trkpt lat="48.33972449202352" lon="-4.022884521587481"><ele>178.0</ele><time>2026-04-04T12:23:28Z</time></trkpt><trkpt lat="48.33964856521679" lon="-4.022800442924129"><ele>178.0</ele><time>2026-04-04T12:23:30Z</time></trkpt><trkpt lat="48.33959985672483" lon="-4.022719403184289"><ele>178.0</ele><time>2026-04-04T12:23:33Z</time></trkpt><trkpt lat="48.339695015004246" lon="-4.022397474156859"><ele>177.83333333333334</ele><time>2026-04-04T12:23:34Z</time></trkpt><trkpt lat="48.33962866622144" lon="-4.022428244776603"><ele>177.66666666666669</ele><time>2026-04-04T12:23:35Z</time></trkpt><trkpt lat="48.3395622255181" lon="-4.022460874218219"><ele>177.5</ele><time>2026-04-04T12:23:36Z</time></trkpt><trkpt lat="48.33945055587466" lon="-4.02246260363824"><ele>177.33333333333334</ele><time>2026-04-04T12:23:38Z</time></trkpt><trkpt lat="48.33936057863568" lon="-4.022367340343116"><ele>177.16666666666666</ele><time>2026-04-04T12:23:40Z</time></trkpt><trkpt lat="48.3393078518027" lon="-4.022312790665399"><ele>177.0</ele><time>2026-04-04T12:23:42Z</time></trkpt><trkpt lat="48.3392886007622" lon="-4.022207989177737"><ele>177.0</ele><time>2026-04-04T12:23:44Z</time></trkpt><trkpt lat="48.33923010113439" lon="-4.022095471317619"><ele>177.0</ele><time>2026-04-04T12:23:46Z</time></trkpt><trkpt lat="48.33915213104503" lon="-4.022068166537458"><ele>177.0</ele><time>2026-04-04T12:23:48Z</time></trkpt><trkpt lat="48.3390859842116" lon="-4.022010594222192"><ele>177.0</ele><time>2026-04-04T12:23:50Z</time></trkpt><trkpt lat="48.33899186317331" lon="-4.02189218423843"><ele>177.0</ele><time>2026-04-04T12:23:52Z</time></trkpt><trkpt lat="48.338961340042566" lon="-4.021778143360498"><ele>176.2</ele><time>2026-04-04T12:23:53Z</time></trkpt><trkpt lat="48.33893620441442" lon="-4.021596742837826"><ele>175.39999999999998</ele><time>2026-04-04T12:23:54.999Z</time></trkpt><trkpt lat="48.33893435671956" lon="-4.021497199906745"><ele>174.60000000000002</ele><time>2026-04-04T12:23:55.999Z</time></trkpt><trkpt lat="48.338966385793" lon="-4.021313992271322"><ele>173.8</ele><time>2026-04-04T12:23:57.999Z</time></trkpt><trkpt lat="48.33898869093984" lon="-4.021221720533692"><ele>173.0</ele><time>2026-04-04T12:23:58.999Z</time></trkpt><trkpt lat="48.33900650132876" lon="-4.02103959818711"><ele>173.0</ele><time>2026-04-04T12:24:00.999Z</time></trkpt><trkpt lat="48.339001907616606" lon="-4.020924303483798"><ele>173.0</ele><time>2026-04-04T12:24:02.999Z</time></trkpt><trkpt lat="48.338941897772756" lon="-4.020851926024811"><ele>173.0</ele><time>2026-04-04T12:25:24Z</time></trkpt><trkpt lat="48.338853934663696" lon="-4.021000301448219"><ele>173.0</ele><time>2026-04-04T12:25:26Z</time></trkpt><trkpt lat="48.33880717177862" lon="-4.021101538270038"><ele>173.0</ele><time>2026-04-04T12:25:27Z</time></trkpt><trkpt lat="48.33874176508532" lon="-4.021216121379668"><ele>176.0</ele><time>2026-04-04T12:25:28Z</time></trkpt><trkpt lat="48.33866397172744" lon="-4.0213453870969"><ele>179.0</ele><time>2026-04-04T12:25:29Z</time></trkpt><trkpt lat="48.33858469533974" lon="-4.021502377641477"><ele>182.0</ele><time>2026-04-04T12:25:30Z</time></trkpt><trkpt lat="48.33849796134179" lon="-4.021665880217185"><ele>185.0</ele><time>2026-04-04T12:25:31Z</time></trkpt><trkpt lat="48.33843545528569" lon="-4.021795781996827"><ele>185.0</ele><time>2026-04-04T12:25:32Z</time></trkpt><trkpt lat="48.338377073034415" lon="-4.021882431520631"><ele>185.0</ele><time>2026-04-04T12:25:33Z</time></trkpt><trkpt lat="48.33831574891709" lon="-4.022050775151921"><ele>185.0</ele><time>2026-04-04T12:25:35Z</time></trkpt><trkpt lat="48.338340048431235" lon="-4.022142314920017"><ele>185.0</ele><time>2026-04-04T12:25:36Z</time></trkpt><trkpt lat="48.33844041562144" lon="-4.02226944647354"><ele>185.0</ele><time>2026-04-04T12:25:38Z</time></trkpt><trkpt lat="48.33849598601591" lon="-4.022314292059442"><ele>185.0</ele><time>2026-04-04T12:25:39Z</time></trkpt><trkpt lat="48.3385708036453" lon="-4.022379004157956"><ele>185.0</ele><time>2026-04-04T12:25:41Z</time></trkpt><trkpt lat="48.338533655245875" lon="-4.022472543561785"><ele>185.0</ele><time>2026-04-04T12:25:44Z</time></trkpt><trkpt lat="48.33845027210157" lon="-4.022442027476224"><ele>185.0</ele><time>2026-04-04T12:25:55Z</time></trkpt><trkpt lat="48.338323571438934" lon="-4.0223554991249815"><ele>185.0</ele><time>2026-04-04T12:25:57Z</time></trkpt><trkpt lat="48.33824645197184" lon="-4.022285100497754"><ele>185.0</ele><time>2026-04-04T12:25:57.999Z</time></trkpt><trkpt lat="48.33816086242478" lon="-4.022198452608778"><ele>185.0</ele><time>2026-04-04T12:25:58.999Z</time></trkpt><trkpt lat="48.338066783783816" lon="-4.022089579192588"><ele>185.0</ele><time>2026-04-04T12:25:59.999Z</time></trkpt><trkpt lat="48.33796599245755" lon="-4.0219742035443105"><ele>185.0</ele><time>2026-04-04T12:26:00.999Z</time></trkpt><trkpt lat="48.33786900273773" lon="-4.021863970456179"><ele>186.66666666666666</ele><time>2026-04-04T12:26:01.999Z</time></trkpt><trkpt lat="48.33778923283639" lon="-4.021785216302434"><ele>188.33333333333331</ele><time>2026-04-04T12:26:02.999Z</time></trkpt><trkpt lat="48.337717910625564" lon="-4.021729474627923"><ele>190.0</ele><time>2026-04-04T12:26:03.999Z</time></trkpt><trkpt lat="48.337648935892915" lon="-4.021697920998296"><ele>191.66666666666666</ele><time>2026-04-04T12:26:04.999Z</time></trkpt><trkpt lat="48.33757822568177" lon="-4.0216845012475835"><ele>193.33333333333334</ele><time>2026-04-04T12:26:05.999Z</time></trkpt><trkpt lat="48.33749747709432" lon="-4.021702957175193"><ele>195.0</ele><time>2026-04-04T12:26:06.999Z</time></trkpt><trkpt lat="48.337413030166424" lon="-4.021763726280778"><ele>195.0</ele><time>2026-04-04T12:26:07.999Z</time></trkpt><trkpt lat="48.33734862816871" lon="-4.021824754799617"><ele>195.0</ele><time>2026-04-04T12:26:08.999Z</time></trkpt><trkpt lat="48.337278179952754" lon="-4.021915489871108"><ele>195.0</ele><time>2026-04-04T12:26:09.999Z</time></trkpt><trkpt lat="48.33722435224872" lon="-4.022029482842854"><ele>195.0</ele><time>2026-04-04T12:26:10.999Z</time></trkpt><trkpt lat="48.33719591885329" lon="-4.022161932815308"><ele>195.0</ele><time>2026-04-04T12:26:11.999Z</time></trkpt><trkpt lat="48.337167207820706" lon="-4.022308018776243"><ele>195.6</ele><time>2026-04-04T12:26:12.999Z</time></trkpt><trkpt lat="48.33714209182249" lon="-4.022455187905117"><ele>196.2</ele><time>2026-04-04T12:26:13.999Z</time></trkpt><trkpt lat="48.337106340235984" lon="-4.02260185208088"><ele>196.8</ele><time>2026-04-04T12:26:14.999Z</time></trkpt><trkpt lat="48.3370797385229" lon="-4.0227580287919364"><ele>197.4</ele><time>2026-04-04T12:26:15.999Z</time></trkpt><trkpt lat="48.33705084364014" lon="-4.0229201920028475"><ele>198.0</ele><time>2026-04-04T12:26:16.999Z</time></trkpt><trkpt lat="48.33703000696068" lon="-4.023083295014079"><ele>199.0</ele><time>2026-04-04T12:26:17.999Z</time></trkpt><trkpt lat="48.3370005795044" lon="-4.023254629433882"><ele>200.0</ele><time>2026-04-04T12:26:18.999Z</time></trkpt><trkpt lat="48.3369689843687" lon="-4.023422987153721"><ele>201.0</ele><time>2026-04-04T12:26:19.999Z</time></trkpt><trkpt lat="48.33692534157384" lon="-4.023574683489374"><ele>202.0</ele><time>2026-04-04T12:26:20.999Z</time></trkpt><trkpt lat="48.33688925041335" lon="-4.023739192851467"><ele>202.5</ele><time>2026-04-04T12:26:21.999Z</time></trkpt><trkpt lat="48.336830239326524" lon="-4.023887562130081"><ele>203.0</ele><time>2026-04-04T12:26:22.999Z</time></trkpt><trkpt lat="48.33675532419785" lon="-4.024021420986614"><ele>203.5</ele><time>2026-04-04T12:26:23.999Z</time></trkpt><trkpt lat="48.33669781589574" lon="-4.024173924233958"><ele>204.0</ele><time>2026-04-04T12:26:24.999Z</time></trkpt><trkpt lat="48.33663610773745" lon="-4.024323374436283"><ele>204.5</ele><time>2026-04-04T12:26:25.999Z</time></trkpt><trkpt lat="48.336574968246396" lon="-4.0244652541414085"><ele>205.0</ele><time>2026-04-04T12:26:26.999Z</time></trkpt><trkpt lat="48.33651518587554" lon="-4.024611140566755"><ele>205.5</ele><time>2026-04-04T12:26:27.999Z</time></trkpt><trkpt lat="48.336453404757805" lon="-4.024755975355121"><ele>206.0</ele><time>2026-04-04T12:26:28.999Z</time></trkpt><trkpt lat="48.336393501744126" lon="-4.024898024645605"><ele>206.0</ele><time>2026-04-04T12:26:29.999Z</time></trkpt><trkpt lat="48.336330430713524" lon="-4.02504318603545"><ele>206.0</ele><time>2026-04-04T12:26:30.999Z</time></trkpt><trkpt lat="48.33626677091526" lon="-4.025195137087465"><ele>206.0</ele><time>2026-04-04T12:26:31.999Z</time></trkpt><trkpt lat="48.336200778909806" lon="-4.025346945902146"><ele>206.0</ele><time>2026-04-04T12:26:32.999Z</time></trkpt><trkpt lat="48.33613668909267" lon="-4.025502184614398"><ele>206.0</ele><time>2026-04-04T12:26:33.999Z</time></trkpt><trkpt lat="48.33607864005618" lon="-4.025666869518921"><ele>206.0</ele><time>2026-04-04T12:26:34.999Z</time></trkpt><trkpt lat="48.33604726287094" lon="-4.025836214696062"><ele>206.0</ele><time>2026-04-04T12:26:35.999Z</time></trkpt><trkpt lat="48.336043913901314" lon="-4.025994597169211"><ele>206.0</ele><time>2026-04-04T12:26:36.999Z</time></trkpt><trkpt lat="48.3360705130929" lon="-4.026153151916541"><ele>205.75</ele><time>2026-04-04T12:26:37.999Z</time></trkpt><trkpt lat="48.33612792751136" lon="-4.026310783922025"><ele>205.5</ele><time>2026-04-04T12:26:38.999Z</time></trkpt><trkpt lat="48.336205147998456" lon="-4.026466094458635"><ele>205.25</ele><time>2026-04-04T12:26:40Z</time></trkpt><trkpt lat="48.336285101240094" lon="-4.026622833666401"><ele>205.0</ele><time>2026-04-04T12:26:41Z</time></trkpt><trkpt lat="48.336365040393225" lon="-4.026788055049885"><ele>204.5</ele><time>2026-04-04T12:26:42Z</time></trkpt><trkpt lat="48.336447727624936" lon="-4.026957945925399"><ele>204.0</ele><time>2026-04-04T12:26:43Z</time></trkpt><trkpt lat="48.33652329938825" lon="-4.027138601072304"><ele>203.5</ele><time>2026-04-04T12:26:44Z</time></trkpt><trkpt lat="48.336588889285245" lon="-4.027321583971406"><ele>203.0</ele><time>2026-04-04T12:26:45Z</time></trkpt><trkpt lat="48.33664934743886" lon="-4.027515352721483"><ele>203.0</ele><time>2026-04-04T12:26:46Z</time></trkpt><trkpt lat="48.33672195546275" lon="-4.027705044864784"><ele>203.0</ele><time>2026-04-04T12:26:47Z</time></trkpt><trkpt lat="48.33681737997927" lon="-4.027878471158711"><ele>203.0</ele><time>2026-04-04T12:26:48Z</time></trkpt><trkpt lat="48.336933961985686" lon="-4.0280270432918055"><ele>203.0</ele><time>2026-04-04T12:26:49Z</time></trkpt><trkpt lat="48.337056069918816" lon="-4.028147236623554"><ele>203.0</ele><time>2026-04-04T12:26:50Z</time></trkpt><trkpt lat="48.337203918468965" lon="-4.028225230818872"><ele>203.0</ele><time>2026-04-04T12:26:51Z</time></trkpt><trkpt lat="48.33734096756565" lon="-4.028297527665273"><ele>203.0</ele><time>2026-04-04T12:26:52Z</time></trkpt><trkpt lat="48.33747695422567" lon="-4.028337871306304"><ele>203.0</ele><time>2026-04-04T12:26:53Z</time></trkpt><trkpt lat="48.33760682914971" lon="-4.028375631028373"><ele>204.25</ele><time>2026-04-04T12:26:54Z</time></trkpt><trkpt lat="48.33770534029476" lon="-4.028497298262099"><ele>205.5</ele><time>2026-04-04T12:26:55Z</time></trkpt><trkpt lat="48.33776346992114" lon="-4.028662279023412"><ele>206.75</ele><time>2026-04-04T12:26:56Z</time></trkpt><trkpt lat="48.3377942754453" lon="-4.028831640984779"><ele>208.0</ele><time>2026-04-04T12:26:57Z</time></trkpt><trkpt lat="48.33777531838638" lon="-4.029025215640398"><ele>209.5</ele><time>2026-04-04T12:26:58Z</time></trkpt><trkpt lat="48.337721359297966" lon="-4.029191857987739"><ele>211.0</ele><time>2026-04-04T12:26:59Z</time></trkpt><trkpt lat="48.33762725203772" lon="-4.02932224910195"><ele>212.5</ele><time>2026-04-04T12:27:00Z</time></trkpt><trkpt lat="48.33751457608065" lon="-4.029415263131258"><ele>214.0</ele><time>2026-04-04T12:27:01Z</time></trkpt><trkpt lat="48.33738868546824" lon="-4.029464004091731"><ele>214.0</ele><time>2026-04-04T12:27:02Z</time></trkpt><trkpt lat="48.33725452977532" lon="-4.029476263235401"><ele>214.0</ele><time>2026-04-04T12:27:03Z</time></trkpt><trkpt lat="48.337120180887794" lon="-4.029467965107435"><ele>214.0</ele><time>2026-04-04T12:27:04Z</time></trkpt><trkpt lat="48.336983946628315" lon="-4.029453855422829"><ele>214.0</ele><time>2026-04-04T12:27:05Z</time></trkpt><trkpt lat="48.33684358621361" lon="-4.029436975154257"><ele>212.5</ele><time>2026-04-04T12:27:06Z</time></trkpt><trkpt lat="48.33669912607423" lon="-4.029418027841333"><ele>211.0</ele><time>2026-04-04T12:27:07Z</time></trkpt><trkpt lat="48.33655653056719" lon="-4.0293993250932045"><ele>209.5</ele><time>2026-04-04T12:27:08Z</time></trkpt><trkpt lat="48.336413077660644" lon="-4.02935563306511"><ele>208.0</ele><time>2026-04-04T12:27:09Z</time></trkpt><trkpt lat="48.336268773018126" lon="-4.029349920725902"><ele>207.5</ele><time>2026-04-04T12:27:10Z</time></trkpt><trkpt lat="48.33611644012016" lon="-4.029362289805981"><ele>207.0</ele><time>2026-04-04T12:27:11Z</time></trkpt><trkpt lat="48.33596978903001" lon="-4.0294086730998675"><ele>206.5</ele><time>2026-04-04T12:27:12Z</time></trkpt><trkpt lat="48.335832195091406" lon="-4.029473870251189"><ele>206.0</ele><time>2026-04-04T12:27:13Z</time></trkpt><trkpt lat="48.33569723836824" lon="-4.029580586486637"><ele>206.0</ele><time>2026-04-04T12:27:14Z</time></trkpt><trkpt lat="48.33556692306881" lon="-4.02967596863337"><ele>206.0</ele><time>2026-04-04T12:27:15Z</time></trkpt><trkpt lat="48.33544424332487" lon="-4.0297873727051226"><ele>206.0</ele><time>2026-04-04T12:27:16Z</time></trkpt><trkpt lat="48.33532847993975" lon="-4.029925704271432"><ele>206.0</ele><time>2026-04-04T12:27:17Z</time></trkpt><trkpt lat="48.33521678123985" lon="-4.030062953056441"><ele>210.25</ele><time>2026-04-04T12:27:18Z</time></trkpt><trkpt lat="48.33510339571363" lon="-4.0302040018712155"><ele>214.5</ele><time>2026-04-04T12:27:19Z</time></trkpt><trkpt lat="48.33499180056347" lon="-4.030343120208933"><ele>218.75</ele><time>2026-04-04T12:27:20Z</time></trkpt><trkpt lat="48.334880526694484" lon="-4.030481687378581"><ele>223.0</ele><time>2026-04-04T12:27:21Z</time></trkpt><trkpt lat="48.334773325713506" lon="-4.030622733983654"><ele>222.5</ele><time>2026-04-04T12:27:22Z</time></trkpt><trkpt lat="48.33469671624932" lon="-4.030751620176534"><ele>222.0</ele><time>2026-04-04T12:27:23Z</time></trkpt><trkpt lat="48.33463723657631" lon="-4.030898241231827"><ele>221.5</ele><time>2026-04-04T12:27:24Z</time></trkpt><trkpt lat="48.334570594698" lon="-4.031051403115065"><ele>221.0</ele><time>2026-04-04T12:27:25Z</time></trkpt><trkpt lat="48.33452559689476" lon="-4.03119905043484"><ele>221.0</ele><time>2026-04-04T12:27:26Z</time></trkpt><trkpt lat="48.33449773533397" lon="-4.031341513806184"><ele>221.00000000000003</ele><time>2026-04-04T12:27:27Z</time></trkpt><trkpt lat="48.334440155709515" lon="-4.031462513518032"><ele>221.00000000000003</ele><time>2026-04-04T12:27:28Z</time></trkpt><trkpt lat="48.334357280614526" lon="-4.031548596599504"><ele>221.0</ele><time>2026-04-04T12:27:29Z</time></trkpt><trkpt lat="48.33426222670381" lon="-4.031588476037594"><ele>221.0</ele><time>2026-04-04T12:27:30Z</time></trkpt><trkpt lat="48.33417965657879" lon="-4.031592975304484"><ele>221.0</ele><time>2026-04-04T12:27:31Z</time></trkpt><trkpt lat="48.334099611511796" lon="-4.031551267875349"><ele>221.0</ele><time>2026-04-04T12:27:32Z</time></trkpt><trkpt lat="48.33399517959708" lon="-4.031539986148234"><ele>221.0</ele><time>2026-04-04T12:27:33Z</time></trkpt><trkpt lat="48.33386649045372" lon="-4.031470293070116"><ele>221.0</ele><time>2026-04-04T12:27:34Z</time></trkpt><trkpt lat="48.33372184876455" lon="-4.031424380523068"><ele>220.33333333333334</ele><time>2026-04-04T12:27:35Z</time></trkpt><trkpt lat="48.33355516792334" lon="-4.0313718947270685"><ele>219.66666666666669</ele><time>2026-04-04T12:27:36Z</time></trkpt><trkpt lat="48.33338118556604" lon="-4.031302092891991"><ele>219.0</ele><time>2026-04-04T12:27:37Z</time></trkpt><trkpt lat="48.33321818646163" lon="-4.031184255420033"><ele>219.0</ele><time>2026-04-04T12:27:38Z</time></trkpt><trkpt lat="48.3330561590464" lon="-4.031012401745322"><ele>219.0</ele><time>2026-04-04T12:27:39Z</time></trkpt><trkpt lat="48.33289920890335" lon="-4.030833237211183"><ele>219.0</ele><time>2026-04-04T12:27:40Z</time></trkpt><trkpt lat="48.33272062366055" lon="-4.030672852951717"><ele>219.0</ele><time>2026-04-04T12:27:41Z</time></trkpt><trkpt lat="48.33257266262672" lon="-4.030525574550804"><ele>219.0</ele><time>2026-04-04T12:27:42Z</time></trkpt><trkpt lat="48.332424596495535" lon="-4.030486655187301"><ele>219.0</ele><time>2026-04-04T12:27:43Z</time></trkpt><trkpt lat="48.332290821404314" lon="-4.03048966636792"><ele>220.0</ele><time>2026-04-04T12:27:44Z</time></trkpt><trkpt lat="48.33213408043919" lon="-4.030498869518477"><ele>221.0</ele><time>2026-04-04T12:27:45Z</time></trkpt><trkpt lat="48.33198576478728" lon="-4.0305142671609415"><ele>222.0</ele><time>2026-04-04T12:27:46Z</time></trkpt><trkpt lat="48.33184159082334" lon="-4.030541153219136"><ele>222.0</ele><time>2026-04-04T12:27:47Z</time></trkpt><trkpt lat="48.33171842696511" lon="-4.030621194035726"><ele>222.0</ele><time>2026-04-04T12:27:48Z</time></trkpt><trkpt lat="48.33160838012635" lon="-4.03073737408669"><ele>222.0</ele><time>2026-04-04T12:27:49Z</time></trkpt><trkpt lat="48.33149925484241" lon="-4.030875546752654"><ele>222.0</ele><time>2026-04-04T12:27:50Z</time></trkpt><trkpt lat="48.3313952829662" lon="-4.031014720002947"><ele>224.75</ele><time>2026-04-04T12:27:51Z</time></trkpt><trkpt lat="48.33127336517314" lon="-4.031120001298648"><ele>227.5</ele><time>2026-04-04T12:27:52Z</time></trkpt><trkpt lat="48.33117369600174" lon="-4.031263850705177"><ele>230.25</ele><time>2026-04-04T12:27:52.999Z</time></trkpt><trkpt lat="48.33106911641397" lon="-4.031393907780383"><ele>233.0</ele><time>2026-04-04T12:27:53.999Z</time></trkpt><trkpt lat="48.33097047123908" lon="-4.031530634110825"><ele>234.0</ele><time>2026-04-04T12:27:54.999Z</time></trkpt><trkpt lat="48.33088304637506" lon="-4.031645614117488"><ele>235.0</ele><time>2026-04-04T12:27:55.999Z</time></trkpt><trkpt lat="48.33080798616715" lon="-4.031747684482956"><ele>236.0</ele><time>2026-04-04T12:27:56.999Z</time></trkpt><trkpt lat="48.33073544339362" lon="-4.031850537783858"><ele>237.0</ele><time>2026-04-04T12:27:57.999Z</time></trkpt><trkpt lat="48.33067330003153" lon="-4.031971681673047"><ele>238.0</ele><time>2026-04-04T12:27:58.999Z</time></trkpt><trkpt lat="48.330606148992565" lon="-4.03206065877307"><ele>238.4</ele><time>2026-04-04T12:27:59.999Z</time></trkpt><trkpt lat="48.33054332043418" lon="-4.0321440152714985"><ele>238.8</ele><time>2026-04-04T12:28:00.999Z</time></trkpt><trkpt lat="48.33049190480888" lon="-4.032212229733726"><ele>239.2</ele><time>2026-04-04T12:28:01.999Z</time></trkpt><trkpt lat="48.3304157234967" lon="-4.0322836998272"><ele>239.6</ele><time>2026-04-04T12:28:03.999Z</time></trkpt><trkpt lat="48.3303645073789" lon="-4.032362788972233"><ele>240.0</ele><time>2026-04-04T12:28:05.999Z</time></trkpt><trkpt lat="48.33005782102504" lon="-4.031964791365398"><ele>240.0</ele><time>2026-04-04T12:28:06.999Z</time></trkpt><trkpt lat="48.32995697096085" lon="-4.031905681181615"><ele>240.0</ele><time>2026-04-04T12:28:07.999Z</time></trkpt><trkpt lat="48.329877708441046" lon="-4.031836882663832"><ele>240.0</ele><time>2026-04-04T12:28:08.999Z</time></trkpt><trkpt lat="48.329795609510185" lon="-4.031761032493258"><ele>240.0</ele><time>2026-04-04T12:28:09.999Z</time></trkpt><trkpt lat="48.329724721563394" lon="-4.0316951069039035"><ele>240.0</ele><time>2026-04-04T12:28:10.999Z</time></trkpt><trkpt lat="48.329657521652024" lon="-4.03163737058881"><ele>240.0</ele><time>2026-04-04T12:28:11.999Z</time></trkpt><trkpt lat="48.32956171697626" lon="-4.031568968132381"><ele>240.0</ele><time>2026-04-04T12:28:13.999Z</time></trkpt><trkpt lat="48.32944275499817" lon="-4.031459804411432"><ele>240.0</ele><time>2026-04-04T12:28:14.999Z</time></trkpt><trkpt lat="48.32938054454754" lon="-4.0314136330124875"><ele>240.0</ele><time>2026-04-04T12:28:15.999Z</time></trkpt><trkpt lat="48.32929365125388" lon="-4.031296069400553"><ele>240.0</ele><time>2026-04-04T12:28:17.999Z</time></trkpt><trkpt lat="48.32926088273097" lon="-4.031182579935275"><ele>240.0</ele><time>2026-04-04T12:28:19.999Z</time></trkpt><trkpt lat="48.329212036030725" lon="-4.031099509180172"><ele>240.0</ele><time>2026-04-04T12:28:23.999Z</time></trkpt><trkpt lat="48.32917903655846" lon="-4.031017147334952"><ele>240.0</ele><time>2026-04-04T12:28:35.999Z</time></trkpt><trkpt lat="48.329217987410075" lon="-4.03091792257986"><ele>240.0</ele><time>2026-04-04T12:28:49Z</time></trkpt><trkpt lat="48.32928566789391" lon="-4.030850997672876"><ele>240.0</ele><time>2026-04-04T12:28:50Z</time></trkpt><trkpt lat="48.32935797668382" lon="-4.030805511320631"><ele>240.0</ele><time>2026-04-04T12:28:51Z</time></trkpt><trkpt lat="48.32944758085237" lon="-4.030719135303111"><ele>240.2</ele><time>2026-04-04T12:28:53Z</time></trkpt><trkpt lat="48.32952143166894" lon="-4.030700576165838"><ele>240.4</ele><time>2026-04-04T12:28:55Z</time></trkpt><trkpt lat="48.3296155583048" lon="-4.030624267727248"><ele>240.60000000000002</ele><time>2026-04-04T12:28:57Z</time></trkpt><trkpt lat="48.32970786554503" lon="-4.030544606840263"><ele>240.8</ele><time>2026-04-04T12:28:59Z</time></trkpt><trkpt lat="48.32978725782447" lon="-4.0305097007503425"><ele>241.0</ele><time>2026-04-04T12:29:02Z</time></trkpt><trkpt lat="48.329864028338264" lon="-4.030480115849562"><ele>239.4</ele><time>2026-04-04T12:29:22Z</time></trkpt><trkpt lat="48.32997548206807" lon="-4.030461739659161"><ele>237.8</ele><time>2026-04-04T12:29:24Z</time></trkpt><trkpt lat="48.330099140050464" lon="-4.030427697742852"><ele>236.20000000000002</ele><time>2026-04-04T12:29:26Z</time></trkpt><trkpt lat="48.330165788555504" lon="-4.030383467893595"><ele>234.60000000000002</ele><time>2026-04-04T12:29:27Z</time></trkpt><trkpt lat="48.330234107629614" lon="-4.030264505876065"><ele>233.0</ele><time>2026-04-04T12:29:29Z</time></trkpt><trkpt lat="48.330304479085235" lon="-4.03018618559765"><ele>233.0</ele><time>2026-04-04T12:29:33Z</time></trkpt><trkpt lat="48.33034635322038" lon="-4.030029220784855"><ele>233.0</ele><time>2026-04-04T12:29:35Z</time></trkpt><trkpt lat="48.33038437440765" lon="-4.029938439903493"><ele>233.0</ele><time>2026-04-04T12:29:36Z</time></trkpt><trkpt lat="48.33042160646431" lon="-4.029839249113371"><ele>233.0</ele><time>2026-04-04T12:29:37Z</time></trkpt><trkpt lat="48.3304814683108" lon="-4.029704353904005"><ele>233.0</ele><time>2026-04-04T12:29:39Z</time></trkpt><trkpt lat="48.33055761495984" lon="-4.029607707473915"><ele>230.50000000000003</ele><time>2026-04-04T12:29:41Z</time></trkpt><trkpt lat="48.330630540680744" lon="-4.02946146761619"><ele>228.0</ele><time>2026-04-04T12:29:43Z</time></trkpt><trkpt lat="48.330689641380694" lon="-4.02935899010453"><ele>225.5</ele><time>2026-04-04T12:29:44Z</time></trkpt><trkpt lat="48.33074693981033" lon="-4.0293066376481095"><ele>223.0</ele><time>2026-04-04T12:29:45Z</time></trkpt><trkpt lat="48.33081341745188" lon="-4.029269838876948"><ele>220.50000000000003</ele><time>2026-04-04T12:29:46Z</time></trkpt><trkpt lat="48.33088732050728" lon="-4.0292217144052564"><ele>218.0</ele><time>2026-04-04T12:29:47Z</time></trkpt><trkpt lat="48.330949096793226" lon="-4.029188461576597"><ele>217.2</ele><time>2026-04-04T12:29:48Z</time></trkpt><trkpt lat="48.33104848483011" lon="-4.029140537055049"><ele>216.4</ele><time>2026-04-04T12:29:50Z</time></trkpt><trkpt lat="48.331125232174145" lon="-4.029047089104072"><ele>215.59999999999997</ele><time>2026-04-04T12:29:52Z</time></trkpt><trkpt lat="48.331192760099356" lon="-4.028949527203325"><ele>214.79999999999998</ele><time>2026-04-04T12:29:53.999Z</time></trkpt><trkpt lat="48.331265830072205" lon="-4.028802697881662"><ele>214.0</ele><time>2026-04-04T12:29:55.999Z</time></trkpt><trkpt lat="48.33134452765974" lon="-4.028702545138698"><ele>212.0</ele><time>2026-04-04T12:29:57.999Z</time></trkpt><trkpt lat="48.33143822573047" lon="-4.028601285484637"><ele>209.99999999999997</ele><time>2026-04-04T12:29:59.999Z</time></trkpt><trkpt lat="48.33152193750364" lon="-4.028508826666258"><ele>208.0</ele><time>2026-04-04T12:30:01.999Z</time></trkpt><trkpt lat="48.33160397291468" lon="-4.028416115596248"><ele>206.0</ele><time>2026-04-04T12:30:03.999Z</time></trkpt><trkpt lat="48.33170524181326" lon="-4.028351250067591"><ele>204.0</ele><time>2026-04-04T12:30:05.999Z</time></trkpt><trkpt lat="48.33176747449299" lon="-4.028287207928255"><ele>203.16666666666666</ele><time>2026-04-04T12:30:07.999Z</time></trkpt><trkpt lat="48.33182088896369" lon="-4.028216781874354"><ele>202.33333333333331</ele><time>2026-04-04T12:30:09.999Z</time></trkpt><trkpt lat="48.3318861984265" lon="-4.028145942270185"><ele>201.5</ele><time>2026-04-04T12:30:11.999Z</time></trkpt><trkpt lat="48.331976338863406" lon="-4.028103284293194"><ele>200.66666666666666</ele><time>2026-04-04T12:30:13.999Z</time></trkpt><trkpt lat="48.33205436454387" lon="-4.02808296258183"><ele>199.83333333333331</ele><time>2026-04-04T12:30:15.999Z</time></trkpt><trkpt lat="48.33211535056667" lon="-4.028055715452846"><ele>199.0</ele><time>2026-04-04T12:30:16.999Z</time></trkpt><trkpt lat="48.33221664412151" lon="-4.02801744493977"><ele>199.16666666666666</ele><time>2026-04-04T12:30:18.999Z</time></trkpt><trkpt lat="48.332324752673195" lon="-4.028071958880739"><ele>199.33333333333331</ele><time>2026-04-04T12:30:20.999Z</time></trkpt><trkpt lat="48.33239347371099" lon="-4.028083619219284"><ele>199.5</ele><time>2026-04-04T12:30:21.999Z</time></trkpt><trkpt lat="48.332456462758564" lon="-4.028102424143988"><ele>199.66666666666669</ele><time>2026-04-04T12:30:22.999Z</time></trkpt><trkpt lat="48.33254164601458" lon="-4.02813086510942"><ele>199.83333333333334</ele><time>2026-04-04T12:30:24.999Z</time></trkpt><trkpt lat="48.33258689893573" lon="-4.027991165036925"><ele>200.0</ele><time>2026-04-04T12:30:27.999Z</time></trkpt><trkpt lat="48.33263300709711" lon="-4.0278994165916995"><ele>200.0</ele><time>2026-04-04T12:30:29.999Z</time></trkpt><trkpt lat="48.33269204350347" lon="-4.027749045542046"><ele>200.0</ele><time>2026-04-04T12:30:31.999Z</time></trkpt><trkpt lat="48.332771257807984" lon="-4.027684384096209"><ele>200.0</ele><time>2026-04-04T12:30:33.999Z</time></trkpt><trkpt lat="48.332821753120385" lon="-4.027607326536534"><ele>200.0</ele><time>2026-04-04T12:30:35.999Z</time></trkpt><trkpt lat="48.33289631114943" lon="-4.027527971723874"><ele>200.0</ele><time>2026-04-04T12:30:37.999Z</time></trkpt><trkpt lat="48.3329684952518" lon="-4.027408418813904"><ele>199.50000000000003</ele><time>2026-04-04T12:30:39.999Z</time></trkpt><trkpt lat="48.333020933990134" lon="-4.027283135137591"><ele>199.0</ele><time>2026-04-04T12:30:41.999Z</time></trkpt><trkpt lat="48.33307638293198" lon="-4.027182595387541"><ele>198.5</ele><time>2026-04-04T12:30:43.999Z</time></trkpt><trkpt lat="48.333124320107984" lon="-4.027081464195139"><ele>198.0</ele><time>2026-04-04T12:31:11Z</time></trkpt><trkpt lat="48.33318586602444" lon="-4.02703467775676"><ele>197.50000000000003</ele><time>2026-04-04T12:31:13Z</time></trkpt><trkpt lat="48.33326814414598" lon="-4.026942347900783"><ele>197.0</ele><time>2026-04-04T12:31:15Z</time></trkpt><trkpt lat="48.33332274108316" lon="-4.026871455741083"><ele>197.00000000000003</ele><time>2026-04-04T12:31:16Z</time></trkpt><trkpt lat="48.333383422886584" lon="-4.026808220391105"><ele>197.0</ele><time>2026-04-04T12:31:17Z</time></trkpt><trkpt lat="48.33345790503251" lon="-4.026754768538273"><ele>197.0</ele><time>2026-04-04T12:31:19Z</time></trkpt><trkpt lat="48.33347534262914" lon="-4.026627020555944"><ele>197.0</ele><time>2026-04-04T12:31:22Z</time></trkpt><trkpt lat="48.33348359373189" lon="-4.026493832179884"><ele>197.00000000000003</ele><time>2026-04-04T12:31:26Z</time></trkpt><trkpt lat="48.33343821176285" lon="-4.0264057220012095"><ele>197.0</ele><time>2026-04-04T12:31:36Z</time></trkpt><trkpt lat="48.33344826789349" lon="-4.0262793660583265"><ele>196.0</ele><time>2026-04-04T12:31:40Z</time></trkpt><trkpt lat="48.333492586612664" lon="-4.026168599398208"><ele>195.0</ele><time>2026-04-04T12:31:45Z</time></trkpt><trkpt lat="48.33355428081869" lon="-4.02610221491798"><ele>194.0</ele><time>2026-04-04T12:31:48Z</time></trkpt><trkpt lat="48.333577326745655" lon="-4.02599970317457"><ele>193.0</ele><time>2026-04-04T12:31:51Z</time></trkpt><trkpt lat="48.33357287061997" lon="-4.025899755197646"><ele>192.0</ele><time>2026-04-04T12:31:53.999Z</time></trkpt><trkpt lat="48.333625969875825" lon="-4.025828293386245"><ele>191.0</ele><time>2026-04-04T12:31:57.999Z</time></trkpt><trkpt lat="48.333667973169895" lon="-4.0257575626786295"><ele>190.0</ele><time>2026-04-04T12:32:00.999Z</time></trkpt><trkpt lat="48.333685060553336" lon="-4.0256520250474495"><ele>188.16666666666669</ele><time>2026-04-04T12:32:04.999Z</time></trkpt><trkpt lat="48.33368287965578" lon="-4.025554208074595"><ele>186.33333333333334</ele><time>2026-04-04T12:32:18.999Z</time></trkpt><trkpt lat="48.333597870160766" lon="-4.0254818152247775"><ele>184.5</ele><time>2026-04-04T12:32:43.999Z</time></trkpt><trkpt lat="48.33351460094448" lon="-4.02539443530413"><ele>182.66666666666666</ele><time>2026-04-04T12:32:59Z</time></trkpt><trkpt lat="48.3334546138068" lon="-4.025358452814499"><ele>180.83333333333331</ele><time>2026-04-04T12:33:00Z</time></trkpt><trkpt lat="48.33339811309569" lon="-4.025294598361721"><ele>179.0</ele><time>2026-04-04T12:33:01Z</time></trkpt><trkpt lat="48.333339126085484" lon="-4.025232237976853"><ele>179.0</ele><time>2026-04-04T12:33:03Z</time></trkpt><trkpt lat="48.33324934988657" lon="-4.025187763455951"><ele>179.0</ele><time>2026-04-04T12:33:05Z</time></trkpt><trkpt lat="48.333176437201246" lon="-4.025165889485389"><ele>179.0</ele><time>2026-04-04T12:33:06Z</time></trkpt><trkpt lat="48.333066274033946" lon="-4.025131874404036"><ele>179.0</ele><time>2026-04-04T12:33:08Z</time></trkpt><trkpt lat="48.332968595381914" lon="-4.025114596443033"><ele>179.0</ele><time>2026-04-04T12:33:10Z</time></trkpt><trkpt lat="48.33287494460025" lon="-4.025126985460771"><ele>179.00000000000003</ele><time>2026-04-04T12:33:12Z</time></trkpt><trkpt lat="48.33281385621455" lon="-4.025093322826543"><ele>179.0</ele><time>2026-04-04T12:33:13Z</time></trkpt><trkpt lat="48.33275038867047" lon="-4.025090249400221"><ele>179.0</ele><time>2026-04-04T12:33:14Z</time></trkpt><trkpt lat="48.33265909178336" lon="-4.025047925339276"><ele>179.0</ele><time>2026-04-04T12:33:16Z</time></trkpt><trkpt lat="48.33258143833041" lon="-4.025035464045664"><ele>179.0</ele><time>2026-04-04T12:33:51Z</time></trkpt><trkpt lat="48.33252170670087" lon="-4.025002615252397"><ele>179.00000000000003</ele><time>2026-04-04T12:33:53Z</time></trkpt><trkpt lat="48.33245839233464" lon="-4.02497968178207"><ele>179.0</ele><time>2026-04-04T12:34:07.999Z</time></trkpt><trkpt lat="48.33252863046921" lon="-4.024939755407827"><ele>178.0</ele><time>2026-04-04T12:34:14.999Z</time></trkpt><trkpt lat="48.332544596845395" lon="-4.024843433743612"><ele>177.0</ele><time>2026-04-04T12:34:25.999Z</time></trkpt><trkpt lat="48.332500924895434" lon="-4.0247584845289595"><ele>176.0</ele><time>2026-04-04T12:34:30.999Z</time></trkpt><trkpt lat="48.33243742046886" lon="-4.024744059801434"><ele>175.0</ele><time>2026-04-04T12:34:38.999Z</time></trkpt><trkpt lat="48.33236645981363" lon="-4.024691384444506"><ele>174.0</ele><time>2026-04-04T12:34:41.999Z</time></trkpt><trkpt lat="48.3324318586831" lon="-4.024694132107345"><ele>173.0</ele><time>2026-04-04T12:35:23Z</time></trkpt><trkpt lat="48.332557095337066" lon="-4.02469540541467"><ele>173.0</ele><time>2026-04-04T12:35:25Z</time></trkpt><trkpt lat="48.3326274919399" lon="-4.0247015008140625"><ele>173.0</ele><time>2026-04-04T12:35:26Z</time></trkpt><trkpt lat="48.332706437325015" lon="-4.02474045543436"><ele>173.0</ele><time>2026-04-04T12:35:27Z</time></trkpt><trkpt lat="48.332837442599235" lon="-4.024800871973619"><ele>173.0</ele><time>2026-04-04T12:35:29Z</time></trkpt><trkpt lat="48.33289971485743" lon="-4.0248189794579865"><ele>173.0</ele><time>2026-04-04T12:35:30Z</time></trkpt><trkpt lat="48.333014201772826" lon="-4.024804008721595"><ele>175.0</ele><time>2026-04-04T12:35:32Z</time></trkpt><trkpt lat="48.33308202634649" lon="-4.024809355512464"><ele>177.0</ele><time>2026-04-04T12:35:33Z</time></trkpt><trkpt lat="48.33316560735943" lon="-4.024839079728008"><ele>179.0</ele><time>2026-04-04T12:35:34Z</time></trkpt><trkpt lat="48.33325398820255" lon="-4.024860903213365"><ele>181.0</ele><time>2026-04-04T12:35:35Z</time></trkpt><trkpt lat="48.33335911913245" lon="-4.024882703891558"><ele>183.0</ele><time>2026-04-04T12:35:36Z</time></trkpt><trkpt lat="48.33343215171329" lon="-4.024921696705099"><ele>185.0</ele><time>2026-04-04T12:35:37Z</time></trkpt><trkpt lat="48.33350551273235" lon="-4.024970245795667"><ele>185.66666666666666</ele><time>2026-04-04T12:35:38Z</time></trkpt><trkpt lat="48.333590179035426" lon="-4.025048234146983"><ele>186.33333333333331</ele><time>2026-04-04T12:35:39Z</time></trkpt><trkpt lat="48.33367143639755" lon="-4.025145158238096"><ele>187.0</ele><time>2026-04-04T12:35:40Z</time></trkpt><trkpt lat="48.3337377546454" lon="-4.025224617164723"><ele>187.66666666666666</ele><time>2026-04-04T12:35:41Z</time></trkpt><trkpt lat="48.33379866447906" lon="-4.025313607583121"><ele>188.33333333333334</ele><time>2026-04-04T12:35:42Z</time></trkpt><trkpt lat="48.333842971622936" lon="-4.02538115556204"><ele>189.0</ele><time>2026-04-04T12:35:43Z</time></trkpt><trkpt lat="48.333889058102336" lon="-4.02545658087316"><ele>189.0</ele><time>2026-04-04T12:35:44Z</time></trkpt><trkpt lat="48.333953266912104" lon="-4.025513626524395"><ele>189.0</ele><time>2026-04-04T12:35:45Z</time></trkpt><trkpt lat="48.33402124163729" lon="-4.0255718554008775"><ele>189.0</ele><time>2026-04-04T12:35:46Z</time></trkpt><trkpt lat="48.33409720617098" lon="-4.025618678007789"><ele>189.0</ele><time>2026-04-04T12:35:47Z</time></trkpt><trkpt lat="48.33417831007067" lon="-4.025650918702084"><ele>189.0</ele><time>2026-04-04T12:35:48Z</time></trkpt><trkpt lat="48.33424999787465" lon="-4.02566145196706"><ele>189.0</ele><time>2026-04-04T12:35:49Z</time></trkpt><trkpt lat="48.33431608322159" lon="-4.025677820982682"><ele>189.0</ele><time>2026-04-04T12:35:50Z</time></trkpt><trkpt lat="48.33436943020254" lon="-4.025747669671488"><ele>189.0</ele><time>2026-04-04T12:35:51Z</time></trkpt><trkpt lat="48.334448560948765" lon="-4.025789513273512"><ele>189.0</ele><time>2026-04-04T12:35:53Z</time></trkpt><trkpt lat="48.334476726142775" lon="-4.025699784322111"><ele>189.0</ele><time>2026-04-04T12:35:55Z</time></trkpt><trkpt lat="48.334418587188644" lon="-4.025596222250601"><ele>189.0</ele><time>2026-04-04T12:35:57Z</time></trkpt><trkpt lat="48.33437146891123" lon="-4.025517702649285"><ele>189.0</ele><time>2026-04-04T12:35:58Z</time></trkpt><trkpt lat="48.33432638301545" lon="-4.025435770235023"><ele>189.0</ele><time>2026-04-04T12:35:59Z</time></trkpt><trkpt lat="48.334272518359974" lon="-4.025330944545432"><ele>189.0</ele><time>2026-04-04T12:35:59.999Z</time></trkpt><trkpt lat="48.334226755397125" lon="-4.025200453728506"><ele>189.0</ele><time>2026-04-04T12:36:00.999Z</time></trkpt><trkpt lat="48.334176210126664" lon="-4.025044427845983"><ele>189.0</ele><time>2026-04-04T12:36:01.999Z</time></trkpt><trkpt lat="48.334127178298914" lon="-4.02488363241938"><ele>189.0</ele><time>2026-04-04T12:36:02.999Z</time></trkpt><trkpt lat="48.3340783470707" lon="-4.02475297084065"><ele>188.2</ele><time>2026-04-04T12:36:03.999Z</time></trkpt><trkpt lat="48.334042563607646" lon="-4.0246365021991"><ele>187.39999999999998</ele><time>2026-04-04T12:36:04.999Z</time></trkpt><trkpt lat="48.33399836611712" lon="-4.024512711625942"><ele>186.6</ele><time>2026-04-04T12:36:06.999Z</time></trkpt><trkpt lat="48.33391857947704" lon="-4.024566440968853"><ele>185.8</ele><time>2026-04-04T12:36:08.999Z</time></trkpt><trkpt lat="48.33379763760607" lon="-4.024565787015912"><ele>185.0</ele><time>2026-04-04T12:36:10.999Z</time></trkpt><trkpt lat="48.33373111225633" lon="-4.024511700031492"><ele>185.0</ele><time>2026-04-04T12:36:11.999Z</time></trkpt><trkpt lat="48.33364943301932" lon="-4.024452134777409"><ele>185.0</ele><time>2026-04-04T12:36:12.999Z</time></trkpt><trkpt lat="48.33357171613694" lon="-4.024363680719536"><ele>185.0</ele><time>2026-04-04T12:36:13.999Z</time></trkpt><trkpt lat="48.33350423093415" lon="-4.0242772229996575"><ele>185.0</ele><time>2026-04-04T12:36:14.999Z</time></trkpt><trkpt lat="48.333364239924684" lon="-4.024238379235953"><ele>185.0</ele><time>2026-04-04T12:36:16.999Z</time></trkpt><trkpt lat="48.333236117037856" lon="-4.024215452885475"><ele>185.0</ele><time>2026-04-04T12:36:17.999Z</time></trkpt><trkpt lat="48.333094573234774" lon="-4.0241893293791176"><ele>185.0</ele><time>2026-04-04T12:36:18.999Z</time></trkpt><trkpt lat="48.332968341773665" lon="-4.024169245835533"><ele>185.0</ele><time>2026-04-04T12:36:19.999Z</time></trkpt><trkpt lat="48.33286821054827" lon="-4.0241438656775115"><ele>185.0</ele><time>2026-04-04T12:36:20.999Z</time></trkpt><trkpt lat="48.33278778412922" lon="-4.024111051557831"><ele>183.5</ele><time>2026-04-04T12:36:21.999Z</time></trkpt><trkpt lat="48.33271018474252" lon="-4.02407752290239"><ele>182.0</ele><time>2026-04-04T12:36:22.999Z</time></trkpt><trkpt lat="48.33265416311549" lon="-4.0240214208573635"><ele>180.5</ele><time>2026-04-04T12:36:23.999Z</time></trkpt><trkpt lat="48.332594223843756" lon="-4.023859755505808"><ele>179.0</ele><time>2026-04-04T12:36:25.999Z</time></trkpt><trkpt lat="48.33257769936064" lon="-4.0237587290615915"><ele>177.5</ele><time>2026-04-04T12:36:26.999Z</time></trkpt><trkpt lat="48.33256162700165" lon="-4.023638687910282"><ele>176.0</ele><time>2026-04-04T12:36:27.999Z</time></trkpt><trkpt lat="48.33255305419768" lon="-4.023512228603057"><ele>176.0</ele><time>2026-04-04T12:36:28.999Z</time></trkpt><trkpt lat="48.33255969724629" lon="-4.023387686557004"><ele>176.0</ele><time>2026-04-04T12:36:29.999Z</time></trkpt><trkpt lat="48.33258307887447" lon="-4.023251234415173"><ele>176.0</ele><time>2026-04-04T12:36:30.999Z</time></trkpt><trkpt lat="48.332614253182506" lon="-4.023116255566257"><ele>176.0</ele><time>2026-04-04T12:36:31.999Z</time></trkpt><trkpt lat="48.332671997799224" lon="-4.022963803133158"><ele>176.0</ele><time>2026-04-04T12:36:32.999Z</time></trkpt><trkpt lat="48.33272947900555" lon="-4.022847128981162"><ele>177.20000000000002</ele><time>2026-04-04T12:36:33.999Z</time></trkpt><trkpt lat="48.33279027141612" lon="-4.02276209379321"><ele>178.4</ele><time>2026-04-04T12:36:34.999Z</time></trkpt><trkpt lat="48.3328498475113" lon="-4.022717476373191"><ele>179.6</ele><time>2026-04-04T12:36:35.999Z</time></trkpt><trkpt lat="48.33299061512622" lon="-4.022689099024188"><ele>180.8</ele><time>2026-04-04T12:36:37.999Z</time></trkpt><trkpt lat="48.333069801752636" lon="-4.022690950364129"><ele>182.0</ele><time>2026-04-04T12:36:38.999Z</time></trkpt><trkpt lat="48.333157951798235" lon="-4.022718502290715"><ele>182.0</ele><time>2026-04-04T12:36:39.999Z</time></trkpt><trkpt lat="48.333239428105024" lon="-4.022751628076052"><ele>182.0</ele><time>2026-04-04T12:36:40.999Z</time></trkpt><trkpt lat="48.3333063880236" lon="-4.022762431545191"><ele>182.0</ele><time>2026-04-04T12:36:41.999Z</time></trkpt><trkpt lat="48.33340366210933" lon="-4.0227435880185585"><ele>182.0</ele><time>2026-04-04T12:36:43.999Z</time></trkpt><trkpt lat="48.333471446107815" lon="-4.022709422245442"><ele>182.0</ele><time>2026-04-04T12:36:46.999Z</time></trkpt><trkpt lat="48.33355096528082" lon="-4.022725054246701"><ele>182.0</ele><time>2026-04-04T12:36:48.999Z</time></trkpt><trkpt lat="48.33355791487178" lon="-4.022624698564421"><ele>182.0</ele><time>2026-04-04T12:36:52.999Z</time></trkpt><trkpt lat="48.3334781875978" lon="-4.022560205074599"><ele>182.0</ele><time>2026-04-04T12:36:54.999Z</time></trkpt><trkpt lat="48.33341681523635" lon="-4.022455722197466"><ele>182.0</ele><time>2026-04-04T12:36:56.999Z</time></trkpt><trkpt lat="48.33337097847986" lon="-4.022368479197143"><ele>182.0</ele><time>2026-04-04T12:36:58.999Z</time></trkpt><trkpt lat="48.33337375804885" lon="-4.0222708093934285"><ele>182.0</ele><time>2026-04-04T12:37:06.999Z</time></trkpt><trkpt lat="48.33339046217021" lon="-4.022144774291968"><ele>182.0</ele><time>2026-04-04T12:37:12Z</time></trkpt><trkpt lat="48.33337500029058" lon="-4.0220188362332"><ele>182.16666666666666</ele><time>2026-04-04T12:37:14Z</time></trkpt><trkpt lat="48.33341813551108" lon="-4.0219049735503765"><ele>182.33333333333331</ele><time>2026-04-04T12:37:18Z</time></trkpt><trkpt lat="48.33342082764457" lon="-4.021763779148656"><ele>182.5</ele><time>2026-04-04T12:37:22Z</time></trkpt><trkpt lat="48.333438258653345" lon="-4.021661604948827"><ele>182.66666666666666</ele><time>2026-04-04T12:37:24Z</time></trkpt><trkpt lat="48.33342122418985" lon="-4.021551395918799"><ele>182.83333333333334</ele><time>2026-04-04T12:37:26Z</time></trkpt><trkpt lat="48.33335369278102" lon="-4.021526142796872"><ele>183.0</ele><time>2026-04-04T12:37:30Z</time></trkpt><trkpt lat="48.333314803174765" lon="-4.021431895039171"><ele>184.0</ele><time>2026-04-04T12:37:33Z</time></trkpt><trkpt lat="48.33328456145811" lon="-4.021301660299014"><ele>185.0</ele><time>2026-04-04T12:37:36Z</time></trkpt><trkpt lat="48.33326845934217" lon="-4.021202364239881"><ele>186.0</ele><time>2026-04-04T12:37:48Z</time></trkpt><trkpt lat="48.33329616751254" lon="-4.021111418408823"><ele>187.0</ele><time>2026-04-04T12:37:53Z</time></trkpt><trkpt lat="48.3333159897622" lon="-4.020964711825306"><ele>188.0</ele><time>2026-04-04T12:37:55Z</time></trkpt><trkpt lat="48.33332889359372" lon="-4.0208175218073325"><ele>189.0</ele><time>2026-04-04T12:37:57Z</time></trkpt><trkpt lat="48.33334456427105" lon="-4.020709585800793"><ele>189.33333333333334</ele><time>2026-04-04T12:37:59Z</time></trkpt><trkpt lat="48.33335235659558" lon="-4.020589642995064"><ele>189.66666666666666</ele><time>2026-04-04T12:38:02Z</time></trkpt><trkpt lat="48.33336826645088" lon="-4.0204520140096225"><ele>190.0</ele><time>2026-04-04T12:38:05Z</time></trkpt><trkpt lat="48.333378819248004" lon="-4.020351442806753"><ele>190.33333333333331</ele><time>2026-04-04T12:38:07Z</time></trkpt><trkpt lat="48.33334860247117" lon="-4.020259745874632"><ele>190.66666666666666</ele><time>2026-04-04T12:38:09.999Z</time></trkpt><trkpt lat="48.333350516100325" lon="-4.02016178111349"><ele>191.0</ele><time>2026-04-04T12:38:11.999Z</time></trkpt><trkpt lat="48.33334676864308" lon="-4.020039435892942"><ele>190.66666666666666</ele><time>2026-04-04T12:38:13.999Z</time></trkpt><trkpt lat="48.33337053685295" lon="-4.019949573844048"><ele>190.33333333333331</ele><time>2026-04-04T12:38:16.999Z</time></trkpt><trkpt lat="48.33334524962432" lon="-4.019844531048005"><ele>190.0</ele><time>2026-04-04T12:38:18.999Z</time></trkpt><trkpt lat="48.33330248938808" lon="-4.019684635910849"><ele>189.66666666666666</ele><time>2026-04-04T12:38:20.999Z</time></trkpt><trkpt lat="48.33327779021855" lon="-4.019562764735549"><ele>189.33333333333334</ele><time>2026-04-04T12:38:21.999Z</time></trkpt><trkpt lat="48.33325202172714" lon="-4.01941644129619"><ele>189.0</ele><time>2026-04-04T12:38:22.999Z</time></trkpt><trkpt lat="48.33322369819127" lon="-4.019278492217141"><ele>189.0</ele><time>2026-04-04T12:38:23.999Z</time></trkpt><trkpt lat="48.33320344625314" lon="-4.019170682213851"><ele>189.0</ele><time>2026-04-04T12:38:24.999Z</time></trkpt><trkpt lat="48.33318130148695" lon="-4.01898256420022"><ele>189.0</ele><time>2026-04-04T12:38:26.999Z</time></trkpt><trkpt lat="48.33312844031829" lon="-4.0187864554581525"><ele>189.0</ele><time>2026-04-04T12:38:28.999Z</time></trkpt><trkpt lat="48.33310073319874" lon="-4.018668745224604"><ele>189.0</ele><time>2026-04-04T12:38:29.999Z</time></trkpt><trkpt lat="48.33309970721509" lon="-4.018520598427503"><ele>189.0</ele><time>2026-04-04T12:38:30.999Z</time></trkpt><trkpt lat="48.333082595022184" lon="-4.018402423910148"><ele>189.0</ele><time>2026-04-04T12:38:31.999Z</time></trkpt><trkpt lat="48.33307122992899" lon="-4.01829929407753"><ele>189.0</ele><time>2026-04-04T12:38:32.999Z</time></trkpt><trkpt lat="48.33305901878675" lon="-4.018182347071089"><ele>189.0</ele><time>2026-04-04T12:38:33.999Z</time></trkpt><trkpt lat="48.333021517943195" lon="-4.0180659248484565"><ele>189.0</ele><time>2026-04-04T12:38:34.999Z</time></trkpt><trkpt lat="48.332991963856735" lon="-4.017977718085157"><ele>189.0</ele><time>2026-04-04T12:38:35.999Z</time></trkpt><trkpt lat="48.33290842043556" lon="-4.017883422647306"><ele>187.83333333333334</ele><time>2026-04-04T12:38:37.999Z</time></trkpt><trkpt lat="48.33281431773819" lon="-4.017777731532172"><ele>186.66666666666666</ele><time>2026-04-04T12:38:39.999Z</time></trkpt><trkpt lat="48.332763798729935" lon="-4.017676886857197"><ele>185.5</ele><time>2026-04-04T12:38:41.999Z</time></trkpt><trkpt lat="48.33269596992628" lon="-4.017670570830297"><ele>184.33333333333331</ele><time>2026-04-04T12:38:59.999Z</time></trkpt><trkpt lat="48.332692217838364" lon="-4.017574832844999"><ele>183.16666666666666</ele><time>2026-04-04T12:39:07.999Z</time></trkpt><trkpt lat="48.332763063921156" lon="-4.017498385521177"><ele>182.0</ele><time>2026-04-04T12:39:09.999Z</time></trkpt><trkpt lat="48.33283713134001" lon="-4.017355348316155"><ele>181.83333333333331</ele><time>2026-04-04T12:39:11.999Z</time></trkpt><trkpt lat="48.33289671167512" lon="-4.01724019508226"><ele>181.66666666666666</ele><time>2026-04-04T12:39:13.999Z</time></trkpt><trkpt lat="48.332968874991494" lon="-4.017175914380763"><ele>181.5</ele><time>2026-04-04T12:39:16Z</time></trkpt><trkpt lat="48.33302171018891" lon="-4.017118815192672"><ele>181.33333333333334</ele><time>2026-04-04T12:39:18Z</time></trkpt><trkpt lat="48.33310501118339" lon="-4.01705011324449"><ele>181.16666666666669</ele><time>2026-04-04T12:39:49Z</time></trkpt><trkpt lat="48.33317158782605" lon="-4.01697960860913"><ele>181.0</ele><time>2026-04-04T12:39:51Z</time></trkpt><trkpt lat="48.33322901590586" lon="-4.016921594859284"><ele>180.83333333333334</ele><time>2026-04-04T12:39:54Z</time></trkpt><trkpt lat="48.33332953114921" lon="-4.016844829828865"><ele>180.66666666666669</ele><time>2026-04-04T12:39:56Z</time></trkpt><trkpt lat="48.333393703263674" lon="-4.016802757597418"><ele>180.5</ele><time>2026-04-04T12:39:57Z</time></trkpt><trkpt lat="48.333470004331296" lon="-4.01671414077325"><ele>180.33333333333334</ele><time>2026-04-04T12:39:59Z</time></trkpt><trkpt lat="48.33353034585382" lon="-4.01667927013816"><ele>180.16666666666666</ele><time>2026-04-04T12:40:01Z</time></trkpt><trkpt lat="48.3334490879082" lon="-4.016704517417974"><ele>180.0</ele><time>2026-04-04T12:40:04Z</time></trkpt><trkpt lat="48.33334439185903" lon="-4.016504292643177"><ele>180.0</ele><time>2026-04-04T12:40:05Z</time></trkpt><trkpt lat="48.33328329671007" lon="-4.0164669841961995"><ele>180.0</ele><time>2026-04-04T12:40:06Z</time></trkpt><trkpt lat="48.333221520330575" lon="-4.016429447181042"><ele>180.0</ele><time>2026-04-04T12:40:07Z</time></trkpt><trkpt lat="48.333103866305855" lon="-4.016373722968163"><ele>180.0</ele><time>2026-04-04T12:40:08.999Z</time></trkpt><trkpt lat="48.33303661939141" lon="-4.016342210953512"><ele>180.0</ele><time>2026-04-04T12:40:09.999Z</time></trkpt><trkpt lat="48.332976023653856" lon="-4.0163041727970485"><ele>180.0</ele><time>2026-04-04T12:40:10.999Z</time></trkpt><trkpt lat="48.33291460807111" lon="-4.016266522841256"><ele>178.16666666666666</ele><time>2026-04-04T12:40:11.999Z</time></trkpt><trkpt lat="48.332795073054925" lon="-4.016202978885825"><ele>176.33333333333334</ele><time>2026-04-04T12:40:13.999Z</time></trkpt><trkpt lat="48.33272629346116" lon="-4.01617352068344"><ele>174.5</ele><time>2026-04-04T12:40:14.999Z</time></trkpt><trkpt lat="48.332666949846086" lon="-4.016136727912463"><ele>172.66666666666669</ele><time>2026-04-04T12:40:15.999Z</time></trkpt><trkpt lat="48.3325754974211" lon="-4.016089973690279"><ele>170.83333333333334</ele><time>2026-04-04T12:40:17.999Z</time></trkpt><trkpt lat="48.332500644804774" lon="-4.016065983002653"><ele>169.0</ele><time>2026-04-04T12:40:19.999Z</time></trkpt><trkpt lat="48.33242244564289" lon="-4.016003213672031"><ele>169.0</ele><time>2026-04-04T12:40:22.999Z</time></trkpt><trkpt lat="48.3323468071759" lon="-4.0159722651965035"><ele>169.0</ele><time>2026-04-04T12:40:26.999Z</time></trkpt><trkpt lat="48.33235222413061" lon="-4.015860770998007"><ele>169.0</ele><time>2026-04-04T12:40:47.999Z</time></trkpt><trkpt lat="48.33237860094908" lon="-4.015743814421368"><ele>169.0</ele><time>2026-04-04T12:40:50.999Z</time></trkpt><trkpt lat="48.33238243159162" lon="-4.015641189661474"><ele>169.0</ele><time>2026-04-04T12:40:52.999Z</time></trkpt><trkpt lat="48.3323964667994" lon="-4.0155340724632955"><ele>169.0</ele><time>2026-04-04T12:40:55.999Z</time></trkpt><trkpt lat="48.33242810734947" lon="-4.01541648205812"><ele>163.66666666666669</ele><time>2026-04-04T12:40:58.999Z</time></trkpt><trkpt lat="48.33245061914792" lon="-4.015307939778328"><ele>158.33333333333334</ele><time>2026-04-04T12:41:02.999Z</time></trkpt><trkpt lat="48.332529795472446" lon="-4.015241137090159"><ele>153.0</ele><time>2026-04-04T12:41:07.999Z</time></trkpt><trkpt lat="48.332607440100084" lon="-4.015175305497179"><ele>147.66666666666666</ele><time>2026-04-04T12:41:10.999Z</time></trkpt><trkpt lat="48.33268582794843" lon="-4.015167650623508"><ele>142.33333333333331</ele><time>2026-04-04T12:41:13.999Z</time></trkpt><trkpt lat="48.33275546855757" lon="-4.015078121962887"><ele>137.0</ele><time>2026-04-04T12:41:16.999Z</time></trkpt><trkpt lat="48.33280221492586" lon="-4.014987217504354"><ele>136.2857142857143</ele><time>2026-04-04T12:41:20.999Z</time></trkpt><trkpt lat="48.33286161897057" lon="-4.014927619021273"><ele>135.57142857142858</ele><time>2026-04-04T12:41:25Z</time></trkpt><trkpt lat="48.33293251776539" lon="-4.014877738975454"><ele>134.85714285714286</ele><time>2026-04-04T12:41:30Z</time></trkpt><trkpt lat="48.332961828912794" lon="-4.014777424367086"><ele>134.14285714285717</ele><time>2026-04-04T12:41:34Z</time></trkpt><trkpt lat="48.332964158115054" lon="-4.014666477429913"><ele>133.42857142857144</ele><time>2026-04-04T12:41:38Z</time></trkpt><trkpt lat="48.333002803558124" lon="-4.014579237930975"><ele>132.71428571428572</ele><time>2026-04-04T12:41:41Z</time></trkpt><trkpt lat="48.3330682372571" lon="-4.014501288680883"><ele>132.0</ele><time>2026-04-04T12:41:44Z</time></trkpt><trkpt lat="48.33313827107973" lon="-4.0144369888386375"><ele>132.0</ele><time>2026-04-04T12:41:47Z</time></trkpt><trkpt lat="48.33320505886396" lon="-4.014380013466692"><ele>132.0</ele><time>2026-04-04T12:41:50Z</time></trkpt><trkpt lat="48.33325770654083" lon="-4.01430229380249"><ele>132.0</ele><time>2026-04-04T12:41:52Z</time></trkpt><trkpt lat="48.333296840969595" lon="-4.014177653346741"><ele>132.0</ele><time>2026-04-04T12:41:55Z</time></trkpt><trkpt lat="48.333333887967285" lon="-4.014088976214338"><ele>132.0</ele><time>2026-04-04T12:41:59Z</time></trkpt><trkpt lat="48.33336081437252" lon="-4.013981726817689"><ele>132.0</ele><time>2026-04-04T12:42:02Z</time></trkpt><trkpt lat="48.33341994269731" lon="-4.0139434731967185"><ele>130.83333333333334</ele><time>2026-04-04T12:42:05Z</time></trkpt><trkpt lat="48.33347969428752" lon="-4.013891684946961"><ele>129.66666666666666</ele><time>2026-04-04T12:42:08Z</time></trkpt><trkpt lat="48.333530873817665" lon="-4.013800222812532"><ele>128.5</ele><time>2026-04-04T12:42:10.999Z</time></trkpt><trkpt lat="48.33358039082249" lon="-4.013711816059146"><ele>127.33333333333333</ele><time>2026-04-04T12:42:12.999Z</time></trkpt><trkpt lat="48.333634328520574" lon="-4.013634308438888"><ele>126.16666666666666</ele><time>2026-04-04T12:42:15.999Z</time></trkpt><trkpt lat="48.333691974636835" lon="-4.0135742801919"><ele>125.0</ele><time>2026-04-04T12:42:18.999Z</time></trkpt><trkpt lat="48.333773775139846" lon="-4.0135647508704695"><ele>125.0</ele><time>2026-04-04T12:42:20.999Z</time></trkpt><trkpt lat="48.333816123147884" lon="-4.013491611952533"><ele>125.0</ele><time>2026-04-04T12:42:22.999Z</time></trkpt><trkpt lat="48.33384725434019" lon="-4.013382257791423"><ele>125.0</ele><time>2026-04-04T12:42:25.999Z</time></trkpt><trkpt lat="48.33394019155315" lon="-4.013160726339588"><ele>125.0</ele><time>2026-04-04T12:42:28.999Z</time></trkpt><trkpt lat="48.33400177961275" lon="-4.013091982796214"><ele>125.0</ele><time>2026-04-04T12:42:30.999Z</time></trkpt><trkpt lat="48.33404753831536" lon="-4.013009219068686"><ele>125.85714285714286</ele><time>2026-04-04T12:42:33.999Z</time></trkpt><trkpt lat="48.334065293184" lon="-4.012916093736154"><ele>126.71428571428572</ele><time>2026-04-04T12:42:35.999Z</time></trkpt><trkpt lat="48.33410359503711" lon="-4.0128318430448395"><ele>127.57142857142858</ele><time>2026-04-04T12:42:38.999Z</time></trkpt><trkpt lat="48.33413808575464" lon="-4.012731759294335"><ele>128.42857142857144</ele><time>2026-04-04T12:42:43.999Z</time></trkpt><trkpt lat="48.334121045540904" lon="-4.012638011146129"><ele>129.2857142857143</ele><time>2026-04-04T12:42:46.999Z</time></trkpt><trkpt lat="48.33414092391126" lon="-4.012546280494188"><ele>130.14285714285714</ele><time>2026-04-04T12:42:49.999Z</time></trkpt><trkpt lat="48.33421620240672" lon="-4.012555018119901"><ele>131.0</ele><time>2026-04-04T12:42:52.999Z</time></trkpt><trkpt lat="48.3342618681798" lon="-4.012464936590025"><ele>132.16666666666666</ele><time>2026-04-04T12:42:55.999Z</time></trkpt><trkpt lat="48.33432633305602" lon="-4.012403676273142"><ele>133.33333333333331</ele><time>2026-04-04T12:42:58.999Z</time></trkpt><trkpt lat="48.33440481437609" lon="-4.0123528850395624"><ele>134.5</ele><time>2026-04-04T12:43:01.999Z</time></trkpt><trkpt lat="48.33447543030556" lon="-4.012272023592492"><ele>135.66666666666666</ele><time>2026-04-04T12:43:04.999Z</time></trkpt><trkpt lat="48.334522025868225" lon="-4.012200256674815"><ele>136.83333333333334</ele><time>2026-04-04T12:43:06.999Z</time></trkpt><trkpt lat="48.334606471261125" lon="-4.01210815638418"><ele>138.0</ele><time>2026-04-04T12:43:08.999Z</time></trkpt><trkpt lat="48.334676517979894" lon="-4.012065213711592"><ele>137.5</ele><time>2026-04-04T12:43:10.999Z</time></trkpt><trkpt lat="48.334749055449436" lon="-4.011999940504283"><ele>137.0</ele><time>2026-04-04T12:43:12.999Z</time></trkpt><trkpt lat="48.33482380769332" lon="-4.011972971130562"><ele>136.5</ele><time>2026-04-04T12:43:14.999Z</time></trkpt><trkpt lat="48.33488865395786" lon="-4.011920366192607"><ele>136.0</ele><time>2026-04-04T12:43:17.999Z</time></trkpt><trkpt lat="48.334966394624054" lon="-4.011846111254488"><ele>135.5</ele><time>2026-04-04T12:43:29Z</time></trkpt><trkpt lat="48.33503987003793" lon="-4.011787915661709"><ele>135.0</ele><time>2026-04-04T12:43:31Z</time></trkpt><trkpt lat="48.33513198054934" lon="-4.011751117374961"><ele>135.0</ele><time>2026-04-04T12:43:33Z</time></trkpt><trkpt lat="48.33517612875489" lon="-4.0116585162124245"><ele>135.0</ele><time>2026-04-04T12:43:37Z</time></trkpt><trkpt lat="48.3352386905698" lon="-4.011623657005379"><ele>135.0</ele><time>2026-04-04T12:43:40Z</time></trkpt><trkpt lat="48.33535048075554" lon="-4.011604377164042"><ele>135.0</ele><time>2026-04-04T12:43:42Z</time></trkpt><trkpt lat="48.335444298407616" lon="-4.011593314778993"><ele>135.0</ele><time>2026-04-04T12:43:44Z</time></trkpt><trkpt lat="48.335506435593935" lon="-4.011559521013538"><ele>135.0</ele><time>2026-04-04T12:43:45Z</time></trkpt><trkpt lat="48.33559485477533" lon="-4.011479209101951"><ele>134.66666666666666</ele><time>2026-04-04T12:43:47Z</time></trkpt><trkpt lat="48.33566946343516" lon="-4.011461480641177"><ele>134.33333333333334</ele><time>2026-04-04T12:43:50Z</time></trkpt><trkpt lat="48.33575249811169" lon="-4.01145581672912"><ele>134.0</ele><time>2026-04-04T12:43:59Z</time></trkpt><trkpt lat="48.33581955855827" lon="-4.011491305523096"><ele>133.66666666666669</ele><time>2026-04-04T12:44:01Z</time></trkpt><trkpt lat="48.335914944376064" lon="-4.0115600557758935"><ele>133.33333333333334</ele><time>2026-04-04T12:44:04Z</time></trkpt><trkpt lat="48.33599219850088" lon="-4.011636458037095"><ele>133.0</ele><time>2026-04-04T12:44:06Z</time></trkpt><trkpt lat="48.33607462695041" lon="-4.011738354352117"><ele>133.83333333333334</ele><time>2026-04-04T12:44:08Z</time></trkpt><trkpt lat="48.33615387569425" lon="-4.011805570599928"><ele>134.66666666666669</ele><time>2026-04-04T12:44:10Z</time></trkpt><trkpt lat="48.33618281891056" lon="-4.011932709104293"><ele>135.5</ele><time>2026-04-04T12:49:11.999Z</time></trkpt><trkpt lat="48.33622553504824" lon="-4.012010279316527"><ele>136.33333333333334</ele><time>2026-04-04T12:49:12.999Z</time></trkpt><trkpt lat="48.33624542082667" lon="-4.012120151898302"><ele>137.16666666666666</ele><time>2026-04-04T12:49:13.999Z</time></trkpt><trkpt lat="48.336290870548744" lon="-4.012251320189943"><ele>138.0</ele><time>2026-04-04T12:49:14.999Z</time></trkpt><trkpt lat="48.33634746672888" lon="-4.012341043143199"><ele>137.4</ele><time>2026-04-04T12:49:15.999Z</time></trkpt><trkpt lat="48.33644102433809" lon="-4.012416392840737"><ele>136.8</ele><time>2026-04-04T12:49:16.999Z</time></trkpt><trkpt lat="48.3365070966194" lon="-4.012455367007867"><ele>136.2</ele><time>2026-04-04T12:49:17.999Z</time></trkpt><trkpt lat="48.33661248304892" lon="-4.012523534323733"><ele>135.6</ele><time>2026-04-04T12:49:18.999Z</time></trkpt><trkpt lat="48.33670782889726" lon="-4.012594744384608"><ele>135.0</ele><time>2026-04-04T12:49:19.999Z</time></trkpt><trkpt lat="48.336796630299396" lon="-4.012626761747277"><ele>135.8</ele><time>2026-04-04T12:49:20.999Z</time></trkpt><trkpt lat="48.33687262113302" lon="-4.012646213154269"><ele>136.6</ele><time>2026-04-04T12:49:21.999Z</time></trkpt><trkpt lat="48.33697136006273" lon="-4.012622065187454"><ele>137.4</ele><time>2026-04-04T12:49:22.999Z</time></trkpt><trkpt lat="48.33703368871404" lon="-4.012646524420738"><ele>138.2</ele><time>2026-04-04T12:49:23.999Z</time></trkpt><trkpt lat="48.337169128603186" lon="-4.012753305802766"><ele>139.0</ele><time>2026-04-04T12:49:25.999Z</time></trkpt><trkpt lat="48.33725743282568" lon="-4.012757278552909"><ele>139.0</ele><time>2026-04-04T12:49:26.999Z</time></trkpt><trkpt lat="48.33733551454028" lon="-4.012782194455347"><ele>139.0</ele><time>2026-04-04T12:49:27.999Z</time></trkpt><trkpt lat="48.33741308740376" lon="-4.012797835055248"><ele>139.0</ele><time>2026-04-04T12:49:28.999Z</time></trkpt><trkpt lat="48.33749346244385" lon="-4.012811752933116"><ele>139.0</ele><time>2026-04-04T12:49:29.999Z</time></trkpt><trkpt lat="48.33757322019423" lon="-4.012850291965325"><ele>139.0</ele><time>2026-04-04T12:49:30.999Z</time></trkpt><trkpt lat="48.33765546236561" lon="-4.012855204455348"><ele>139.0</ele><time>2026-04-04T12:49:31.999Z</time></trkpt><trkpt lat="48.33774069721069" lon="-4.012845139386585"><ele>139.0</ele><time>2026-04-04T12:49:32.999Z</time></trkpt><trkpt lat="48.33783456227125" lon="-4.012845917106087"><ele>139.0</ele><time>2026-04-04T12:49:33.999Z</time></trkpt><trkpt lat="48.337947289079615" lon="-4.012868902577497"><ele>139.0</ele><time>2026-04-04T12:49:34.999Z</time></trkpt><trkpt lat="48.33806353820141" lon="-4.012893424833973"><ele>139.0</ele><time>2026-04-04T12:49:35.999Z</time></trkpt><trkpt lat="48.33817824149956" lon="-4.012897441958683"><ele>139.0</ele><time>2026-04-04T12:49:36.999Z</time></trkpt><trkpt lat="48.338289676449" lon="-4.0129287653704635"><ele>138.8</ele><time>2026-04-04T12:49:37.999Z</time></trkpt><trkpt lat="48.33840028723388" lon="-4.012961471847542"><ele>138.60000000000002</ele><time>2026-04-04T12:49:38.999Z</time></trkpt><trkpt lat="48.338504281167765" lon="-4.012996878009482"><ele>138.4</ele><time>2026-04-04T12:49:39.999Z</time></trkpt><trkpt lat="48.3385955851812" lon="-4.0130273338557485"><ele>138.20000000000002</ele><time>2026-04-04T12:49:40.999Z</time></trkpt><trkpt lat="48.33869252862007" lon="-4.013068290152855"><ele>138.0</ele><time>2026-04-04T12:49:41.999Z</time></trkpt><trkpt lat="48.33879590696225" lon="-4.013105878376722"><ele>138.0</ele><time>2026-04-04T12:49:43.999Z</time></trkpt><trkpt lat="48.338846422667054" lon="-4.012948634159305"><ele>138.0</ele><time>2026-04-04T12:49:46Z</time></trkpt><trkpt lat="48.338902701909035" lon="-4.012763863007835"><ele>138.0</ele><time>2026-04-04T12:49:48Z</time></trkpt><trkpt lat="48.33895541402877" lon="-4.01262189505997"><ele>138.0</ele><time>2026-04-04T12:49:50Z</time></trkpt><trkpt lat="48.33902350495053" lon="-4.0124905504775965"><ele>137.33333333333334</ele><time>2026-04-04T12:49:52Z</time></trkpt><trkpt lat="48.339075560990246" lon="-4.01243676831098"><ele>136.66666666666666</ele><time>2026-04-04T12:49:53Z</time></trkpt><trkpt lat="48.3391424976489" lon="-4.012426258837641"><ele>136.0</ele><time>2026-04-04T12:49:54Z</time></trkpt><trkpt lat="48.33920355425173" lon="-4.012392954417288"><ele>135.33333333333331</ele><time>2026-04-04T12:49:55Z</time></trkpt><trkpt lat="48.33932957868762" lon="-4.012353753074891"><ele>134.66666666666666</ele><time>2026-04-04T12:49:57Z</time></trkpt><trkpt lat="48.33937961496444" lon="-4.012286008446227"><ele>134.0</ele><time>2026-04-04T12:49:58Z</time></trkpt><trkpt lat="48.339422331358605" lon="-4.01210664929547"><ele>134.0</ele><time>2026-04-04T12:50:00Z</time></trkpt><trkpt lat="48.33947147608967" lon="-4.012025556935108"><ele>134.0</ele><time>2026-04-04T12:50:01Z</time></trkpt><trkpt lat="48.339554452372106" lon="-4.011959866929333"><ele>134.0</ele><time>2026-04-04T12:50:02Z</time></trkpt><trkpt lat="48.339659025473715" lon="-4.01197159557309"><ele>134.0</ele><time>2026-04-04T12:50:03Z</time></trkpt><trkpt lat="48.339749492897994" lon="-4.011979267958734"><ele>134.0</ele><time>2026-04-04T12:50:04Z</time></trkpt><trkpt lat="48.339835790753035" lon="-4.011984520964836"><ele>134.0</ele><time>2026-04-04T12:50:05Z</time></trkpt><trkpt lat="48.33993339112376" lon="-4.011991109674838"><ele>135.0</ele><time>2026-04-04T12:50:06Z</time></trkpt><trkpt lat="48.34001617182677" lon="-4.011993317191261"><ele>136.0</ele><time>2026-04-04T12:50:07Z</time></trkpt><trkpt lat="48.34014476889062" lon="-4.011981821872945"><ele>137.0</ele><time>2026-04-04T12:50:09Z</time></trkpt><trkpt lat="48.340220911615084" lon="-4.0119820308947185"><ele>138.0</ele><time>2026-04-04T12:50:10Z</time></trkpt><trkpt lat="48.340289185336346" lon="-4.011946673315481"><ele>139.0</ele><time>2026-04-04T12:50:11Z</time></trkpt><trkpt lat="48.340364630174065" lon="-4.011914251542768"><ele>140.0</ele><time>2026-04-04T12:50:12Z</time></trkpt><trkpt lat="48.340442898644746" lon="-4.011884648008824"><ele>140.0</ele><time>2026-04-04T12:50:13Z</time></trkpt><trkpt lat="48.34053898392914" lon="-4.011868275170835"><ele>140.0</ele><time>2026-04-04T12:50:14Z</time></trkpt><trkpt lat="48.34062997265859" lon="-4.011849163311711"><ele>140.0</ele><time>2026-04-04T12:50:15Z</time></trkpt><trkpt lat="48.34072601156527" lon="-4.011827415217332"><ele>140.0</ele><time>2026-04-04T12:50:16Z</time></trkpt><trkpt lat="48.34083260514884" lon="-4.011802217673287"><ele>140.0</ele><time>2026-04-04T12:50:17Z</time></trkpt><trkpt lat="48.34094618678878" lon="-4.0117807284493425"><ele>142.8</ele><time>2026-04-04T12:50:18Z</time></trkpt><trkpt lat="48.341064334477416" lon="-4.0117619373156606"><ele>145.6</ele><time>2026-04-04T12:50:19Z</time></trkpt><trkpt lat="48.34117197802429" lon="-4.011724863208229"><ele>148.4</ele><time>2026-04-04T12:50:20Z</time></trkpt><trkpt lat="48.34127958304982" lon="-4.011702174934856"><ele>151.2</ele><time>2026-04-04T12:50:21Z</time></trkpt><trkpt lat="48.34137713774635" lon="-4.011687058002051"><ele>154.0</ele><time>2026-04-04T12:50:22Z</time></trkpt><trkpt lat="48.341462301422034" lon="-4.011667495464593"><ele>154.8</ele><time>2026-04-04T12:50:23Z</time></trkpt><trkpt lat="48.341537602252586" lon="-4.0116643696712355"><ele>155.60000000000002</ele><time>2026-04-04T12:50:24Z</time></trkpt><trkpt lat="48.34160149478048" lon="-4.011677044890916"><ele>156.4</ele><time>2026-04-04T12:50:25Z</time></trkpt><trkpt lat="48.34170699479383" lon="-4.011728442838104"><ele>157.20000000000002</ele><time>2026-04-04T12:50:27Z</time></trkpt><trkpt lat="48.34179784423452" lon="-4.011656676144766"><ele>158.0</ele><time>2026-04-04T12:50:29Z</time></trkpt><trkpt lat="48.34183201009071" lon="-4.011454680549351"><ele>158.0</ele><time>2026-04-04T12:50:32Z</time></trkpt><trkpt lat="48.34185777197456" lon="-4.011331543044907"><ele>158.0</ele><time>2026-04-04T12:50:34Z</time></trkpt><trkpt lat="48.341881688758" lon="-4.011200388379832"><ele>158.0</ele><time>2026-04-04T12:50:36Z</time></trkpt><trkpt lat="48.34187868248744" lon="-4.011051116600475"><ele>158.0</ele><time>2026-04-04T12:50:39Z</time></trkpt><trkpt lat="48.341899884496314" lon="-4.01092649799895"><ele>158.0</ele><time>2026-04-04T12:50:41Z</time></trkpt><trkpt lat="48.341914725688135" lon="-4.010759118787143"><ele>156.16666666666666</ele><time>2026-04-04T12:50:43Z</time></trkpt><trkpt lat="48.34194216845594" lon="-4.010632421218085"><ele>154.33333333333331</ele><time>2026-04-04T12:50:45Z</time></trkpt><trkpt lat="48.34193943764073" lon="-4.010496925742295"><ele>152.5</ele><time>2026-04-04T12:50:46.999Z</time></trkpt><trkpt lat="48.34194605311444" lon="-4.010359582977676"><ele>150.66666666666666</ele><time>2026-04-04T12:50:49.999Z</time></trkpt><trkpt lat="48.34195852651239" lon="-4.010266551645063"><ele>148.83333333333334</ele><time>2026-04-04T12:50:51.999Z</time></trkpt><trkpt lat="48.34196226007404" lon="-4.010148384378959"><ele>147.0</ele><time>2026-04-04T12:50:53.999Z</time></trkpt><trkpt lat="48.34199101954673" lon="-4.01000520804783"><ele>145.71428571428572</ele><time>2026-04-04T12:50:55.999Z</time></trkpt><trkpt lat="48.34200693329703" lon="-4.009889021748172"><ele>144.42857142857144</ele><time>2026-04-04T12:50:56.999Z</time></trkpt><trkpt lat="48.342031803726215" lon="-4.009764109110931"><ele>143.14285714285714</ele><time>2026-04-04T12:50:57.999Z</time></trkpt><trkpt lat="48.34206257062993" lon="-4.009671164681072"><ele>141.85714285714286</ele><time>2026-04-04T12:50:58.999Z</time></trkpt><trkpt lat="48.3420886491044" lon="-4.009583968133347"><ele>140.57142857142858</ele><time>2026-04-04T12:50:59.999Z</time></trkpt><trkpt lat="48.34212846965573" lon="-4.009505137656418"><ele>139.28571428571428</ele><time>2026-04-04T12:51:00.999Z</time></trkpt><trkpt lat="48.342162419699314" lon="-4.0094129783211665"><ele>138.0</ele><time>2026-04-04T12:51:01.999Z</time></trkpt><trkpt lat="48.342209699364325" lon="-4.009323632659822"><ele>139.66666666666666</ele><time>2026-04-04T12:51:02.999Z</time></trkpt><trkpt lat="48.34225932145905" lon="-4.009250107424242"><ele>141.33333333333334</ele><time>2026-04-04T12:51:03.999Z</time></trkpt><trkpt lat="48.34230295781523" lon="-4.009162247718239"><ele>143.0</ele><time>2026-04-04T12:51:04.999Z</time></trkpt><trkpt lat="48.342409778308266" lon="-4.009020057667435"><ele>144.66666666666669</ele><time>2026-04-04T12:51:06.999Z</time></trkpt><trkpt lat="48.34245429817074" lon="-4.00892728438784"><ele>146.33333333333334</ele><time>2026-04-04T12:51:07.999Z</time></trkpt><trkpt lat="48.34249333486345" lon="-4.008852339709318"><ele>148.0</ele><time>2026-04-04T12:51:08.999Z</time></trkpt><trkpt lat="48.3425304607382" lon="-4.008770181259599"><ele>148.0</ele><time>2026-04-04T12:51:09.999Z</time></trkpt><trkpt lat="48.342590558620365" lon="-4.008621545251216"><ele>148.0</ele><time>2026-04-04T12:51:11.999Z</time></trkpt><trkpt lat="48.342660602462274" lon="-4.008483652902121"><ele>148.0</ele><time>2026-04-04T12:51:13.999Z</time></trkpt><trkpt lat="48.34269977649406" lon="-4.008406825519487"><ele>148.0</ele><time>2026-04-04T12:51:14.999Z</time></trkpt><trkpt lat="48.342759827035174" lon="-4.0082337702827635"><ele>148.0</ele><time>2026-04-04T12:51:16.999Z</time></trkpt><trkpt lat="48.342783022989835" lon="-4.008138013047151"><ele>147.66666666666669</ele><time>2026-04-04T12:51:17.999Z</time></trkpt><trkpt lat="48.34281045618077" lon="-4.0080404529535825"><ele>147.33333333333334</ele><time>2026-04-04T12:51:18.999Z</time></trkpt><trkpt lat="48.342826047121115" lon="-4.007946640162063"><ele>147.0</ele><time>2026-04-04T12:51:19.999Z</time></trkpt><trkpt lat="48.34286552551725" lon="-4.007788858378356"><ele>146.66666666666666</ele><time>2026-04-04T12:51:21.999Z</time></trkpt><trkpt lat="48.34290331923218" lon="-4.007650624134883"><ele>146.33333333333331</ele><time>2026-04-04T12:51:23.999Z</time></trkpt><trkpt lat="48.34293843825901" lon="-4.007554138013822"><ele>146.0</ele><time>2026-04-04T12:51:24.999Z</time></trkpt><trkpt lat="48.342987624454445" lon="-4.007426102568653"><ele>146.66666666666666</ele><time>2026-04-04T12:51:25.999Z</time></trkpt><trkpt lat="48.34302844806942" lon="-4.007295724159691"><ele>147.33333333333331</ele><time>2026-04-04T12:51:26.999Z</time></trkpt><trkpt lat="48.34306974483597" lon="-4.007187079184981"><ele>148.0</ele><time>2026-04-04T12:51:27.999Z</time></trkpt><trkpt lat="48.343092895760705" lon="-4.00709591493462"><ele>148.66666666666666</ele><time>2026-04-04T12:51:28.999Z</time></trkpt><trkpt lat="48.343111954547716" lon="-4.007005049300393"><ele>149.33333333333334</ele><time>2026-04-04T12:51:29.999Z</time></trkpt><trkpt lat="48.343141103381484" lon="-4.006867921756144"><ele>150.0</ele><time>2026-04-04T12:51:31.999Z</time></trkpt><trkpt lat="48.3431940367545" lon="-4.006751617284554"><ele>150.0</ele><time>2026-04-04T12:51:33.999Z</time></trkpt><trkpt lat="48.343277064532444" lon="-4.006672219608555"><ele>150.0</ele><time>2026-04-04T12:51:35.999Z</time></trkpt><trkpt lat="48.34336923037821" lon="-4.006610941261291"><ele>150.0</ele><time>2026-04-04T12:51:37.999Z</time></trkpt><trkpt lat="48.34346751635822" lon="-4.00654745406589"><ele>150.0</ele><time>2026-04-04T12:51:39.999Z</time></trkpt><trkpt lat="48.34354486712055" lon="-4.006524280070181"><ele>150.0</ele><time>2026-04-04T12:51:40.999Z</time></trkpt><trkpt lat="48.34363078628945" lon="-4.00645296019543"><ele>150.2</ele><time>2026-04-04T12:51:41.999Z</time></trkpt><trkpt lat="48.34370494764522" lon="-4.006383893116938"><ele>150.4</ele><time>2026-04-04T12:51:42.999Z</time></trkpt><trkpt lat="48.34378211735355" lon="-4.006309256416009"><ele>150.6</ele><time>2026-04-04T12:51:43.999Z</time></trkpt><trkpt lat="48.343873370253895" lon="-4.006237281563182"><ele>150.8</ele><time>2026-04-04T12:51:44.999Z</time></trkpt><trkpt lat="48.34396379741735" lon="-4.006134426839486"><ele>151.0</ele><time>2026-04-04T12:51:45.999Z</time></trkpt><trkpt lat="48.344034797767264" lon="-4.006001684763954"><ele>151.0</ele><time>2026-04-04T12:51:46.999Z</time></trkpt><trkpt lat="48.344114068460215" lon="-4.005879235811875"><ele>151.0</ele><time>2026-04-04T12:51:47.999Z</time></trkpt><trkpt lat="48.344181484063874" lon="-4.005768327990899"><ele>151.0</ele><time>2026-04-04T12:51:48.999Z</time></trkpt><trkpt lat="48.34422824393682" lon="-4.005696713190907"><ele>151.0</ele><time>2026-04-04T12:51:49.999Z</time></trkpt><trkpt lat="48.344265511385224" lon="-4.00560280312337"><ele>151.0</ele><time>2026-04-04T12:51:50.999Z</time></trkpt><trkpt lat="48.34430929566579" lon="-4.005526453519995"><ele>151.0</ele><time>2026-04-04T12:51:52Z</time></trkpt><trkpt lat="48.34436854206677" lon="-4.005441632909697"><ele>150.33333333333334</ele><time>2026-04-04T12:51:53Z</time></trkpt><trkpt lat="48.34444327524288" lon="-4.005335784803988"><ele>149.66666666666669</ele><time>2026-04-04T12:51:54Z</time></trkpt><trkpt lat="48.344514066528035" lon="-4.005263952572249"><ele>149.0</ele><time>2026-04-04T12:51:55Z</time></trkpt><trkpt lat="48.34459551161679" lon="-4.005202945343288"><ele>148.33333333333334</ele><time>2026-04-04T12:51:56Z</time></trkpt><trkpt lat="48.34466682003122" lon="-4.005149196551729"><ele>147.66666666666666</ele><time>2026-04-04T12:51:57Z</time></trkpt><trkpt lat="48.344725603453355" lon="-4.005084662032454"><ele>147.0</ele><time>2026-04-04T12:51:58Z</time></trkpt><trkpt lat="48.34479324326085" lon="-4.004942409141175"><ele>147.0</ele><time>2026-04-04T12:52:00Z</time></trkpt><trkpt lat="48.34484942517149" lon="-4.004825712391075"><ele>147.0</ele><time>2026-04-04T12:52:02Z</time></trkpt><trkpt lat="48.344912938375465" lon="-4.004725196695232"><ele>147.0</ele><time>2026-04-04T12:52:04Z</time></trkpt><trkpt lat="48.34498449895963" lon="-4.004667034757296"><ele>147.0</ele><time>2026-04-04T12:52:06Z</time></trkpt><trkpt lat="48.34503221284955" lon="-4.004559010755463"><ele>147.0</ele><time>2026-04-04T12:52:08Z</time></trkpt><trkpt lat="48.34496856887345" lon="-4.00443358973248"><ele>147.0</ele><time>2026-04-04T12:52:10Z</time></trkpt><trkpt lat="48.34491418893643" lon="-4.004376155254484"><ele>147.0</ele><time>2026-04-04T12:52:11Z</time></trkpt><trkpt lat="48.344848010162494" lon="-4.004315931390354"><ele>147.0</ele><time>2026-04-04T12:52:12Z</time></trkpt><trkpt lat="48.344782037407235" lon="-4.004265306067421"><ele>147.0</ele><time>2026-04-04T12:52:13Z</time></trkpt><trkpt lat="48.344712449746915" lon="-4.0041944303513635"><ele>147.0</ele><time>2026-04-04T12:52:14Z</time></trkpt><trkpt lat="48.344679396155705" lon="-4.004089302613437"><ele>147.0</ele><time>2026-04-04T12:52:15Z</time></trkpt><trkpt lat="48.34463590109837" lon="-4.004002772508535"><ele>148.66666666666666</ele><time>2026-04-04T12:52:16Z</time></trkpt><trkpt lat="48.34463767737391" lon="-4.003896877355362"><ele>150.33333333333334</ele><time>2026-04-04T12:52:17Z</time></trkpt><trkpt lat="48.34461235407027" lon="-4.003803439762448"><ele>152.0</ele><time>2026-04-04T12:52:18Z</time></trkpt><trkpt lat="48.344617695176595" lon="-4.003678837682912"><ele>153.66666666666669</ele><time>2026-04-04T12:52:20Z</time></trkpt><trkpt lat="48.344529443281914" lon="-4.003710994474645"><ele>155.33333333333334</ele><time>2026-04-04T12:52:22Z</time></trkpt><trkpt lat="48.344442808833136" lon="-4.003819749525217"><ele>157.0</ele><time>2026-04-04T12:52:24Z</time></trkpt><trkpt lat="48.344385234749495" lon="-4.003859580844566"><ele>157.0</ele><time>2026-04-04T12:52:25Z</time></trkpt><trkpt lat="48.34428580327636" lon="-4.003933087003664"><ele>157.0</ele><time>2026-04-04T12:52:27Z</time></trkpt><trkpt lat="48.34416306104923" lon="-4.003949919903069"><ele>157.0</ele><time>2026-04-04T12:52:29Z</time></trkpt><trkpt lat="48.3440704744405" lon="-4.003916359828947"><ele>157.0</ele><time>2026-04-04T12:52:31Z</time></trkpt><trkpt lat="48.34400362303559" lon="-4.003895259618715"><ele>157.0</ele><time>2026-04-04T12:52:33Z</time></trkpt><trkpt lat="48.34391625024418" lon="-4.003938846938617"><ele>157.5</ele><time>2026-04-04T12:52:35Z</time></trkpt><trkpt lat="48.343826247731144" lon="-4.0040000302229695"><ele>158.0</ele><time>2026-04-04T12:52:37Z</time></trkpt><trkpt lat="48.34376031203112" lon="-4.004055658834145"><ele>158.5</ele><time>2026-04-04T12:52:39Z</time></trkpt><trkpt lat="48.34370828431331" lon="-4.004171457575834"><ele>159.0</ele><time>2026-04-04T12:52:42Z</time></trkpt><trkpt lat="48.34366747902787" lon="-4.004265353371854"><ele>159.5</ele><time>2026-04-04T12:52:43Z</time></trkpt><trkpt lat="48.343618924699406" lon="-4.00436113793371"><ele>160.0</ele><time>2026-04-04T12:52:44Z</time></trkpt><trkpt lat="48.3435705829712" lon="-4.004476246726198"><ele>160.0</ele><time>2026-04-04T12:52:45Z</time></trkpt><trkpt lat="48.3435266454512" lon="-4.004546411790285"><ele>160.0</ele><time>2026-04-04T12:52:46Z</time></trkpt><trkpt lat="48.343415661211495" lon="-4.004598014833631"><ele>160.0</ele><time>2026-04-04T12:52:47.999Z</time></trkpt><trkpt lat="48.34330011172746" lon="-4.004598436790266"><ele>160.0</ele><time>2026-04-04T12:52:49.999Z</time></trkpt><trkpt lat="48.343214216684245" lon="-4.0046482251489905"><ele>160.0</ele><time>2026-04-04T12:52:51.999Z</time></trkpt><trkpt lat="48.34310188971619" lon="-4.004735508098317"><ele>162.0</ele><time>2026-04-04T12:52:53.999Z</time></trkpt><trkpt lat="48.34302872442918" lon="-4.004845778700676"><ele>164.0</ele><time>2026-04-04T12:52:55.999Z</time></trkpt><trkpt lat="48.3429700061107" lon="-4.0049362860323905"><ele>166.0</ele><time>2026-04-04T12:52:57.999Z</time></trkpt><trkpt lat="48.34288882795382" lon="-4.005010434936459"><ele>168.0</ele><time>2026-04-04T12:52:59.999Z</time></trkpt><trkpt lat="48.342808255663115" lon="-4.005096400522992"><ele>170.0</ele><time>2026-04-04T12:53:01.999Z</time></trkpt><trkpt lat="48.34275251059733" lon="-4.00514081857001"><ele>172.0</ele><time>2026-04-04T12:53:02.999Z</time></trkpt><trkpt lat="48.34270112558996" lon="-4.005260786219579"><ele>172.0</ele><time>2026-04-04T12:53:04.999Z</time></trkpt><trkpt lat="48.34264256183242" lon="-4.005350805981125"><ele>172.0</ele><time>2026-04-04T12:53:06.999Z</time></trkpt><trkpt lat="48.34259267822926" lon="-4.005443106845646"><ele>172.0</ele><time>2026-04-04T12:53:08.999Z</time></trkpt><trkpt lat="48.34250630901733" lon="-4.00555103407373"><ele>172.0</ele><time>2026-04-04T12:53:10.999Z</time></trkpt><trkpt lat="48.34243736379462" lon="-4.005656953185051"><ele>172.0</ele><time>2026-04-04T12:53:12.999Z</time></trkpt><trkpt lat="48.34238210264272" lon="-4.005750565856644"><ele>170.0</ele><time>2026-04-04T12:53:14.999Z</time></trkpt><trkpt lat="48.34230478719684" lon="-4.005841361472498"><ele>168.0</ele><time>2026-04-04T12:53:16.999Z</time></trkpt><trkpt lat="48.34223360551548" lon="-4.0059394954444425"><ele>166.0</ele><time>2026-04-04T12:53:18.999Z</time></trkpt><trkpt lat="48.34217721088202" lon="-4.006014002255022"><ele>164.0</ele><time>2026-04-04T12:53:20.999Z</time></trkpt><trkpt lat="48.34208842193939" lon="-4.006123205237553"><ele>162.0</ele><time>2026-04-04T12:53:22.999Z</time></trkpt><trkpt lat="48.34203307962162" lon="-4.006179646314097"><ele>166.0</ele><time>2026-04-04T12:53:23.999Z</time></trkpt><trkpt lat="48.34194546485714" lon="-4.0061792169734005"><ele>170.0</ele><time>2026-04-04T12:53:25.999Z</time></trkpt><trkpt lat="48.34187839866695" lon="-4.00618573204793"><ele>174.0</ele><time>2026-04-04T12:53:26.999Z</time></trkpt><trkpt lat="48.341763628021475" lon="-4.0062341108708095"><ele>178.0</ele><time>2026-04-04T12:53:28.999Z</time></trkpt><trkpt lat="48.341654448552625" lon="-4.00628221005319"><ele>182.0</ele><time>2026-04-04T12:53:30.999Z</time></trkpt><trkpt lat="48.34157131429402" lon="-4.006350425406173"><ele>182.0</ele><time>2026-04-04T12:53:32.999Z</time></trkpt><trkpt lat="48.34151033547475" lon="-4.00638320163189"><ele>182.0</ele><time>2026-04-04T12:53:33.999Z</time></trkpt><trkpt lat="48.34144295333672" lon="-4.006413643926519"><ele>182.0</ele><time>2026-04-04T12:53:34.999Z</time></trkpt><trkpt lat="48.34137605542949" lon="-4.006457573781115"><ele>182.0</ele><time>2026-04-04T12:53:35.999Z</time></trkpt><trkpt lat="48.341306938922834" lon="-4.006473556163997"><ele>182.0</ele><time>2026-04-04T12:53:36.999Z</time></trkpt><trkpt lat="48.34122018018228" lon="-4.006476082128727"><ele>182.0</ele><time>2026-04-04T12:53:37.999Z</time></trkpt><trkpt lat="48.341140408743655" lon="-4.00650953330378"><ele>182.0</ele><time>2026-04-04T12:53:38.999Z</time></trkpt><trkpt lat="48.3410410075474" lon="-4.006525808629765"><ele>181.39999999999998</ele><time>2026-04-04T12:53:39.999Z</time></trkpt><trkpt lat="48.3409676122507" lon="-4.00652730006478"><ele>180.79999999999998</ele><time>2026-04-04T12:53:40.999Z</time></trkpt><trkpt lat="48.340881331002514" lon="-4.006559340672004"><ele>180.2</ele><time>2026-04-04T12:53:41.999Z</time></trkpt><trkpt lat="48.34076652642031" lon="-4.0066151786782855"><ele>179.6</ele><time>2026-04-04T12:53:43.999Z</time></trkpt><trkpt lat="48.340638427280865" lon="-4.006663302925088"><ele>179.0</ele><time>2026-04-04T12:53:45.999Z</time></trkpt><trkpt lat="48.3405706666134" lon="-4.006679281255737"><ele>180.66666666666666</ele><time>2026-04-04T12:53:46.999Z</time></trkpt><trkpt lat="48.34049096346135" lon="-4.006659984333944"><ele>182.33333333333331</ele><time>2026-04-04T12:53:47.999Z</time></trkpt><trkpt lat="48.340397556392894" lon="-4.0066524086351345"><ele>184.0</ele><time>2026-04-04T12:53:48.999Z</time></trkpt><trkpt lat="48.34031126980595" lon="-4.006648141215436"><ele>185.66666666666666</ele><time>2026-04-04T12:53:49.999Z</time></trkpt><trkpt lat="48.340224472100864" lon="-4.006623951379514"><ele>187.33333333333334</ele><time>2026-04-04T12:53:50.999Z</time></trkpt><trkpt lat="48.340128262105324" lon="-4.006592544837769"><ele>189.0</ele><time>2026-04-04T12:53:51.999Z</time></trkpt><trkpt lat="48.34002599674388" lon="-4.006566476723384"><ele>189.0</ele><time>2026-04-04T12:53:52.999Z</time></trkpt><trkpt lat="48.33992648076077" lon="-4.006534675491817"><ele>189.0</ele><time>2026-04-04T12:53:53.999Z</time></trkpt><trkpt lat="48.33983048620606" lon="-4.006519195637332"><ele>189.0</ele><time>2026-04-04T12:53:54.999Z</time></trkpt><trkpt lat="48.33973826403916" lon="-4.006512292549385"><ele>189.0</ele><time>2026-04-04T12:53:55.999Z</time></trkpt><trkpt lat="48.33965139897049" lon="-4.006480220386257"><ele>189.0</ele><time>2026-04-04T12:53:56.999Z</time></trkpt><trkpt lat="48.339552706630336" lon="-4.0064781770184466"><ele>189.0</ele><time>2026-04-04T12:53:58Z</time></trkpt><trkpt lat="48.3394526718584" lon="-4.006466878149308"><ele>189.0</ele><time>2026-04-04T12:53:59Z</time></trkpt><trkpt lat="48.339352322566285" lon="-4.006449092985983"><ele>189.0</ele><time>2026-04-04T12:54:00Z</time></trkpt><trkpt lat="48.33925873948033" lon="-4.006432450825198"><ele>189.0</ele><time>2026-04-04T12:54:01Z</time></trkpt><trkpt lat="48.3391706968872" lon="-4.006420056035433"><ele>189.0</ele><time>2026-04-04T12:54:02Z</time></trkpt><trkpt lat="48.33906915773232" lon="-4.006414737819423"><ele>189.0</ele><time>2026-04-04T12:54:03Z</time></trkpt><trkpt lat="48.339004087224225" lon="-4.006421677598629"><ele>189.0</ele><time>2026-04-04T12:54:04Z</time></trkpt><trkpt lat="48.33892847872066" lon="-4.00642525873014"><ele>189.0</ele><time>2026-04-04T12:54:05Z</time></trkpt><trkpt lat="48.33881676354961" lon="-4.006467473187092"><ele>189.0</ele><time>2026-04-04T12:54:07Z</time></trkpt><trkpt lat="48.33876887531023" lon="-4.006565136071132"><ele>189.0</ele><time>2026-04-04T12:54:08Z</time></trkpt><trkpt lat="48.338696383354446" lon="-4.006640793190339"><ele>189.0</ele><time>2026-04-04T12:54:09Z</time></trkpt><trkpt lat="48.33862822505617" lon="-4.006708675701703"><ele>188.6</ele><time>2026-04-04T12:54:10Z</time></trkpt><trkpt lat="48.33855301815667" lon="-4.006751941823064"><ele>188.2</ele><time>2026-04-04T12:54:11Z</time></trkpt><trkpt lat="48.33845922012118" lon="-4.006730571162028"><ele>187.79999999999998</ele><time>2026-04-04T12:54:12Z</time></trkpt><trkpt lat="48.338369879524855" lon="-4.006712761763167"><ele>187.39999999999998</ele><time>2026-04-04T12:54:13Z</time></trkpt><trkpt lat="48.33828050961034" lon="-4.006665616229028"><ele>187.0</ele><time>2026-04-04T12:54:14Z</time></trkpt><trkpt lat="48.338175158001555" lon="-4.006632265674417"><ele>189.5</ele><time>2026-04-04T12:54:15Z</time></trkpt><trkpt lat="48.338061257170324" lon="-4.006619383559439"><ele>192.0</ele><time>2026-04-04T12:54:16Z</time></trkpt><trkpt lat="48.33794046848137" lon="-4.006562906371106"><ele>194.5</ele><time>2026-04-04T12:54:17Z</time></trkpt><trkpt lat="48.33781418168239" lon="-4.006531926301779"><ele>197.0</ele><time>2026-04-04T12:54:18Z</time></trkpt><trkpt lat="48.33769317508344" lon="-4.006501904710438"><ele>197.39999999999998</ele><time>2026-04-04T12:54:19Z</time></trkpt><trkpt lat="48.33758197981461" lon="-4.006462275901104"><ele>197.79999999999998</ele><time>2026-04-04T12:54:20Z</time></trkpt><trkpt lat="48.33748312356063" lon="-4.00639631930722"><ele>198.2</ele><time>2026-04-04T12:54:21Z</time></trkpt><trkpt lat="48.33741026873141" lon="-4.0062939880754715"><ele>198.6</ele><time>2026-04-04T12:54:22Z</time></trkpt><trkpt lat="48.33737171591447" lon="-4.0061720342798885"><ele>199.0</ele><time>2026-04-04T12:54:23Z</time></trkpt><trkpt lat="48.33736611925537" lon="-4.006033364412072"><ele>199.0</ele><time>2026-04-04T12:54:24Z</time></trkpt><trkpt lat="48.3373597593824" lon="-4.005884825261879"><ele>199.0</ele><time>2026-04-04T12:54:25Z</time></trkpt><trkpt lat="48.337380815294985" lon="-4.005738289542016"><ele>199.0</ele><time>2026-04-04T12:54:26Z</time></trkpt><trkpt lat="48.33740178295961" lon="-4.0055923679496575"><ele>199.0</ele><time>2026-04-04T12:54:27Z</time></trkpt><trkpt lat="48.33743737299032" lon="-4.0054250298181"><ele>199.0</ele><time>2026-04-04T12:54:28Z</time></trkpt><trkpt lat="48.33745687337328" lon="-4.005239331588694"><ele>201.0</ele><time>2026-04-04T12:54:29Z</time></trkpt><trkpt lat="48.33748606727822" lon="-4.0050484077472115"><ele>203.0</ele><time>2026-04-04T12:54:30Z</time></trkpt><trkpt lat="48.33752136998782" lon="-4.0048506997240505"><ele>205.0</ele><time>2026-04-04T12:54:31Z</time></trkpt><trkpt lat="48.33755341523539" lon="-4.0046553928008874"><ele>207.0</ele><time>2026-04-04T12:54:32Z</time></trkpt><trkpt lat="48.33757494662833" lon="-4.004460800289677"><ele>208.75</ele><time>2026-04-04T12:54:33Z</time></trkpt><trkpt lat="48.33760724173899" lon="-4.004264891239908"><ele>210.5</ele><time>2026-04-04T12:54:34Z</time></trkpt><trkpt lat="48.337638289035915" lon="-4.004072596268807"><ele>212.25</ele><time>2026-04-04T12:54:35Z</time></trkpt><trkpt lat="48.337668066718365" lon="-4.003887099875596"><ele>214.0</ele><time>2026-04-04T12:54:36Z</time></trkpt><trkpt lat="48.337690589765415" lon="-4.003737146716457"><ele>215.6</ele><time>2026-04-04T12:54:37Z</time></trkpt><trkpt lat="48.337711505645956" lon="-4.003602086814397"><ele>217.2</ele><time>2026-04-04T12:54:38Z</time></trkpt><trkpt lat="48.337728651187334" lon="-4.003482172874869"><ele>218.79999999999998</ele><time>2026-04-04T12:54:39Z</time></trkpt><trkpt lat="48.33772007301847" lon="-4.003352934521129"><ele>220.39999999999998</ele><time>2026-04-04T12:54:41Z</time></trkpt><trkpt lat="48.337570124516255" lon="-4.003446359068205"><ele>222.0</ele><time>2026-04-04T12:54:43Z</time></trkpt><trkpt lat="48.337487281525995" lon="-4.003469675782931"><ele>222.0</ele><time>2026-04-04T12:54:44Z</time></trkpt><trkpt lat="48.33738388806435" lon="-4.003495122886819"><ele>222.0</ele><time>2026-04-04T12:54:45Z</time></trkpt><trkpt lat="48.33726205859364" lon="-4.003524312465664"><ele>222.0</ele><time>2026-04-04T12:54:46Z</time></trkpt><trkpt lat="48.33712264674818" lon="-4.003557831376489"><ele>222.0</ele><time>2026-04-04T12:54:47Z</time></trkpt><trkpt lat="48.33698248511966" lon="-4.003593830026169"><ele>224.0</ele><time>2026-04-04T12:54:48Z</time></trkpt><trkpt lat="48.33682559922805" lon="-4.003634389153529"><ele>226.0</ele><time>2026-04-04T12:54:49Z</time></trkpt><trkpt lat="48.33663722879995" lon="-4.003687031201922"><ele>228.0</ele><time>2026-04-04T12:54:50Z</time></trkpt><trkpt lat="48.33648672128123" lon="-4.003732450731884"><ele>230.66666666666669</ele><time>2026-04-04T12:54:51Z</time></trkpt><trkpt lat="48.33632132595705" lon="-4.003787935938349"><ele>233.33333333333334</ele><time>2026-04-04T12:54:52Z</time></trkpt><trkpt lat="48.33616621491509" lon="-4.003841934766102"><ele>236.0</ele><time>2026-04-04T12:54:53Z</time></trkpt><trkpt lat="48.3359841346295" lon="-4.003882865877485"><ele>236.0</ele><time>2026-04-04T12:54:53.999Z</time></trkpt><trkpt lat="48.33581577217368" lon="-4.00397106147429"><ele>236.0</ele><time>2026-04-04T12:54:54.999Z</time></trkpt><trkpt lat="48.33564761023064" lon="-4.0040345967354725"><ele>236.0</ele><time>2026-04-04T12:54:55.999Z</time></trkpt><trkpt lat="48.335477709081395" lon="-4.004091711913229"><ele>235.66666666666669</ele><time>2026-04-04T12:54:56.999Z</time></trkpt><trkpt lat="48.3352989097371" lon="-4.004145232353022"><ele>235.33333333333331</ele><time>2026-04-04T12:54:57.999Z</time></trkpt><trkpt lat="48.335129680191095" lon="-4.004192402486596"><ele>235.0</ele><time>2026-04-04T12:54:58.999Z</time></trkpt><trkpt lat="48.33495448257586" lon="-4.004238465265961"><ele>235.0</ele><time>2026-04-04T12:54:59.999Z</time></trkpt><trkpt lat="48.33478300988264" lon="-4.0042798822719945"><ele>235.0</ele><time>2026-04-04T12:55:00.999Z</time></trkpt><trkpt lat="48.334630784451264" lon="-4.004315110842317"><ele>235.0</ele><time>2026-04-04T12:55:01.999Z</time></trkpt><trkpt lat="48.33447378290019" lon="-4.004325311645681"><ele>237.33333333333331</ele><time>2026-04-04T12:55:02.999Z</time></trkpt><trkpt lat="48.33431243345952" lon="-4.004349783061181"><ele>239.66666666666669</ele><time>2026-04-04T12:55:03.999Z</time></trkpt><trkpt lat="48.33415458412711" lon="-4.004353644075484"><ele>242.0</ele><time>2026-04-04T12:55:04.999Z</time></trkpt><trkpt lat="48.33400528406728" lon="-4.0043366790634565"><ele>243.33333333333334</ele><time>2026-04-04T12:55:05.999Z</time></trkpt><trkpt lat="48.3338519658532" lon="-4.004288042700203"><ele>244.66666666666669</ele><time>2026-04-04T12:55:06.999Z</time></trkpt><trkpt lat="48.33369349850287" lon="-4.004224863275442"><ele>246.0</ele><time>2026-04-04T12:55:07.999Z</time></trkpt><trkpt lat="48.333539791444316" lon="-4.004199565799605"><ele>246.0</ele><time>2026-04-04T12:55:08.999Z</time></trkpt><trkpt lat="48.333394750593605" lon="-4.004164554147882"><ele>246.0</ele><time>2026-04-04T12:55:09.999Z</time></trkpt><trkpt lat="48.33323432061093" lon="-4.004129556721072"><ele>246.0</ele><time>2026-04-04T12:55:10.999Z</time></trkpt><trkpt lat="48.33308033091725" lon="-4.00410148607561"><ele>248.66666666666669</ele><time>2026-04-04T12:55:11.999Z</time></trkpt><trkpt lat="48.332918135527834" lon="-4.00408142586466"><ele>251.33333333333334</ele><time>2026-04-04T12:55:12.999Z</time></trkpt><trkpt lat="48.3327746195614" lon="-4.004082606411261"><ele>254.0</ele><time>2026-04-04T12:55:13.999Z</time></trkpt><trkpt lat="48.3326285382359" lon="-4.004088389170232"><ele>254.0</ele><time>2026-04-04T12:55:14.999Z</time></trkpt><trkpt lat="48.33248498446727" lon="-4.004092359996569"><ele>254.0</ele><time>2026-04-04T12:55:15.999Z</time></trkpt><trkpt lat="48.3323418951663" lon="-4.004095580061504"><ele>254.0</ele><time>2026-04-04T12:55:16.999Z</time></trkpt><trkpt lat="48.33220073110958" lon="-4.004095580058526"><ele>254.0</ele><time>2026-04-04T12:55:17.999Z</time></trkpt><trkpt lat="48.33206585947335" lon="-4.004090718705767"><ele>254.75</ele><time>2026-04-04T12:55:18.999Z</time></trkpt><trkpt lat="48.33193665877936" lon="-4.004048763481906"><ele>255.5</ele><time>2026-04-04T12:55:19.999Z</time></trkpt><trkpt lat="48.33181807855551" lon="-4.004011970995276"><ele>256.25</ele><time>2026-04-04T12:55:20.999Z</time></trkpt><trkpt lat="48.33169743554336" lon="-4.00392901863966"><ele>257.0</ele><time>2026-04-04T12:55:21.999Z</time></trkpt><trkpt lat="48.33159271925274" lon="-4.003806862226271"><ele>257.0</ele><time>2026-04-04T12:55:22.999Z</time></trkpt><trkpt lat="48.33147624040666" lon="-4.003711585761398"><ele>257.0</ele><time>2026-04-04T12:55:23.999Z</time></trkpt><trkpt lat="48.33136176158355" lon="-4.0036073999739"><ele>257.0</ele><time>2026-04-04T12:55:24.999Z</time></trkpt><trkpt lat="48.33123872640637" lon="-4.003522243181935"><ele>257.0</ele><time>2026-04-04T12:55:25.999Z</time></trkpt><trkpt lat="48.33111532618485" lon="-4.003467539135565"><ele>257.75</ele><time>2026-04-04T12:55:26.999Z</time></trkpt><trkpt lat="48.330981064349174" lon="-4.003429925486725"><ele>258.5</ele><time>2026-04-04T12:55:27.999Z</time></trkpt><trkpt lat="48.33085059760346" lon="-4.003391443441493"><ele>259.25</ele><time>2026-04-04T12:55:28.999Z</time></trkpt><trkpt lat="48.3307178593168" lon="-4.003326373470022"><ele>260.0</ele><time>2026-04-04T12:55:29.999Z</time></trkpt><trkpt lat="48.3305954109093" lon="-4.00328050775487"><ele>258.6</ele><time>2026-04-04T12:55:30.999Z</time></trkpt><trkpt lat="48.33048654264216" lon="-4.003228052894722"><ele>257.2</ele><time>2026-04-04T12:55:31.999Z</time></trkpt><trkpt lat="48.3303695332476" lon="-4.003169033375882"><ele>255.8</ele><time>2026-04-04T12:55:32.999Z</time></trkpt><trkpt lat="48.33027635494375" lon="-4.003130006256334"><ele>254.4</ele><time>2026-04-04T12:55:33.999Z</time></trkpt><trkpt lat="48.33018433812328" lon="-4.003089077356769"><ele>253.0</ele><time>2026-04-04T12:55:34.999Z</time></trkpt><trkpt lat="48.33010287155206" lon="-4.003048001814343"><ele>253.0</ele><time>2026-04-04T12:55:35.999Z</time></trkpt><trkpt lat="48.33001944111015" lon="-4.0030113516438615"><ele>253.0</ele><time>2026-04-04T12:55:36.999Z</time></trkpt><trkpt lat="48.32995150029724" lon="-4.002976930970195"><ele>253.0</ele><time>2026-04-04T12:55:37.999Z</time></trkpt><trkpt lat="48.32988323596711" lon="-4.002957957112651"><ele>253.0</ele><time>2026-04-04T12:55:38.999Z</time></trkpt><trkpt lat="48.32976325188589" lon="-4.002937071965528"><ele>253.0</ele><time>2026-04-04T12:55:40.999Z</time></trkpt><trkpt lat="48.32962773759075" lon="-4.002924360396056"><ele>248.33333333333331</ele><time>2026-04-04T12:55:42.999Z</time></trkpt><trkpt lat="48.3295756515217" lon="-4.002483071949972"><ele>243.66666666666669</ele><time>2026-04-04T12:55:43.999Z</time></trkpt><trkpt lat="48.32952686984089" lon="-4.002382232896799"><ele>239.0</ele><time>2026-04-04T12:55:44.999Z</time></trkpt><trkpt lat="48.329480225672455" lon="-4.002297487990683"><ele>239.00000000000003</ele><time>2026-04-04T12:55:45.999Z</time></trkpt><trkpt lat="48.32943370770155" lon="-4.002201268314815"><ele>239.0</ele><time>2026-04-04T12:55:46.999Z</time></trkpt><trkpt lat="48.329390830234296" lon="-4.002106441048791"><ele>239.0</ele><time>2026-04-04T12:55:47.999Z</time></trkpt><trkpt lat="48.32934304526787" lon="-4.002013521329816"><ele>239.0</ele><time>2026-04-04T12:55:48.999Z</time></trkpt><trkpt lat="48.32928922710166" lon="-4.001931165264684"><ele>239.00000000000003</ele><time>2026-04-04T12:55:49.999Z</time></trkpt><trkpt lat="48.32923376063164" lon="-4.00184605293859"><ele>239.0</ele><time>2026-04-04T12:55:50.999Z</time></trkpt><trkpt lat="48.32916651464598" lon="-4.0017566903126"><ele>239.00000000000003</ele><time>2026-04-04T12:55:51.999Z</time></trkpt><trkpt lat="48.329109396462194" lon="-4.0016764891693395"><ele>239.0</ele><time>2026-04-04T12:55:52.999Z</time></trkpt><trkpt lat="48.329061689729414" lon="-4.0016084711421085"><ele>239.0</ele><time>2026-04-04T12:55:53.999Z</time></trkpt><trkpt lat="48.329011471194825" lon="-4.001502631338995"><ele>239.0</ele><time>2026-04-04T12:55:54.999Z</time></trkpt><trkpt lat="48.32897252681226" lon="-4.001391200429153"><ele>239.00000000000003</ele><time>2026-04-04T12:55:55.999Z</time></trkpt><trkpt lat="48.32894271272286" lon="-4.001284195391601"><ele>239.0</ele><time>2026-04-04T12:55:56.999Z</time></trkpt><trkpt lat="48.32890663709537" lon="-4.001173931379521"><ele>235.83333333333334</ele><time>2026-04-04T12:55:57.999Z</time></trkpt><trkpt lat="48.32888049426424" lon="-4.001073392110733"><ele>232.66666666666669</ele><time>2026-04-04T12:55:58.999Z</time></trkpt><trkpt lat="48.328855897933224" lon="-4.000962047759568"><ele>229.5</ele><time>2026-04-04T12:55:59.999Z</time></trkpt><trkpt lat="48.328812420485775" lon="-4.000841874405591"><ele>226.33333333333331</ele><time>2026-04-04T12:56:00.999Z</time></trkpt><trkpt lat="48.328771430057685" lon="-4.000722301801019"><ele>223.16666666666666</ele><time>2026-04-04T12:56:01.999Z</time></trkpt><trkpt lat="48.32874014064504" lon="-4.000604965727541"><ele>220.0</ele><time>2026-04-04T12:56:02.999Z</time></trkpt><trkpt lat="48.32869269990845" lon="-4.000500811286634"><ele>219.99999999999997</ele><time>2026-04-04T12:56:04Z</time></trkpt><trkpt lat="48.3286446177027" lon="-4.000419228036656"><ele>220.0</ele><time>2026-04-04T12:56:05Z</time></trkpt><trkpt lat="48.32859476294104" lon="-4.000313241219909"><ele>220.0</ele><time>2026-04-04T12:56:06Z</time></trkpt><trkpt lat="48.32854094608559" lon="-4.000227849511985"><ele>220.0</ele><time>2026-04-04T12:56:07Z</time></trkpt><trkpt lat="48.32849289404948" lon="-4.000077915532591"><ele>219.99999999999997</ele><time>2026-04-04T12:56:09Z</time></trkpt><trkpt lat="48.328433630195384" lon="-3.999995843969015"><ele>220.0</ele><time>2026-04-04T12:56:12Z</time></trkpt><trkpt lat="48.32834252228453" lon="-4.000044532146413"><ele>219.99999999999997</ele><time>2026-04-04T12:56:14Z</time></trkpt><trkpt lat="48.32828417763211" lon="-4.000087347902182"><ele>220.0</ele><time>2026-04-04T12:56:15Z</time></trkpt><trkpt lat="48.328219972804085" lon="-4.000114786119499"><ele>220.0</ele><time>2026-04-04T12:56:16Z</time></trkpt><trkpt lat="48.32816359915534" lon="-4.000159710007312"><ele>220.0</ele><time>2026-04-04T12:56:17Z</time></trkpt><trkpt lat="48.3280702487" lon="-4.000262584782846"><ele>219.99999999999997</ele><time>2026-04-04T12:56:19Z</time></trkpt><trkpt lat="48.32798458658583" lon="-4.000376349947936"><ele>220.0</ele><time>2026-04-04T12:56:21Z</time></trkpt><trkpt lat="48.32792733273748" lon="-4.0004865097566515"><ele>217.99999999999997</ele><time>2026-04-04T12:56:23Z</time></trkpt><trkpt lat="48.32787375910155" lon="-4.000562155735924"><ele>216.0</ele><time>2026-04-04T12:56:24Z</time></trkpt><trkpt lat="48.32782787226141" lon="-4.000629799813008"><ele>214.0</ele><time>2026-04-04T12:56:25Z</time></trkpt><trkpt lat="48.327770297886886" lon="-4.000685805767858"><ele>212.0</ele><time>2026-04-04T12:56:26Z</time></trkpt><trkpt lat="48.327664832343224" lon="-4.000748507005713"><ele>209.99999999999997</ele><time>2026-04-04T12:56:28Z</time></trkpt><trkpt lat="48.327584901380334" lon="-4.00085531728288"><ele>208.0</ele><time>2026-04-04T12:56:30Z</time></trkpt><trkpt lat="48.327514997037206" lon="-4.000958737220427"><ele>208.0</ele><time>2026-04-04T12:56:32Z</time></trkpt><trkpt lat="48.32743840331154" lon="-4.00105059963188"><ele>208.0</ele><time>2026-04-04T12:56:34Z</time></trkpt><trkpt lat="48.32734277504654" lon="-4.001176202721466"><ele>208.0</ele><time>2026-04-04T12:56:36Z</time></trkpt><trkpt lat="48.32726862006427" lon="-4.001256870174676"><ele>208.0</ele><time>2026-04-04T12:56:38Z</time></trkpt><trkpt lat="48.327219944933816" lon="-4.001324047230407"><ele>208.0</ele><time>2026-04-04T12:56:40Z</time></trkpt><trkpt lat="48.3271543266086" lon="-4.001377270060423"><ele>205.2</ele><time>2026-04-04T12:56:42Z</time></trkpt><trkpt lat="48.32706518579679" lon="-4.0013369211087895"><ele>202.4</ele><time>2026-04-04T12:56:44Z</time></trkpt><trkpt lat="48.32696947713404" lon="-4.001330531786144"><ele>199.6</ele><time>2026-04-04T12:56:47Z</time></trkpt><trkpt lat="48.3268650321469" lon="-4.001351200958039"><ele>196.79999999999998</ele><time>2026-04-04T12:56:49Z</time></trkpt><trkpt lat="48.32676181454562" lon="-4.001373282838219"><ele>194.0</ele><time>2026-04-04T12:56:51Z</time></trkpt><trkpt lat="48.326681990886925" lon="-4.0013486230779005"><ele>194.00000000000003</ele><time>2026-04-04T12:56:53Z</time></trkpt><trkpt lat="48.326587817129706" lon="-4.0013731165939355"><ele>194.0</ele><time>2026-04-04T12:56:55.999Z</time></trkpt><trkpt lat="48.32651408048907" lon="-4.001389871264917"><ele>194.0</ele><time>2026-04-04T12:56:57.999Z</time></trkpt><trkpt lat="48.32643701153043" lon="-4.001365126543359"><ele>194.0</ele><time>2026-04-04T12:56:59.999Z</time></trkpt><trkpt lat="48.32632683315377" lon="-4.001403559491556"><ele>194.00000000000003</ele><time>2026-04-04T12:57:01.999Z</time></trkpt><trkpt lat="48.326261730407616" lon="-4.001407767809329"><ele>194.0</ele><time>2026-04-04T12:57:02.999Z</time></trkpt><trkpt lat="48.32617697152308" lon="-4.001400863003235"><ele>190.6</ele><time>2026-04-04T12:57:04.999Z</time></trkpt><trkpt lat="48.326039657479996" lon="-4.001395189009962"><ele>187.2</ele><time>2026-04-04T12:57:06.999Z</time></trkpt><trkpt lat="48.325925577592464" lon="-4.0013945296444495"><ele>183.79999999999998</ele><time>2026-04-04T12:57:08.999Z</time></trkpt><trkpt lat="48.325854097202246" lon="-4.001412788118222"><ele>180.39999999999998</ele><time>2026-04-04T12:57:09.999Z</time></trkpt><trkpt lat="48.325751073252675" lon="-4.001397512229838"><ele>177.0</ele><time>2026-04-04T12:57:11.999Z</time></trkpt><trkpt lat="48.325679798736736" lon="-4.001374554808239"><ele>177.0</ele><time>2026-04-04T12:57:13.999Z</time></trkpt><trkpt lat="48.32560760686576" lon="-4.0014105159170095"><ele>177.0</ele><time>2026-04-04T12:57:15.999Z</time></trkpt><trkpt lat="48.32553559278989" lon="-4.0014051906609165"><ele>177.0</ele><time>2026-04-04T12:57:17.999Z</time></trkpt><trkpt lat="48.32545697014355" lon="-4.001423871301729"><ele>177.0</ele><time>2026-04-04T12:57:19.999Z</time></trkpt><trkpt lat="48.325391149804865" lon="-4.001435457873695"><ele>177.0</ele><time>2026-04-04T12:57:22.999Z</time></trkpt><trkpt lat="48.325310117702706" lon="-4.001423372896606"><ele>177.0</ele><time>2026-04-04T12:57:24.999Z</time></trkpt><trkpt lat="48.32523866842202" lon="-4.001404737853219"><ele>177.0</ele><time>2026-04-04T12:57:28.999Z</time></trkpt><trkpt lat="48.325150899426376" lon="-4.001366005094496"><ele>174.83333333333334</ele><time>2026-04-04T12:57:31.999Z</time></trkpt><trkpt lat="48.32506741262906" lon="-4.001305380706789"><ele>172.66666666666666</ele><time>2026-04-04T12:57:33.999Z</time></trkpt><trkpt lat="48.32498452893394" lon="-4.0012812448071475"><ele>170.5</ele><time>2026-04-04T12:57:35.999Z</time></trkpt><trkpt lat="48.324910631167896" lon="-4.001271980718832"><ele>168.33333333333331</ele><time>2026-04-04T12:57:37.999Z</time></trkpt><trkpt lat="48.324828544088824" lon="-4.001263113289699"><ele>166.16666666666666</ele><time>2026-04-04T12:57:39.999Z</time></trkpt><trkpt lat="48.32474107156017" lon="-4.00123854556838"><ele>164.0</ele><time>2026-04-04T12:57:41.999Z</time></trkpt><trkpt lat="48.324632120055995" lon="-4.001229779132676"><ele>160.79999999999998</ele><time>2026-04-04T12:57:43.999Z</time></trkpt><trkpt lat="48.32452086983674" lon="-4.001189173780144"><ele>157.6</ele><time>2026-04-04T12:57:45.999Z</time></trkpt><trkpt lat="48.32445657690566" lon="-4.001179462759791"><ele>154.4</ele><time>2026-04-04T12:57:46.999Z</time></trkpt><trkpt lat="48.32438928076629" lon="-4.0011776299334185"><ele>151.2</ele><time>2026-04-04T12:57:47.999Z</time></trkpt><trkpt lat="48.3242685127901" lon="-4.001161047824093"><ele>148.0</ele><time>2026-04-04T12:57:49.999Z</time></trkpt><trkpt lat="48.32415351197483" lon="-4.001120538963284"><ele>148.0</ele><time>2026-04-04T12:57:51.999Z</time></trkpt><trkpt lat="48.324028159487824" lon="-4.001102887465459"><ele>148.0</ele><time>2026-04-04T12:57:53.999Z</time></trkpt><trkpt lat="48.32390778730509" lon="-4.001066573292461"><ele>148.0</ele><time>2026-04-04T12:57:55.999Z</time></trkpt><trkpt lat="48.32379918911567" lon="-4.001025913252712"><ele>148.0</ele><time>2026-04-04T12:57:57.999Z</time></trkpt><trkpt lat="48.32369307414962" lon="-4.0010118837246225"><ele>146.33333333333334</ele><time>2026-04-04T12:57:59.999Z</time></trkpt><trkpt lat="48.323607517235686" lon="-4.001058680565677"><ele>144.66666666666669</ele><time>2026-04-04T12:58:01.999Z</time></trkpt><trkpt lat="48.323563315507585" lon="-4.001144241490898"><ele>143.0</ele><time>2026-04-04T12:58:02.999Z</time></trkpt><trkpt lat="48.32352603235403" lon="-4.001277849536851"><ele>141.33333333333334</ele><time>2026-04-04T12:58:03.999Z</time></trkpt><trkpt lat="48.323501549902645" lon="-4.001406582214421"><ele>139.66666666666666</ele><time>2026-04-04T12:58:04.999Z</time></trkpt><trkpt lat="48.32348498828728" lon="-4.001507089228978"><ele>138.0</ele><time>2026-04-04T12:58:05.999Z</time></trkpt><trkpt lat="48.323453968532185" lon="-4.0016101722494914"><ele>138.0</ele><time>2026-04-04T12:58:06.999Z</time></trkpt><trkpt lat="48.32340792349774" lon="-4.001767887209809"><ele>138.0</ele><time>2026-04-04T12:58:09Z</time></trkpt><trkpt lat="48.32336265559115" lon="-4.00185819808627"><ele>138.0</ele><time>2026-04-04T12:58:10Z</time></trkpt><trkpt lat="48.3232650063022" lon="-4.001876590940513"><ele>138.0</ele><time>2026-04-04T12:58:12Z</time></trkpt><trkpt lat="48.323155951492595" lon="-4.0017963030201695"><ele>138.0</ele><time>2026-04-04T12:58:14Z</time></trkpt><trkpt lat="48.323081747857906" lon="-4.0017427687303195"><ele>136.5</ele><time>2026-04-04T12:58:15Z</time></trkpt><trkpt lat="48.323008300751816" lon="-4.001734102203257"><ele>135.0</ele><time>2026-04-04T12:58:16Z</time></trkpt><trkpt lat="48.32293816464933" lon="-4.001735588728637"><ele>133.5</ele><time>2026-04-04T12:58:17Z</time></trkpt><trkpt lat="48.32285935283627" lon="-4.001730834792448"><ele>132.0</ele><time>2026-04-04T12:58:18Z</time></trkpt><trkpt lat="48.322794805062586" lon="-4.001732364135109"><ele>130.5</ele><time>2026-04-04T12:58:19Z</time></trkpt><trkpt lat="48.32271712968793" lon="-4.001719769704887"><ele>129.0</ele><time>2026-04-04T12:58:20Z</time></trkpt><trkpt lat="48.32263243614544" lon="-4.001706414157047"><ele>129.0</ele><time>2026-04-04T12:58:21Z</time></trkpt><trkpt lat="48.32248731045854" lon="-4.001682455274659"><ele>129.0</ele><time>2026-04-04T12:58:23Z</time></trkpt><trkpt lat="48.322420302324595" lon="-4.001700549349131"><ele>129.0</ele><time>2026-04-04T12:58:24Z</time></trkpt><trkpt lat="48.32229776995804" lon="-4.001749392316912"><ele>129.0</ele><time>2026-04-04T12:58:26Z</time></trkpt><trkpt lat="48.322206176820075" lon="-4.001773128407023"><ele>129.0</ele><time>2026-04-04T12:58:27Z</time></trkpt><trkpt lat="48.32210752600318" lon="-4.001809622060918"><ele>127.4</ele><time>2026-04-04T12:58:28Z</time></trkpt><trkpt lat="48.32202473498656" lon="-4.001824183101798"><ele>125.80000000000001</ele><time>2026-04-04T12:58:29Z</time></trkpt><trkpt lat="48.32192978067058" lon="-4.001831569278835"><ele>124.19999999999999</ele><time>2026-04-04T12:58:30Z</time></trkpt><trkpt lat="48.32185118434009" lon="-4.001847486048248"><ele>122.6</ele><time>2026-04-04T12:58:31Z</time></trkpt><trkpt lat="48.321742328930284" lon="-4.001915012944327"><ele>121.0</ele><time>2026-04-04T12:58:33Z</time></trkpt><trkpt lat="48.321660993528056" lon="-4.00191268658771"><ele>121.00000000000001</ele><time>2026-04-04T12:58:35Z</time></trkpt><trkpt lat="48.32159704719712" lon="-4.00194852593407"><ele>121.0</ele><time>2026-04-04T12:58:37Z</time></trkpt><trkpt lat="48.3215294482665" lon="-4.001964119165177"><ele>121.0</ele><time>2026-04-04T12:58:39Z</time></trkpt><trkpt lat="48.3214593776356" lon="-4.0019802825379225"><ele>121.0</ele><time>2026-04-04T12:58:40Z</time></trkpt><trkpt lat="48.32137921675748" lon="-4.001979335959522"><ele>121.00000000000001</ele><time>2026-04-04T12:58:41Z</time></trkpt><trkpt lat="48.32128335425078" lon="-4.002008685747735"><ele>121.0</ele><time>2026-04-04T12:58:42Z</time></trkpt><trkpt lat="48.32115121877257" lon="-4.0020305594204135"><ele>118.5</ele><time>2026-04-04T12:58:43Z</time></trkpt><trkpt lat="48.321013134006506" lon="-4.002073897308869"><ele>116.0</ele><time>2026-04-04T12:58:44Z</time></trkpt><trkpt lat="48.32087248969519" lon="-4.002088731653404"><ele>113.5</ele><time>2026-04-04T12:58:45Z</time></trkpt><trkpt lat="48.32074990178483" lon="-4.002116471457553"><ele>111.0</ele><time>2026-04-04T12:58:46Z</time></trkpt><trkpt lat="48.320638082585475" lon="-4.002192525821968"><ele>109.19999999999999</ele><time>2026-04-04T12:58:47Z</time></trkpt><trkpt lat="48.32053750063985" lon="-4.002259159059813"><ele>107.39999999999999</ele><time>2026-04-04T12:58:48Z</time></trkpt><trkpt lat="48.32046758935128" lon="-4.002311662289252"><ele>105.6</ele><time>2026-04-04T12:58:49Z</time></trkpt><trkpt lat="48.320410074499954" lon="-4.00237908163248"><ele>103.8</ele><time>2026-04-04T12:58:50Z</time></trkpt><trkpt lat="48.32030666928268" lon="-4.002525147403497"><ele>102.0</ele><time>2026-04-04T12:58:52Z</time></trkpt><trkpt lat="48.32024878881922" lon="-4.0026019477150925"><ele>101.6</ele><time>2026-04-04T12:58:53Z</time></trkpt><trkpt lat="48.32008548041571" lon="-4.002508604019751"><ele>101.19999999999999</ele><time>2026-04-04T12:58:54Z</time></trkpt><trkpt lat="48.31999734818564" lon="-4.002576263551783"><ele>100.8</ele><time>2026-04-04T12:58:55Z</time></trkpt><trkpt lat="48.31992580443718" lon="-4.002606830941417"><ele>100.4</ele><time>2026-04-04T12:58:55.999Z</time></trkpt><trkpt lat="48.31983753764597" lon="-4.002649662402628"><ele>100.0</ele><time>2026-04-04T12:58:56.999Z</time></trkpt><trkpt lat="48.319759713817916" lon="-4.002688847508632"><ele>99.28571428571429</ele><time>2026-04-04T12:58:57.999Z</time></trkpt><trkpt lat="48.31968140597792" lon="-4.002708626825864"><ele>98.57142857142857</ele><time>2026-04-04T12:58:58.999Z</time></trkpt><trkpt lat="48.31961488166748" lon="-4.002715500184245"><ele>97.85714285714286</ele><time>2026-04-04T12:58:59.999Z</time></trkpt><trkpt lat="48.319545776338316" lon="-4.00270878659112"><ele>97.14285714285714</ele><time>2026-04-04T12:59:00.999Z</time></trkpt><trkpt lat="48.319487166831614" lon="-4.002659723611398"><ele>96.42857142857143</ele><time>2026-04-04T12:59:01.999Z</time></trkpt><trkpt lat="48.319443745093636" lon="-4.002577025574416"><ele>95.71428571428572</ele><time>2026-04-04T12:59:02.999Z</time></trkpt><trkpt lat="48.31942408848622" lon="-4.0024795105554185"><ele>95.0</ele><time>2026-04-04T12:59:03.999Z</time></trkpt><trkpt lat="48.319381484701175" lon="-4.002391727280069"><ele>95.0</ele><time>2026-04-04T12:59:04.999Z</time></trkpt><trkpt lat="48.319320122197475" lon="-4.002348538323534"><ele>95.0</ele><time>2026-04-04T12:59:05.999Z</time></trkpt><trkpt lat="48.31925672734565" lon="-4.002313812896062"><ele>95.0</ele><time>2026-04-04T12:59:06.999Z</time></trkpt><trkpt lat="48.31918676411944" lon="-4.002267254361766"><ele>95.0</ele><time>2026-04-04T12:59:07.999Z</time></trkpt><trkpt lat="48.319106373841315" lon="-4.00223293700515"><ele>95.0</ele><time>2026-04-04T12:59:08.999Z</time></trkpt><trkpt lat="48.319030715757805" lon="-4.002229146783349"><ele>95.0</ele><time>2026-04-04T12:59:09.999Z</time></trkpt><trkpt lat="48.31893297068819" lon="-4.002234054373879"><ele>94.66666666666667</ele><time>2026-04-04T12:59:10.999Z</time></trkpt><trkpt lat="48.31885273731141" lon="-4.002244056142521"><ele>94.33333333333334</ele><time>2026-04-04T12:59:11.999Z</time></trkpt><trkpt lat="48.31877469982249" lon="-4.00225427738389"><ele>94.0</ele><time>2026-04-04T12:59:12.999Z</time></trkpt><trkpt lat="48.318696411820326" lon="-4.0022602627693855"><ele>93.66666666666667</ele><time>2026-04-04T12:59:13.999Z</time></trkpt><trkpt lat="48.31861877705849" lon="-4.002228530514705"><ele>93.33333333333333</ele><time>2026-04-04T12:59:14.999Z</time></trkpt><trkpt lat="48.31854267921113" lon="-4.002198609374974"><ele>93.0</ele><time>2026-04-04T12:59:15.999Z</time></trkpt><trkpt lat="48.318462237786896" lon="-4.002147931372314"><ele>93.0</ele><time>2026-04-04T12:59:16.999Z</time></trkpt><trkpt lat="48.318378692034116" lon="-4.002126842472662"><ele>93.0</ele><time>2026-04-04T12:59:17.999Z</time></trkpt><trkpt lat="48.31829089068296" lon="-4.002106978903213"><ele>93.0</ele><time>2026-04-04T12:59:18.999Z</time></trkpt><trkpt lat="48.31821471026335" lon="-4.002096362299908"><ele>93.0</ele><time>2026-04-04T12:59:19.999Z</time></trkpt><trkpt lat="48.3181061320581" lon="-4.002178135337868"><ele>93.0</ele><time>2026-04-04T12:59:21.999Z</time></trkpt><trkpt lat="48.31799304716923" lon="-4.002200223391629"><ele>92.2</ele><time>2026-04-04T12:59:23.999Z</time></trkpt><trkpt lat="48.31788578849421" lon="-4.002196527618789"><ele>91.4</ele><time>2026-04-04T12:59:24.999Z</time></trkpt><trkpt lat="48.31777616178401" lon="-4.0021884244227826"><ele>90.60000000000001</ele><time>2026-04-04T12:59:25.999Z</time></trkpt><trkpt lat="48.31768126040699" lon="-4.002185728152138"><ele>89.80000000000001</ele><time>2026-04-04T12:59:26.999Z</time></trkpt><trkpt lat="48.31757688031367" lon="-4.002178926402242"><ele>89.0</ele><time>2026-04-04T12:59:27.999Z</time></trkpt><trkpt lat="48.31745890324542" lon="-4.002156732973169"><ele>89.0</ele><time>2026-04-04T12:59:28.999Z</time></trkpt><trkpt lat="48.31734271045489" lon="-4.002143774893351"><ele>89.0</ele><time>2026-04-04T12:59:29.999Z</time></trkpt><trkpt lat="48.31726239661659" lon="-4.0021315886219435"><ele>89.0</ele><time>2026-04-04T12:59:30.999Z</time></trkpt><trkpt lat="48.317136929842064" lon="-4.00208481612938"><ele>89.0</ele><time>2026-04-04T12:59:32.999Z</time></trkpt><trkpt lat="48.317008531420264" lon="-4.002050425085977"><ele>88.6</ele><time>2026-04-04T12:59:34.999Z</time></trkpt><trkpt lat="48.316944384964586" lon="-4.002027572324963"><ele>88.2</ele><time>2026-04-04T12:59:35.999Z</time></trkpt><trkpt lat="48.31685905732297" lon="-4.001888808953558"><ele>87.8</ele><time>2026-04-04T12:59:37.999Z</time></trkpt><trkpt lat="48.31679838549889" lon="-4.0017626058115585"><ele>87.39999999999999</ele><time>2026-04-04T12:59:39.999Z</time></trkpt><trkpt lat="48.316727083981455" lon="-4.001680709270032"><ele>87.0</ele><time>2026-04-04T12:59:40.999Z</time></trkpt><trkpt lat="48.31668441424759" lon="-4.001592737120446"><ele>87.0</ele><time>2026-04-04T12:59:41.999Z</time></trkpt><trkpt lat="48.31661293898042" lon="-4.001528416922174"><ele>87.0</ele><time>2026-04-04T12:59:42.999Z</time></trkpt><trkpt lat="48.31652197737822" lon="-4.001473062154065"><ele>87.0</ele><time>2026-04-04T12:59:43.999Z</time></trkpt><trkpt lat="48.316433246805325" lon="-4.001421852271956"><ele>87.0</ele><time>2026-04-04T12:59:44.999Z</time></trkpt><trkpt lat="48.316348986920524" lon="-4.001334248880884"><ele>87.0</ele><time>2026-04-04T12:59:45.999Z</time></trkpt><trkpt lat="48.31627218187362" lon="-4.001273221216695"><ele>86.85714285714286</ele><time>2026-04-04T12:59:46.999Z</time></trkpt><trkpt lat="48.3161950563412" lon="-4.001223157764254"><ele>86.71428571428572</ele><time>2026-04-04T12:59:47.999Z</time></trkpt><trkpt lat="48.31612416321134" lon="-4.001181877605908"><ele>86.57142857142858</ele><time>2026-04-04T12:59:48.999Z</time></trkpt><trkpt lat="48.316057681928974" lon="-4.001137116984015"><ele>86.42857142857143</ele><time>2026-04-04T12:59:49.999Z</time></trkpt><trkpt lat="48.31600877010198" lon="-4.001074869713053"><ele>86.28571428571429</ele><time>2026-04-04T12:59:50.999Z</time></trkpt><trkpt lat="48.31596476560943" lon="-4.00098122738015"><ele>86.14285714285715</ele><time>2026-04-04T12:59:51.999Z</time></trkpt><trkpt lat="48.31593037534753" lon="-4.0008996131965535"><ele>86.0</ele><time>2026-04-04T12:59:52.999Z</time></trkpt><trkpt lat="48.31581004829004" lon="-4.000843827334615"><ele>86.0</ele><time>2026-04-04T12:59:54.999Z</time></trkpt><trkpt lat="48.31572767199822" lon="-4.000848441404484"><ele>86.0</ele><time>2026-04-04T12:59:55.999Z</time></trkpt><trkpt lat="48.31563011853159" lon="-4.000852739319684"><ele>86.0</ele><time>2026-04-04T12:59:56.999Z</time></trkpt><trkpt lat="48.315561228932076" lon="-4.000818643794616"><ele>86.0</ele><time>2026-04-04T12:59:57.999Z</time></trkpt><trkpt lat="48.315483538212526" lon="-4.000789458513481"><ele>86.0</ele><time>2026-04-04T12:59:58.999Z</time></trkpt><trkpt lat="48.315405492756284" lon="-4.000762538328012"><ele>86.0</ele><time>2026-04-04T12:59:59.999Z</time></trkpt><trkpt lat="48.315314694168784" lon="-4.000742703603594"><ele>87.8</ele><time>2026-04-04T13:00:00.999Z</time></trkpt><trkpt lat="48.315219803563586" lon="-4.000702643781202"><ele>89.6</ele><time>2026-04-04T13:00:01.999Z</time></trkpt><trkpt lat="48.315142169147656" lon="-4.0006582539341435"><ele>91.4</ele><time>2026-04-04T13:00:02.999Z</time></trkpt><trkpt lat="48.31507610454706" lon="-4.000599365637762"><ele>93.2</ele><time>2026-04-04T13:00:03.999Z</time></trkpt><trkpt lat="48.31501463098619" lon="-4.000502415354755"><ele>95.0</ele><time>2026-04-04T13:00:04.999Z</time></trkpt><trkpt lat="48.3149237631612" lon="-4.000389919373936"><ele>95.0</ele><time>2026-04-04T13:00:05.999Z</time></trkpt><trkpt lat="48.31483833071561" lon="-4.00030716884935"><ele>95.0</ele><time>2026-04-04T13:00:06.999Z</time></trkpt><trkpt lat="48.31475129427845" lon="-4.000173117710108"><ele>95.0</ele><time>2026-04-04T13:00:07.999Z</time></trkpt><trkpt lat="48.31465238804572" lon="-4.000026240505815"><ele>95.0</ele><time>2026-04-04T13:00:08.999Z</time></trkpt><trkpt lat="48.31455675290588" lon="-3.999884624860041"><ele>92.75</ele><time>2026-04-04T13:00:09.999Z</time></trkpt><trkpt lat="48.31445961771675" lon="-3.9997496369768837"><ele>90.5</ele><time>2026-04-04T13:00:10.998Z</time></trkpt><trkpt lat="48.31436298190061" lon="-3.9996823727925723"><ele>88.25</ele><time>2026-04-04T13:00:11.998Z</time></trkpt><trkpt lat="48.3142384735341" lon="-3.9996261641931095"><ele>86.0</ele><time>2026-04-04T13:00:12.998Z</time></trkpt><trkpt lat="48.31410580630089" lon="-3.9995670330439888"><ele>86.0</ele><time>2026-04-04T13:00:13.998Z</time></trkpt><trkpt lat="48.31397547181257" lon="-3.999518830551095"><ele>86.0</ele><time>2026-04-04T13:00:15Z</time></trkpt><trkpt lat="48.3138775367152" lon="-3.999475559927419"><ele>86.0</ele><time>2026-04-04T13:00:16Z</time></trkpt><trkpt lat="48.313803992654336" lon="-3.999401760761407"><ele>86.0</ele><time>2026-04-04T13:00:17Z</time></trkpt><trkpt lat="48.31374667588188" lon="-3.9993145139137747"><ele>86.0</ele><time>2026-04-04T13:00:18Z</time></trkpt><trkpt lat="48.31369537107181" lon="-3.999228606800518"><ele>85.83333333333334</ele><time>2026-04-04T13:00:19Z</time></trkpt><trkpt lat="48.31365891249123" lon="-3.9990876415622996"><ele>85.66666666666667</ele><time>2026-04-04T13:00:21Z</time></trkpt><trkpt lat="48.3136740597791" lon="-3.9989593798727494"><ele>85.5</ele><time>2026-04-04T13:00:23Z</time></trkpt><trkpt lat="48.313625653977866" lon="-3.9988867809634634"><ele>85.33333333333333</ele><time>2026-04-04T13:00:25Z</time></trkpt><trkpt lat="48.31354976371903" lon="-3.998850001490205"><ele>85.16666666666666</ele><time>2026-04-04T13:00:27Z</time></trkpt><trkpt lat="48.31348509074607" lon="-3.9989037197454853"><ele>85.0</ele><time>2026-04-04T13:00:29Z</time></trkpt><trkpt lat="48.31346056494951" lon="-3.9989923057104755"><ele>85.0</ele><time>2026-04-04T13:00:31Z</time></trkpt><trkpt lat="48.31343076541775" lon="-3.99888519510212"><ele>85.0</ele><time>2026-04-04T13:00:38Z</time></trkpt><trkpt lat="48.31341485248463" lon="-3.998770737540245"><ele>85.0</ele><time>2026-04-04T13:01:24.999Z</time></trkpt><trkpt lat="48.31346255930095" lon="-3.998696290847689"><ele>85.0</ele><time>2026-04-04T13:01:26.999Z</time></trkpt><trkpt lat="48.31347053231576" lon="-3.9985877038419453"><ele>85.0</ele><time>2026-04-04T13:01:28.999Z</time></trkpt><trkpt lat="48.31350167715751" lon="-3.998485584973815"><ele>85.0</ele><time>2026-04-04T13:01:30.999Z</time></trkpt><trkpt lat="48.313542607941166" lon="-3.9983908282185294"><ele>85.0</ele><time>2026-04-04T13:01:33.999Z</time></trkpt><trkpt lat="48.313551495863805" lon="-3.998295856082979"><ele>86.0</ele><time>2026-04-04T13:01:35.999Z</time></trkpt><trkpt lat="48.31356259002094" lon="-3.998182367524719"><ele>87.0</ele><time>2026-04-04T13:01:37.999Z</time></trkpt><trkpt lat="48.31360649543333" lon="-3.9980846646435353"><ele>88.0</ele><time>2026-04-04T13:01:39.999Z</time></trkpt><trkpt lat="48.31364974018044" lon="-3.9980077509931706"><ele>89.0</ele><time>2026-04-04T13:01:41.999Z</time></trkpt><trkpt lat="48.31369798506147" lon="-3.9979296994061455"><ele>90.0</ele><time>2026-04-04T13:01:43.999Z</time></trkpt><trkpt lat="48.313789886063866" lon="-3.997831988216875"><ele>91.0</ele><time>2026-04-04T13:01:46.999Z</time></trkpt><trkpt lat="48.31385373677405" lon="-3.997804611052286"><ele>92.66666666666666</ele><time>2026-04-04T13:01:49.999Z</time></trkpt><trkpt lat="48.31393350173824" lon="-3.997828625554875"><ele>94.33333333333333</ele><time>2026-04-04T13:01:52.999Z</time></trkpt><trkpt lat="48.31401799380385" lon="-3.9977555822681325"><ele>96.0</ele><time>2026-04-04T13:01:54.999Z</time></trkpt><trkpt lat="48.314073242614064" lon="-3.997705649008994"><ele>97.66666666666666</ele><time>2026-04-04T13:01:55.999Z</time></trkpt><trkpt lat="48.31415576155741" lon="-3.997679834048758"><ele>99.33333333333333</ele><time>2026-04-04T13:01:57.999Z</time></trkpt><trkpt lat="48.31423786677474" lon="-3.9976075486228457"><ele>101.0</ele><time>2026-04-04T13:01:59.999Z</time></trkpt><trkpt lat="48.31428770257372" lon="-3.997542800087787"><ele>101.0</ele><time>2026-04-04T13:02:00.999Z</time></trkpt><trkpt lat="48.31437947356822" lon="-3.9974586924788236"><ele>101.0</ele><time>2026-04-04T13:02:02.999Z</time></trkpt><trkpt lat="48.3144364810749" lon="-3.9973931470108606"><ele>101.0</ele><time>2026-04-04T13:02:03.999Z</time></trkpt><trkpt lat="48.314541705217195" lon="-3.9972822670482744"><ele>101.0</ele><time>2026-04-04T13:02:05.999Z</time></trkpt><trkpt lat="48.31459141400776" lon="-3.9971648438804923"><ele>101.0</ele><time>2026-04-04T13:02:07.999Z</time></trkpt><trkpt lat="48.31467230558544" lon="-3.9971006345597186"><ele>103.66666666666666</ele><time>2026-04-04T13:02:09.999Z</time></trkpt><trkpt lat="48.314746511774146" lon="-3.9970935093922995"><ele>106.33333333333333</ele><time>2026-04-04T13:02:10.999Z</time></trkpt><trkpt lat="48.314810500130854" lon="-3.997055759774341"><ele>109.0</ele><time>2026-04-04T13:02:11.999Z</time></trkpt><trkpt lat="48.31488121150669" lon="-3.997001772704285"><ele>111.66666666666666</ele><time>2026-04-04T13:02:12.999Z</time></trkpt><trkpt lat="48.314957172722515" lon="-3.996948548085984"><ele>114.33333333333333</ele><time>2026-04-04T13:02:13.999Z</time></trkpt><trkpt lat="48.31504078975949" lon="-3.9968577502232"><ele>117.0</ele><time>2026-04-04T13:02:15.999Z</time></trkpt><trkpt lat="48.31513283070055" lon="-3.996794152902457"><ele>117.0</ele><time>2026-04-04T13:02:17.998Z</time></trkpt><trkpt lat="48.31521106085612" lon="-3.9966913455938187"><ele>117.0</ele><time>2026-04-04T13:02:20Z</time></trkpt><trkpt lat="48.31528047033853" lon="-3.9966142320711717"><ele>117.0</ele><time>2026-04-04T13:02:22Z</time></trkpt><trkpt lat="48.315341994564655" lon="-3.9965295660063975"><ele>117.0</ele><time>2026-04-04T13:02:25Z</time></trkpt><trkpt lat="48.31540997535754" lon="-3.9964386881408114"><ele>117.0</ele><time>2026-04-04T13:02:27Z</time></trkpt><trkpt lat="48.315457585974094" lon="-3.996359131661737"><ele>117.0</ele><time>2026-04-04T13:02:28Z</time></trkpt><trkpt lat="48.31549930618814" lon="-3.996262021216674"><ele>117.0</ele><time>2026-04-04T13:02:30Z</time></trkpt><trkpt lat="48.31550891430798" lon="-3.9961662777144875"><ele>116.99999999999999</ele><time>2026-04-04T13:02:46Z</time></trkpt><trkpt lat="48.31555599271183" lon="-3.996025398742969"><ele>116.99999999999999</ele><time>2026-04-04T13:02:49Z</time></trkpt><trkpt lat="48.31562451692692" lon="-3.9959669046334914"><ele>117.0</ele><time>2026-04-04T13:02:51Z</time></trkpt><trkpt lat="48.3156881668647" lon="-3.9958911235201273"><ele>117.0</ele><time>2026-04-04T13:02:53Z</time></trkpt><trkpt lat="48.31574086901668" lon="-3.995718777554022"><ele>117.0</ele><time>2026-04-04T13:02:55Z</time></trkpt><trkpt lat="48.31580012990174" lon="-3.995605869243966"><ele>117.0</ele><time>2026-04-04T13:02:56Z</time></trkpt><trkpt lat="48.31584520227177" lon="-3.995506046650462"><ele>117.0</ele><time>2026-04-04T13:02:57Z</time></trkpt><trkpt lat="48.3158898420834" lon="-3.995370574840121"><ele>117.0</ele><time>2026-04-04T13:02:59Z</time></trkpt><trkpt lat="48.315878777775694" lon="-3.9952516809838237"><ele>117.0</ele><time>2026-04-04T13:03:37.999Z</time></trkpt><trkpt lat="48.31581194215199" lon="-3.995210038735398"><ele>117.0</ele><time>2026-04-04T13:03:39.999Z</time></trkpt><trkpt lat="48.315783374047605" lon="-3.995119322266578"><ele>117.0</ele><time>2026-04-04T13:04:07.999Z</time></trkpt><trkpt lat="48.31581962833371" lon="-3.995034612387388"><ele>117.00000000000001</ele><time>2026-04-04T13:04:26Z</time></trkpt><trkpt lat="48.31584378311297" lon="-3.9949189010579214"><ele>117.0</ele><time>2026-04-04T13:04:31Z</time></trkpt><trkpt lat="48.315884488703304" lon="-3.994817686864956"><ele>117.0</ele><time>2026-04-04T13:04:42Z</time></trkpt><trkpt lat="48.31591023253237" lon="-3.9947013241268645"><ele>117.00000000000001</ele><time>2026-04-04T13:04:46Z</time></trkpt><trkpt lat="48.31590753769763" lon="-3.994602216070947"><ele>117.0</ele><time>2026-04-04T13:04:48Z</time></trkpt><trkpt lat="48.315940651305084" lon="-3.994510181200745"><ele>117.0</ele><time>2026-04-04T13:04:58Z</time></trkpt><trkpt lat="48.315994608629964" lon="-3.9944318324776087"><ele>117.42857142857143</ele><time>2026-04-04T13:05:08Z</time></trkpt><trkpt lat="48.316024742185604" lon="-3.9943485210734453"><ele>117.85714285714286</ele><time>2026-04-04T13:05:11Z</time></trkpt><trkpt lat="48.31603442161551" lon="-3.994243328442374"><ele>118.28571428571429</ele><time>2026-04-04T13:05:16Z</time></trkpt><trkpt lat="48.31603592568838" lon="-3.9941349747843087"><ele>118.71428571428572</ele><time>2026-04-04T13:05:28.999Z</time></trkpt><trkpt lat="48.3160181635947" lon="-3.9940248686880655"><ele>119.14285714285714</ele><time>2026-04-04T13:05:32.999Z</time></trkpt><trkpt lat="48.31600681208483" lon="-3.9939198368962523"><ele>119.57142857142858</ele><time>2026-04-04T13:06:06.999Z</time></trkpt><trkpt lat="48.315999742031224" lon="-3.9938037391456875"><ele>120.0</ele><time>2026-04-04T13:06:19.999Z</time></trkpt><trkpt lat="48.31601955289128" lon="-3.993670191806757"><ele>121.16666666666667</ele><time>2026-04-04T13:07:42.999Z</time></trkpt><trkpt lat="48.31606381798005" lon="-3.993577094433794"><ele>122.33333333333334</ele><time>2026-04-04T13:07:45.999Z</time></trkpt><trkpt lat="48.31609977825233" lon="-3.9934946053612643"><ele>123.5</ele><time>2026-04-04T13:07:48.999Z</time></trkpt><trkpt lat="48.31615541269268" lon="-3.993547320725621"><ele>124.66666666666667</ele><time>2026-04-04T13:07:51.999Z</time></trkpt><trkpt lat="48.316227693423514" lon="-3.9935711404239265"><ele>125.83333333333334</ele><time>2026-04-04T13:07:54.999Z</time></trkpt><trkpt lat="48.31630054599729" lon="-3.9935038397557996"><ele>127.0</ele><time>2026-04-04T13:08:00.999Z</time></trkpt><trkpt lat="48.316324026324686" lon="-3.9933809510930707"><ele>127.39999999999999</ele><time>2026-04-04T13:08:02.999Z</time></trkpt><trkpt lat="48.316361959592086" lon="-3.9932934315765127"><ele>127.79999999999998</ele><time>2026-04-04T13:10:55Z</time></trkpt><trkpt lat="48.31631654716954" lon="-3.993150115679663"><ele>128.2</ele><time>2026-04-04T13:10:57Z</time></trkpt><trkpt lat="48.31629413666568" lon="-3.9929668434458443"><ele>128.6</ele><time>2026-04-04T13:10:59Z</time></trkpt><trkpt lat="48.316295273255385" lon="-3.9927492003929324"><ele>129.0</ele><time>2026-04-04T13:11:01Z</time></trkpt><trkpt lat="48.31629488307831" lon="-3.9926043955273425"><ele>129.0</ele><time>2026-04-04T13:11:03Z</time></trkpt><trkpt lat="48.31623558647623" lon="-3.9925339329173823"><ele>129.0</ele><time>2026-04-04T13:11:07Z</time></trkpt><trkpt lat="48.316237076312376" lon="-3.9924376746813155"><ele>129.0</ele><time>2026-04-04T13:11:09Z</time></trkpt><trkpt lat="48.316251003751795" lon="-3.9922947423934163"><ele>129.0</ele><time>2026-04-04T13:11:11Z</time></trkpt><trkpt lat="48.31632032008323" lon="-3.9922444074902206"><ele>129.0</ele><time>2026-04-04T13:11:24Z</time></trkpt><trkpt lat="48.31631346005026" lon="-3.9921340227800286"><ele>129.0</ele><time>2026-04-04T13:11:33Z</time></trkpt><trkpt lat="48.31627365499728" lon="-3.9920501777045754"><ele>130.4</ele><time>2026-04-04T13:11:35Z</time></trkpt><trkpt lat="48.31621641342591" lon="-3.9919824135111823"><ele>131.8</ele><time>2026-04-04T13:11:36Z</time></trkpt><trkpt lat="48.316100089270165" lon="-3.991799173936774"><ele>133.2</ele><time>2026-04-04T13:11:37.999Z</time></trkpt><trkpt lat="48.31603997695746" lon="-3.9917096352190247"><ele>134.6</ele><time>2026-04-04T13:11:38.999Z</time></trkpt><trkpt lat="48.31600706302417" lon="-3.9916223353699385"><ele>136.0</ele><time>2026-04-04T13:11:40.999Z</time></trkpt><trkpt lat="48.31594860388776" lon="-3.991520850195484"><ele>136.42857142857142</ele><time>2026-04-04T13:12:08.999Z</time></trkpt><trkpt lat="48.315885181978786" lon="-3.9914705710710723"><ele>136.85714285714286</ele><time>2026-04-04T13:12:10.999Z</time></trkpt><trkpt lat="48.315815277889016" lon="-3.991430127021588"><ele>137.28571428571428</ele><time>2026-04-04T13:12:13.999Z</time></trkpt><trkpt lat="48.31572817419727" lon="-3.9914248686155975"><ele>137.71428571428572</ele><time>2026-04-04T13:12:51Z</time></trkpt><trkpt lat="48.31568078720331" lon="-3.991500444896548"><ele>138.14285714285714</ele><time>2026-04-04T13:12:56Z</time></trkpt><trkpt lat="48.315618883900896" lon="-3.991537313565978"><ele>138.57142857142856</ele><time>2026-04-04T13:13:02Z</time></trkpt><trkpt lat="48.315583062032886" lon="-3.991459306597962"><ele>139.0</ele><time>2026-04-04T13:13:52.999Z</time></trkpt><trkpt lat="48.31549943856588" lon="-3.9914661133666325"><ele>142.5</ele><time>2026-04-04T13:15:33Z</time></trkpt><trkpt lat="48.31542076757047" lon="-3.991427450160093"><ele>146.0</ele><time>2026-04-04T13:15:36Z</time></trkpt><trkpt lat="48.31534190121038" lon="-3.9913370637953984"><ele>149.5</ele><time>2026-04-04T13:15:38Z</time></trkpt><trkpt lat="48.3152409501838" lon="-3.9913025994118807"><ele>153.0</ele><time>2026-04-04T13:15:40Z</time></trkpt><trkpt lat="48.31517826344746" lon="-3.991245567031026"><ele>156.5</ele><time>2026-04-04T13:15:42Z</time></trkpt><trkpt lat="48.31512087893282" lon="-3.9911667516113405"><ele>160.0</ele><time>2026-04-04T13:15:44.999Z</time></trkpt><trkpt lat="48.31505937450372" lon="-3.9911108679583847"><ele>160.0</ele><time>2026-04-04T13:16:07.999Z</time></trkpt><trkpt lat="48.31498420028488" lon="-3.991160536260453"><ele>160.0</ele><time>2026-04-04T13:16:11.999Z</time></trkpt><trkpt lat="48.31491754463193" lon="-3.99114335104987"><ele>160.0</ele><time>2026-04-04T13:16:14.999Z</time></trkpt><trkpt lat="48.31487588884943" lon="-3.991054819493143"><ele>160.0</ele><time>2026-04-04T13:16:17.999Z</time></trkpt><trkpt lat="48.31481074598516" lon="-3.9910152373203376"><ele>160.0</ele><time>2026-04-04T13:16:39.999Z</time></trkpt><trkpt lat="48.31485157949734" lon="-3.9910881454306235"><ele>160.0</ele><time>2026-04-04T13:17:50Z</time></trkpt><trkpt lat="48.314897336543034" lon="-3.9911568206799606"><ele>160.0</ele><time>2026-04-04T13:17:53.999Z</time></trkpt><trkpt lat="48.314966400854786" lon="-3.9911823613646358"><ele>160.0</ele><time>2026-04-04T13:18:50.999Z</time></trkpt><trkpt lat="48.31504119855389" lon="-3.9911399433522177"><ele>160.0</ele><time>2026-04-04T13:18:55.999Z</time></trkpt><trkpt lat="48.315115155838484" lon="-3.991170181174566"><ele>160.0</ele><time>2026-04-04T13:18:59.999Z</time></trkpt><trkpt lat="48.31518621314994" lon="-3.9912530664678365"><ele>160.0</ele><time>2026-04-04T13:19:02.999Z</time></trkpt><trkpt lat="48.31529408100863" lon="-3.991327652066735"><ele>160.0</ele><time>2026-04-04T13:19:04.999Z</time></trkpt><trkpt lat="48.315385906441044" lon="-3.9913912602598636"><ele>160.0</ele><time>2026-04-04T13:19:06.999Z</time></trkpt><trkpt lat="48.31542456764066" lon="-3.9914752560152764"><ele>160.0</ele><time>2026-04-04T13:19:09Z</time></trkpt><trkpt lat="48.31551671146887" lon="-3.991391589807332"><ele>160.0</ele><time>2026-04-04T13:19:12Z</time></trkpt><trkpt lat="48.31556078111231" lon="-3.991489683712418"><ele>160.0</ele><time>2026-04-04T13:19:14Z</time></trkpt><trkpt lat="48.31562607492423" lon="-3.9915382527095695"><ele>160.0</ele><time>2026-04-04T13:19:18Z</time></trkpt><trkpt lat="48.315633207319614" lon="-3.9914123704457998"><ele>160.0</ele><time>2026-04-04T13:19:22Z</time></trkpt><trkpt lat="48.31561371952598" lon="-3.9912920417424167"><ele>156.5</ele><time>2026-04-04T13:19:25Z</time></trkpt><trkpt lat="48.31563358542488" lon="-3.9911973971099113"><ele>153.0</ele><time>2026-04-04T13:19:27Z</time></trkpt><trkpt lat="48.315616097376214" lon="-3.991088928185507"><ele>149.5</ele><time>2026-04-04T13:19:30Z</time></trkpt><trkpt lat="48.315635391040125" lon="-3.990982058242156"><ele>146.0</ele><time>2026-04-04T13:19:33Z</time></trkpt><trkpt lat="48.315662605144624" lon="-3.9908599940527623"><ele>142.5</ele><time>2026-04-04T13:19:36Z</time></trkpt><trkpt lat="48.3156577339563" lon="-3.9907443491934687"><ele>139.0</ele><time>2026-04-04T13:19:39Z</time></trkpt><trkpt lat="48.31568607612236" lon="-3.9906356608891107"><ele>138.83333333333334</ele><time>2026-04-04T13:19:40Z</time></trkpt><trkpt lat="48.315742557986965" lon="-3.9905534495740915"><ele>138.66666666666669</ele><time>2026-04-04T13:19:43Z</time></trkpt><trkpt lat="48.31580221902335" lon="-3.9904673450152983"><ele>138.5</ele><time>2026-04-04T13:19:45Z</time></trkpt><trkpt lat="48.315840274983195" lon="-3.9903634878086027"><ele>138.33333333333334</ele><time>2026-04-04T13:19:47Z</time></trkpt><trkpt lat="48.315874978571465" lon="-3.9902840685540646"><ele>138.16666666666666</ele><time>2026-04-04T13:19:49Z</time></trkpt><trkpt lat="48.31592825415327" lon="-3.9902043427556664"><ele>138.0</ele><time>2026-04-04T13:19:53Z</time></trkpt><trkpt lat="48.31597195817021" lon="-3.990114644624987"><ele>138.83333333333334</ele><time>2026-04-04T13:19:55.999Z</time></trkpt><trkpt lat="48.31603850242233" lon="-3.9899968851926864"><ele>139.66666666666666</ele><time>2026-04-04T13:19:57.999Z</time></trkpt><trkpt lat="48.316086916695475" lon="-3.9899356158398125"><ele>140.5</ele><time>2026-04-04T13:19:58.999Z</time></trkpt><trkpt lat="48.316141495230426" lon="-3.989879084283396"><ele>141.33333333333331</ele><time>2026-04-04T13:19:59.999Z</time></trkpt><trkpt lat="48.316213691217875" lon="-3.9897361136321217"><ele>142.16666666666666</ele><time>2026-04-04T13:20:01.999Z</time></trkpt><trkpt lat="48.3162647787605" lon="-3.989665087462621"><ele>143.0</ele><time>2026-04-04T13:20:02.999Z</time></trkpt><trkpt lat="48.31633896248302" lon="-3.989581819310364"><ele>143.33333333333331</ele><time>2026-04-04T13:20:03.999Z</time></trkpt><trkpt lat="48.31640928205271" lon="-3.989493971797538"><ele>143.66666666666666</ele><time>2026-04-04T13:20:04.999Z</time></trkpt><trkpt lat="48.31648122144568" lon="-3.9894200162163824"><ele>144.0</ele><time>2026-04-04T13:20:05.999Z</time></trkpt><trkpt lat="48.31654021281628" lon="-3.9893617258412335"><ele>144.33333333333334</ele><time>2026-04-04T13:20:06.999Z</time></trkpt><trkpt lat="48.31663055086876" lon="-3.989276577881333"><ele>144.66666666666669</ele><time>2026-04-04T13:20:08.999Z</time></trkpt><trkpt lat="48.31669424773478" lon="-3.9892236803010532"><ele>145.0</ele><time>2026-04-04T13:20:09.999Z</time></trkpt><trkpt lat="48.316747297640404" lon="-3.9891715420553564"><ele>145.0</ele><time>2026-04-04T13:20:10.999Z</time></trkpt><trkpt lat="48.31680458366269" lon="-3.989124266967133"><ele>145.0</ele><time>2026-04-04T13:20:11.999Z</time></trkpt><trkpt lat="48.31686750169567" lon="-3.989039183444435"><ele>145.0</ele><time>2026-04-04T13:20:13.999Z</time></trkpt><trkpt lat="48.316954591056536" lon="-3.988878966407342"><ele>145.0</ele><time>2026-04-04T13:20:15.999Z</time></trkpt><trkpt lat="48.317013707069805" lon="-3.9887455257878788"><ele>145.0</ele><time>2026-04-04T13:20:16.999Z</time></trkpt><trkpt lat="48.317071584979686" lon="-3.988613435144423"><ele>145.0</ele><time>2026-04-04T13:20:17.999Z</time></trkpt><trkpt lat="48.31712009476585" lon="-3.9885048436056083"><ele>145.0</ele><time>2026-04-04T13:20:18.999Z</time></trkpt><trkpt lat="48.31714714955145" lon="-3.9884052858723176"><ele>145.0</ele><time>2026-04-04T13:20:19.999Z</time></trkpt><trkpt lat="48.31717141413852" lon="-3.988252917346723"><ele>145.0</ele><time>2026-04-04T13:20:21.999Z</time></trkpt><trkpt lat="48.31719463496507" lon="-3.988151611974389"><ele>145.0</ele><time>2026-04-04T13:20:22.999Z</time></trkpt><trkpt lat="48.31722490549437" lon="-3.9880188774298233"><ele>145.0</ele><time>2026-04-04T13:20:23.999Z</time></trkpt><trkpt lat="48.317275445901245" lon="-3.987881766553679"><ele>145.66666666666669</ele><time>2026-04-04T13:20:24.999Z</time></trkpt><trkpt lat="48.31732786074222" lon="-3.9878099507169398"><ele>146.33333333333334</ele><time>2026-04-04T13:20:25.999Z</time></trkpt><trkpt lat="48.317387969128035" lon="-3.9877595169755917"><ele>147.0</ele><time>2026-04-04T13:20:26.999Z</time></trkpt><trkpt lat="48.31746965366692" lon="-3.987754077124175"><ele>147.66666666666666</ele><time>2026-04-04T13:20:28.999Z</time></trkpt><trkpt lat="48.317540315128014" lon="-3.987737572541198"><ele>148.33333333333331</ele><time>2026-04-04T13:23:11.999Z</time></trkpt><trkpt lat="48.317625737688786" lon="-3.9878062971448793"><ele>149.0</ele><time>2026-04-04T13:23:13.999Z</time></trkpt><trkpt lat="48.317710967474795" lon="-3.9878848730947007"><ele>149.0</ele><time>2026-04-04T13:23:15.999Z</time></trkpt><trkpt lat="48.31777147994524" lon="-3.987926620343022"><ele>149.0</ele><time>2026-04-04T13:23:35Z</time></trkpt><trkpt lat="48.3178602670575" lon="-3.9878102587282904"><ele>149.0</ele><time>2026-04-04T13:23:38Z</time></trkpt><trkpt lat="48.317880701940894" lon="-3.987719279868139"><ele>149.0</ele><time>2026-04-04T13:23:39Z</time></trkpt><trkpt lat="48.31791980841411" lon="-3.9875776265853196"><ele>149.0</ele><time>2026-04-04T13:23:41Z</time></trkpt><trkpt lat="48.31794726283686" lon="-3.9874440579962527"><ele>149.0</ele><time>2026-04-04T13:23:43Z</time></trkpt><trkpt lat="48.31793763573523" lon="-3.9873052118594288"><ele>149.4</ele><time>2026-04-04T13:23:45Z</time></trkpt><trkpt lat="48.317854415426226" lon="-3.9871983353791918"><ele>149.8</ele><time>2026-04-04T13:23:47Z</time></trkpt><trkpt lat="48.317777715112555" lon="-3.987155401900602"><ele>150.2</ele><time>2026-04-04T13:23:48Z</time></trkpt><trkpt lat="48.31767524199905" lon="-3.987143873140903"><ele>150.6</ele><time>2026-04-04T13:23:49Z</time></trkpt><trkpt lat="48.3175795468678" lon="-3.987076454502862"><ele>151.0</ele><time>2026-04-04T13:23:50Z</time></trkpt><trkpt lat="48.317479637510836" lon="-3.9870060668668668"><ele>151.0</ele><time>2026-04-04T13:23:51Z</time></trkpt><trkpt lat="48.31737209405376" lon="-3.986930300911748"><ele>151.0</ele><time>2026-04-04T13:23:52Z</time></trkpt><trkpt lat="48.31725872918449" lon="-3.986849983916145"><ele>151.0</ele><time>2026-04-04T13:23:53Z</time></trkpt><trkpt lat="48.317142234365456" lon="-3.9867627513151898"><ele>151.0</ele><time>2026-04-04T13:23:54Z</time></trkpt><trkpt lat="48.317026537438004" lon="-3.986666619672294"><ele>151.33333333333334</ele><time>2026-04-04T13:23:55Z</time></trkpt><trkpt lat="48.31690471173477" lon="-3.986552914786676"><ele>151.66666666666666</ele><time>2026-04-04T13:23:56Z</time></trkpt><trkpt lat="48.31677933357997" lon="-3.986427145219421"><ele>152.0</ele><time>2026-04-04T13:23:57Z</time></trkpt><trkpt lat="48.31666560245791" lon="-3.9862639266959534"><ele>152.0</ele><time>2026-04-04T13:23:58Z</time></trkpt><trkpt lat="48.316549290472786" lon="-3.986119829474466"><ele>152.0</ele><time>2026-04-04T13:23:59Z</time></trkpt><trkpt lat="48.316431032756924" lon="-3.985958203638354"><ele>152.0</ele><time>2026-04-04T13:24:00Z</time></trkpt><trkpt lat="48.316319514812484" lon="-3.9857983580178993"><ele>152.5</ele><time>2026-04-04T13:24:01Z</time></trkpt><trkpt lat="48.31621505441246" lon="-3.9856496282051475"><ele>153.0</ele><time>2026-04-04T13:24:02Z</time></trkpt><trkpt lat="48.31612168155901" lon="-3.9855113382627585"><ele>153.5</ele><time>2026-04-04T13:24:03Z</time></trkpt><trkpt lat="48.31603528093429" lon="-3.9853781961459473"><ele>154.0</ele><time>2026-04-04T13:24:04Z</time></trkpt><trkpt lat="48.315948798875226" lon="-3.985242234329786"><ele>154.0</ele><time>2026-04-04T13:24:05Z</time></trkpt><trkpt lat="48.31585597889302" lon="-3.9851051486723192"><ele>154.0</ele><time>2026-04-04T13:24:06Z</time></trkpt><trkpt lat="48.315762284822" lon="-3.9849719587847487"><ele>154.0</ele><time>2026-04-04T13:24:07Z</time></trkpt><trkpt lat="48.315678529625494" lon="-3.9848530979711176"><ele>154.0</ele><time>2026-04-04T13:24:08Z</time></trkpt><trkpt lat="48.31559708229695" lon="-3.9847332723708884"><ele>155.0</ele><time>2026-04-04T13:24:09Z</time></trkpt><trkpt lat="48.315501954105095" lon="-3.9846337206504963"><ele>156.0</ele><time>2026-04-04T13:24:09.999Z</time></trkpt><trkpt lat="48.3154193306673" lon="-3.984496840606761"><ele>157.0</ele><time>2026-04-04T13:24:10.999Z</time></trkpt><trkpt lat="48.315322779095425" lon="-3.984380353477468"><ele>158.0</ele><time>2026-04-04T13:24:11.999Z</time></trkpt><trkpt lat="48.31522881022162" lon="-3.984261240811669"><ele>156.75</ele><time>2026-04-04T13:24:12.999Z</time></trkpt><trkpt lat="48.31513881433915" lon="-3.984130064801324"><ele>155.5</ele><time>2026-04-04T13:24:13.999Z</time></trkpt><trkpt lat="48.31505604731657" lon="-3.9839935154678305"><ele>154.25</ele><time>2026-04-04T13:24:14.999Z</time></trkpt><trkpt lat="48.314972534907284" lon="-3.9838497766962355"><ele>153.0</ele><time>2026-04-04T13:24:15.999Z</time></trkpt><trkpt lat="48.3148904640471" lon="-3.9837005778251995"><ele>153.0</ele><time>2026-04-04T13:24:16.999Z</time></trkpt><trkpt lat="48.31480269292582" lon="-3.983571191123232"><ele>153.0</ele><time>2026-04-04T13:24:17.999Z</time></trkpt><trkpt lat="48.31473352153606" lon="-3.9834414200471655"><ele>153.0</ele><time>2026-04-04T13:24:18.999Z</time></trkpt><trkpt lat="48.314684732897476" lon="-3.9833131699474937"><ele>153.0</ele><time>2026-04-04T13:24:19.999Z</time></trkpt><trkpt lat="48.3146272790174" lon="-3.983224482153476"><ele>153.0</ele><time>2026-04-04T13:24:20.999Z</time></trkpt><trkpt lat="48.31458781278755" lon="-3.9831482659887296"><ele>152.4</ele><time>2026-04-04T13:24:21.999Z</time></trkpt><trkpt lat="48.31453198427162" lon="-3.9830883469012157"><ele>151.8</ele><time>2026-04-04T13:24:23.999Z</time></trkpt><trkpt lat="48.314432804569456" lon="-3.983269121127293"><ele>151.2</ele><time>2026-04-04T13:24:27.999Z</time></trkpt><trkpt lat="48.31440778485438" lon="-3.9833605767744604"><ele>150.6</ele><time>2026-04-04T13:24:28.999Z</time></trkpt><trkpt lat="48.31437318086236" lon="-3.9834656808220474"><ele>150.0</ele><time>2026-04-04T13:24:29.999Z</time></trkpt><trkpt lat="48.31432960597808" lon="-3.9835814227194186"><ele>151.2</ele><time>2026-04-04T13:24:30.999Z</time></trkpt><trkpt lat="48.31427274459854" lon="-3.983739258184317"><ele>152.4</ele><time>2026-04-04T13:24:31.999Z</time></trkpt><trkpt lat="48.31422637689753" lon="-3.9838341146933955"><ele>153.6</ele><time>2026-04-04T13:24:32.999Z</time></trkpt><trkpt lat="48.314102093798176" lon="-3.9838691485562094"><ele>154.8</ele><time>2026-04-04T13:24:34.999Z</time></trkpt><trkpt lat="48.313983103786825" lon="-3.9838496195188537"><ele>156.0</ele><time>2026-04-04T13:24:35.999Z</time></trkpt><trkpt lat="48.31384554857025" lon="-3.9838104764318767"><ele>156.25</ele><time>2026-04-04T13:24:36.999Z</time></trkpt><trkpt lat="48.313714886540296" lon="-3.983806602777191"><ele>156.5</ele><time>2026-04-04T13:24:37.999Z</time></trkpt><trkpt lat="48.313569292990664" lon="-3.9837945495595743"><ele>156.75</ele><time>2026-04-04T13:24:38.999Z</time></trkpt><trkpt lat="48.31340085612459" lon="-3.98378866816644"><ele>157.0</ele><time>2026-04-04T13:24:39.999Z</time></trkpt><trkpt lat="48.31329513924635" lon="-3.98380288354998"><ele>157.0</ele><time>2026-04-04T13:24:40.999Z</time></trkpt><trkpt lat="48.31318335305184" lon="-3.9838247396624427"><ele>157.0</ele><time>2026-04-04T13:24:41.999Z</time></trkpt><trkpt lat="48.3130906209789" lon="-3.9838694547350086"><ele>157.0</ele><time>2026-04-04T13:24:42.999Z</time></trkpt><trkpt lat="48.3130222900637" lon="-3.983893754377781"><ele>157.0</ele><time>2026-04-04T13:24:43.999Z</time></trkpt><trkpt lat="48.31292400627506" lon="-3.983886613956686"><ele>157.0</ele><time>2026-04-04T13:24:44.999Z</time></trkpt><trkpt lat="48.31282544569278" lon="-3.9838709543879025"><ele>157.2</ele><time>2026-04-04T13:24:45.999Z</time></trkpt><trkpt lat="48.31272318657082" lon="-3.983855708215038"><ele>157.39999999999998</ele><time>2026-04-04T13:24:46.999Z</time></trkpt><trkpt lat="48.312622014375705" lon="-3.9838320084697156"><ele>157.60000000000002</ele><time>2026-04-04T13:24:47.999Z</time></trkpt><trkpt lat="48.31253299492806" lon="-3.983815946720749"><ele>157.8</ele><time>2026-04-04T13:24:48.999Z</time></trkpt><trkpt lat="48.31244377694582" lon="-3.983795148526283"><ele>158.0</ele><time>2026-04-04T13:24:49.999Z</time></trkpt><trkpt lat="48.3123497084089" lon="-3.9837747817425546"><ele>158.0</ele><time>2026-04-04T13:24:50.999Z</time></trkpt><trkpt lat="48.312252016683814" lon="-3.983759673027443"><ele>158.0</ele><time>2026-04-04T13:24:51.999Z</time></trkpt><trkpt lat="48.31215389963886" lon="-3.983746521436808"><ele>158.0</ele><time>2026-04-04T13:24:52.999Z</time></trkpt><trkpt lat="48.312058845261724" lon="-3.983753907101101"><ele>158.0</ele><time>2026-04-04T13:24:53.999Z</time></trkpt><trkpt lat="48.311974693048896" lon="-3.9837640031531207"><ele>158.0</ele><time>2026-04-04T13:24:54.999Z</time></trkpt><trkpt lat="48.31189359533247" lon="-3.9837605469061357"><ele>158.20000000000002</ele><time>2026-04-04T13:24:55.999Z</time></trkpt><trkpt lat="48.31181694156015" lon="-3.983756688934548"><ele>158.4</ele><time>2026-04-04T13:24:56.999Z</time></trkpt><trkpt lat="48.31173280781541" lon="-3.983769392415191"><ele>158.60000000000002</ele><time>2026-04-04T13:24:57.999Z</time></trkpt><trkpt lat="48.31164149461424" lon="-3.983823521545343"><ele>158.8</ele><time>2026-04-04T13:24:58.999Z</time></trkpt><trkpt lat="48.31155336549759" lon="-3.9838979803560575"><ele>159.0</ele><time>2026-04-04T13:24:59.999Z</time></trkpt><trkpt lat="48.31146804104508" lon="-3.983978152240747"><ele>158.6</ele><time>2026-04-04T13:25:00.999Z</time></trkpt><trkpt lat="48.31136203892771" lon="-3.984054257742951"><ele>158.2</ele><time>2026-04-04T13:25:01.999Z</time></trkpt><trkpt lat="48.311269656809664" lon="-3.9841443247876667"><ele>157.79999999999998</ele><time>2026-04-04T13:25:02.999Z</time></trkpt><trkpt lat="48.31118101511589" lon="-3.984226757302013"><ele>157.4</ele><time>2026-04-04T13:25:03.999Z</time></trkpt><trkpt lat="48.31111176137602" lon="-3.9842946684949134"><ele>157.0</ele><time>2026-04-04T13:25:04.999Z</time></trkpt><trkpt lat="48.311052532947365" lon="-3.9843859403728907"><ele>156.79999999999998</ele><time>2026-04-04T13:25:05.999Z</time></trkpt><trkpt lat="48.31095793758628" lon="-3.984447271891162"><ele>156.6</ele><time>2026-04-04T13:25:07.999Z</time></trkpt><trkpt lat="48.31087113083348" lon="-3.984408669859005"><ele>156.39999999999998</ele><time>2026-04-04T13:25:08.999Z</time></trkpt><trkpt lat="48.31076483460051" lon="-3.9843524573686118"><ele>156.2</ele><time>2026-04-04T13:25:09.999Z</time></trkpt><trkpt lat="48.310665716735826" lon="-3.984331104012839"><ele>156.0</ele><time>2026-04-04T13:25:10.999Z</time></trkpt><trkpt lat="48.31057311758682" lon="-3.9843240804267928"><ele>156.0</ele><time>2026-04-04T13:25:11.999Z</time></trkpt><trkpt lat="48.310505455828505" lon="-3.9842961161633252"><ele>156.0</ele><time>2026-04-04T13:25:12.999Z</time></trkpt><trkpt lat="48.31043309175275" lon="-3.984245585040893"><ele>156.0</ele><time>2026-04-04T13:25:13.999Z</time></trkpt><trkpt lat="48.31035675338275" lon="-3.984196667576811"><ele>156.0</ele><time>2026-04-04T13:25:14.999Z</time></trkpt><trkpt lat="48.31027613546185" lon="-3.9841859751344946"><ele>156.0</ele><time>2026-04-04T13:25:15.999Z</time></trkpt><trkpt lat="48.31019586100333" lon="-3.9841847520184563"><ele>156.0</ele><time>2026-04-04T13:25:16.999Z</time></trkpt><trkpt lat="48.31012387072692" lon="-3.9841506168747376"><ele>155.66666666666666</ele><time>2026-04-04T13:25:17.999Z</time></trkpt><trkpt lat="48.310050828029645" lon="-3.984110617379242"><ele>155.33333333333334</ele><time>2026-04-04T13:25:18.999Z</time></trkpt><trkpt lat="48.30994604448775" lon="-3.9841105053489074"><ele>155.0</ele><time>2026-04-04T13:25:20.999Z</time></trkpt><trkpt lat="48.3098707103267" lon="-3.98410492850929"><ele>154.66666666666669</ele><time>2026-04-04T13:25:22.999Z</time></trkpt><trkpt lat="48.30978806864305" lon="-3.9841156254492187"><ele>154.33333333333334</ele><time>2026-04-04T13:25:24.999Z</time></trkpt><trkpt lat="48.30971304661608" lon="-3.984104800561795"><ele>154.0</ele><time>2026-04-04T13:25:27Z</time></trkpt><trkpt lat="48.30964408640035" lon="-3.9841230720360095"><ele>152.4</ele><time>2026-04-04T13:25:29Z</time></trkpt><trkpt lat="48.30957585335032" lon="-3.98412078899039"><ele>150.8</ele><time>2026-04-04T13:25:30Z</time></trkpt><trkpt lat="48.309466512438966" lon="-3.9841388279764733"><ele>149.2</ele><time>2026-04-04T13:25:32Z</time></trkpt><trkpt lat="48.30938704931363" lon="-3.984108981053266"><ele>147.6</ele><time>2026-04-04T13:25:34Z</time></trkpt><trkpt lat="48.30929589897162" lon="-3.9841179221094"><ele>146.0</ele><time>2026-04-04T13:25:36Z</time></trkpt><trkpt lat="48.30919777058746" lon="-3.9841144993987725"><ele>146.0</ele><time>2026-04-04T13:25:38Z</time></trkpt><trkpt lat="48.309111837840845" lon="-3.9841029259679037"><ele>146.0</ele><time>2026-04-04T13:25:40Z</time></trkpt><trkpt lat="48.30904391055851" lon="-3.9840695085900535"><ele>146.0</ele><time>2026-04-04T13:25:41Z</time></trkpt><trkpt lat="48.308900491052135" lon="-3.9841429210401067"><ele>146.0</ele><time>2026-04-04T13:25:43Z</time></trkpt><trkpt lat="48.30876685501064" lon="-3.9840892728007664"><ele>146.0</ele><time>2026-04-04T13:25:45Z</time></trkpt><trkpt lat="48.30864615266583" lon="-3.9840923734077016"><ele>142.8</ele><time>2026-04-04T13:25:46Z</time></trkpt><trkpt lat="48.308536927252504" lon="-3.984076611477656"><ele>139.6</ele><time>2026-04-04T13:25:47Z</time></trkpt><trkpt lat="48.308436133308845" lon="-3.984062613638028"><ele>136.4</ele><time>2026-04-04T13:25:48Z</time></trkpt><trkpt lat="48.308345509830396" lon="-3.9840516788241502"><ele>133.2</ele><time>2026-04-04T13:25:49Z</time></trkpt><trkpt lat="48.30824548393004" lon="-3.9840419486065057"><ele>130.0</ele><time>2026-04-04T13:25:50Z</time></trkpt><trkpt lat="48.30815270815116" lon="-3.9840343205699265"><ele>127.75</ele><time>2026-04-04T13:25:51Z</time></trkpt><trkpt lat="48.30805468678238" lon="-3.9839571460140895"><ele>125.5</ele><time>2026-04-04T13:25:52Z</time></trkpt><trkpt lat="48.30792959215916" lon="-3.983906350188129"><ele>123.25</ele><time>2026-04-04T13:25:53Z</time></trkpt><trkpt lat="48.30777964953764" lon="-3.98387916487111"><ele>121.0</ele><time>2026-04-04T13:25:54Z</time></trkpt><trkpt lat="48.307631794759935" lon="-3.983813200481533"><ele>121.0</ele><time>2026-04-04T13:25:55Z</time></trkpt><trkpt lat="48.30748608288038" lon="-3.9837756245424356"><ele>121.0</ele><time>2026-04-04T13:25:56Z</time></trkpt><trkpt lat="48.30735766278693" lon="-3.9837257164271644"><ele>121.0</ele><time>2026-04-04T13:25:57Z</time></trkpt><trkpt lat="48.30723744620087" lon="-3.9836816422653407"><ele>121.0</ele><time>2026-04-04T13:25:58Z</time></trkpt><trkpt lat="48.30711767361964" lon="-3.9836573399745028"><ele>121.4</ele><time>2026-04-04T13:25:59Z</time></trkpt><trkpt lat="48.30701760856736" lon="-3.983593096496208"><ele>121.8</ele><time>2026-04-04T13:26:00Z</time></trkpt><trkpt lat="48.30692380010971" lon="-3.983549686511218"><ele>122.20000000000002</ele><time>2026-04-04T13:26:01Z</time></trkpt><trkpt lat="48.306854662009606" lon="-3.983545586442057"><ele>122.60000000000001</ele><time>2026-04-04T13:26:02Z</time></trkpt><trkpt lat="48.30677177850837" lon="-3.9833549102193726"><ele>123.0</ele><time>2026-04-04T13:26:04Z</time></trkpt><trkpt lat="48.306717949877786" lon="-3.9832211951987597"><ele>121.80000000000001</ele><time>2026-04-04T13:26:05Z</time></trkpt><trkpt lat="48.30664159550406" lon="-3.9830953414972736"><ele>120.60000000000001</ele><time>2026-04-04T13:26:06Z</time></trkpt><trkpt lat="48.30658208452905" lon="-3.982975567207375"><ele>119.39999999999999</ele><time>2026-04-04T13:26:07Z</time></trkpt><trkpt lat="48.30646961010294" lon="-3.9829474505188607"><ele>118.19999999999999</ele><time>2026-04-04T13:26:08Z</time></trkpt><trkpt lat="48.306364125766876" lon="-3.982890052353032"><ele>117.0</ele><time>2026-04-04T13:26:09Z</time></trkpt><trkpt lat="48.30626369178614" lon="-3.9828195980121945"><ele>115.83333333333333</ele><time>2026-04-04T13:26:10Z</time></trkpt><trkpt lat="48.30618547911203" lon="-3.98274637776607"><ele>114.66666666666666</ele><time>2026-04-04T13:26:11Z</time></trkpt><trkpt lat="48.30611890709602" lon="-3.982648842384384"><ele>113.5</ele><time>2026-04-04T13:26:12Z</time></trkpt><trkpt lat="48.30604459997518" lon="-3.982575772928323"><ele>112.33333333333333</ele><time>2026-04-04T13:26:13Z</time></trkpt><trkpt lat="48.30597619302522" lon="-3.982497211193619"><ele>111.16666666666666</ele><time>2026-04-04T13:26:14Z</time></trkpt><trkpt lat="48.30591426174213" lon="-3.982425045468765"><ele>110.0</ele><time>2026-04-04T13:26:15Z</time></trkpt><trkpt lat="48.30585560297261" lon="-3.98237240772327"><ele>110.0</ele><time>2026-04-04T13:26:16Z</time></trkpt><trkpt lat="48.305783151192145" lon="-3.9823390154682836"><ele>110.0</ele><time>2026-04-04T13:26:18Z</time></trkpt><trkpt lat="48.30583050968805" lon="-3.9821294164950514"><ele>110.0</ele><time>2026-04-04T13:26:18.999Z</time></trkpt><trkpt lat="48.305850638360894" lon="-3.9819852121244805"><ele>110.0</ele><time>2026-04-04T13:26:19.999Z</time></trkpt><trkpt lat="48.305889913689455" lon="-3.981767520292292"><ele>110.5</ele><time>2026-04-04T13:26:20.999Z</time></trkpt><trkpt lat="48.30593743696552" lon="-3.9815637661350127"><ele>111.0</ele><time>2026-04-04T13:26:21.999Z</time></trkpt><trkpt lat="48.30597714874464" lon="-3.9813971453342347"><ele>111.5</ele><time>2026-04-04T13:26:22.999Z</time></trkpt><trkpt lat="48.30599978232724" lon="-3.9812332575777503"><ele>112.0</ele><time>2026-04-04T13:26:23.999Z</time></trkpt><trkpt lat="48.30600570087171" lon="-3.9810335074901957"><ele>112.39999999999999</ele><time>2026-04-04T13:26:24.999Z</time></trkpt><trkpt lat="48.30601100869735" lon="-3.9808388376170636"><ele>112.79999999999998</ele><time>2026-04-04T13:26:25.999Z</time></trkpt><trkpt lat="48.30598124874594" lon="-3.9806803452288966"><ele>113.2</ele><time>2026-04-04T13:26:26.999Z</time></trkpt><trkpt lat="48.30595114023232" lon="-3.9805240373819166"><ele>113.6</ele><time>2026-04-04T13:26:27.999Z</time></trkpt><trkpt lat="48.30594594394935" lon="-3.980381994960329"><ele>114.0</ele><time>2026-04-04T13:26:28.999Z</time></trkpt><trkpt lat="48.305943132745135" lon="-3.980247399382908"><ele>114.0</ele><time>2026-04-04T13:26:29.999Z</time></trkpt><trkpt lat="48.30593110759535" lon="-3.9801204068928557"><ele>114.0</ele><time>2026-04-04T13:26:30.999Z</time></trkpt><trkpt lat="48.30592265728426" lon="-3.9799988459301634"><ele>114.0</ele><time>2026-04-04T13:26:31.999Z</time></trkpt><trkpt lat="48.30591985783927" lon="-3.979877856478196"><ele>114.0</ele><time>2026-04-04T13:26:32.999Z</time></trkpt><trkpt lat="48.305919070499144" lon="-3.979767989105448"><ele>114.0</ele><time>2026-04-04T13:26:33.999Z</time></trkpt><trkpt lat="48.30592619921416" lon="-3.979659376380266"><ele>114.0</ele><time>2026-04-04T13:26:34.999Z</time></trkpt><trkpt lat="48.305925574855316" lon="-3.97955419773438"><ele>113.83333333333333</ele><time>2026-04-04T13:26:35.999Z</time></trkpt><trkpt lat="48.30593736736322" lon="-3.9794314986075108"><ele>113.66666666666666</ele><time>2026-04-04T13:26:36.999Z</time></trkpt><trkpt lat="48.305961493067926" lon="-3.979318686737694"><ele>113.5</ele><time>2026-04-04T13:26:37.999Z</time></trkpt><trkpt lat="48.30599634715398" lon="-3.9791879841518987"><ele>113.33333333333333</ele><time>2026-04-04T13:26:38.999Z</time></trkpt><trkpt lat="48.30604093854928" lon="-3.979077929344386"><ele>113.16666666666666</ele><time>2026-04-04T13:26:39.999Z</time></trkpt><trkpt lat="48.30608670186167" lon="-3.9789661350957934"><ele>113.0</ele><time>2026-04-04T13:26:40.999Z</time></trkpt><trkpt lat="48.30614545473686" lon="-3.9788071781051384"><ele>112.16666666666666</ele><time>2026-04-04T13:26:42.999Z</time></trkpt><trkpt lat="48.30618319882649" lon="-3.9787237337564543"><ele>111.33333333333333</ele><time>2026-04-04T13:26:43.999Z</time></trkpt><trkpt lat="48.30622713038606" lon="-3.9786425715629385"><ele>110.5</ele><time>2026-04-04T13:26:44.999Z</time></trkpt><trkpt lat="48.306259738734184" lon="-3.978490369521809"><ele>109.66666666666666</ele><time>2026-04-04T13:26:46.999Z</time></trkpt><trkpt lat="48.30623399447216" lon="-3.978348565716795"><ele>108.83333333333333</ele><time>2026-04-04T13:26:48.999Z</time></trkpt><trkpt lat="48.30617330744567" lon="-3.9783018173031204"><ele>108.0</ele><time>2026-04-04T13:26:50.999Z</time></trkpt><trkpt lat="48.30610061143564" lon="-3.9782046361804015"><ele>106.83333333333333</ele><time>2026-04-04T13:26:52.999Z</time></trkpt><trkpt lat="48.30608629580411" lon="-3.97809772598131"><ele>105.66666666666666</ele><time>2026-04-04T13:26:53.999Z</time></trkpt><trkpt lat="48.30604298384004" lon="-3.9780090030555857"><ele>104.5</ele><time>2026-04-04T13:26:54.999Z</time></trkpt><trkpt lat="48.30597587998076" lon="-3.977903183208314"><ele>103.33333333333333</ele><time>2026-04-04T13:26:55.999Z</time></trkpt><trkpt lat="48.30592942197987" lon="-3.977804579323569"><ele>102.16666666666666</ele><time>2026-04-04T13:26:56.999Z</time></trkpt><trkpt lat="48.305854987634085" lon="-3.9777232408104677"><ele>101.0</ele><time>2026-04-04T13:26:58.999Z</time></trkpt><trkpt lat="48.305788993583235" lon="-3.97760422189882"><ele>100.66666666666666</ele><time>2026-04-04T13:27:01.999Z</time></trkpt><trkpt lat="48.305771065324045" lon="-3.9774409648893907"><ele>100.33333333333333</ele><time>2026-04-04T13:27:03.999Z</time></trkpt><trkpt lat="48.305710246809014" lon="-3.97739618779875"><ele>100.0</ele><time>2026-04-04T13:27:05.999Z</time></trkpt><trkpt lat="48.30565557578462" lon="-3.9773321259973957"><ele>99.66666666666666</ele><time>2026-04-04T13:27:08.999Z</time></trkpt><trkpt lat="48.305595395760236" lon="-3.9772343386245694"><ele>99.33333333333333</ele><time>2026-04-04T13:27:13.999Z</time></trkpt><trkpt lat="48.30551221964403" lon="-3.9771889352848495"><ele>99.0</ele><time>2026-04-04T13:27:16.999Z</time></trkpt><trkpt lat="48.305442918964566" lon="-3.977179905044409"><ele>98.33333333333333</ele><time>2026-04-04T13:27:18.999Z</time></trkpt><trkpt lat="48.30539761319673" lon="-3.977092871914586"><ele>97.66666666666667</ele><time>2026-04-04T13:27:26.999Z</time></trkpt><trkpt lat="48.30533768841526" lon="-3.977011194534917"><ele>97.0</ele><time>2026-04-04T13:27:28.999Z</time></trkpt><trkpt lat="48.30530768237229" lon="-3.9769248193579347"><ele>96.33333333333334</ele><time>2026-04-04T13:27:33Z</time></trkpt><trkpt lat="48.30530628995446" lon="-3.9768188712021417"><ele>95.66666666666667</ele><time>2026-04-04T13:27:52Z</time></trkpt><trkpt lat="48.30530503278552" lon="-3.976711994057303"><ele>95.0</ele><time>2026-04-04T13:27:56Z</time></trkpt><trkpt lat="48.30528261058118" lon="-3.9765771654264017"><ele>94.83333333333334</ele><time>2026-04-04T13:27:59Z</time></trkpt><trkpt lat="48.30527262653809" lon="-3.976480754783921"><ele>94.66666666666667</ele><time>2026-04-04T13:28:00Z</time></trkpt><trkpt lat="48.305272207017204" lon="-3.9763745199457023"><ele>94.5</ele><time>2026-04-04T13:28:01Z</time></trkpt><trkpt lat="48.30527863788553" lon="-3.9761806786744405"><ele>94.33333333333333</ele><time>2026-04-04T13:28:03Z</time></trkpt><trkpt lat="48.30527532593246" lon="-3.9760772833926135"><ele>94.16666666666666</ele><time>2026-04-04T13:28:04Z</time></trkpt><trkpt lat="48.30528114009521" lon="-3.9759368330272453"><ele>94.0</ele><time>2026-04-04T13:28:05Z</time></trkpt><trkpt lat="48.305278467059345" lon="-3.9757962756547642"><ele>95.4</ele><time>2026-04-04T13:28:06Z</time></trkpt><trkpt lat="48.30527943255901" lon="-3.975682361826382"><ele>96.80000000000001</ele><time>2026-04-04T13:28:07Z</time></trkpt><trkpt lat="48.30527886832978" lon="-3.975548281423637"><ele>98.19999999999999</ele><time>2026-04-04T13:28:09Z</time></trkpt><trkpt lat="48.30530283003081" lon="-3.9754038783557455"><ele>99.6</ele><time>2026-04-04T13:28:11Z</time></trkpt><trkpt lat="48.305310944426175" lon="-3.975260675935051"><ele>101.0</ele><time>2026-04-04T13:28:12Z</time></trkpt><trkpt lat="48.30532223264841" lon="-3.975123335786929"><ele>102.66666666666666</ele><time>2026-04-04T13:28:13Z</time></trkpt><trkpt lat="48.305347700931236" lon="-3.9749923406089755"><ele>104.33333333333333</ele><time>2026-04-04T13:28:14Z</time></trkpt><trkpt lat="48.30536334671635" lon="-3.9748314922508783"><ele>106.0</ele><time>2026-04-04T13:28:16Z</time></trkpt><trkpt lat="48.30537328083152" lon="-3.974692135465582"><ele>107.66666666666666</ele><time>2026-04-04T13:28:18Z</time></trkpt><trkpt lat="48.305391890201435" lon="-3.974564053292132"><ele>109.33333333333333</ele><time>2026-04-04T13:28:20Z</time></trkpt><trkpt lat="48.3053835987365" lon="-3.974459609456994"><ele>111.0</ele><time>2026-04-04T13:28:21Z</time></trkpt><trkpt lat="48.30538199365136" lon="-3.9743152974017324"><ele>112.83333333333333</ele><time>2026-04-04T13:28:23Z</time></trkpt><trkpt lat="48.305405505555406" lon="-3.974166161460108"><ele>114.66666666666666</ele><time>2026-04-04T13:28:24.999Z</time></trkpt><trkpt lat="48.30542204054589" lon="-3.9740341458306414"><ele>116.5</ele><time>2026-04-04T13:28:26.999Z</time></trkpt><trkpt lat="48.305446169165506" lon="-3.97387933031572"><ele>118.33333333333333</ele><time>2026-04-04T13:28:28.999Z</time></trkpt><trkpt lat="48.30543557129801" lon="-3.973754954036854"><ele>120.16666666666666</ele><time>2026-04-04T13:28:30.999Z</time></trkpt><trkpt lat="48.305448909417414" lon="-3.973653198579"><ele>122.0</ele><time>2026-04-04T13:28:33.999Z</time></trkpt><trkpt lat="48.30546398961877" lon="-3.9735435284028298"><ele>122.0</ele><time>2026-04-04T13:28:35.999Z</time></trkpt><trkpt lat="48.30547977748499" lon="-3.973403824946901"><ele>121.99999999999999</ele><time>2026-04-04T13:28:37.999Z</time></trkpt><trkpt lat="48.305511618144926" lon="-3.973241230171512"><ele>121.99999999999999</ele><time>2026-04-04T13:28:39.999Z</time></trkpt><trkpt lat="48.305529615106806" lon="-3.9730726860843886"><ele>122.0</ele><time>2026-04-04T13:28:41.999Z</time></trkpt><trkpt lat="48.30555303415391" lon="-3.972897709597611"><ele>122.0</ele><time>2026-04-04T13:28:43.999Z</time></trkpt><trkpt lat="48.30556124731338" lon="-3.9727523503708317"><ele>120.66666666666666</ele><time>2026-04-04T13:28:45.999Z</time></trkpt><trkpt lat="48.30558318317634" lon="-3.972621746454854"><ele>119.33333333333333</ele><time>2026-04-04T13:28:47.999Z</time></trkpt><trkpt lat="48.30561085485456" lon="-3.972511628183852"><ele>118.0</ele><time>2026-04-04T13:28:49.999Z</time></trkpt><trkpt lat="48.305623330815344" lon="-3.9723860735775416"><ele>116.66666666666666</ele><time>2026-04-04T13:28:51.999Z</time></trkpt><trkpt lat="48.305649284643266" lon="-3.9722295498659466"><ele>115.33333333333333</ele><time>2026-04-04T13:28:53.999Z</time></trkpt><trkpt lat="48.30567319865152" lon="-3.972116777091442"><ele>114.0</ele><time>2026-04-04T13:28:54.999Z</time></trkpt><trkpt lat="48.30567498351569" lon="-3.9719929378719043"><ele>114.0</ele><time>2026-04-04T13:28:55.999Z</time></trkpt><trkpt lat="48.30570500479857" lon="-3.97186162964927"><ele>114.0</ele><time>2026-04-04T13:28:56.999Z</time></trkpt><trkpt lat="48.305711053215184" lon="-3.9717327302973917"><ele>114.0</ele><time>2026-04-04T13:28:57.999Z</time></trkpt><trkpt lat="48.30571741712317" lon="-3.971601612982244"><ele>114.0</ele><time>2026-04-04T13:28:58.999Z</time></trkpt><trkpt lat="48.30571088198546" lon="-3.9714729340293724"><ele>114.0</ele><time>2026-04-04T13:28:59.999Z</time></trkpt><trkpt lat="48.305711583676334" lon="-3.9713649523762666"><ele>114.0</ele><time>2026-04-04T13:29:00.999Z</time></trkpt><trkpt lat="48.3056931822796" lon="-3.971204330437647"><ele>115.0</ele><time>2026-04-04T13:29:02.999Z</time></trkpt><trkpt lat="48.30570144233377" lon="-3.971108482055347"><ele>116.0</ele><time>2026-04-04T13:29:05.999Z</time></trkpt><trkpt lat="48.305687789751126" lon="-3.9710067400842677"><ele>117.0</ele><time>2026-04-04T13:30:32Z</time></trkpt><trkpt lat="48.305672139432005" lon="-3.9708699716574465"><ele>118.0</ele><time>2026-04-04T13:30:34.999Z</time></trkpt><trkpt lat="48.30563428296765" lon="-3.9707579878552313"><ele>119.0</ele><time>2026-04-04T13:30:38.999Z</time></trkpt><trkpt lat="48.30561679533429" lon="-3.9706349747103635"><ele>120.0</ele><time>2026-04-04T13:30:41.999Z</time></trkpt><trkpt lat="48.30558206389838" lon="-3.970554454884572"><ele>123.6</ele><time>2026-04-04T13:30:43.999Z</time></trkpt><trkpt lat="48.30557583608689" lon="-3.970450327999486"><ele>127.2</ele><time>2026-04-04T13:30:45.999Z</time></trkpt><trkpt lat="48.305548723535516" lon="-3.9703031111284446"><ele>130.8</ele><time>2026-04-04T13:30:47.999Z</time></trkpt><trkpt lat="48.3055338617521" lon="-3.9702006759809554"><ele>134.4</ele><time>2026-04-04T13:30:48.999Z</time></trkpt><trkpt lat="48.30548243807399" lon="-3.9700248455176927"><ele>138.0</ele><time>2026-04-04T13:30:50.999Z</time></trkpt><trkpt lat="48.30542818596932" lon="-3.969890863768562"><ele>138.20000000000002</ele><time>2026-04-04T13:30:52.999Z</time></trkpt><trkpt lat="48.305382360562035" lon="-3.9698110535514726"><ele>138.4</ele><time>2026-04-04T13:30:53.999Z</time></trkpt><trkpt lat="48.305276562070354" lon="-3.969688670114648"><ele>138.60000000000002</ele><time>2026-04-04T13:30:55.999Z</time></trkpt><trkpt lat="48.3052242773069" lon="-3.969616830241999"><ele>138.8</ele><time>2026-04-04T13:30:56.999Z</time></trkpt><trkpt lat="48.30516593984616" lon="-3.96954648852048"><ele>139.0</ele><time>2026-04-04T13:30:57.999Z</time></trkpt><trkpt lat="48.30503821762203" lon="-3.9694188829478185"><ele>139.0</ele><time>2026-04-04T13:30:59.999Z</time></trkpt><trkpt lat="48.30496217110765" lon="-3.969326004398754"><ele>139.0</ele><time>2026-04-04T13:31:00.999Z</time></trkpt><trkpt lat="48.304941838094" lon="-3.969233791789028"><ele>139.0</ele><time>2026-04-04T13:31:01.999Z</time></trkpt><trkpt lat="48.304929604725444" lon="-3.9691291244662876"><ele>139.0</ele><time>2026-04-04T13:31:02.999Z</time></trkpt><trkpt lat="48.30491779714703" lon="-3.9689766393700134"><ele>139.0</ele><time>2026-04-04T13:31:04.999Z</time></trkpt><trkpt lat="48.30489292367252" lon="-3.96883684682187"><ele>139.0</ele><time>2026-04-04T13:31:06.999Z</time></trkpt><trkpt lat="48.30485932232775" lon="-3.968691313810602"><ele>139.0</ele><time>2026-04-04T13:31:08.999Z</time></trkpt><trkpt lat="48.30483628197915" lon="-3.9685411158519357"><ele>139.0</ele><time>2026-04-04T13:31:10.999Z</time></trkpt><trkpt lat="48.30482550163199" lon="-3.9684190630112464"><ele>139.0</ele><time>2026-04-04T13:31:12.999Z</time></trkpt><trkpt lat="48.3048134083052" lon="-3.968271484401748"><ele>139.0</ele><time>2026-04-04T13:31:14.999Z</time></trkpt><trkpt lat="48.30479132534706" lon="-3.968121283378984"><ele>139.0</ele><time>2026-04-04T13:31:16.999Z</time></trkpt><trkpt lat="48.30477502811926" lon="-3.9679615633044385"><ele>139.8</ele><time>2026-04-04T13:31:18.999Z</time></trkpt><trkpt lat="48.30474436390598" lon="-3.9677789603375824"><ele>140.60000000000002</ele><time>2026-04-04T13:31:20.999Z</time></trkpt><trkpt lat="48.304720970076126" lon="-3.967673954693842"><ele>141.4</ele><time>2026-04-04T13:31:21.999Z</time></trkpt><trkpt lat="48.30470109183802" lon="-3.9675543517029213"><ele>142.20000000000002</ele><time>2026-04-04T13:31:22.999Z</time></trkpt><trkpt lat="48.30468645231518" lon="-3.9674313413390405"><ele>143.0</ele><time>2026-04-04T13:31:23.999Z</time></trkpt><trkpt lat="48.304676677164494" lon="-3.9672672384243612"><ele>143.0</ele><time>2026-04-04T13:31:24.999Z</time></trkpt><trkpt lat="48.30465324611677" lon="-3.967100645283724"><ele>143.0</ele><time>2026-04-04T13:31:25.999Z</time></trkpt><trkpt lat="48.30462780585294" lon="-3.966947699548131"><ele>143.0</ele><time>2026-04-04T13:31:26.999Z</time></trkpt><trkpt lat="48.30460826152588" lon="-3.966815863169735"><ele>143.0</ele><time>2026-04-04T13:31:27.999Z</time></trkpt><trkpt lat="48.30459504663087" lon="-3.9666672560810032"><ele>143.0</ele><time>2026-04-04T13:31:28.999Z</time></trkpt><trkpt lat="48.30457712874327" lon="-3.9665150410096532"><ele>142.8</ele><time>2026-04-04T13:31:29.999Z</time></trkpt><trkpt lat="48.30455498259402" lon="-3.966369763189501"><ele>142.60000000000002</ele><time>2026-04-04T13:31:30.999Z</time></trkpt><trkpt lat="48.30454747145538" lon="-3.9662583224408197"><ele>142.39999999999998</ele><time>2026-04-04T13:31:31.999Z</time></trkpt><trkpt lat="48.30450774121681" lon="-3.966163678129769"><ele>142.2</ele><time>2026-04-04T13:31:33.999Z</time></trkpt><trkpt lat="48.30443158756734" lon="-3.966193697510091"><ele>142.0</ele><time>2026-04-04T13:31:35.999Z</time></trkpt><trkpt lat="48.304302003026876" lon="-3.9662871599917637"><ele>142.0</ele><time>2026-04-04T13:31:37.999Z</time></trkpt><trkpt lat="48.30421298445791" lon="-3.9663451834843015"><ele>142.0</ele><time>2026-04-04T13:31:38.999Z</time></trkpt><trkpt lat="48.304154458457916" lon="-3.9664739775147346"><ele>142.0</ele><time>2026-04-04T13:31:39.999Z</time></trkpt><trkpt lat="48.304061250046274" lon="-3.966535334278506"><ele>142.0</ele><time>2026-04-04T13:31:40.999Z</time></trkpt><trkpt lat="48.30396962473211" lon="-3.9665956489349896"><ele>142.0</ele><time>2026-04-04T13:31:41.999Z</time></trkpt><trkpt lat="48.30386716976243" lon="-3.966663227057287"><ele>140.5</ele><time>2026-04-04T13:31:42.999Z</time></trkpt><trkpt lat="48.30376326267428" lon="-3.9667297900914424"><ele>139.0</ele><time>2026-04-04T13:31:44Z</time></trkpt><trkpt lat="48.30365475183422" lon="-3.9667993023274453"><ele>137.5</ele><time>2026-04-04T13:31:45Z</time></trkpt><trkpt lat="48.303542608245344" lon="-3.966865001985156"><ele>136.0</ele><time>2026-04-04T13:31:46Z</time></trkpt><trkpt lat="48.3034109439846" lon="-3.9669051886274147"><ele>136.0</ele><time>2026-04-04T13:31:47Z</time></trkpt><trkpt lat="48.303281556201114" lon="-3.9669207770444985"><ele>136.0</ele><time>2026-04-04T13:31:48Z</time></trkpt><trkpt lat="48.30315883314597" lon="-3.9669217735565456"><ele>136.0</ele><time>2026-04-04T13:31:49Z</time></trkpt><trkpt lat="48.30304428495499" lon="-3.9669107708114333"><ele>136.0</ele><time>2026-04-04T13:31:50Z</time></trkpt><trkpt lat="48.30293524228886" lon="-3.9668911799589286"><ele>135.2</ele><time>2026-04-04T13:31:51Z</time></trkpt><trkpt lat="48.30282971826407" lon="-3.9668564351996536"><ele>134.39999999999998</ele><time>2026-04-04T13:31:52Z</time></trkpt><trkpt lat="48.302735517880414" lon="-3.9668063385949823"><ele>133.6</ele><time>2026-04-04T13:31:53Z</time></trkpt><trkpt lat="48.30264391762288" lon="-3.9667561406604697"><ele>132.79999999999998</ele><time>2026-04-04T13:31:54Z</time></trkpt><trkpt lat="48.30256761723811" lon="-3.966713126878064"><ele>132.0</ele><time>2026-04-04T13:31:55Z</time></trkpt><trkpt lat="48.30249754986364" lon="-3.966673627026762"><ele>132.0</ele><time>2026-04-04T13:31:56Z</time></trkpt><trkpt lat="48.30238636745874" lon="-3.96661197503747"><ele>132.0</ele><time>2026-04-04T13:31:58Z</time></trkpt><trkpt lat="48.30232535626425" lon="-3.9665844205581777"><ele>132.0</ele><time>2026-04-04T13:31:59Z</time></trkpt><trkpt lat="48.302260163558245" lon="-3.966552773369257"><ele>132.0</ele><time>2026-04-04T13:32:00Z</time></trkpt><trkpt lat="48.302197309873634" lon="-3.9665222616377784"><ele>132.0</ele><time>2026-04-04T13:32:01Z</time></trkpt><trkpt lat="48.30211926786315" lon="-3.966484377040233"><ele>132.0</ele><time>2026-04-04T13:32:03Z</time></trkpt><trkpt lat="48.30222363327583" lon="-3.96644344905438"><ele>132.0</ele><time>2026-04-04T13:32:09Z</time></trkpt><trkpt lat="48.30229066830834" lon="-3.966493989326898"><ele>132.0</ele><time>2026-04-04T13:32:10Z</time></trkpt><trkpt lat="48.30236258206241" lon="-3.966487247806405"><ele>132.0</ele><time>2026-04-04T13:32:11Z</time></trkpt><trkpt lat="48.30247271342724" lon="-3.966385699973491"><ele>132.0</ele><time>2026-04-04T13:32:13Z</time></trkpt><trkpt lat="48.3025349249872" lon="-3.9663220923227933"><ele>132.0</ele><time>2026-04-04T13:32:14Z</time></trkpt><trkpt lat="48.30258425511262" lon="-3.9662364862435995"><ele>132.0</ele><time>2026-04-04T13:32:15Z</time></trkpt><trkpt lat="48.3026287558213" lon="-3.966159261033618"><ele>132.0</ele><time>2026-04-04T13:32:16Z</time></trkpt><trkpt lat="48.30267095661514" lon="-3.966088249169233"><ele>132.0</ele><time>2026-04-04T13:32:17Z</time></trkpt><trkpt lat="48.30271548982051" lon="-3.9660143958524805"><ele>132.0</ele><time>2026-04-04T13:32:18Z</time></trkpt><trkpt lat="48.30279634918708" lon="-3.965878724454499"><ele>132.0</ele><time>2026-04-04T13:32:20Z</time></trkpt><trkpt lat="48.302852226201324" lon="-3.9657856920676626"><ele>132.0</ele><time>2026-04-04T13:32:21Z</time></trkpt><trkpt lat="48.30291220985275" lon="-3.9656875374397687"><ele>132.0</ele><time>2026-04-04T13:32:22Z</time></trkpt><trkpt lat="48.30297176525305" lon="-3.9655913555601505"><ele>132.2</ele><time>2026-04-04T13:32:23Z</time></trkpt><trkpt lat="48.30302596438569" lon="-3.9655049380947385"><ele>132.39999999999998</ele><time>2026-04-04T13:32:24Z</time></trkpt><trkpt lat="48.30310299194017" lon="-3.965384674781897"><ele>132.60000000000002</ele><time>2026-04-04T13:32:26Z</time></trkpt><trkpt lat="48.30318477396011" lon="-3.965260463383725"><ele>132.8</ele><time>2026-04-04T13:32:28Z</time></trkpt><trkpt lat="48.3032373885119" lon="-3.9651813662062456"><ele>133.0</ele><time>2026-04-04T13:32:29Z</time></trkpt><trkpt lat="48.30330562540271" lon="-3.965042428015623"><ele>131.5</ele><time>2026-04-04T13:32:31Z</time></trkpt><trkpt lat="48.303349352377055" lon="-3.9649478972332757"><ele>130.0</ele><time>2026-04-04T13:32:32Z</time></trkpt><trkpt lat="48.30305481290832" lon="-3.964365432008459"><ele>130.0</ele><time>2026-04-04T13:32:33Z</time></trkpt><trkpt lat="48.3030553009051" lon="-3.964233801033053"><ele>130.0</ele><time>2026-04-04T13:32:34Z</time></trkpt><trkpt lat="48.303061020049704" lon="-3.964102686042443"><ele>130.0</ele><time>2026-04-04T13:32:35Z</time></trkpt><trkpt lat="48.303077742423056" lon="-3.9639930730968764"><ele>130.0</ele><time>2026-04-04T13:32:36Z</time></trkpt><trkpt lat="48.30312335383884" lon="-3.9639093589857413"><ele>130.0</ele><time>2026-04-04T13:32:37Z</time></trkpt><trkpt lat="48.303175255387615" lon="-3.9638424515484063"><ele>130.0</ele><time>2026-04-04T13:32:38Z</time></trkpt><trkpt lat="48.30324058410512" lon="-3.963773996069333"><ele>128.2</ele><time>2026-04-04T13:32:38.999Z</time></trkpt><trkpt lat="48.3033117497764" lon="-3.963681774968849"><ele>126.4</ele><time>2026-04-04T13:32:39.999Z</time></trkpt><trkpt lat="48.30337886623253" lon="-3.9635890401124234"><ele>124.6</ele><time>2026-04-04T13:32:40.999Z</time></trkpt><trkpt lat="48.30344992445906" lon="-3.9634983515646884"><ele>122.8</ele><time>2026-04-04T13:32:41.999Z</time></trkpt><trkpt lat="48.30353265948616" lon="-3.9634159830476396"><ele>121.0</ele><time>2026-04-04T13:32:42.999Z</time></trkpt><trkpt lat="48.30361230404084" lon="-3.9633504334211365"><ele>120.83333333333334</ele><time>2026-04-04T13:32:43.999Z</time></trkpt><trkpt lat="48.3036935140615" lon="-3.963272857015258"><ele>120.66666666666667</ele><time>2026-04-04T13:32:44.999Z</time></trkpt><trkpt lat="48.3037549129177" lon="-3.963181858652549"><ele>120.5</ele><time>2026-04-04T13:32:45.999Z</time></trkpt><trkpt lat="48.30381616244444" lon="-3.963072629901776"><ele>120.33333333333334</ele><time>2026-04-04T13:32:46.999Z</time></trkpt><trkpt lat="48.30387580822948" lon="-3.9629803882909145"><ele>120.16666666666667</ele><time>2026-04-04T13:32:47.999Z</time></trkpt><trkpt lat="48.303927870391625" lon="-3.9628964281997616"><ele>120.0</ele><time>2026-04-04T13:32:48.999Z</time></trkpt><trkpt lat="48.30396695872962" lon="-3.962821977139102"><ele>120.0</ele><time>2026-04-04T13:32:49.999Z</time></trkpt><trkpt lat="48.30395122891845" lon="-3.9626569308522357"><ele>120.0</ele><time>2026-04-04T13:32:51.999Z</time></trkpt><trkpt lat="48.30390185903934" lon="-3.9625367756305314"><ele>120.0</ele><time>2026-04-04T13:32:52.999Z</time></trkpt><trkpt lat="48.30387332480537" lon="-3.9623674276731977"><ele>120.0</ele><time>2026-04-04T13:32:53.999Z</time></trkpt><trkpt lat="48.30384037753912" lon="-3.9622126572526253"><ele>120.0</ele><time>2026-04-04T13:32:54.999Z</time></trkpt><trkpt lat="48.30381382283102" lon="-3.962090367144693"><ele>117.4</ele><time>2026-04-04T13:32:55.999Z</time></trkpt><trkpt lat="48.30379090272237" lon="-3.9619338620966382"><ele>114.8</ele><time>2026-04-04T13:32:57.999Z</time></trkpt><trkpt lat="48.30375626733884" lon="-3.9617594029661833"><ele>112.19999999999999</ele><time>2026-04-04T13:32:59.999Z</time></trkpt><trkpt lat="48.303744895067325" lon="-3.9616440473536434"><ele>109.6</ele><time>2026-04-04T13:33:00.999Z</time></trkpt><trkpt lat="48.3037158709107" lon="-3.961445713154011"><ele>107.0</ele><time>2026-04-04T13:33:02.999Z</time></trkpt><trkpt lat="48.303709047697524" lon="-3.9613456074658306"><ele>106.19999999999999</ele><time>2026-04-04T13:33:03.999Z</time></trkpt><trkpt lat="48.30367524406382" lon="-3.9612565499163397"><ele>105.39999999999999</ele><time>2026-04-04T13:33:04.999Z</time></trkpt><trkpt lat="48.30367656381478" lon="-3.9611493604295824"><ele>104.6</ele><time>2026-04-04T13:33:05.999Z</time></trkpt><trkpt lat="48.303644320638035" lon="-3.9609396367120464"><ele>103.80000000000001</ele><time>2026-04-04T13:33:07.999Z</time></trkpt><trkpt lat="48.303621364801316" lon="-3.9608330469296287"><ele>103.0</ele><time>2026-04-04T13:33:08.999Z</time></trkpt><trkpt lat="48.30360450863023" lon="-3.9606741826914766"><ele>102.33333333333334</ele><time>2026-04-04T13:33:10.999Z</time></trkpt><trkpt lat="48.30357682060908" lon="-3.9605816872479607"><ele>101.66666666666667</ele><time>2026-04-04T13:33:11.999Z</time></trkpt><trkpt lat="48.30355232506268" lon="-3.960492964844976"><ele>101.0</ele><time>2026-04-04T13:33:12.999Z</time></trkpt><trkpt lat="48.30355325028899" lon="-3.9603520867856057"><ele>100.33333333333334</ele><time>2026-04-04T13:33:14.999Z</time></trkpt><trkpt lat="48.30351356117357" lon="-3.960198627541763"><ele>99.66666666666667</ele><time>2026-04-04T13:33:16.999Z</time></trkpt><trkpt lat="48.30351145194195" lon="-3.960102722015065"><ele>99.0</ele><time>2026-04-04T13:33:17.999Z</time></trkpt><trkpt lat="48.30346688256103" lon="-3.959925904905112"><ele>99.0</ele><time>2026-04-04T13:33:19.999Z</time></trkpt><trkpt lat="48.30343141040306" lon="-3.959796484782487"><ele>99.0</ele><time>2026-04-04T13:33:21.999Z</time></trkpt><trkpt lat="48.303405721779" lon="-3.959650835236953"><ele>99.0</ele><time>2026-04-04T13:33:23.999Z</time></trkpt><trkpt lat="48.30335451933975" lon="-3.959467919635895"><ele>99.0</ele><time>2026-04-04T13:33:25.999Z</time></trkpt><trkpt lat="48.30333040056224" lon="-3.9593660032291216"><ele>99.0</ele><time>2026-04-04T13:33:26.999Z</time></trkpt><trkpt lat="48.303307997157376" lon="-3.959272515290878"><ele>99.5</ele><time>2026-04-04T13:33:27.999Z</time></trkpt><trkpt lat="48.30333450626166" lon="-3.959106909059182"><ele>100.0</ele><time>2026-04-04T13:33:29.999Z</time></trkpt><trkpt lat="48.30335445405929" lon="-3.9590082183954394"><ele>100.5</ele><time>2026-04-04T13:33:30.999Z</time></trkpt><trkpt lat="48.30337633157348" lon="-3.958900185702575"><ele>101.0</ele><time>2026-04-04T13:33:31.999Z</time></trkpt><trkpt lat="48.303408191913725" lon="-3.9588098505876257"><ele>101.5</ele><time>2026-04-04T13:33:32.999Z</time></trkpt><trkpt lat="48.30345887888281" lon="-3.958693580735177"><ele>102.0</ele><time>2026-04-04T13:33:34.999Z</time></trkpt><trkpt lat="48.303480494633206" lon="-3.9585955445430114"><ele>102.0</ele><time>2026-04-04T13:33:36.999Z</time></trkpt><trkpt lat="48.303484290228965" lon="-3.9584977746585612"><ele>102.0</ele><time>2026-04-04T13:33:38.999Z</time></trkpt><trkpt lat="48.30339768238459" lon="-3.9584639306852623"><ele>102.0</ele><time>2026-04-04T13:33:40.999Z</time></trkpt><trkpt lat="48.30333198645045" lon="-3.958436724097728"><ele>102.0</ele><time>2026-04-04T13:33:41.999Z</time></trkpt><trkpt lat="48.30322759368949" lon="-3.9584057089545794"><ele>102.0</ele><time>2026-04-04T13:33:43.999Z</time></trkpt><trkpt lat="48.30312478007334" lon="-3.9583763103950678"><ele>102.0</ele><time>2026-04-04T13:33:45.999Z</time></trkpt><trkpt lat="48.30303390750077" lon="-3.958367435118763"><ele>104.0</ele><time>2026-04-04T13:33:47.999Z</time></trkpt><trkpt lat="48.30294889191161" lon="-3.9583563682633005"><ele>106.0</ele><time>2026-04-04T13:33:48.999Z</time></trkpt><trkpt lat="48.3028859287267" lon="-3.958360827819951"><ele>108.0</ele><time>2026-04-04T13:33:50Z</time></trkpt><trkpt lat="48.30277844667889" lon="-3.9582858662928464"><ele>110.0</ele><time>2026-04-04T13:33:52Z</time></trkpt><trkpt lat="48.30269123500652" lon="-3.958211700609628"><ele>112.0</ele><time>2026-04-04T13:33:54Z</time></trkpt><trkpt lat="48.3026290944864" lon="-3.9581767420720895"><ele>114.0</ele><time>2026-04-04T13:35:01.999Z</time></trkpt><trkpt lat="48.30257975177067" lon="-3.958097456720292"><ele>114.0</ele><time>2026-04-04T13:36:54.999Z</time></trkpt><trkpt lat="48.302491349207614" lon="-3.9580365206902988"><ele>114.0</ele><time>2026-04-04T13:42:08.999Z</time></trkpt><trkpt lat="48.3024214965713" lon="-3.9579743024568486"><ele>114.0</ele><time>2026-04-04T13:42:11.998Z</time></trkpt><trkpt lat="48.30235421750232" lon="-3.9579274335537664"><ele>114.0</ele><time>2026-04-04T13:42:14Z</time></trkpt><trkpt lat="48.302265037309546" lon="-3.957838374317178"><ele>114.0</ele><time>2026-04-04T13:42:16Z</time></trkpt><trkpt lat="48.30217326546641" lon="-3.9577747336509077"><ele>112.83333333333333</ele><time>2026-04-04T13:42:18Z</time></trkpt><trkpt lat="48.30210763550906" lon="-3.957748533656572"><ele>111.66666666666666</ele><time>2026-04-04T13:42:19Z</time></trkpt><trkpt lat="48.302038191667265" lon="-3.957697093718995"><ele>110.5</ele><time>2026-04-04T13:42:20Z</time></trkpt><trkpt lat="48.301945748531274" lon="-3.9576268500545657"><ele>109.33333333333333</ele><time>2026-04-04T13:42:22Z</time></trkpt><trkpt lat="48.301877328427594" lon="-3.9575255421105457"><ele>108.16666666666666</ele><time>2026-04-04T13:42:24Z</time></trkpt><trkpt lat="48.301826372335846" lon="-3.9574228045077064"><ele>107.0</ele><time>2026-04-04T13:42:26Z</time></trkpt><trkpt lat="48.3017610875726" lon="-3.9572875000436856"><ele>109.6</ele><time>2026-04-04T13:42:28Z</time></trkpt><trkpt lat="48.301693766654104" lon="-3.9571918331004223"><ele>112.19999999999999</ele><time>2026-04-04T13:42:30Z</time></trkpt><trkpt lat="48.30159359024984" lon="-3.9570807704491684"><ele>114.8</ele><time>2026-04-04T13:42:32Z</time></trkpt><trkpt lat="48.30152109335105" lon="-3.957007136919583"><ele>117.4</ele><time>2026-04-04T13:42:33Z</time></trkpt><trkpt lat="48.301450216075004" lon="-3.956932651203075"><ele>120.0</ele><time>2026-04-04T13:42:34Z</time></trkpt><trkpt lat="48.30140440476369" lon="-3.956860589558606"><ele>121.6</ele><time>2026-04-04T13:42:35Z</time></trkpt><trkpt lat="48.301390252182536" lon="-3.9566954649943398"><ele>123.2</ele><time>2026-04-04T13:42:37Z</time></trkpt><trkpt lat="48.3014271853064" lon="-3.9565823192538536"><ele>124.80000000000001</ele><time>2026-04-04T13:42:39Z</time></trkpt><trkpt lat="48.30149410084293" lon="-3.9564927073040397"><ele>126.4</ele><time>2026-04-04T13:42:41Z</time></trkpt><trkpt lat="48.3016060579801" lon="-3.95647108995183"><ele>128.0</ele><time>2026-04-04T13:42:43Z</time></trkpt><trkpt lat="48.301732894086975" lon="-3.9564694092545327"><ele>128.8</ele><time>2026-04-04T13:42:45Z</time></trkpt><trkpt lat="48.301840994481765" lon="-3.9564518394837545"><ele>129.60000000000002</ele><time>2026-04-04T13:42:47Z</time></trkpt><trkpt lat="48.301932308465716" lon="-3.95639683472361"><ele>130.39999999999998</ele><time>2026-04-04T13:42:49Z</time></trkpt><trkpt lat="48.302033328383594" lon="-3.9563023883129973"><ele>131.2</ele><time>2026-04-04T13:42:51Z</time></trkpt><trkpt lat="48.302085120053505" lon="-3.95624481165943"><ele>132.0</ele><time>2026-04-04T13:42:52Z</time></trkpt><trkpt lat="48.302138501364674" lon="-3.9561049837120765"><ele>132.0</ele><time>2026-04-04T13:42:54Z</time></trkpt><trkpt lat="48.30217360328106" lon="-3.9559984926560703"><ele>132.0</ele><time>2026-04-04T13:42:56Z</time></trkpt><trkpt lat="48.302311560668095" lon="-3.9560294728342424"><ele>132.0</ele><time>2026-04-04T13:42:57Z</time></trkpt><trkpt lat="48.3023904806691" lon="-3.9559978417944404"><ele>132.0</ele><time>2026-04-04T13:42:58Z</time></trkpt><trkpt lat="48.30246706653298" lon="-3.955949880150955"><ele>132.0</ele><time>2026-04-04T13:42:59Z</time></trkpt><trkpt lat="48.30255513876306" lon="-3.9558985312122092"><ele>132.33333333333334</ele><time>2026-04-04T13:43:00Z</time></trkpt><trkpt lat="48.30264065150582" lon="-3.955841608981963"><ele>132.66666666666666</ele><time>2026-04-04T13:43:01Z</time></trkpt><trkpt lat="48.30271843306147" lon="-3.955799952130819"><ele>133.0</ele><time>2026-04-04T13:43:02Z</time></trkpt><trkpt lat="48.302791162391635" lon="-3.9557715322301843"><ele>133.33333333333331</ele><time>2026-04-04T13:43:02.999Z</time></trkpt><trkpt lat="48.302854898942165" lon="-3.955735843008204"><ele>133.66666666666666</ele><time>2026-04-04T13:43:03.999Z</time></trkpt><trkpt lat="48.30296748738257" lon="-3.955673541980471"><ele>134.0</ele><time>2026-04-04T13:43:05.999Z</time></trkpt><trkpt lat="48.30308356657764" lon="-3.9556174515065563"><ele>134.0</ele><time>2026-04-04T13:43:07.999Z</time></trkpt><trkpt lat="48.30314697923351" lon="-3.9555935560385715"><ele>134.0</ele><time>2026-04-04T13:43:08.999Z</time></trkpt><trkpt lat="48.303229676253544" lon="-3.955479694723449"><ele>134.0</ele><time>2026-04-04T13:43:10.999Z</time></trkpt><trkpt lat="48.30318610440531" lon="-3.9553585791459858"><ele>134.0</ele><time>2026-04-04T13:43:11.999Z</time></trkpt><trkpt lat="48.30321892876918" lon="-3.9552639984578875"><ele>134.0</ele><time>2026-04-04T13:43:12.999Z</time></trkpt><trkpt lat="48.30328881807937" lon="-3.9551654766118345"><ele>134.0</ele><time>2026-04-04T13:43:13.999Z</time></trkpt><trkpt lat="48.30336353578887" lon="-3.9550987178905697"><ele>134.2</ele><time>2026-04-04T13:43:14.999Z</time></trkpt><trkpt lat="48.30344248395896" lon="-3.955029714574581"><ele>134.4</ele><time>2026-04-04T13:43:15.999Z</time></trkpt><trkpt lat="48.30352455559566" lon="-3.954963040054591"><ele>134.6</ele><time>2026-04-04T13:43:16.999Z</time></trkpt><trkpt lat="48.303596811699904" lon="-3.954871612759793"><ele>134.8</ele><time>2026-04-04T13:43:17.999Z</time></trkpt><trkpt lat="48.3036604861654" lon="-3.954767008758807"><ele>135.0</ele><time>2026-04-04T13:43:18.999Z</time></trkpt><trkpt lat="48.3037203944057" lon="-3.954653060381823"><ele>135.0</ele><time>2026-04-04T13:43:19.999Z</time></trkpt><trkpt lat="48.303781564786206" lon="-3.9545410899612308"><ele>135.0</ele><time>2026-04-04T13:43:20.999Z</time></trkpt><trkpt lat="48.30384191824592" lon="-3.954429211614469"><ele>135.0</ele><time>2026-04-04T13:43:21.999Z</time></trkpt><trkpt lat="48.30390064107994" lon="-3.9543225554390653"><ele>135.0</ele><time>2026-04-04T13:43:22.999Z</time></trkpt><trkpt lat="48.30395794521701" lon="-3.954220651093806"><ele>135.0</ele><time>2026-04-04T13:43:23.999Z</time></trkpt><trkpt lat="48.30401726098725" lon="-3.954131418141266"><ele>136.4</ele><time>2026-04-04T13:43:24.999Z</time></trkpt><trkpt lat="48.30408668181576" lon="-3.9540506295078437"><ele>137.8</ele><time>2026-04-04T13:43:25.999Z</time></trkpt><trkpt lat="48.30416591273136" lon="-3.953972875089306"><ele>139.2</ele><time>2026-04-04T13:43:26.999Z</time></trkpt><trkpt lat="48.304253018401766" lon="-3.953897472003593"><ele>140.6</ele><time>2026-04-04T13:43:27.999Z</time></trkpt><trkpt lat="48.30433772231025" lon="-3.953825184922937"><ele>142.0</ele><time>2026-04-04T13:43:28.999Z</time></trkpt><trkpt lat="48.30442086373174" lon="-3.9537541064682893"><ele>142.0</ele><time>2026-04-04T13:43:29.999Z</time></trkpt><trkpt lat="48.304494319968995" lon="-3.953686991153852"><ele>142.0</ele><time>2026-04-04T13:43:30.999Z</time></trkpt><trkpt lat="48.304569811085194" lon="-3.9536155876842494"><ele>142.0</ele><time>2026-04-04T13:43:31.999Z</time></trkpt><trkpt lat="48.30464699669753" lon="-3.9535654899234283"><ele>142.0</ele><time>2026-04-04T13:43:32.999Z</time></trkpt><trkpt lat="48.304725709990045" lon="-3.953537211319486"><ele>142.0</ele><time>2026-04-04T13:43:33.999Z</time></trkpt><trkpt lat="48.30481596076491" lon="-3.9535144244644984"><ele>142.0</ele><time>2026-04-04T13:43:34.999Z</time></trkpt><trkpt lat="48.304893069599956" lon="-3.9534848285578605"><ele>142.33333333333334</ele><time>2026-04-04T13:43:35.999Z</time></trkpt><trkpt lat="48.304962170667395" lon="-3.9534544187141294"><ele>142.66666666666669</ele><time>2026-04-04T13:43:36.999Z</time></trkpt><trkpt lat="48.30503885141397" lon="-3.9534110380330607"><ele>143.0</ele><time>2026-04-04T13:43:37.999Z</time></trkpt><trkpt lat="48.30509578836647" lon="-3.953361782403643"><ele>143.33333333333334</ele><time>2026-04-04T13:43:38.999Z</time></trkpt><trkpt lat="48.305188026077055" lon="-3.9532593337853603"><ele>143.66666666666666</ele><time>2026-04-04T13:43:40.999Z</time></trkpt><trkpt lat="48.30525342879827" lon="-3.953165383895768"><ele>144.0</ele><time>2026-04-04T13:43:42.999Z</time></trkpt><trkpt lat="48.305325816036195" lon="-3.953122938550635"><ele>144.6</ele><time>2026-04-04T13:43:44.999Z</time></trkpt><trkpt lat="48.305347563396154" lon="-3.9529142672400788"><ele>145.2</ele><time>2026-04-04T13:43:46.999Z</time></trkpt><trkpt lat="48.305393632348014" lon="-3.9527764700733687"><ele>145.79999999999998</ele><time>2026-04-04T13:43:48.999Z</time></trkpt><trkpt lat="48.3054513338869" lon="-3.952648928152518"><ele>146.4</ele><time>2026-04-04T13:43:50.999Z</time></trkpt><trkpt lat="48.30550894123851" lon="-3.952537240065609"><ele>147.0</ele><time>2026-04-04T13:43:52.999Z</time></trkpt><trkpt lat="48.30560553825116" lon="-3.9523942965702723"><ele>145.6</ele><time>2026-04-04T13:43:54.999Z</time></trkpt><trkpt lat="48.30569084680704" lon="-3.952269406374868"><ele>144.2</ele><time>2026-04-04T13:43:56.999Z</time></trkpt><trkpt lat="48.30576518352041" lon="-3.952160623179075"><ele>142.8</ele><time>2026-04-04T13:43:58.999Z</time></trkpt><trkpt lat="48.30582981074393" lon="-3.9520629029549106"><ele>141.4</ele><time>2026-04-04T13:44:00.999Z</time></trkpt><trkpt lat="48.30589317637756" lon="-3.9519776731133187"><ele>140.0</ele><time>2026-04-04T13:44:02.999Z</time></trkpt><trkpt lat="48.30596753494425" lon="-3.9518706500893006"><ele>140.0</ele><time>2026-04-04T13:44:04.999Z</time></trkpt><trkpt lat="48.306019127810856" lon="-3.9518118383450607"><ele>140.0</ele><time>2026-04-04T13:44:05.999Z</time></trkpt><trkpt lat="48.30610204302062" lon="-3.9517075715439574"><ele>140.0</ele><time>2026-04-04T13:44:07.999Z</time></trkpt><trkpt lat="48.306191482282436" lon="-3.9516165544423396"><ele>140.0</ele><time>2026-04-04T13:44:09.999Z</time></trkpt><trkpt lat="48.30627943703365" lon="-3.951500859981646"><ele>140.0</ele><time>2026-04-04T13:44:11.999Z</time></trkpt><trkpt lat="48.30634734160472" lon="-3.951415659421936"><ele>138.0</ele><time>2026-04-04T13:44:12.999Z</time></trkpt><trkpt lat="48.30641831127105" lon="-3.951336201802829"><ele>136.0</ele><time>2026-04-04T13:44:13.999Z</time></trkpt><trkpt lat="48.30646313486342" lon="-3.951255154459647"><ele>134.0</ele><time>2026-04-04T13:44:14.999Z</time></trkpt><trkpt lat="48.30651912409494" lon="-3.951178178964493"><ele>132.0</ele><time>2026-04-04T13:44:15.998Z</time></trkpt><trkpt lat="48.306547694004884" lon="-3.9510720970297983"><ele>130.0</ele><time>2026-04-04T13:44:16.998Z</time></trkpt><trkpt lat="48.3065968233375" lon="-3.950980369197987"><ele>128.0</ele><time>2026-04-04T13:44:17.998Z</time></trkpt><trkpt lat="48.30664436575619" lon="-3.9508923105288156"><ele>126.99999999999999</ele><time>2026-04-04T13:44:18.998Z</time></trkpt><trkpt lat="48.30671623998909" lon="-3.9508001247232176"><ele>126.0</ele><time>2026-04-04T13:44:20Z</time></trkpt><trkpt lat="48.30678754981926" lon="-3.950708547859667"><ele>125.0</ele><time>2026-04-04T13:44:21Z</time></trkpt><trkpt lat="48.30685246330395" lon="-3.950635952823915"><ele>124.0</ele><time>2026-04-04T13:44:22Z</time></trkpt><trkpt lat="48.30692371990089" lon="-3.95056300517101"><ele>122.99999999999999</ele><time>2026-04-04T13:44:23Z</time></trkpt><trkpt lat="48.30699072519801" lon="-3.950485153340317"><ele>122.0</ele><time>2026-04-04T13:44:24Z</time></trkpt><trkpt lat="48.30707111628267" lon="-3.950442484416241"><ele>122.0</ele><time>2026-04-04T13:44:25Z</time></trkpt><trkpt lat="48.30715740864826" lon="-3.9503761579157453"><ele>122.0</ele><time>2026-04-04T13:44:26Z</time></trkpt><trkpt lat="48.307254534208305" lon="-3.950256829848082"><ele>122.0</ele><time>2026-04-04T13:44:27Z</time></trkpt><trkpt lat="48.3073970358686" lon="-3.9501294802160563"><ele>122.0</ele><time>2026-04-04T13:44:28Z</time></trkpt><trkpt lat="48.30756864258943" lon="-3.949995583374462"><ele>118.66666666666666</ele><time>2026-04-04T13:44:29Z</time></trkpt><trkpt lat="48.30774141086366" lon="-3.9498588102482453"><ele>115.33333333333334</ele><time>2026-04-04T13:44:30Z</time></trkpt><trkpt lat="48.30786451975028" lon="-3.949730774561099"><ele>112.0</ele><time>2026-04-04T13:44:31Z</time></trkpt><trkpt lat="48.30794680224087" lon="-3.9496262600397696"><ele>112.0</ele><time>2026-04-04T13:44:32Z</time></trkpt><trkpt lat="48.30800728754185" lon="-3.949580772338455"><ele>111.99999999999999</ele><time>2026-04-04T13:44:33Z</time></trkpt><trkpt lat="48.30804490670919" lon="-3.949471453108532"><ele>111.99999999999999</ele><time>2026-04-04T13:44:34Z</time></trkpt><trkpt lat="48.3081023188804" lon="-3.9493613048338636"><ele>112.0</ele><time>2026-04-04T13:44:35Z</time></trkpt><trkpt lat="48.30819432623694" lon="-3.9492749609056776"><ele>112.0</ele><time>2026-04-04T13:44:36Z</time></trkpt><trkpt lat="48.308299649652206" lon="-3.949157949130716"><ele>109.75</ele><time>2026-04-04T13:44:37Z</time></trkpt><trkpt lat="48.30839879380073" lon="-3.949034545025445"><ele>107.5</ele><time>2026-04-04T13:44:38Z</time></trkpt><trkpt lat="48.308492553221164" lon="-3.948913045437187"><ele>105.25</ele><time>2026-04-04T13:44:39Z</time></trkpt><trkpt lat="48.30856952502745" lon="-3.948790074690315"><ele>103.0</ele><time>2026-04-04T13:44:40Z</time></trkpt><trkpt lat="48.308654237246344" lon="-3.9487053372968277"><ele>103.0</ele><time>2026-04-04T13:44:41Z</time></trkpt><trkpt lat="48.30877000489336" lon="-3.9486026506907788"><ele>103.0</ele><time>2026-04-04T13:44:42Z</time></trkpt><trkpt lat="48.30886870693509" lon="-3.9485049004937336"><ele>103.0</ele><time>2026-04-04T13:44:43Z</time></trkpt><trkpt lat="48.30896272783811" lon="-3.948418995930925"><ele>103.0</ele><time>2026-04-04T13:44:44Z</time></trkpt><trkpt lat="48.30904650666818" lon="-3.9483449234176455"><ele>102.00000000000001</ele><time>2026-04-04T13:44:45Z</time></trkpt><trkpt lat="48.309123568608285" lon="-3.948300289212901"><ele>101.0</ele><time>2026-04-04T13:44:46Z</time></trkpt><trkpt lat="48.30920606234989" lon="-3.94828891297335"><ele>100.0</ele><time>2026-04-04T13:44:47Z</time></trkpt><trkpt lat="48.30930122341783" lon="-3.948292064498088"><ele>99.0</ele><time>2026-04-04T13:44:48Z</time></trkpt><trkpt lat="48.309402675317976" lon="-3.948283110524912"><ele>98.00000000000001</ele><time>2026-04-04T13:44:49Z</time></trkpt><trkpt lat="48.30948995136748" lon="-3.948282297823935"><ele>97.0</ele><time>2026-04-04T13:44:50Z</time></trkpt><trkpt lat="48.30959137423569" lon="-3.948296701515254"><ele>97.0</ele><time>2026-04-04T13:44:51Z</time></trkpt><trkpt lat="48.309697423018555" lon="-3.948276474377685"><ele>97.0</ele><time>2026-04-04T13:44:52Z</time></trkpt><trkpt lat="48.30980916771372" lon="-3.9482543193987665"><ele>97.0</ele><time>2026-04-04T13:44:53Z</time></trkpt><trkpt lat="48.309927061687844" lon="-3.9482301507802626"><ele>97.0</ele><time>2026-04-04T13:44:54Z</time></trkpt><trkpt lat="48.310060855706894" lon="-3.9482042103063804"><ele>97.39999999999999</ele><time>2026-04-04T13:44:55Z</time></trkpt><trkpt lat="48.310190751253025" lon="-3.9481665868610274"><ele>97.8</ele><time>2026-04-04T13:44:56Z</time></trkpt><trkpt lat="48.31029631325248" lon="-3.9480975698551055"><ele>98.2</ele><time>2026-04-04T13:44:57Z</time></trkpt><trkpt lat="48.310382821013114" lon="-3.9480530098812854"><ele>98.6</ele><time>2026-04-04T13:44:58Z</time></trkpt><trkpt lat="48.31046387010662" lon="-3.9480318889566206"><ele>99.0</ele><time>2026-04-04T13:44:59Z</time></trkpt><trkpt lat="48.31053445513672" lon="-3.9480087210755994"><ele>100.0</ele><time>2026-04-04T13:45:00Z</time></trkpt><trkpt lat="48.31065218434822" lon="-3.9479384717154034"><ele>101.0</ele><time>2026-04-04T13:45:02Z</time></trkpt><trkpt lat="48.31070832048876" lon="-3.9478720266764715"><ele>102.0</ele><time>2026-04-04T13:45:03Z</time></trkpt><trkpt lat="48.31076938012858" lon="-3.9478279981968063"><ele>103.0</ele><time>2026-04-04T13:45:04Z</time></trkpt><trkpt lat="48.310862859162526" lon="-3.9477843462214772"><ele>104.0</ele><time>2026-04-04T13:45:05Z</time></trkpt><trkpt lat="48.310935335568395" lon="-3.947750138992984"><ele>105.0</ele><time>2026-04-04T13:45:06Z</time></trkpt><trkpt lat="48.311050888119595" lon="-3.947683560665569"><ele>105.0</ele><time>2026-04-04T13:45:08Z</time></trkpt><trkpt lat="48.31117325080269" lon="-3.947685397574455"><ele>105.0</ele><time>2026-04-04T13:45:10Z</time></trkpt><trkpt lat="48.3112387079321" lon="-3.947678508651806"><ele>105.0</ele><time>2026-04-04T13:45:11Z</time></trkpt><trkpt lat="48.31132215919061" lon="-3.947648571963738"><ele>105.0</ele><time>2026-04-04T13:45:12Z</time></trkpt><trkpt lat="48.31141231996717" lon="-3.9476406345254564"><ele>105.0</ele><time>2026-04-04T13:45:13Z</time></trkpt><trkpt lat="48.311512815799375" lon="-3.947630749973612"><ele>105.4</ele><time>2026-04-04T13:45:13.999Z</time></trkpt><trkpt lat="48.31160075330634" lon="-3.9476111868848496"><ele>105.8</ele><time>2026-04-04T13:45:14.999Z</time></trkpt><trkpt lat="48.31169826632125" lon="-3.947601006250272"><ele>106.19999999999999</ele><time>2026-04-04T13:45:15.999Z</time></trkpt><trkpt lat="48.31178878099494" lon="-3.947589105244687"><ele>106.6</ele><time>2026-04-04T13:45:16.999Z</time></trkpt><trkpt lat="48.311896644164605" lon="-3.9475519174164315"><ele>107.0</ele><time>2026-04-04T13:45:17.999Z</time></trkpt><trkpt lat="48.312001672859736" lon="-3.9475355143802844"><ele>106.99999999999999</ele><time>2026-04-04T13:45:18.999Z</time></trkpt><trkpt lat="48.31208528863221" lon="-3.947543760595046"><ele>107.0</ele><time>2026-04-04T13:45:19.999Z</time></trkpt><trkpt lat="48.31217472244599" lon="-3.9475504382695275"><ele>107.0</ele><time>2026-04-04T13:45:20.999Z</time></trkpt><trkpt lat="48.312238229724045" lon="-3.947566498250756"><ele>107.0</ele><time>2026-04-04T13:45:21.999Z</time></trkpt><trkpt lat="48.31232559302858" lon="-3.947564606053577"><ele>106.99999999999999</ele><time>2026-04-04T13:45:23.999Z</time></trkpt><trkpt lat="48.312389575033244" lon="-3.9475920393552855"><ele>107.0</ele><time>2026-04-04T13:45:31.999Z</time></trkpt><trkpt lat="48.31247655814104" lon="-3.9475531192227136"><ele>107.42857142857143</ele><time>2026-04-04T13:45:36.999Z</time></trkpt><trkpt lat="48.31250497507866" lon="-3.9474655549614237"><ele>107.85714285714286</ele><time>2026-04-04T13:45:38.999Z</time></trkpt><trkpt lat="48.31250875441309" lon="-3.9473706494829264"><ele>108.28571428571428</ele><time>2026-04-04T13:45:41.999Z</time></trkpt><trkpt lat="48.312522716509264" lon="-3.947253282145715"><ele>108.71428571428572</ele><time>2026-04-04T13:45:44.999Z</time></trkpt><trkpt lat="48.31255471791468" lon="-3.9471572855909276"><ele>109.14285714285714</ele><time>2026-04-04T13:45:46.999Z</time></trkpt><trkpt lat="48.3125837249038" lon="-3.9470433651948227"><ele>109.57142857142857</ele><time>2026-04-04T13:45:48.999Z</time></trkpt><trkpt lat="48.312609705920316" lon="-3.9469487538957986"><ele>110.0</ele><time>2026-04-04T13:45:50.999Z</time></trkpt><trkpt lat="48.31266543475637" lon="-3.946864914977131"><ele>110.0</ele><time>2026-04-04T13:47:04Z</time></trkpt><trkpt lat="48.312739972034535" lon="-3.9468686280840277"><ele>110.0</ele><time>2026-04-04T13:47:07Z</time></trkpt><trkpt lat="48.31281207740625" lon="-3.9469300501453763"><ele>110.0</ele><time>2026-04-04T13:47:09Z</time></trkpt><trkpt lat="48.31288561756099" lon="-3.9469671470328294"><ele>110.0</ele><time>2026-04-04T13:47:11Z</time></trkpt><trkpt lat="48.31299509571492" lon="-3.946950802765497"><ele>110.0</ele><time>2026-04-04T13:47:12.999Z</time></trkpt><trkpt lat="48.31311207170589" lon="-3.9469064067287025"><ele>109.4</ele><time>2026-04-04T13:47:14.999Z</time></trkpt><trkpt lat="48.31324204471493" lon="-3.9469206066839457"><ele>108.8</ele><time>2026-04-04T13:47:16.999Z</time></trkpt><trkpt lat="48.31331710564253" lon="-3.9469123666154498"><ele>108.19999999999999</ele><time>2026-04-04T13:47:17.999Z</time></trkpt><trkpt lat="48.31339119288528" lon="-3.946938059944347"><ele>107.6</ele><time>2026-04-04T13:47:18.999Z</time></trkpt><trkpt lat="48.31347518871921" lon="-3.9469552974433038"><ele>107.0</ele><time>2026-04-04T13:47:19.999Z</time></trkpt><trkpt lat="48.313559726861065" lon="-3.946940623443825"><ele>106.99999999999999</ele><time>2026-04-04T13:47:20.999Z</time></trkpt><trkpt lat="48.313643619119425" lon="-3.9469448691144136"><ele>107.0</ele><time>2026-04-04T13:47:21.999Z</time></trkpt><trkpt lat="48.313741567904486" lon="-3.946952576103895"><ele>107.0</ele><time>2026-04-04T13:47:22.999Z</time></trkpt><trkpt lat="48.313814086353446" lon="-3.9469716118606457"><ele>107.0</ele><time>2026-04-04T13:47:23.999Z</time></trkpt><trkpt lat="48.313898830897394" lon="-3.946957882833176"><ele>106.99999999999999</ele><time>2026-04-04T13:47:25.999Z</time></trkpt><trkpt lat="48.31397483942873" lon="-3.946930818085694"><ele>107.0</ele><time>2026-04-04T13:47:26.999Z</time></trkpt><trkpt lat="48.314049007776646" lon="-3.946913605060087"><ele>107.16666666666666</ele><time>2026-04-04T13:47:27.999Z</time></trkpt><trkpt lat="48.314111557908326" lon="-3.946872382897625"><ele>107.33333333333333</ele><time>2026-04-04T13:47:28.999Z</time></trkpt><trkpt lat="48.31417694101753" lon="-3.9468575475785577"><ele>107.5</ele><time>2026-04-04T13:47:29.999Z</time></trkpt><trkpt lat="48.31426339673968" lon="-3.9468543660530635"><ele>107.66666666666666</ele><time>2026-04-04T13:47:30.999Z</time></trkpt><trkpt lat="48.31433977984586" lon="-3.946826172631413"><ele>107.83333333333333</ele><time>2026-04-04T13:47:31.999Z</time></trkpt><trkpt lat="48.31442120389482" lon="-3.946799346539413"><ele>108.0</ele><time>2026-04-04T13:47:32.999Z</time></trkpt><trkpt lat="48.31451459233726" lon="-3.9467594825228076"><ele>108.0</ele><time>2026-04-04T13:47:33.999Z</time></trkpt><trkpt lat="48.314584676029085" lon="-3.9467335922365"><ele>108.0</ele><time>2026-04-04T13:47:34.999Z</time></trkpt><trkpt lat="48.314656943010945" lon="-3.9467323088214354"><ele>108.0</ele><time>2026-04-04T13:47:35.999Z</time></trkpt><trkpt lat="48.31475284908055" lon="-3.946742453835724"><ele>108.0</ele><time>2026-04-04T13:47:36.999Z</time></trkpt><trkpt lat="48.31484789136828" lon="-3.9467489122760657"><ele>108.0</ele><time>2026-04-04T13:47:37.999Z</time></trkpt><trkpt lat="48.31492724371281" lon="-3.946744807020968"><ele>108.0</ele><time>2026-04-04T13:47:38.999Z</time></trkpt><trkpt lat="48.315009572187705" lon="-3.9467432054108276"><ele>108.5</ele><time>2026-04-04T13:47:39.999Z</time></trkpt><trkpt lat="48.315085569885824" lon="-3.946746431678857"><ele>109.0</ele><time>2026-04-04T13:47:40.999Z</time></trkpt><trkpt lat="48.31519494820187" lon="-3.9467172114412543"><ele>109.5</ele><time>2026-04-04T13:47:42.999Z</time></trkpt><trkpt lat="48.31526816540839" lon="-3.9467230933375106"><ele>110.0</ele><time>2026-04-04T13:47:43.999Z</time></trkpt><trkpt lat="48.315330540009015" lon="-3.946746736960685"><ele>110.5</ele><time>2026-04-04T13:47:44.999Z</time></trkpt><trkpt lat="48.315446226929346" lon="-3.9467563164015593"><ele>111.0</ele><time>2026-04-04T13:47:46.999Z</time></trkpt><trkpt lat="48.31555834121092" lon="-3.9467104035941984"><ele>112.33333333333333</ele><time>2026-04-04T13:47:48.999Z</time></trkpt><trkpt lat="48.315634811166795" lon="-3.9467098431324064"><ele>113.66666666666666</ele><time>2026-04-04T13:47:49.999Z</time></trkpt><trkpt lat="48.3157614620564" lon="-3.946653204773146"><ele>115.0</ele><time>2026-04-04T13:47:51.999Z</time></trkpt><trkpt lat="48.31582836695057" lon="-3.9466545857475106"><ele>116.33333333333333</ele><time>2026-04-04T13:47:52.999Z</time></trkpt><trkpt lat="48.31589143790692" lon="-3.9466455077705476"><ele>117.66666666666666</ele><time>2026-04-04T13:47:53.999Z</time></trkpt><trkpt lat="48.315969090895706" lon="-3.946612104194807"><ele>119.0</ele><time>2026-04-04T13:47:54.999Z</time></trkpt><trkpt lat="48.31604624238861" lon="-3.9466162025485243"><ele>118.99999999999999</ele><time>2026-04-04T13:47:55.999Z</time></trkpt><trkpt lat="48.316117136109085" lon="-3.9465968177555024"><ele>119.0</ele><time>2026-04-04T13:47:56.999Z</time></trkpt><trkpt lat="48.316190492872046" lon="-3.946580387245249"><ele>119.0</ele><time>2026-04-04T13:47:57.999Z</time></trkpt><trkpt lat="48.31625819960973" lon="-3.946566897858816"><ele>119.0</ele><time>2026-04-04T13:47:58.999Z</time></trkpt><trkpt lat="48.31633193395763" lon="-3.9465847030184453"><ele>118.99999999999999</ele><time>2026-04-04T13:47:59.999Z</time></trkpt><trkpt lat="48.316399544919285" lon="-3.9466117128615226"><ele>119.0</ele><time>2026-04-04T13:48:00.999Z</time></trkpt><trkpt lat="48.316505663631865" lon="-3.9466108502410444"><ele>118.99999999999999</ele><time>2026-04-04T13:48:02.999Z</time></trkpt><trkpt lat="48.31659031757827" lon="-3.946561387155308"><ele>119.0</ele><time>2026-04-04T13:48:04.999Z</time></trkpt><trkpt lat="48.31663318584301" lon="-3.9464721908989198"><ele>119.0</ele><time>2026-04-04T13:48:06.999Z</time></trkpt><trkpt lat="48.316713316280286" lon="-3.946423761476354"><ele>119.0</ele><time>2026-04-04T13:48:08.999Z</time></trkpt><trkpt lat="48.31679142169182" lon="-3.946407495706597"><ele>118.99999999999999</ele><time>2026-04-04T13:48:10.999Z</time></trkpt><trkpt lat="48.316882892584154" lon="-3.946366877197208"><ele>119.0</ele><time>2026-04-04T13:48:12.999Z</time></trkpt><trkpt lat="48.31695036073244" lon="-3.9463254531428724"><ele>119.0</ele><time>2026-04-04T13:48:15.999Z</time></trkpt><trkpt lat="48.31701470596764" lon="-3.946261853837758"><ele>119.0</ele><time>2026-04-04T13:48:17.999Z</time></trkpt><trkpt lat="48.31708959623294" lon="-3.946160992581973"><ele>119.0</ele><time>2026-04-04T13:48:21.999Z</time></trkpt><trkpt lat="48.31723737422523" lon="-3.9460676771994274"><ele>119.0</ele><time>2026-04-04T13:48:23.999Z</time></trkpt><trkpt lat="48.31736584657246" lon="-3.9460125839789444"><ele>119.83333333333333</ele><time>2026-04-04T13:48:24.998Z</time></trkpt><trkpt lat="48.31739387475208" lon="-3.945894538902923"><ele>120.66666666666666</ele><time>2026-04-04T13:48:25.998Z</time></trkpt><trkpt lat="48.31744899161851" lon="-3.945792062894167"><ele>121.5</ele><time>2026-04-04T13:48:26.998Z</time></trkpt><trkpt lat="48.31749190970602" lon="-3.9456764605233627"><ele>122.33333333333334</ele><time>2026-04-04T13:48:27.998Z</time></trkpt><trkpt lat="48.31754685694337" lon="-3.945580158174426"><ele>123.16666666666667</ele><time>2026-04-04T13:48:28.998Z</time></trkpt><trkpt lat="48.31759317349747" lon="-3.9454750692679625"><ele>124.0</ele><time>2026-04-04T13:48:29.998Z</time></trkpt><trkpt lat="48.31764010559156" lon="-3.9453593210136675"><ele>124.16666666666667</ele><time>2026-04-04T13:48:30.998Z</time></trkpt><trkpt lat="48.317721027404566" lon="-3.945283546861229"><ele>124.33333333333334</ele><time>2026-04-04T13:48:32Z</time></trkpt><trkpt lat="48.31777468117506" lon="-3.9451766197191316"><ele>124.5</ele><time>2026-04-04T13:48:33Z</time></trkpt><trkpt lat="48.317810874447765" lon="-3.9450682734522835"><ele>124.66666666666666</ele><time>2026-04-04T13:48:34Z</time></trkpt><trkpt lat="48.317849869351285" lon="-3.9449844433579386"><ele>124.83333333333333</ele><time>2026-04-04T13:48:35Z</time></trkpt><trkpt lat="48.317886356628335" lon="-3.9448864125281125"><ele>125.0</ele><time>2026-04-04T13:48:36Z</time></trkpt><trkpt lat="48.31791506272677" lon="-3.9447687247203356"><ele>125.8</ele><time>2026-04-04T13:48:37Z</time></trkpt><trkpt lat="48.31795410404367" lon="-3.9446509280802413"><ele>126.6</ele><time>2026-04-04T13:48:38Z</time></trkpt><trkpt lat="48.31797884055519" lon="-3.9445102727847217"><ele>127.4</ele><time>2026-04-04T13:48:39Z</time></trkpt><trkpt lat="48.31799933532614" lon="-3.944363620885469"><ele>128.2</ele><time>2026-04-04T13:48:40Z</time></trkpt><trkpt lat="48.318019707870555" lon="-3.944225803353397"><ele>129.0</ele><time>2026-04-04T13:48:41Z</time></trkpt><trkpt lat="48.31804040385032" lon="-3.9440956989032814"><ele>130.2</ele><time>2026-04-04T13:48:42Z</time></trkpt><trkpt lat="48.31805278346174" lon="-3.943975395379782"><ele>131.4</ele><time>2026-04-04T13:48:43Z</time></trkpt><trkpt lat="48.31806889997382" lon="-3.9438202984120654"><ele>132.6</ele><time>2026-04-04T13:48:44Z</time></trkpt><trkpt lat="48.31808231266554" lon="-3.9436880921870965"><ele>133.8</ele><time>2026-04-04T13:48:45Z</time></trkpt><trkpt lat="48.31807764087632" lon="-3.943555992777788"><ele>135.0</ele><time>2026-04-04T13:48:46Z</time></trkpt><trkpt lat="48.318076310734966" lon="-3.943417261114131"><ele>134.6</ele><time>2026-04-04T13:48:47Z</time></trkpt><trkpt lat="48.318134664880375" lon="-3.94327440356283"><ele>134.2</ele><time>2026-04-04T13:48:48Z</time></trkpt><trkpt lat="48.31817606434873" lon="-3.943118247796305"><ele>133.8</ele><time>2026-04-04T13:48:49Z</time></trkpt><trkpt lat="48.31819914897178" lon="-3.942980237108158"><ele>133.4</ele><time>2026-04-04T13:48:50Z</time></trkpt><trkpt lat="48.318225791261575" lon="-3.9428623228023145"><ele>133.0</ele><time>2026-04-04T13:48:51Z</time></trkpt><trkpt lat="48.31825139374867" lon="-3.9427600019529603"><ele>133.0</ele><time>2026-04-04T13:48:52Z</time></trkpt><trkpt lat="48.31826595690445" lon="-3.9426622681633345"><ele>133.0</ele><time>2026-04-04T13:48:53Z</time></trkpt><trkpt lat="48.31828982113627" lon="-3.9425469446096777"><ele>133.0</ele><time>2026-04-04T13:48:54Z</time></trkpt><trkpt lat="48.3183275531864" lon="-3.9424445165584343"><ele>133.0</ele><time>2026-04-04T13:48:55Z</time></trkpt><trkpt lat="48.318362353334884" lon="-3.9423033139721193"><ele>133.0</ele><time>2026-04-04T13:48:56Z</time></trkpt><trkpt lat="48.31839515789242" lon="-3.9421680866856375"><ele>133.0</ele><time>2026-04-04T13:48:57Z</time></trkpt><trkpt lat="48.318426241780315" lon="-3.9420378257204622"><ele>133.16666666666669</ele><time>2026-04-04T13:48:58Z</time></trkpt><trkpt lat="48.318458849245644" lon="-3.941909708884275"><ele>133.33333333333334</ele><time>2026-04-04T13:48:59Z</time></trkpt><trkpt lat="48.318472366930706" lon="-3.941815073289421"><ele>133.5</ele><time>2026-04-04T13:49:00Z</time></trkpt><trkpt lat="48.31849719877318" lon="-3.941713533982536"><ele>133.66666666666666</ele><time>2026-04-04T13:49:01Z</time></trkpt><trkpt lat="48.318516549905866" lon="-3.9415925727875663"><ele>133.83333333333331</ele><time>2026-04-04T13:49:02Z</time></trkpt><trkpt lat="48.31851990410725" lon="-3.9414763376582918"><ele>134.0</ele><time>2026-04-04T13:49:03Z</time></trkpt><trkpt lat="48.31852990855225" lon="-3.9413362026917147"><ele>134.33333333333331</ele><time>2026-04-04T13:49:05Z</time></trkpt><trkpt lat="48.31855784463082" lon="-3.9411910387353823"><ele>134.66666666666666</ele><time>2026-04-04T13:49:08Z</time></trkpt><trkpt lat="48.318571865047" lon="-3.941039165966667"><ele>135.0</ele><time>2026-04-04T13:49:10Z</time></trkpt><trkpt lat="48.318593064023354" lon="-3.940943388217617"><ele>135.33333333333334</ele><time>2026-04-04T13:49:11Z</time></trkpt><trkpt lat="48.31859405767562" lon="-3.9408347238509367"><ele>135.66666666666669</ele><time>2026-04-04T13:49:12Z</time></trkpt><trkpt lat="48.31861604755591" lon="-3.9407113718493307"><ele>136.0</ele><time>2026-04-04T13:49:13Z</time></trkpt><trkpt lat="48.318629715264294" lon="-3.940592015249391"><ele>137.6</ele><time>2026-04-04T13:49:14Z</time></trkpt><trkpt lat="48.31864336904631" lon="-3.940488032883429"><ele>139.2</ele><time>2026-04-04T13:49:15Z</time></trkpt><trkpt lat="48.318670355486205" lon="-3.9403518430939726"><ele>140.8</ele><time>2026-04-04T13:49:17Z</time></trkpt><trkpt lat="48.3186885301089" lon="-3.9402139198938793"><ele>142.4</ele><time>2026-04-04T13:49:23.999Z</time></trkpt><trkpt lat="48.31871634627622" lon="-3.940100908707222"><ele>144.0</ele><time>2026-04-04T13:49:25.999Z</time></trkpt><trkpt lat="48.31875284693772" lon="-3.939919392750923"><ele>143.33333333333334</ele><time>2026-04-04T13:49:27.999Z</time></trkpt><trkpt lat="48.31879999371228" lon="-3.9398085345768545"><ele>142.66666666666666</ele><time>2026-04-04T13:49:28.999Z</time></trkpt><trkpt lat="48.31882390743214" lon="-3.9397157270547956"><ele>142.0</ele><time>2026-04-04T13:49:29.999Z</time></trkpt><trkpt lat="48.31885594472695" lon="-3.9396141037866355"><ele>141.33333333333331</ele><time>2026-04-04T13:49:30.999Z</time></trkpt><trkpt lat="48.318890898395125" lon="-3.9394952397882883"><ele>140.66666666666666</ele><time>2026-04-04T13:49:31.999Z</time></trkpt><trkpt lat="48.318912255838185" lon="-3.939383539645414"><ele>140.0</ele><time>2026-04-04T13:49:32.999Z</time></trkpt><trkpt lat="48.31894187530155" lon="-3.93925855963952"><ele>139.4</ele><time>2026-04-04T13:49:33.999Z</time></trkpt><trkpt lat="48.31897497686478" lon="-3.9391486541437972"><ele>138.8</ele><time>2026-04-04T13:49:34.999Z</time></trkpt><trkpt lat="48.31900146005765" lon="-3.939011738767933"><ele>138.2</ele><time>2026-04-04T13:49:35.999Z</time></trkpt><trkpt lat="48.31903860586903" lon="-3.938894449532541"><ele>137.6</ele><time>2026-04-04T13:49:36.999Z</time></trkpt><trkpt lat="48.31907899008754" lon="-3.9387702108770117"><ele>137.0</ele><time>2026-04-04T13:49:37.999Z</time></trkpt><trkpt lat="48.31912258263418" lon="-3.9386236237111825"><ele>137.0</ele><time>2026-04-04T13:49:38.999Z</time></trkpt><trkpt lat="48.319173671003476" lon="-3.93847941864603"><ele>137.0</ele><time>2026-04-04T13:49:39.999Z</time></trkpt><trkpt lat="48.31923300967984" lon="-3.93835155780642"><ele>137.0</ele><time>2026-04-04T13:49:40.999Z</time></trkpt><trkpt lat="48.319272668793154" lon="-3.93820240913854"><ele>137.0</ele><time>2026-04-04T13:49:41.999Z</time></trkpt><trkpt lat="48.319309939203144" lon="-3.938040896254438"><ele>137.0</ele><time>2026-04-04T13:49:42.999Z</time></trkpt><trkpt lat="48.31934227579721" lon="-3.937891868772413"><ele>138.0</ele><time>2026-04-04T13:49:43.999Z</time></trkpt><trkpt lat="48.31935016988119" lon="-3.9377597129653785"><ele>139.0</ele><time>2026-04-04T13:49:44.999Z</time></trkpt><trkpt lat="48.319348221883565" lon="-3.9376371858711714"><ele>140.0</ele><time>2026-04-04T13:49:45.999Z</time></trkpt><trkpt lat="48.31933338962658" lon="-3.937521676364806"><ele>141.0</ele><time>2026-04-04T13:49:46.999Z</time></trkpt><trkpt lat="48.31933154160765" lon="-3.9373866861208078"><ele>142.0</ele><time>2026-04-04T13:49:47.999Z</time></trkpt><trkpt lat="48.31935856304095" lon="-3.937252846026759"><ele>143.0</ele><time>2026-04-04T13:49:48.999Z</time></trkpt><trkpt lat="48.31936910423225" lon="-3.9371154869852116"><ele>144.20000000000002</ele><time>2026-04-04T13:49:49.999Z</time></trkpt><trkpt lat="48.31937581444773" lon="-3.9369782112992655"><ele>145.4</ele><time>2026-04-04T13:49:50.999Z</time></trkpt><trkpt lat="48.31936465706676" lon="-3.9368392885636183"><ele>146.60000000000002</ele><time>2026-04-04T13:49:51.999Z</time></trkpt><trkpt lat="48.31939552344227" lon="-3.9366853424953274"><ele>147.8</ele><time>2026-04-04T13:49:52.999Z</time></trkpt><trkpt lat="48.31939912097839" lon="-3.936528971991914"><ele>149.0</ele><time>2026-04-04T13:49:53.999Z</time></trkpt><trkpt lat="48.31940527796094" lon="-3.9363719657470955"><ele>151.25</ele><time>2026-04-04T13:49:54.999Z</time></trkpt><trkpt lat="48.319415276230764" lon="-3.9362166237146474"><ele>153.5</ele><time>2026-04-04T13:49:55.999Z</time></trkpt><trkpt lat="48.31943680280613" lon="-3.9360396861599245"><ele>155.75</ele><time>2026-04-04T13:49:56.999Z</time></trkpt><trkpt lat="48.31942364652387" lon="-3.935839390348675"><ele>158.0</ele><time>2026-04-04T13:49:57.999Z</time></trkpt><trkpt lat="48.31940607417118" lon="-3.9356400516424164"><ele>158.25</ele><time>2026-04-04T13:49:58.999Z</time></trkpt><trkpt lat="48.31938198365198" lon="-3.935455950190981"><ele>158.5</ele><time>2026-04-04T13:49:59.999Z</time></trkpt><trkpt lat="48.319385131080246" lon="-3.9352642067300216"><ele>158.75</ele><time>2026-04-04T13:50:00.999Z</time></trkpt><trkpt lat="48.31937267513267" lon="-3.93510572924827"><ele>159.0</ele><time>2026-04-04T13:50:01.999Z</time></trkpt><trkpt lat="48.31935692661245" lon="-3.93496034235063"><ele>159.6</ele><time>2026-04-04T13:50:02.999Z</time></trkpt><trkpt lat="48.31934530533155" lon="-3.934796125736333"><ele>160.2</ele><time>2026-04-04T13:50:03.999Z</time></trkpt><trkpt lat="48.31935358663643" lon="-3.934639735206449"><ele>160.79999999999998</ele><time>2026-04-04T13:50:04.999Z</time></trkpt><trkpt lat="48.31935611739975" lon="-3.9344737856721608"><ele>161.4</ele><time>2026-04-04T13:50:05.999Z</time></trkpt><trkpt lat="48.31939150065869" lon="-3.9343141039985823"><ele>162.0</ele><time>2026-04-04T13:50:06.999Z</time></trkpt><trkpt lat="48.319420753575365" lon="-3.9341865567414542"><ele>162.0</ele><time>2026-04-04T13:50:07.999Z</time></trkpt><trkpt lat="48.319451000945" lon="-3.934098291640958"><ele>162.0</ele><time>2026-04-04T13:50:08.999Z</time></trkpt><trkpt lat="48.31949213614746" lon="-3.9340242527720832"><ele>162.0</ele><time>2026-04-04T13:50:11.999Z</time></trkpt><trkpt lat="48.319494010980435" lon="-3.9338834009498567"><ele>162.0</ele><time>2026-04-04T13:50:54Z</time></trkpt><trkpt lat="48.319503531877956" lon="-3.933789554773635"><ele>162.0</ele><time>2026-04-04T13:50:55Z</time></trkpt><trkpt lat="48.31951544731983" lon="-3.9336785300839727"><ele>162.0</ele><time>2026-04-04T13:50:56Z</time></trkpt><trkpt lat="48.319521821800734" lon="-3.933556088337737"><ele>162.0</ele><time>2026-04-04T13:50:57Z</time></trkpt><trkpt lat="48.31953574069783" lon="-3.9334080250789"><ele>162.8</ele><time>2026-04-04T13:50:58Z</time></trkpt><trkpt lat="48.31954333257564" lon="-3.9332658718890987"><ele>163.6</ele><time>2026-04-04T13:50:59Z</time></trkpt><trkpt lat="48.319545667304276" lon="-3.9331155726077864"><ele>164.4</ele><time>2026-04-04T13:51:00Z</time></trkpt><trkpt lat="48.31955163884036" lon="-3.932952974645244"><ele>165.20000000000002</ele><time>2026-04-04T13:51:01Z</time></trkpt><trkpt lat="48.31955818126676" lon="-3.9327886413913684"><ele>166.0</ele><time>2026-04-04T13:51:02Z</time></trkpt><trkpt lat="48.31957051512252" lon="-3.9325889730544494"><ele>166.0</ele><time>2026-04-04T13:51:03Z</time></trkpt><trkpt lat="48.31957522821992" lon="-3.9324257638688134"><ele>166.0</ele><time>2026-04-04T13:51:04Z</time></trkpt><trkpt lat="48.31959888767601" lon="-3.93228563775397"><ele>166.0</ele><time>2026-04-04T13:51:05Z</time></trkpt><trkpt lat="48.319628613394954" lon="-3.932186850949441"><ele>166.0</ele><time>2026-04-04T13:51:06Z</time></trkpt><trkpt lat="48.31964242730958" lon="-3.9320922681246047"><ele>166.0</ele><time>2026-04-04T13:51:08Z</time></trkpt><trkpt lat="48.31968656260632" lon="-3.931967554114888"><ele>166.0</ele><time>2026-04-04T13:51:10Z</time></trkpt><trkpt lat="48.319723780556856" lon="-3.931849162865238"><ele>166.20000000000002</ele><time>2026-04-04T13:51:11Z</time></trkpt><trkpt lat="48.319764829324384" lon="-3.931738501798241"><ele>166.4</ele><time>2026-04-04T13:51:12Z</time></trkpt><trkpt lat="48.31981233612656" lon="-3.9315869348174313"><ele>166.6</ele><time>2026-04-04T13:51:14Z</time></trkpt><trkpt lat="48.3198093331911" lon="-3.9314728519265345"><ele>166.8</ele><time>2026-04-04T13:51:16Z</time></trkpt><trkpt lat="48.319725666972765" lon="-3.931361594167806"><ele>167.0</ele><time>2026-04-04T13:51:18Z</time></trkpt><trkpt lat="48.31967858654777" lon="-3.9312558697165074"><ele>167.0</ele><time>2026-04-04T13:51:19Z</time></trkpt><trkpt lat="48.31962768478433" lon="-3.9311015081080973"><ele>167.0</ele><time>2026-04-04T13:51:20Z</time></trkpt><trkpt lat="48.3195618119746" lon="-3.9309661305904284"><ele>167.0</ele><time>2026-04-04T13:51:21Z</time></trkpt><trkpt lat="48.31950607154277" lon="-3.9308559415203006"><ele>167.0</ele><time>2026-04-04T13:51:22Z</time></trkpt><trkpt lat="48.31945444481717" lon="-3.9307624461929773"><ele>167.0</ele><time>2026-04-04T13:51:23Z</time></trkpt><trkpt lat="48.31941347271337" lon="-3.9306497885019187"><ele>166.6</ele><time>2026-04-04T13:51:24Z</time></trkpt><trkpt lat="48.31937241514042" lon="-3.9305247688968903"><ele>166.2</ele><time>2026-04-04T13:51:25Z</time></trkpt><trkpt lat="48.31933150976448" lon="-3.930403480730485"><ele>165.8</ele><time>2026-04-04T13:51:25.999Z</time></trkpt><trkpt lat="48.319277405948135" lon="-3.9303069262967276"><ele>165.4</ele><time>2026-04-04T13:51:26.999Z</time></trkpt><trkpt lat="48.319195658899865" lon="-3.930199726743869"><ele>165.0</ele><time>2026-04-04T13:51:27.999Z</time></trkpt><trkpt lat="48.319106677022184" lon="-3.93009295572809"><ele>164.2</ele><time>2026-04-04T13:51:28.999Z</time></trkpt><trkpt lat="48.3190238169965" lon="-3.9299844951624983"><ele>163.4</ele><time>2026-04-04T13:51:29.999Z</time></trkpt><trkpt lat="48.31894296087647" lon="-3.9298805690119125"><ele>162.60000000000002</ele><time>2026-04-04T13:51:30.999Z</time></trkpt><trkpt lat="48.31886118755895" lon="-3.929792521843712"><ele>161.8</ele><time>2026-04-04T13:51:31.999Z</time></trkpt><trkpt lat="48.31878485795979" lon="-3.9296855717697823"><ele>161.0</ele><time>2026-04-04T13:51:32.999Z</time></trkpt><trkpt lat="48.318700437119055" lon="-3.9295887699321583"><ele>161.0</ele><time>2026-04-04T13:51:33.999Z</time></trkpt><trkpt lat="48.31861949605924" lon="-3.9295055111354515"><ele>161.0</ele><time>2026-04-04T13:51:34.999Z</time></trkpt><trkpt lat="48.318539660978765" lon="-3.9294195220655257"><ele>161.0</ele><time>2026-04-04T13:51:35.999Z</time></trkpt><trkpt lat="48.318448539980935" lon="-3.929330421163723"><ele>161.0</ele><time>2026-04-04T13:51:36.999Z</time></trkpt><trkpt lat="48.318372880452195" lon="-3.929241726601766"><ele>161.0</ele><time>2026-04-04T13:51:37.999Z</time></trkpt><trkpt lat="48.31828178671508" lon="-3.9291470729511317"><ele>160.0</ele><time>2026-04-04T13:51:38.999Z</time></trkpt><trkpt lat="48.31819756514864" lon="-3.9290575433351154"><ele>159.0</ele><time>2026-04-04T13:51:39.999Z</time></trkpt><trkpt lat="48.31811452969515" lon="-3.928972080124325"><ele>158.0</ele><time>2026-04-04T13:51:40.999Z</time></trkpt><trkpt lat="48.31803403726994" lon="-3.9288898701121613"><ele>157.0</ele><time>2026-04-04T13:51:41.999Z</time></trkpt><trkpt lat="48.31795134997918" lon="-3.9288017029091677"><ele>156.0</ele><time>2026-04-04T13:51:42.999Z</time></trkpt><trkpt lat="48.317870702157094" lon="-3.9287115664159185"><ele>155.0</ele><time>2026-04-04T13:51:43.999Z</time></trkpt><trkpt lat="48.317792340086385" lon="-3.9286150478799264"><ele>154.0</ele><time>2026-04-04T13:51:44.999Z</time></trkpt><trkpt lat="48.31775016218926" lon="-3.928517290724005"><ele>153.0</ele><time>2026-04-04T13:51:45.999Z</time></trkpt><trkpt lat="48.317688591668464" lon="-3.928435492304415"><ele>152.0</ele><time>2026-04-04T13:51:46.999Z</time></trkpt><trkpt lat="48.31757777242473" lon="-3.9283714130745375"><ele>151.0</ele><time>2026-04-04T13:51:48.999Z</time></trkpt><trkpt lat="48.317535936872154" lon="-3.9282899946716796"><ele>150.0</ele><time>2026-04-04T13:51:50.999Z</time></trkpt><trkpt lat="48.31754178585179" lon="-3.9281376422381804"><ele>149.4</ele><time>2026-04-04T13:51:51.999Z</time></trkpt><trkpt lat="48.31747610063101" lon="-3.9280185332854227"><ele>148.8</ele><time>2026-04-04T13:51:52.999Z</time></trkpt><trkpt lat="48.31741663445176" lon="-3.92787385033706"><ele>148.2</ele><time>2026-04-04T13:51:53.999Z</time></trkpt><trkpt lat="48.31734391606565" lon="-3.9277439030309"><ele>147.6</ele><time>2026-04-04T13:51:54.999Z</time></trkpt><trkpt lat="48.317276764935556" lon="-3.927622072206086"><ele>147.0</ele><time>2026-04-04T13:51:55.999Z</time></trkpt><trkpt lat="48.317230999378914" lon="-3.927473564668172"><ele>144.83333333333334</ele><time>2026-04-04T13:51:56.999Z</time></trkpt><trkpt lat="48.317180753735684" lon="-3.9273570211438047"><ele>142.66666666666666</ele><time>2026-04-04T13:51:57.999Z</time></trkpt><trkpt lat="48.3171380646687" lon="-3.927245566379988"><ele>140.5</ele><time>2026-04-04T13:51:58.999Z</time></trkpt><trkpt lat="48.317101864928965" lon="-3.9271673589861216"><ele>138.33333333333331</ele><time>2026-04-04T13:51:59.999Z</time></trkpt><trkpt lat="48.31703164043831" lon="-3.92705851141584"><ele>136.16666666666666</ele><time>2026-04-04T13:52:01.999Z</time></trkpt><trkpt lat="48.316992835541825" lon="-3.926965578167224"><ele>134.0</ele><time>2026-04-04T13:52:03.999Z</time></trkpt><trkpt lat="48.31704796933573" lon="-3.926859260195084"><ele>134.0</ele><time>2026-04-04T13:52:04.999Z</time></trkpt><trkpt lat="48.31708402880791" lon="-3.926779534398098"><ele>134.0</ele><time>2026-04-04T13:52:10.999Z</time></trkpt><trkpt lat="48.317093464867256" lon="-3.926678499389225"><ele>134.0</ele><time>2026-04-04T13:52:14.999Z</time></trkpt><trkpt lat="48.316853483252906" lon="-3.9264130112985782"><ele>134.0</ele><time>2026-04-04T13:52:17.999Z</time></trkpt><trkpt lat="48.316813731861025" lon="-3.926283967064324"><ele>133.5</ele><time>2026-04-04T13:52:19.999Z</time></trkpt><trkpt lat="48.316754733931546" lon="-3.9261918924198778"><ele>133.0</ele><time>2026-04-04T13:52:21.999Z</time></trkpt><trkpt lat="48.31668719987731" lon="-3.9261082361300583"><ele>132.5</ele><time>2026-04-04T13:52:25.999Z</time></trkpt><trkpt lat="48.316638159040494" lon="-3.926028944345715"><ele>132.0</ele><time>2026-04-04T13:52:33.999Z</time></trkpt><trkpt lat="48.31658825505737" lon="-3.9259097182790064"><ele>131.5</ele><time>2026-04-04T13:52:36.999Z</time></trkpt><trkpt lat="48.316551988667385" lon="-3.925789417238893"><ele>131.0</ele><time>2026-04-04T13:52:38.998Z</time></trkpt><trkpt lat="48.316472288417025" lon="-3.925674114696474"><ele>130.16666666666666</ele><time>2026-04-04T13:52:40.998Z</time></trkpt><trkpt lat="48.31642056501213" lon="-3.9255568672240617"><ele>129.33333333333331</ele><time>2026-04-04T13:52:42.998Z</time></trkpt><trkpt lat="48.31639308586925" lon="-3.9254656931951"><ele>128.5</ele><time>2026-04-04T13:52:44Z</time></trkpt><trkpt lat="48.31636321338599" lon="-3.9253722988478263"><ele>127.66666666666666</ele><time>2026-04-04T13:52:45Z</time></trkpt><trkpt lat="48.316313940380944" lon="-3.925311296362315"><ele>126.83333333333333</ele><time>2026-04-04T13:52:46Z</time></trkpt><trkpt lat="48.316251355615464" lon="-3.9251744642404405"><ele>126.0</ele><time>2026-04-04T13:52:48Z</time></trkpt><trkpt lat="48.31620701401266" lon="-3.9251064519895325"><ele>125.6</ele><time>2026-04-04T13:52:49Z</time></trkpt><trkpt lat="48.31616196297249" lon="-3.925005949512158"><ele>125.19999999999999</ele><time>2026-04-04T13:52:51Z</time></trkpt><trkpt lat="48.31615212826696" lon="-3.9248394058272833"><ele>124.80000000000001</ele><time>2026-04-04T13:52:54Z</time></trkpt><trkpt lat="48.316071658482976" lon="-3.9247271775640993"><ele>124.4</ele><time>2026-04-04T13:52:56Z</time></trkpt><trkpt lat="48.31603295223061" lon="-3.92464353749247"><ele>124.0</ele><time>2026-04-04T13:52:57Z</time></trkpt><trkpt lat="48.31593669738505" lon="-3.9245065081346597"><ele>124.00000000000001</ele><time>2026-04-04T13:52:59Z</time></trkpt><trkpt lat="48.31588490842661" lon="-3.924449171803989"><ele>124.0</ele><time>2026-04-04T13:53:00Z</time></trkpt><trkpt lat="48.31582728216643" lon="-3.9243954887334622"><ele>124.0</ele><time>2026-04-04T13:53:01Z</time></trkpt><trkpt lat="48.315775053414086" lon="-3.924333525979067"><ele>124.0</ele><time>2026-04-04T13:53:02Z</time></trkpt><trkpt lat="48.315700366232576" lon="-3.9242384242347317"><ele>124.00000000000001</ele><time>2026-04-04T13:53:04Z</time></trkpt><trkpt lat="48.31562592957892" lon="-3.9241374142077587"><ele>124.0</ele><time>2026-04-04T13:53:06Z</time></trkpt><trkpt lat="48.3155530387936" lon="-3.9240149079686018"><ele>127.0</ele><time>2026-04-04T13:53:08Z</time></trkpt><trkpt lat="48.31545636454067" lon="-3.923890696429529"><ele>130.0</ele><time>2026-04-04T13:53:10Z</time></trkpt><trkpt lat="48.315404880885964" lon="-3.923813421877161"><ele>133.0</ele><time>2026-04-04T13:53:11Z</time></trkpt><trkpt lat="48.315361822504656" lon="-3.9237375711583806"><ele>136.0</ele><time>2026-04-04T13:53:12Z</time></trkpt><trkpt lat="48.31530829762942" lon="-3.9236211273105934"><ele>139.0</ele><time>2026-04-04T13:53:14Z</time></trkpt><trkpt lat="48.315241635352876" lon="-3.9234844192074725"><ele>135.8</ele><time>2026-04-04T13:53:16Z</time></trkpt><trkpt lat="48.315173727951276" lon="-3.923370605805978"><ele>132.60000000000002</ele><time>2026-04-04T13:53:18Z</time></trkpt><trkpt lat="48.31509469863742" lon="-3.923367883714997"><ele>129.4</ele><time>2026-04-04T13:53:20Z</time></trkpt><trkpt lat="48.31498435173214" lon="-3.923318748348193"><ele>126.2</ele><time>2026-04-04T13:53:22Z</time></trkpt><trkpt lat="48.314875125170616" lon="-3.923274166353351"><ele>123.0</ele><time>2026-04-04T13:53:24Z</time></trkpt><trkpt lat="48.314758227182075" lon="-3.9232751118728397"><ele>123.2</ele><time>2026-04-04T13:53:26Z</time></trkpt><trkpt lat="48.314635793710885" lon="-3.923214142251347"><ele>123.4</ele><time>2026-04-04T13:53:28Z</time></trkpt><trkpt lat="48.31456836359262" lon="-3.923187010006815"><ele>123.60000000000001</ele><time>2026-04-04T13:53:29Z</time></trkpt><trkpt lat="48.31449277489601" lon="-3.9231459662173993"><ele>123.80000000000001</ele><time>2026-04-04T13:53:31Z</time></trkpt><trkpt lat="48.31441793948374" lon="-3.9231104481112924"><ele>124.0</ele><time>2026-04-04T13:53:32.999Z</time></trkpt><trkpt lat="48.31432374461153" lon="-3.92304158470413"><ele>124.00000000000001</ele><time>2026-04-04T13:53:34.999Z</time></trkpt><trkpt lat="48.31425436881753" lon="-3.92299381884907"><ele>124.0</ele><time>2026-04-04T13:53:35.999Z</time></trkpt><trkpt lat="48.314164832823344" lon="-3.922941267527619"><ele>124.0</ele><time>2026-04-04T13:53:36.999Z</time></trkpt><trkpt lat="48.314078488505714" lon="-3.9228941948352603"><ele>124.0</ele><time>2026-04-04T13:53:37.999Z</time></trkpt><trkpt lat="48.31398631964277" lon="-3.9228517465802457"><ele>124.00000000000001</ele><time>2026-04-04T13:53:38.999Z</time></trkpt><trkpt lat="48.31391245491297" lon="-3.9228286875213723"><ele>124.0</ele><time>2026-04-04T13:53:39.999Z</time></trkpt><trkpt lat="48.31383526284269" lon="-3.922819390044052"><ele>124.16666666666667</ele><time>2026-04-04T13:53:40.999Z</time></trkpt><trkpt lat="48.31375613865276" lon="-3.9228228392913835"><ele>124.33333333333334</ele><time>2026-04-04T13:53:41.999Z</time></trkpt><trkpt lat="48.31368938099128" lon="-3.9228409746557023"><ele>124.5</ele><time>2026-04-04T13:53:42.999Z</time></trkpt><trkpt lat="48.31359441878204" lon="-3.9228426229817934"><ele>124.66666666666666</ele><time>2026-04-04T13:53:44.999Z</time></trkpt><trkpt lat="48.31354231819519" lon="-3.922895964208479"><ele>124.83333333333333</ele><time>2026-04-04T13:53:45.999Z</time></trkpt><trkpt lat="48.31347663107124" lon="-3.9229180553405816"><ele>125.0</ele><time>2026-04-04T13:53:46.999Z</time></trkpt><trkpt lat="48.31337837700672" lon="-3.9230049442841217"><ele>125.0</ele><time>2026-04-04T13:53:48.999Z</time></trkpt><trkpt lat="48.3133039470243" lon="-3.923012181330577"><ele>125.0</ele><time>2026-04-04T13:53:49.999Z</time></trkpt><trkpt lat="48.31320313387378" lon="-3.923015283942266"><ele>125.0</ele><time>2026-04-04T13:53:50.999Z</time></trkpt><trkpt lat="48.31307138435901" lon="-3.9229988951889534"><ele>125.0</ele><time>2026-04-04T13:53:51.999Z</time></trkpt><trkpt lat="48.31295950431636" lon="-3.9230011717708146"><ele>125.0</ele><time>2026-04-04T13:53:52.999Z</time></trkpt><trkpt lat="48.31287148557378" lon="-3.922980097835815"><ele>123.83333333333333</ele><time>2026-04-04T13:53:53.999Z</time></trkpt><trkpt lat="48.312800305138374" lon="-3.9229515055390944"><ele>122.66666666666666</ele><time>2026-04-04T13:53:54.999Z</time></trkpt><trkpt lat="48.31273499274342" lon="-3.92294755814114"><ele>121.5</ele><time>2026-04-04T13:53:55.999Z</time></trkpt><trkpt lat="48.31261910263035" lon="-3.9229367773997965"><ele>120.33333333333334</ele><time>2026-04-04T13:53:57.999Z</time></trkpt><trkpt lat="48.31253628349781" lon="-3.9229215137682045"><ele>119.16666666666667</ele><time>2026-04-04T13:53:58.999Z</time></trkpt><trkpt lat="48.3124435623021" lon="-3.922937842461464"><ele>118.0</ele><time>2026-04-04T13:53:59.999Z</time></trkpt><trkpt lat="48.312338438577044" lon="-3.92297144540221"><ele>116.2</ele><time>2026-04-04T13:54:00.999Z</time></trkpt><trkpt lat="48.31223643095969" lon="-3.923017493256031"><ele>114.4</ele><time>2026-04-04T13:54:01.999Z</time></trkpt><trkpt lat="48.31215091043122" lon="-3.9230743372028196"><ele>112.60000000000001</ele><time>2026-04-04T13:54:02.999Z</time></trkpt><trkpt lat="48.31207614048108" lon="-3.923121796875679"><ele>110.80000000000001</ele><time>2026-04-04T13:54:03.999Z</time></trkpt><trkpt lat="48.31204049344303" lon="-3.9232013427128782"><ele>109.0</ele><time>2026-04-04T13:54:04.999Z</time></trkpt><trkpt lat="48.31213812943738" lon="-3.923382898044136"><ele>109.4</ele><time>2026-04-04T13:54:05.999Z</time></trkpt><trkpt lat="48.312095304316756" lon="-3.923496580159778"><ele>109.80000000000001</ele><time>2026-04-04T13:54:07.999Z</time></trkpt><trkpt lat="48.312061873161674" lon="-3.9236435833745515"><ele>110.19999999999999</ele><time>2026-04-04T13:54:09.999Z</time></trkpt><trkpt lat="48.312041971613326" lon="-3.923760524733093"><ele>110.6</ele><time>2026-04-04T13:54:11.999Z</time></trkpt><trkpt lat="48.31193576801514" lon="-3.923824798961564"><ele>111.0</ele><time>2026-04-04T13:55:06Z</time></trkpt><trkpt lat="48.311816192442535" lon="-3.9238032297463916"><ele>111.0</ele><time>2026-04-04T13:55:08Z</time></trkpt><trkpt lat="48.311757782150735" lon="-3.923736357031933"><ele>111.0</ele><time>2026-04-04T13:55:09Z</time></trkpt><trkpt lat="48.31168959320691" lon="-3.9236179797755515"><ele>111.0</ele><time>2026-04-04T13:55:10Z</time></trkpt><trkpt lat="48.311578966028144" lon="-3.923551345436224"><ele>111.0</ele><time>2026-04-04T13:55:11Z</time></trkpt><trkpt lat="48.31148272402227" lon="-3.9234530148519746"><ele>111.0</ele><time>2026-04-04T13:55:12Z</time></trkpt><trkpt lat="48.31138000952307" lon="-3.9233491194535035"><ele>108.75</ele><time>2026-04-04T13:55:13Z</time></trkpt><trkpt lat="48.31127994767467" lon="-3.9232497254113525"><ele>106.5</ele><time>2026-04-04T13:55:14Z</time></trkpt><trkpt lat="48.31117458959439" lon="-3.9231452691206723"><ele>104.25</ele><time>2026-04-04T13:55:15Z</time></trkpt><trkpt lat="48.31106813423951" lon="-3.9230339565026857"><ele>102.0</ele><time>2026-04-04T13:55:16Z</time></trkpt><trkpt lat="48.310971963947935" lon="-3.922918539779305"><ele>102.0</ele><time>2026-04-04T13:55:17Z</time></trkpt><trkpt lat="48.31090216469357" lon="-3.9227882354890964"><ele>102.0</ele><time>2026-04-04T13:55:18Z</time></trkpt><trkpt lat="48.3108448158966" lon="-3.922664604367002"><ele>102.0</ele><time>2026-04-04T13:55:19Z</time></trkpt><trkpt lat="48.3107938999862" lon="-3.922518175559023"><ele>102.0</ele><time>2026-04-04T13:55:20Z</time></trkpt><trkpt lat="48.31077251348618" lon="-3.9223620116987017"><ele>102.0</ele><time>2026-04-04T13:55:21Z</time></trkpt><trkpt lat="48.3107765378256" lon="-3.922214314620962"><ele>102.0</ele><time>2026-04-04T13:55:22Z</time></trkpt><trkpt lat="48.3107891318203" lon="-3.9220627544330147"><ele>102.0</ele><time>2026-04-04T13:55:23Z</time></trkpt><trkpt lat="48.310810145526276" lon="-3.9219023941634323"><ele>102.0</ele><time>2026-04-04T13:55:24Z</time></trkpt><trkpt lat="48.31083116721222" lon="-3.921749416603513"><ele>102.0</ele><time>2026-04-04T13:55:25Z</time></trkpt><trkpt lat="48.31085538892804" lon="-3.921597584170916"><ele>102.0</ele><time>2026-04-04T13:55:26Z</time></trkpt><trkpt lat="48.310877388693115" lon="-3.9214383666886587"><ele>101.75</ele><time>2026-04-04T13:55:27Z</time></trkpt><trkpt lat="48.31090460508394" lon="-3.921266336376073"><ele>101.5</ele><time>2026-04-04T13:55:28Z</time></trkpt><trkpt lat="48.31093668476557" lon="-3.921096288732041"><ele>101.25</ele><time>2026-04-04T13:55:29Z</time></trkpt><trkpt lat="48.31096965977227" lon="-3.9209239017359825"><ele>101.0</ele><time>2026-04-04T13:55:30Z</time></trkpt><trkpt lat="48.31101007768768" lon="-3.920753182275494"><ele>101.5</ele><time>2026-04-04T13:55:31Z</time></trkpt><trkpt lat="48.31105588321865" lon="-3.9205849947663816"><ele>102.0</ele><time>2026-04-04T13:55:32Z</time></trkpt><trkpt lat="48.31110982129256" lon="-3.920421427950079"><ele>102.5</ele><time>2026-04-04T13:55:33Z</time></trkpt><trkpt lat="48.311162917845664" lon="-3.920259814642223"><ele>103.0</ele><time>2026-04-04T13:55:34Z</time></trkpt><trkpt lat="48.31121975667426" lon="-3.9200977250564484"><ele>103.75</ele><time>2026-04-04T13:55:35Z</time></trkpt><trkpt lat="48.311281406549234" lon="-3.919934567681925"><ele>104.5</ele><time>2026-04-04T13:55:36Z</time></trkpt><trkpt lat="48.3113476212502" lon="-3.9197724538355554"><ele>105.25</ele><time>2026-04-04T13:55:36.999Z</time></trkpt><trkpt lat="48.311418916430895" lon="-3.9196182820863665"><ele>106.0</ele><time>2026-04-04T13:55:37.999Z</time></trkpt><trkpt lat="48.31149587268052" lon="-3.919470403079611"><ele>107.75</ele><time>2026-04-04T13:55:38.999Z</time></trkpt><trkpt lat="48.31157786653024" lon="-3.919328923467747"><ele>109.5</ele><time>2026-04-04T13:55:39.999Z</time></trkpt><trkpt lat="48.31166179240724" lon="-3.919188307724202"><ele>111.25</ele><time>2026-04-04T13:55:40.999Z</time></trkpt><trkpt lat="48.31174476941012" lon="-3.9190477056664217"><ele>113.0</ele><time>2026-04-04T13:55:41.999Z</time></trkpt><trkpt lat="48.31182819698002" lon="-3.9189085271519004"><ele>113.75</ele><time>2026-04-04T13:55:42.999Z</time></trkpt><trkpt lat="48.31191005884121" lon="-3.9187709454265613"><ele>114.5</ele><time>2026-04-04T13:55:43.999Z</time></trkpt><trkpt lat="48.31199840561057" lon="-3.918628343489062"><ele>115.25</ele><time>2026-04-04T13:55:44.999Z</time></trkpt><trkpt lat="48.31209357153108" lon="-3.9184890198750972"><ele>116.0</ele><time>2026-04-04T13:55:45.999Z</time></trkpt><trkpt lat="48.312196617447036" lon="-3.918361820853099"><ele>118.25</ele><time>2026-04-04T13:55:46.999Z</time></trkpt><trkpt lat="48.31230826377163" lon="-3.918241806200206"><ele>120.5</ele><time>2026-04-04T13:55:47.999Z</time></trkpt><trkpt lat="48.31242160090407" lon="-3.9181289533315873"><ele>122.75</ele><time>2026-04-04T13:55:48.999Z</time></trkpt><trkpt lat="48.31252096119735" lon="-3.9180349151708733"><ele>125.0</ele><time>2026-04-04T13:55:49.999Z</time></trkpt><trkpt lat="48.31261179912213" lon="-3.917953736833138"><ele>125.0</ele><time>2026-04-04T13:55:50.999Z</time></trkpt><trkpt lat="48.31269105360248" lon="-3.91787885263552"><ele>125.0</ele><time>2026-04-04T13:55:51.999Z</time></trkpt><trkpt lat="48.31276176569379" lon="-3.917809786667949"><ele>125.0</ele><time>2026-04-04T13:55:52.999Z</time></trkpt><trkpt lat="48.31282489198353" lon="-3.9177436736359623"><ele>125.0</ele><time>2026-04-04T13:55:53.999Z</time></trkpt><trkpt lat="48.31287285924091" lon="-3.9176787440830245"><ele>125.0</ele><time>2026-04-04T13:55:54.999Z</time></trkpt><trkpt lat="48.31278755507362" lon="-3.917496398904403"><ele>125.0</ele><time>2026-04-04T13:55:57.999Z</time></trkpt><trkpt lat="48.31272866761417" lon="-3.917411074237825"><ele>125.0</ele><time>2026-04-04T13:55:58.999Z</time></trkpt><trkpt lat="48.312665543493345" lon="-3.917313457993412"><ele>125.0</ele><time>2026-04-04T13:55:59.999Z</time></trkpt><trkpt lat="48.312593887107106" lon="-3.917200914943764"><ele>125.0</ele><time>2026-04-04T13:56:00.999Z</time></trkpt><trkpt lat="48.312519232373724" lon="-3.9170931000803417"><ele>125.0</ele><time>2026-04-04T13:56:01.999Z</time></trkpt><trkpt lat="48.3124407262982" lon="-3.9169947724184495"><ele>125.0</ele><time>2026-04-04T13:56:02.999Z</time></trkpt><trkpt lat="48.312362035205894" lon="-3.9168952727182513"><ele>125.0</ele><time>2026-04-04T13:56:03.999Z</time></trkpt><trkpt lat="48.312271559956" lon="-3.9168082352958113"><ele>125.0</ele><time>2026-04-04T13:56:04.999Z</time></trkpt><trkpt lat="48.31217935716704" lon="-3.9167150267402104"><ele>125.0</ele><time>2026-04-04T13:56:05.999Z</time></trkpt><trkpt lat="48.31208432807406" lon="-3.916619899071094"><ele>125.0</ele><time>2026-04-04T13:56:06.999Z</time></trkpt><trkpt lat="48.311994422287455" lon="-3.916503365519064"><ele>122.8</ele><time>2026-04-04T13:56:07.999Z</time></trkpt><trkpt lat="48.31194338958342" lon="-3.9163850872937105"><ele>120.6</ele><time>2026-04-04T13:56:08.999Z</time></trkpt><trkpt lat="48.31186792461774" lon="-3.9162563846478915"><ele>118.4</ele><time>2026-04-04T13:56:09.999Z</time></trkpt><trkpt lat="48.31180346909042" lon="-3.916129997080677"><ele>116.2</ele><time>2026-04-04T13:56:10.999Z</time></trkpt><trkpt lat="48.31172654517164" lon="-3.916022373355791"><ele>114.0</ele><time>2026-04-04T13:56:11.999Z</time></trkpt><trkpt lat="48.311676674603625" lon="-3.915901849479927"><ele>113.4</ele><time>2026-04-04T13:56:12.999Z</time></trkpt><trkpt lat="48.311633300026614" lon="-3.9157812744972817"><ele>112.80000000000001</ele><time>2026-04-04T13:56:13.999Z</time></trkpt><trkpt lat="48.31161189058668" lon="-3.91563861710915"><ele>112.19999999999999</ele><time>2026-04-04T13:56:14.999Z</time></trkpt><trkpt lat="48.31160473816" lon="-3.9154623072930486"><ele>111.6</ele><time>2026-04-04T13:56:15.999Z</time></trkpt><trkpt lat="48.311609166674195" lon="-3.9152881450105985"><ele>111.0</ele><time>2026-04-04T13:56:16.999Z</time></trkpt><trkpt lat="48.311618860157026" lon="-3.915119125103085"><ele>110.8</ele><time>2026-04-04T13:56:17.999Z</time></trkpt><trkpt lat="48.31164880079003" lon="-3.914956495391303"><ele>110.6</ele><time>2026-04-04T13:56:18.999Z</time></trkpt><trkpt lat="48.3116772162483" lon="-3.9147904303934493"><ele>110.4</ele><time>2026-04-04T13:56:19.999Z</time></trkpt><trkpt lat="48.31170378686766" lon="-3.914632863824194"><ele>110.2</ele><time>2026-04-04T13:56:20.999Z</time></trkpt><trkpt lat="48.31174553051097" lon="-3.9144815498764967"><ele>110.0</ele><time>2026-04-04T13:56:21.999Z</time></trkpt><trkpt lat="48.311800051235394" lon="-3.9143552364052514"><ele>110.0</ele><time>2026-04-04T13:56:22.999Z</time></trkpt><trkpt lat="48.31186995304787" lon="-3.9142432536911964"><ele>110.0</ele><time>2026-04-04T13:56:23.999Z</time></trkpt><trkpt lat="48.31194334370272" lon="-3.9141322188985277"><ele>110.0</ele><time>2026-04-04T13:56:24.999Z</time></trkpt><trkpt lat="48.312003093107734" lon="-3.9140241330681924"><ele>110.0</ele><time>2026-04-04T13:56:25.999Z</time></trkpt><trkpt lat="48.312061373065596" lon="-3.9139044558098344"><ele>110.0</ele><time>2026-04-04T13:56:26.999Z</time></trkpt><trkpt lat="48.31209277938474" lon="-3.9137472215028577"><ele>109.49999999999999</ele><time>2026-04-04T13:56:27.999Z</time></trkpt><trkpt lat="48.31211881106396" lon="-3.9136145713693815"><ele>109.0</ele><time>2026-04-04T13:56:28.999Z</time></trkpt><trkpt lat="48.31212664766131" lon="-3.913491360241619"><ele>108.5</ele><time>2026-04-04T13:56:29.999Z</time></trkpt><trkpt lat="48.31212463714132" lon="-3.9133742144994503"><ele>108.0</ele><time>2026-04-04T13:56:30.999Z</time></trkpt><trkpt lat="48.31213365281978" lon="-3.9132631664161215"><ele>107.49999999999999</ele><time>2026-04-04T13:56:31.999Z</time></trkpt><trkpt lat="48.31216521758674" lon="-3.9131570545309255"><ele>107.0</ele><time>2026-04-04T13:56:32.999Z</time></trkpt><trkpt lat="48.31221971333304" lon="-3.913030390758187"><ele>107.25</ele><time>2026-04-04T13:56:33.999Z</time></trkpt><trkpt lat="48.31226066481883" lon="-3.9128404788674995"><ele>107.5</ele><time>2026-04-04T13:56:34.999Z</time></trkpt><trkpt lat="48.31228728243269" lon="-3.9126618597800884"><ele>107.75</ele><time>2026-04-04T13:56:35.999Z</time></trkpt><trkpt lat="48.312318048114136" lon="-3.9124643932939405"><ele>108.0</ele><time>2026-04-04T13:56:36.999Z</time></trkpt><trkpt lat="48.31235416974096" lon="-3.9122791744574643"><ele>108.4</ele><time>2026-04-04T13:56:37.999Z</time></trkpt><trkpt lat="48.31238320659802" lon="-3.912129079430142"><ele>108.80000000000001</ele><time>2026-04-04T13:56:38.999Z</time></trkpt><trkpt lat="48.31243400306481" lon="-3.91202508998892"><ele>109.2</ele><time>2026-04-04T13:56:39.999Z</time></trkpt><trkpt lat="48.31247128992829" lon="-3.91193371774562"><ele>109.6</ele><time>2026-04-04T13:56:40.999Z</time></trkpt><trkpt lat="48.31253349902582" lon="-3.911799091632204"><ele>110.0</ele><time>2026-04-04T13:56:41.999Z</time></trkpt><trkpt lat="48.31259863455243" lon="-3.9116355335058484"><ele>110.6</ele><time>2026-04-04T13:56:42.999Z</time></trkpt><trkpt lat="48.31270355398658" lon="-3.9114882443381553"><ele>111.2</ele><time>2026-04-04T13:56:43.999Z</time></trkpt><trkpt lat="48.31277037349105" lon="-3.9113528101205874"><ele>111.80000000000001</ele><time>2026-04-04T13:56:44.999Z</time></trkpt><trkpt lat="48.31282384836519" lon="-3.911241827476414"><ele>112.4</ele><time>2026-04-04T13:56:45.999Z</time></trkpt><trkpt lat="48.31287725497631" lon="-3.9111354477043534"><ele>113.0</ele><time>2026-04-04T13:56:46.999Z</time></trkpt><trkpt lat="48.312925684904634" lon="-3.9110651833886894"><ele>113.0</ele><time>2026-04-04T13:56:47.999Z</time></trkpt><trkpt lat="48.31301446527295" lon="-3.911024412010933"><ele>113.00000000000001</ele><time>2026-04-04T13:56:49.999Z</time></trkpt><trkpt lat="48.31309319777848" lon="-3.91096833537361"><ele>113.00000000000001</ele><time>2026-04-04T13:56:52.998Z</time></trkpt><trkpt lat="48.31317586854812" lon="-3.9108533528104528"><ele>113.0</ele><time>2026-04-04T13:56:54.998Z</time></trkpt><trkpt lat="48.31321845618169" lon="-3.9107754327671893"><ele>113.0</ele><time>2026-04-04T13:56:56Z</time></trkpt><trkpt lat="48.313289661762774" lon="-3.9106705014440317"><ele>113.16666666666666</ele><time>2026-04-04T13:56:58Z</time></trkpt><trkpt lat="48.31333466604046" lon="-3.910566689503983"><ele>113.33333333333333</ele><time>2026-04-04T13:57:01Z</time></trkpt><trkpt lat="48.31338616258712" lon="-3.9104909723303143"><ele>113.5</ele><time>2026-04-04T13:57:03Z</time></trkpt><trkpt lat="48.31346546844667" lon="-3.910375949446756"><ele>113.66666666666666</ele><time>2026-04-04T13:57:06Z</time></trkpt><trkpt lat="48.313517435863844" lon="-3.9103047724117435"><ele>113.83333333333333</ele><time>2026-04-04T13:57:08Z</time></trkpt><trkpt lat="48.31357189527365" lon="-3.9102301822614445"><ele>114.0</ele><time>2026-04-04T13:57:11Z</time></trkpt><trkpt lat="48.31362414696104" lon="-3.910141291775968"><ele>114.0</ele><time>2026-04-04T13:57:15Z</time></trkpt><trkpt lat="48.313683229407125" lon="-3.9100904103812804"><ele>114.0</ele><time>2026-04-04T13:57:17Z</time></trkpt><trkpt lat="48.313781381550285" lon="-3.910077922275165"><ele>114.0</ele><time>2026-04-04T13:57:20Z</time></trkpt><trkpt lat="48.31381164838475" lon="-3.9099942409790622"><ele>114.0</ele><time>2026-04-04T13:57:23Z</time></trkpt><trkpt lat="48.31387080709484" lon="-3.909828101942249"><ele>114.0</ele><time>2026-04-04T13:57:25Z</time></trkpt><trkpt lat="48.31391955847728" lon="-3.9096584591432317"><ele>114.6</ele><time>2026-04-04T13:57:27Z</time></trkpt><trkpt lat="48.31394162950792" lon="-3.9095692082076536"><ele>115.2</ele><time>2026-04-04T13:57:28Z</time></trkpt><trkpt lat="48.3139642632218" lon="-3.9094776821467274"><ele>115.79999999999998</ele><time>2026-04-04T13:57:29Z</time></trkpt><trkpt lat="48.314005559704384" lon="-3.9093106876367556"><ele>116.39999999999999</ele><time>2026-04-04T13:57:31Z</time></trkpt><trkpt lat="48.314057797709346" lon="-3.9090994464492788"><ele>117.0</ele><time>2026-04-04T13:57:33Z</time></trkpt><trkpt lat="48.314083276557206" lon="-3.9090077996889945"><ele>119.33333333333334</ele><time>2026-04-04T13:57:34Z</time></trkpt><trkpt lat="48.314317861222044" lon="-3.9090545141459554"><ele>121.66666666666667</ele><time>2026-04-04T13:57:35Z</time></trkpt><trkpt lat="48.31443241482024" lon="-3.9090070318046166"><ele>124.0</ele><time>2026-04-04T13:57:36Z</time></trkpt><trkpt lat="48.31451419611139" lon="-3.9089052758810285"><ele>124.0</ele><time>2026-04-04T13:57:37Z</time></trkpt><trkpt lat="48.314586141217454" lon="-3.9087813744596582"><ele>124.0</ele><time>2026-04-04T13:57:38Z</time></trkpt><trkpt lat="48.31465620761982" lon="-3.9086424624529292"><ele>124.0</ele><time>2026-04-04T13:57:39Z</time></trkpt><trkpt lat="48.31472987845458" lon="-3.9084803476415098"><ele>124.0</ele><time>2026-04-04T13:57:40Z</time></trkpt><trkpt lat="48.314819309491135" lon="-3.9083030032259956"><ele>125.33333333333334</ele><time>2026-04-04T13:57:41Z</time></trkpt><trkpt lat="48.314877750563824" lon="-3.9081780189549193"><ele>126.66666666666667</ele><time>2026-04-04T13:57:42Z</time></trkpt><trkpt lat="48.31490469640195" lon="-3.9080726205845533"><ele>128.0</ele><time>2026-04-04T13:57:43Z</time></trkpt><trkpt lat="48.314973921120924" lon="-3.908047891881808"><ele>129.33333333333334</ele><time>2026-04-04T13:57:45Z</time></trkpt><trkpt lat="48.31504015412626" lon="-3.908125657578392"><ele>130.66666666666666</ele><time>2026-04-04T13:57:46Z</time></trkpt><trkpt lat="48.31512313470039" lon="-3.9082362930026715"><ele>132.0</ele><time>2026-04-04T13:57:46.999Z</time></trkpt><trkpt lat="48.31522415454464" lon="-3.9083412917966287"><ele>133.25</ele><time>2026-04-04T13:57:47.999Z</time></trkpt><trkpt lat="48.31534268974704" lon="-3.9084567971130943"><ele>134.5</ele><time>2026-04-04T13:57:48.999Z</time></trkpt><trkpt lat="48.315455151017396" lon="-3.9085857836116134"><ele>135.75</ele><time>2026-04-04T13:57:49.999Z</time></trkpt><trkpt lat="48.31556294088199" lon="-3.9087094428326727"><ele>137.0</ele><time>2026-04-04T13:57:50.999Z</time></trkpt><trkpt lat="48.31568914373083" lon="-3.908824585012326"><ele>137.0</ele><time>2026-04-04T13:57:51.999Z</time></trkpt><trkpt lat="48.31581283055295" lon="-3.9089149318771286"><ele>137.0</ele><time>2026-04-04T13:57:52.999Z</time></trkpt><trkpt lat="48.315949596773066" lon="-3.9089878742083695"><ele>137.0</ele><time>2026-04-04T13:57:53.999Z</time></trkpt><trkpt lat="48.31608624750191" lon="-3.9090266305268275"><ele>137.0</ele><time>2026-04-04T13:57:54.999Z</time></trkpt><trkpt lat="48.31623016571222" lon="-3.909060320164164"><ele>137.0</ele><time>2026-04-04T13:57:55.999Z</time></trkpt><trkpt lat="48.31637732984727" lon="-3.9090587971559887"><ele>137.0</ele><time>2026-04-04T13:57:56.999Z</time></trkpt><trkpt lat="48.3165210590974" lon="-3.9090206000758583"><ele>137.0</ele><time>2026-04-04T13:57:57.999Z</time></trkpt><trkpt lat="48.31664726112297" lon="-3.908981023572853"><ele>137.0</ele><time>2026-04-04T13:57:58.999Z</time></trkpt><trkpt lat="48.316773981222646" lon="-3.9089315383167156"><ele>137.75</ele><time>2026-04-04T13:57:59.999Z</time></trkpt><trkpt lat="48.316908169680985" lon="-3.908890056695764"><ele>138.5</ele><time>2026-04-04T13:58:00.999Z</time></trkpt><trkpt lat="48.31704164565822" lon="-3.9088190787712205"><ele>139.25</ele><time>2026-04-04T13:58:01.999Z</time></trkpt><trkpt lat="48.31717169799299" lon="-3.9087265851841333"><ele>140.0</ele><time>2026-04-04T13:58:02.999Z</time></trkpt><trkpt lat="48.31727814212803" lon="-3.908627530678467"><ele>141.5</ele><time>2026-04-04T13:58:03.999Z</time></trkpt><trkpt lat="48.31735854471184" lon="-3.9085271013303893"><ele>143.0</ele><time>2026-04-04T13:58:04.999Z</time></trkpt><trkpt lat="48.31744220653499" lon="-3.9084092925827116"><ele>144.5</ele><time>2026-04-04T13:58:05.999Z</time></trkpt><trkpt lat="48.31753581759157" lon="-3.908272529580006"><ele>146.0</ele><time>2026-04-04T13:58:06.999Z</time></trkpt><trkpt lat="48.317612655705275" lon="-3.9081260546334153"><ele>146.0</ele><time>2026-04-04T13:58:07.999Z</time></trkpt><trkpt lat="48.317682896822625" lon="-3.9079745474472802"><ele>146.0</ele><time>2026-04-04T13:58:08.999Z</time></trkpt><trkpt lat="48.317762007340505" lon="-3.907821060156715"><ele>146.0</ele><time>2026-04-04T13:58:09.999Z</time></trkpt><trkpt lat="48.31784836940642" lon="-3.9076663634519226"><ele>146.0</ele><time>2026-04-04T13:58:10.999Z</time></trkpt><trkpt lat="48.317938399236816" lon="-3.9075161469281325"><ele>143.75</ele><time>2026-04-04T13:58:11.999Z</time></trkpt><trkpt lat="48.318027154438504" lon="-3.907367304825649"><ele>141.5</ele><time>2026-04-04T13:58:12.999Z</time></trkpt><trkpt lat="48.31810503833676" lon="-3.907215680009527"><ele>139.25</ele><time>2026-04-04T13:58:13.999Z</time></trkpt><trkpt lat="48.31818908435161" lon="-3.9070624453919045"><ele>137.0</ele><time>2026-04-04T13:58:14.999Z</time></trkpt><trkpt lat="48.31828198540982" lon="-3.9069169106466326"><ele>137.0</ele><time>2026-04-04T13:58:15.999Z</time></trkpt><trkpt lat="48.31837758875687" lon="-3.9067761257049214"><ele>137.0</ele><time>2026-04-04T13:58:16.999Z</time></trkpt><trkpt lat="48.31846499212202" lon="-3.9066281343543943"><ele>137.0</ele><time>2026-04-04T13:58:17.999Z</time></trkpt><trkpt lat="48.318552895405446" lon="-3.906479201140153"><ele>137.0</ele><time>2026-04-04T13:58:18.999Z</time></trkpt><trkpt lat="48.31865487144477" lon="-3.9063281106612204"><ele>139.0</ele><time>2026-04-04T13:58:19.999Z</time></trkpt><trkpt lat="48.31876859311525" lon="-3.9061688288448306"><ele>141.0</ele><time>2026-04-04T13:58:20.999Z</time></trkpt><trkpt lat="48.31888561782206" lon="-3.9059964563589022"><ele>143.0</ele><time>2026-04-04T13:58:21.999Z</time></trkpt><trkpt lat="48.31898346450675" lon="-3.9058260035533547"><ele>143.0</ele><time>2026-04-04T13:58:22.999Z</time></trkpt><trkpt lat="48.31906779877004" lon="-3.9056603870326643"><ele>143.0</ele><time>2026-04-04T13:58:23.999Z</time></trkpt><trkpt lat="48.31912114076733" lon="-3.9054946142962574"><ele>143.0</ele><time>2026-04-04T13:58:24.999Z</time></trkpt><trkpt lat="48.31915192298208" lon="-3.9053217397592537"><ele>143.0</ele><time>2026-04-04T13:58:25.999Z</time></trkpt><trkpt lat="48.3191708688598" lon="-3.9051407761613275"><ele>144.6</ele><time>2026-04-04T13:58:26.999Z</time></trkpt><trkpt lat="48.31917758777764" lon="-3.904972743135143"><ele>146.20000000000002</ele><time>2026-04-04T13:58:27.999Z</time></trkpt><trkpt lat="48.31917321853198" lon="-3.904815914072045"><ele>147.8</ele><time>2026-04-04T13:58:28.999Z</time></trkpt><trkpt lat="48.319153017331224" lon="-3.9046790918061034"><ele>149.4</ele><time>2026-04-04T13:58:29.999Z</time></trkpt><trkpt lat="48.31912303647363" lon="-3.904590382194794"><ele>151.0</ele><time>2026-04-04T13:58:30.999Z</time></trkpt><trkpt lat="48.31909351416285" lon="-3.9044724613097057"><ele>151.00000000000003</ele><time>2026-04-04T13:58:32.999Z</time></trkpt><trkpt lat="48.31906775604135" lon="-3.9043540142877795"><ele>151.0</ele><time>2026-04-04T13:58:42.999Z</time></trkpt><trkpt lat="48.3190926708872" lon="-3.9042515087914964"><ele>151.0</ele><time>2026-04-04T13:59:44Z</time></trkpt><trkpt lat="48.31914709911951" lon="-3.904165811676423"><ele>151.0</ele><time>2026-04-04T13:59:54.999Z</time></trkpt><trkpt lat="48.319216394802886" lon="-3.904141536574208"><ele>151.0</ele><time>2026-04-04T13:59:58.999Z</time></trkpt><trkpt lat="48.31929131436486" lon="-3.9041052944093257"><ele>151.00000000000003</ele><time>2026-04-04T14:00:02.999Z</time></trkpt><trkpt lat="48.31934941212494" lon="-3.9041444175225544"><ele>151.0</ele><time>2026-04-04T14:00:07.999Z</time></trkpt><trkpt lat="48.31940770174815" lon="-3.9040728112957845"><ele>151.71428571428572</ele><time>2026-04-04T14:00:16.999Z</time></trkpt><trkpt lat="48.31946558130735" lon="-3.9040126943706173"><ele>152.42857142857144</ele><time>2026-04-04T14:00:20.999Z</time></trkpt><trkpt lat="48.31952172019031" lon="-3.9039340206709414"><ele>153.14285714285717</ele><time>2026-04-04T14:00:25.999Z</time></trkpt><trkpt lat="48.31954026182312" lon="-3.90383574394955"><ele>153.85714285714286</ele><time>2026-04-04T14:00:28.999Z</time></trkpt><trkpt lat="48.31957563404739" lon="-3.9037336862148106"><ele>154.57142857142856</ele><time>2026-04-04T14:00:33.999Z</time></trkpt><trkpt lat="48.31956976630471" lon="-3.9036224184507757"><ele>155.2857142857143</ele><time>2026-04-04T14:00:39.999Z</time></trkpt><trkpt lat="48.31958705997377" lon="-3.903526348174948"><ele>156.0</ele><time>2026-04-04T14:00:43.999Z</time></trkpt><trkpt lat="48.31961889841453" lon="-3.903411737573791"><ele>156.0</ele><time>2026-04-04T14:00:49.999Z</time></trkpt><trkpt lat="48.31961799383332" lon="-3.9033101320627246"><ele>156.0</ele><time>2026-04-04T14:00:52.999Z</time></trkpt><trkpt lat="48.31960783114998" lon="-3.903190118617586"><ele>156.0</ele><time>2026-04-04T14:00:56.999Z</time></trkpt><trkpt lat="48.31958760548374" lon="-3.9030795767971647"><ele>156.0</ele><time>2026-04-04T14:01:14Z</time></trkpt><trkpt lat="48.31957640422289" lon="-3.9029295531782315"><ele>156.0</ele><time>2026-04-04T14:01:19Z</time></trkpt><trkpt lat="48.31959455000353" lon="-3.902834991988557"><ele>156.0</ele><time>2026-04-04T14:01:21Z</time></trkpt><trkpt lat="48.31961652708277" lon="-3.9026934582942636"><ele>156.0</ele><time>2026-04-04T14:01:24Z</time></trkpt><trkpt lat="48.31958147518222" lon="-3.902582647650311"><ele>156.0</ele><time>2026-04-04T14:01:26Z</time></trkpt><trkpt lat="48.319647101774216" lon="-3.90251702517779"><ele>156.0</ele><time>2026-04-04T14:01:34Z</time></trkpt><trkpt lat="48.31964444988323" lon="-3.9023903769642305"><ele>156.0</ele><time>2026-04-04T14:02:29.999Z</time></trkpt><trkpt lat="48.31960841341488" lon="-3.9023069262064154"><ele>156.0</ele><time>2026-04-04T14:02:31.999Z</time></trkpt><trkpt lat="48.31960257265574" lon="-3.9021861850485533"><ele>156.0</ele><time>2026-04-04T14:02:35.999Z</time></trkpt><trkpt lat="48.31962965581236" lon="-3.9020682827499202"><ele>155.2857142857143</ele><time>2026-04-04T14:02:39.999Z</time></trkpt><trkpt lat="48.31962525630904" lon="-3.901957286871249"><ele>154.57142857142856</ele><time>2026-04-04T14:02:45.999Z</time></trkpt><trkpt lat="48.319601661830205" lon="-3.901858673274132"><ele>153.85714285714286</ele><time>2026-04-04T14:03:02.999Z</time></trkpt><trkpt lat="48.31966815313115" lon="-3.9018413679230752"><ele>153.14285714285717</ele><time>2026-04-04T14:03:20Z</time></trkpt><trkpt lat="48.31971014468474" lon="-3.901935751989898"><ele>152.42857142857144</ele><time>2026-04-04T14:03:23Z</time></trkpt><trkpt lat="48.319737315362055" lon="-3.902040425937046"><ele>151.71428571428572</ele><time>2026-04-04T14:03:25Z</time></trkpt><trkpt lat="48.319809478483165" lon="-3.902041676012075"><ele>151.0</ele><time>2026-04-04T14:03:30Z</time></trkpt><trkpt lat="48.31987206301958" lon="-3.901999460900292"><ele>149.57142857142858</ele><time>2026-04-04T14:03:34Z</time></trkpt><trkpt lat="48.319901674039656" lon="-3.901914018568381"><ele>148.14285714285714</ele><time>2026-04-04T14:03:36Z</time></trkpt><trkpt lat="48.31993850377998" lon="-3.9018358024164463"><ele>146.71428571428572</ele><time>2026-04-04T14:04:29.999Z</time></trkpt><trkpt lat="48.32000953058462" lon="-3.901755716563921"><ele>145.28571428571428</ele><time>2026-04-04T14:05:47Z</time></trkpt><trkpt lat="48.32005680310724" lon="-3.901673426268153"><ele>143.85714285714286</ele><time>2026-04-04T14:05:56Z</time></trkpt><trkpt lat="48.320139263957486" lon="-3.901660951977172"><ele>142.42857142857144</ele><time>2026-04-04T14:06:03Z</time></trkpt><trkpt lat="48.320186340948815" lon="-3.90158736939173"><ele>141.0</ele><time>2026-04-04T14:06:06.999Z</time></trkpt><trkpt lat="48.320175463904384" lon="-3.901471327457054"><ele>141.0</ele><time>2026-04-04T14:06:59.999Z</time></trkpt><trkpt lat="48.320127635165136" lon="-3.9013979431269368"><ele>141.0</ele><time>2026-04-04T14:07:53Z</time></trkpt><trkpt lat="48.32008415566065" lon="-3.901303839625061"><ele>141.0</ele><time>2026-04-04T14:09:49Z</time></trkpt><trkpt lat="48.32014337927339" lon="-3.901193459950399"><ele>141.0</ele><time>2026-04-04T14:09:56Z</time></trkpt><trkpt lat="48.320183741381875" lon="-3.901117193038597"><ele>141.0</ele><time>2026-04-04T14:09:59Z</time></trkpt><trkpt lat="48.32022732045278" lon="-3.9010076098837616"><ele>141.0</ele><time>2026-04-04T14:10:03Z</time></trkpt><trkpt lat="48.32028599104149" lon="-3.9009492409624733"><ele>140.14285714285714</ele><time>2026-04-04T14:10:06Z</time></trkpt><trkpt lat="48.32032782362672" lon="-3.900870137758489"><ele>139.28571428571428</ele><time>2026-04-04T14:10:09Z</time></trkpt><trkpt lat="48.32037352045689" lon="-3.9007835074638244"><ele>138.42857142857142</ele><time>2026-04-04T14:10:12Z</time></trkpt><trkpt lat="48.32044257315231" lon="-3.90079722532291"><ele>137.57142857142856</ele><time>2026-04-04T14:10:15Z</time></trkpt><trkpt lat="48.32051296128108" lon="-3.9007722977760495"><ele>136.7142857142857</ele><time>2026-04-04T14:10:17Z</time></trkpt><trkpt lat="48.320555912909484" lon="-3.900694892068695"><ele>135.85714285714286</ele><time>2026-04-04T14:10:19Z</time></trkpt><trkpt lat="48.320598382516444" lon="-3.9006219158201416"><ele>135.0</ele><time>2026-04-04T14:10:23Z</time></trkpt><trkpt lat="48.32066098418042" lon="-3.9006022324098697"><ele>135.0</ele><time>2026-04-04T14:10:25.999Z</time></trkpt><trkpt lat="48.3207391782806" lon="-3.9005457565630555"><ele>135.0</ele><time>2026-04-04T14:10:27.999Z</time></trkpt><trkpt lat="48.32082164587298" lon="-3.9006459227669894"><ele>135.0</ele><time>2026-04-04T14:10:30.999Z</time></trkpt><trkpt lat="48.3208369316515" lon="-3.900742600325126"><ele>135.0</ele><time>2026-04-04T14:10:33.999Z</time></trkpt><trkpt lat="48.3208460499309" lon="-3.900852049837744"><ele>135.0</ele><time>2026-04-04T14:10:35.999Z</time></trkpt><trkpt lat="48.320808945784286" lon="-3.9009314903523187"><ele>135.0</ele><time>2026-04-04T14:10:38.999Z</time></trkpt><trkpt lat="48.32075463973464" lon="-3.901021842418635"><ele>134.83333333333334</ele><time>2026-04-04T14:10:41.999Z</time></trkpt><trkpt lat="48.32074318837649" lon="-3.9011353809160365"><ele>134.66666666666666</ele><time>2026-04-04T14:11:05.999Z</time></trkpt><trkpt lat="48.32069267483964" lon="-3.9012249870328994"><ele>134.5</ele><time>2026-04-04T14:11:08.999Z</time></trkpt><trkpt lat="48.320692301164804" lon="-3.901324094024625"><ele>134.33333333333331</ele><time>2026-04-04T14:11:11.999Z</time></trkpt><trkpt lat="48.32069685358405" lon="-3.9014197190984174"><ele>134.16666666666666</ele><time>2026-04-04T14:11:14.999Z</time></trkpt><trkpt lat="48.32074473343192" lon="-3.9015350694554702"><ele>134.0</ele><time>2026-04-04T14:11:17.999Z</time></trkpt><trkpt lat="48.32075802124033" lon="-3.901658259348792"><ele>134.0</ele><time>2026-04-04T14:11:23.999Z</time></trkpt><trkpt lat="48.320829656772695" lon="-3.9016905017049637"><ele>134.0</ele><time>2026-04-04T14:11:30.999Z</time></trkpt><trkpt lat="48.32089483607132" lon="-3.901742395165036"><ele>134.0</ele><time>2026-04-04T14:11:34.999Z</time></trkpt><trkpt lat="48.32093725695583" lon="-3.9018364261469483"><ele>134.0</ele><time>2026-04-04T14:11:38Z</time></trkpt><trkpt lat="48.32100108350691" lon="-3.9017707531550645"><ele>134.0</ele><time>2026-04-04T14:11:41Z</time></trkpt><trkpt lat="48.32107343317007" lon="-3.90173513291738"><ele>134.0</ele><time>2026-04-04T14:11:44Z</time></trkpt><trkpt lat="48.32114043374485" lon="-3.901677495942721"><ele>134.0</ele><time>2026-04-04T14:11:50Z</time></trkpt><trkpt lat="48.32121529777808" lon="-3.901687371193888"><ele>134.0</ele><time>2026-04-04T14:18:43Z</time></trkpt><trkpt lat="48.321301889859384" lon="-3.9017342250731937"><ele>134.0</ele><time>2026-04-04T14:19:25.999Z</time></trkpt><trkpt lat="48.321365656126424" lon="-3.9016714522766223"><ele>134.0</ele><time>2026-04-04T14:19:36.999Z</time></trkpt><trkpt lat="48.3214562688592" lon="-3.9015498294797584"><ele>134.0</ele><time>2026-04-04T14:19:38.999Z</time></trkpt><trkpt lat="48.321509572961354" lon="-3.901473937359362"><ele>134.0</ele><time>2026-04-04T14:19:39.999Z</time></trkpt><trkpt lat="48.32156921797649" lon="-3.901394460032306"><ele>134.42857142857144</ele><time>2026-04-04T14:19:40.999Z</time></trkpt><trkpt lat="48.32162914912812" lon="-3.9013618693495227"><ele>134.85714285714286</ele><time>2026-04-04T14:19:41.999Z</time></trkpt><trkpt lat="48.32167261629668" lon="-3.9012733958419292"><ele>135.28571428571428</ele><time>2026-04-04T14:19:44.999Z</time></trkpt><trkpt lat="48.321719625067004" lon="-3.90119917566764"><ele>135.71428571428572</ele><time>2026-04-04T14:19:46.999Z</time></trkpt><trkpt lat="48.321748414532024" lon="-3.901097811228505"><ele>136.14285714285714</ele><time>2026-04-04T14:19:53.999Z</time></trkpt><trkpt lat="48.3217918228766" lon="-3.9010099275345533"><ele>136.57142857142858</ele><time>2026-04-04T14:19:55.999Z</time></trkpt><trkpt lat="48.32184948306645" lon="-3.9009527798351398"><ele>137.0</ele><time>2026-04-04T14:19:57.999Z</time></trkpt><trkpt lat="48.321863379685546" lon="-3.90082592405239"><ele>137.0</ele><time>2026-04-04T14:20:02Z</time></trkpt><trkpt lat="48.321858259600376" lon="-3.900726505953314"><ele>137.0</ele><time>2026-04-04T14:20:05Z</time></trkpt><trkpt lat="48.32193302712422" lon="-3.9006900523772607"><ele>137.0</ele><time>2026-04-04T14:20:07Z</time></trkpt><trkpt lat="48.322000021847664" lon="-3.900641581616264"><ele>137.0</ele><time>2026-04-04T14:20:09Z</time></trkpt><trkpt lat="48.3220831662771" lon="-3.900607669994976"><ele>137.0</ele><time>2026-04-04T14:20:13Z</time></trkpt><trkpt lat="48.32215227862045" lon="-3.9005874872425816"><ele>137.0</ele><time>2026-04-04T14:20:16Z</time></trkpt><trkpt lat="48.32223624540417" lon="-3.900523897715772"><ele>137.83333333333331</ele><time>2026-04-04T14:20:19Z</time></trkpt><trkpt lat="48.32231952526388" lon="-3.9004535134951483"><ele>138.66666666666666</ele><time>2026-04-04T14:20:21Z</time></trkpt><trkpt lat="48.32239349186344" lon="-3.9004388025288543"><ele>139.5</ele><time>2026-04-04T14:20:23Z</time></trkpt><trkpt lat="48.322462653759644" lon="-3.9004279099180525"><ele>140.33333333333334</ele><time>2026-04-04T14:20:30Z</time></trkpt><trkpt lat="48.32248118316678" lon="-3.9003217998186366"><ele>141.16666666666669</ele><time>2026-04-04T14:20:34Z</time></trkpt><trkpt lat="48.32247218485664" lon="-3.9002275816682563"><ele>142.0</ele><time>2026-04-04T14:20:38Z</time></trkpt><trkpt lat="48.3224135516739" lon="-3.9001173646128344"><ele>141.2</ele><time>2026-04-04T14:20:41Z</time></trkpt><trkpt lat="48.32234299096713" lon="-3.9000508063558748"><ele>140.39999999999998</ele><time>2026-04-04T14:20:43Z</time></trkpt><trkpt lat="48.32233088707925" lon="-3.899951417655161"><ele>139.60000000000002</ele><time>2026-04-04T14:20:45Z</time></trkpt><trkpt lat="48.3223671466796" lon="-3.899811129144995"><ele>138.8</ele><time>2026-04-04T14:20:48Z</time></trkpt><trkpt lat="48.32238786588595" lon="-3.89966439388468"><ele>138.0</ele><time>2026-04-04T14:20:50Z</time></trkpt><trkpt lat="48.32244750744392" lon="-3.8995059579761246"><ele>138.0</ele><time>2026-04-04T14:20:52Z</time></trkpt><trkpt lat="48.322484655849976" lon="-3.8994091471082446"><ele>138.0</ele><time>2026-04-04T14:20:53Z</time></trkpt><trkpt lat="48.32254278021359" lon="-3.8992473772511596"><ele>138.0</ele><time>2026-04-04T14:20:54Z</time></trkpt><trkpt lat="48.32262487669704" lon="-3.899055801472576"><ele>138.0</ele><time>2026-04-04T14:20:54.999Z</time></trkpt><trkpt lat="48.322680890678605" lon="-3.8988906763799003"><ele>137.66666666666666</ele><time>2026-04-04T14:20:55.999Z</time></trkpt><trkpt lat="48.32273428427479" lon="-3.898770809841549"><ele>137.33333333333334</ele><time>2026-04-04T14:20:56.999Z</time></trkpt><trkpt lat="48.32278582404029" lon="-3.8986881667432023"><ele>137.0</ele><time>2026-04-04T14:20:57.999Z</time></trkpt><trkpt lat="48.322840474244025" lon="-3.8985958919936916"><ele>136.66666666666669</ele><time>2026-04-04T14:20:59.999Z</time></trkpt><trkpt lat="48.32288426529536" lon="-3.8984961892499204"><ele>136.33333333333334</ele><time>2026-04-04T14:21:03.999Z</time></trkpt><trkpt lat="48.322932422391396" lon="-3.8983876611992185"><ele>136.0</ele><time>2026-04-04T14:21:06.999Z</time></trkpt><trkpt lat="48.323015480492415" lon="-3.898259556861708"><ele>137.0</ele><time>2026-04-04T14:21:08.999Z</time></trkpt><trkpt lat="48.32306498426649" lon="-3.8981918254896177"><ele>138.0</ele><time>2026-04-04T14:21:09.999Z</time></trkpt><trkpt lat="48.32315345080505" lon="-3.8980851120797597"><ele>139.0</ele><time>2026-04-04T14:21:11.999Z</time></trkpt><trkpt lat="48.32321239043043" lon="-3.898035237588868"><ele>140.0</ele><time>2026-04-04T14:21:12.999Z</time></trkpt><trkpt lat="48.323280229038275" lon="-3.8979971889296765"><ele>141.0</ele><time>2026-04-04T14:21:13.999Z</time></trkpt><trkpt lat="48.32337056522801" lon="-3.89796278083003"><ele>142.0</ele><time>2026-04-04T14:21:14.999Z</time></trkpt><trkpt lat="48.32346376333237" lon="-3.897924450015293"><ele>142.0</ele><time>2026-04-04T14:21:15.999Z</time></trkpt><trkpt lat="48.323543837221585" lon="-3.8978915676814037"><ele>142.0</ele><time>2026-04-04T14:21:16.999Z</time></trkpt><trkpt lat="48.32361384171879" lon="-3.897865044796351"><ele>142.0</ele><time>2026-04-04T14:21:17.999Z</time></trkpt><trkpt lat="48.323679603332565" lon="-3.897839615490113"><ele>142.0</ele><time>2026-04-04T14:21:18.999Z</time></trkpt><trkpt lat="48.32378349164251" lon="-3.897791982124238"><ele>142.0</ele><time>2026-04-04T14:21:20.999Z</time></trkpt><trkpt lat="48.323835398510894" lon="-3.8977067913579786"><ele>142.0</ele><time>2026-04-04T14:21:23.999Z</time></trkpt><trkpt lat="48.32390093735793" lon="-3.897677825578795"><ele>141.66666666666669</ele><time>2026-04-04T14:21:26.999Z</time></trkpt><trkpt lat="48.32396772789717" lon="-3.89759193351772"><ele>141.33333333333334</ele><time>2026-04-04T14:21:30.999Z</time></trkpt><trkpt lat="48.32403035446631" lon="-3.897544566537909"><ele>141.0</ele><time>2026-04-04T14:21:34.999Z</time></trkpt><trkpt lat="48.32409229844652" lon="-3.897490031189736"><ele>140.66666666666666</ele><time>2026-04-04T14:21:38.999Z</time></trkpt><trkpt lat="48.32414900539703" lon="-3.8974252129580025"><ele>140.33333333333331</ele><time>2026-04-04T14:21:43.999Z</time></trkpt><trkpt lat="48.32420605197846" lon="-3.8973187804866094"><ele>140.0</ele><time>2026-04-04T14:21:47.999Z</time></trkpt><trkpt lat="48.32428051241921" lon="-3.897278417734351"><ele>141.0</ele><time>2026-04-04T14:21:49.999Z</time></trkpt><trkpt lat="48.324362018519395" lon="-3.8972278224260615"><ele>142.0</ele><time>2026-04-04T14:21:51.999Z</time></trkpt><trkpt lat="48.32446492416702" lon="-3.8971176182306695"><ele>143.0</ele><time>2026-04-04T14:21:53.999Z</time></trkpt><trkpt lat="48.324520068105635" lon="-3.8970431292816263"><ele>144.0</ele><time>2026-04-04T14:21:55.999Z</time></trkpt><trkpt lat="48.32458697915722" lon="-3.8970368446049086"><ele>145.0</ele><time>2026-04-04T14:21:58.999Z</time></trkpt><trkpt lat="48.32466126839641" lon="-3.8970252149740925"><ele>146.0</ele><time>2026-04-04T14:22:01.999Z</time></trkpt><trkpt lat="48.32472197921602" lon="-3.8969462652100324"><ele>145.33333333333331</ele><time>2026-04-04T14:22:04.999Z</time></trkpt><trkpt lat="48.32476541492438" lon="-3.8968646985201145"><ele>144.66666666666666</ele><time>2026-04-04T14:22:08Z</time></trkpt><trkpt lat="48.32482601486016" lon="-3.8968279700506474"><ele>144.0</ele><time>2026-04-04T14:22:14Z</time></trkpt><trkpt lat="48.324909708115285" lon="-3.896795465548301"><ele>143.33333333333334</ele><time>2026-04-04T14:22:17Z</time></trkpt><trkpt lat="48.32500300253858" lon="-3.896749280595152"><ele>142.66666666666669</ele><time>2026-04-04T14:22:20Z</time></trkpt><trkpt lat="48.325088116348965" lon="-3.8967117704723466"><ele>142.0</ele><time>2026-04-04T14:22:23Z</time></trkpt><trkpt lat="48.3251560158639" lon="-3.896746233810719"><ele>143.33333333333334</ele><time>2026-04-04T14:22:25Z</time></trkpt><trkpt lat="48.32521501255925" lon="-3.896682387236451"><ele>144.66666666666669</ele><time>2026-04-04T14:22:28Z</time></trkpt><trkpt lat="48.325283448481635" lon="-3.896666242489624"><ele>146.0</ele><time>2026-04-04T14:22:32Z</time></trkpt><trkpt lat="48.32533198125977" lon="-3.896561166325917"><ele>147.33333333333334</ele><time>2026-04-04T14:23:36.999Z</time></trkpt><trkpt lat="48.32540555275269" lon="-3.896523727042244"><ele>148.66666666666666</ele><time>2026-04-04T14:23:42.999Z</time></trkpt><trkpt lat="48.325498284725136" lon="-3.896580142169516"><ele>150.0</ele><time>2026-04-04T14:23:46.999Z</time></trkpt><trkpt lat="48.325570604439484" lon="-3.89660098397634"><ele>150.4</ele><time>2026-04-04T14:23:48.999Z</time></trkpt><trkpt lat="48.32564646194803" lon="-3.8966160023704606"><ele>150.8</ele><time>2026-04-04T14:23:51.999Z</time></trkpt><trkpt lat="48.32576326794161" lon="-3.8965086219283607"><ele>151.2</ele><time>2026-04-04T14:23:53.999Z</time></trkpt><trkpt lat="48.325896545376146" lon="-3.89654498716822"><ele>151.6</ele><time>2026-04-04T14:23:55.999Z</time></trkpt><trkpt lat="48.32598580727941" lon="-3.896556167256616"><ele>152.0</ele><time>2026-04-04T14:23:56.999Z</time></trkpt><trkpt lat="48.32606765014156" lon="-3.896535442123017"><ele>152.0</ele><time>2026-04-04T14:23:57.999Z</time></trkpt><trkpt lat="48.32612875751043" lon="-3.8964533548150833"><ele>152.0</ele><time>2026-04-04T14:24:11.999Z</time></trkpt><trkpt lat="48.32618119514927" lon="-3.8963718185182534"><ele>152.0</ele><time>2026-04-04T14:24:23Z</time></trkpt><trkpt lat="48.326265166157754" lon="-3.89633221608992"><ele>152.0</ele><time>2026-04-04T14:24:27Z</time></trkpt><trkpt lat="48.326354494180386" lon="-3.8963665236222704"><ele>152.0</ele><time>2026-04-04T14:24:30Z</time></trkpt><trkpt lat="48.326429118232355" lon="-3.896475665449196"><ele>152.0</ele><time>2026-04-04T14:24:32Z</time></trkpt><trkpt lat="48.32649167189281" lon="-3.8965635123043185"><ele>152.33333333333331</ele><time>2026-04-04T14:24:34Z</time></trkpt><trkpt lat="48.32655379380965" lon="-3.896644257417723"><ele>152.66666666666666</ele><time>2026-04-04T14:24:36Z</time></trkpt><trkpt lat="48.3266325307275" lon="-3.8966403491592967"><ele>153.0</ele><time>2026-04-04T14:24:39Z</time></trkpt><trkpt lat="48.32668064698205" lon="-3.8965716567299906"><ele>153.33333333333334</ele><time>2026-04-04T14:24:41Z</time></trkpt><trkpt lat="48.326733596062674" lon="-3.8965164294313652"><ele>153.66666666666669</ele><time>2026-04-04T14:24:42Z</time></trkpt><trkpt lat="48.32680311631725" lon="-3.896471530703116"><ele>154.0</ele><time>2026-04-04T14:24:44Z</time></trkpt><trkpt lat="48.326893804089934" lon="-3.896416455150048"><ele>154.0</ele><time>2026-04-04T14:24:47Z</time></trkpt><trkpt lat="48.32697661757569" lon="-3.8963444125061986"><ele>154.0</ele><time>2026-04-04T14:24:49Z</time></trkpt><trkpt lat="48.32704371037728" lon="-3.8963002636199215"><ele>154.0</ele><time>2026-04-04T14:24:51Z</time></trkpt><trkpt lat="48.32713158282306" lon="-3.8962444305473714"><ele>154.0</ele><time>2026-04-04T14:25:04.999Z</time></trkpt><trkpt lat="48.32721825980633" lon="-3.896223034598991"><ele>154.0</ele><time>2026-04-04T14:25:07.999Z</time></trkpt><trkpt lat="48.32730282615743" lon="-3.896278383760408"><ele>154.0</ele><time>2026-04-04T14:25:09.999Z</time></trkpt><trkpt lat="48.327324855910994" lon="-3.8964140283230284"><ele>154.66666666666669</ele><time>2026-04-04T14:25:11.999Z</time></trkpt><trkpt lat="48.32734808472504" lon="-3.8965060589785807"><ele>155.33333333333334</ele><time>2026-04-04T14:25:13.999Z</time></trkpt><trkpt lat="48.32742601999029" lon="-3.8965378381391385"><ele>156.0</ele><time>2026-04-04T14:25:18.999Z</time></trkpt><trkpt lat="48.3274854901694" lon="-3.8964637228898513"><ele>156.66666666666666</ele><time>2026-04-04T14:25:21.999Z</time></trkpt><trkpt lat="48.327577378060525" lon="-3.8963967986341057"><ele>157.33333333333331</ele><time>2026-04-04T14:25:23.999Z</time></trkpt><trkpt lat="48.32768051201296" lon="-3.8963063320787965"><ele>158.0</ele><time>2026-04-04T14:25:25.999Z</time></trkpt><trkpt lat="48.327740750954014" lon="-3.896259272595994"><ele>158.0</ele><time>2026-04-04T14:25:26.999Z</time></trkpt><trkpt lat="48.32781453830361" lon="-3.896217797533597"><ele>158.0</ele><time>2026-04-04T14:25:27.999Z</time></trkpt><trkpt lat="48.327873755060075" lon="-3.896183460709828"><ele>158.0</ele><time>2026-04-04T14:25:28.999Z</time></trkpt><trkpt lat="48.327939039839194" lon="-3.8961490659652447"><ele>158.0</ele><time>2026-04-04T14:25:29.999Z</time></trkpt><trkpt lat="48.328007884174184" lon="-3.8960982522184255"><ele>158.0</ele><time>2026-04-04T14:25:30.999Z</time></trkpt><trkpt lat="48.32811191707103" lon="-3.8960121153728826"><ele>158.0</ele><time>2026-04-04T14:25:32.999Z</time></trkpt><trkpt lat="48.32821296049094" lon="-3.8959499121124135"><ele>159.0</ele><time>2026-04-04T14:25:34.999Z</time></trkpt><trkpt lat="48.32830114874043" lon="-3.895889419056657"><ele>160.0</ele><time>2026-04-04T14:25:36.999Z</time></trkpt><trkpt lat="48.32832989512935" lon="-3.895785478388686"><ele>161.0</ele><time>2026-04-04T14:25:39.999Z</time></trkpt><trkpt lat="48.32832969849634" lon="-3.8956746416310124"><ele>162.0</ele><time>2026-04-04T14:25:42.999Z</time></trkpt><trkpt lat="48.32838837740069" lon="-3.8955797716774905"><ele>163.0</ele><time>2026-04-04T14:25:44.999Z</time></trkpt><trkpt lat="48.32840900671642" lon="-3.895458202193226"><ele>164.0</ele><time>2026-04-04T14:25:47.999Z</time></trkpt><trkpt lat="48.32840484616174" lon="-3.8953477290090106"><ele>163.99999999999997</ele><time>2026-04-04T14:25:49.999Z</time></trkpt><trkpt lat="48.32839643771146" lon="-3.8952400012103534"><ele>164.0</ele><time>2026-04-04T14:25:51.999Z</time></trkpt><trkpt lat="48.328386715153584" lon="-3.8951025303672333"><ele>164.0</ele><time>2026-04-04T14:25:53.999Z</time></trkpt><trkpt lat="48.32843289382248" lon="-3.8950305258861455"><ele>164.0</ele><time>2026-04-04T14:25:56.999Z</time></trkpt><trkpt lat="48.32848078130644" lon="-3.8949580133506054"><ele>164.0</ele><time>2026-04-04T14:26:08.999Z</time></trkpt><trkpt lat="48.328510921173084" lon="-3.8948448682697108"><ele>163.99999999999997</ele><time>2026-04-04T14:26:10.999Z</time></trkpt><trkpt lat="48.328518030859335" lon="-3.8947470873703516"><ele>164.0</ele><time>2026-04-04T14:26:12.999Z</time></trkpt><trkpt lat="48.32844743672861" lon="-3.894783006465252"><ele>165.0</ele><time>2026-04-04T14:26:53Z</time></trkpt><trkpt lat="48.32834971799639" lon="-3.894743936354306"><ele>166.0</ele><time>2026-04-04T14:26:56Z</time></trkpt><trkpt lat="48.328283772074954" lon="-3.8947365672436125"><ele>167.0</ele><time>2026-04-04T14:26:57Z</time></trkpt><trkpt lat="48.3282077511582" lon="-3.8947097432827964"><ele>168.0</ele><time>2026-04-04T14:26:58Z</time></trkpt><trkpt lat="48.32820758721781" lon="-3.8946094906761513"><ele>169.0</ele><time>2026-04-04T14:27:01Z</time></trkpt><trkpt lat="48.32816670462063" lon="-3.894535131018821"><ele>170.0</ele><time>2026-04-04T14:27:37.999Z</time></trkpt><trkpt lat="48.32825787577568" lon="-3.8944931734649835"><ele>170.0</ele><time>2026-04-04T14:27:40.999Z</time></trkpt><trkpt lat="48.32831817241277" lon="-3.8945274678144624"><ele>170.0</ele><time>2026-04-04T14:27:41.999Z</time></trkpt><trkpt lat="48.328387131141334" lon="-3.894553875601513"><ele>170.0</ele><time>2026-04-04T14:27:42.999Z</time></trkpt><trkpt lat="48.328487068529945" lon="-3.8945328157031653"><ele>170.0</ele><time>2026-04-04T14:27:44.999Z</time></trkpt><trkpt lat="48.32856327917766" lon="-3.8945039034755906"><ele>170.0</ele><time>2026-04-04T14:27:46.999Z</time></trkpt><trkpt lat="48.3286367589535" lon="-3.8944822160609025"><ele>170.0</ele><time>2026-04-04T14:28:23.999Z</time></trkpt><trkpt lat="48.32871218535162" lon="-3.894466087044688"><ele>170.0</ele><time>2026-04-04T14:36:50Z</time></trkpt><trkpt lat="48.32873879629922" lon="-3.894379021359361"><ele>170.0</ele><time>2026-04-04T14:37:09Z</time></trkpt><trkpt lat="48.328796483363206" lon="-3.8942610307539938"><ele>170.0</ele><time>2026-04-04T14:37:14Z</time></trkpt><trkpt lat="48.328872862735274" lon="-3.894244463437677"><ele>170.0</ele><time>2026-04-04T14:37:26Z</time></trkpt><trkpt lat="48.328916153620796" lon="-3.8941602765566197"><ele>170.0</ele><time>2026-04-04T14:37:28Z</time></trkpt><trkpt lat="48.328972365423056" lon="-3.894098733271599"><ele>170.0</ele><time>2026-04-04T14:37:30Z</time></trkpt><trkpt lat="48.32903306572862" lon="-3.894057288751593"><ele>170.0</ele><time>2026-04-04T14:37:34Z</time></trkpt><trkpt lat="48.32909411604524" lon="-3.89403357359465"><ele>171.16666666666666</ele><time>2026-04-04T14:37:36.999Z</time></trkpt><trkpt lat="48.32917189436084" lon="-3.894010834855375"><ele>172.33333333333331</ele><time>2026-04-04T14:38:09.999Z</time></trkpt><trkpt lat="48.32924129010846" lon="-3.8940780397377446"><ele>173.5</ele><time>2026-04-04T14:38:11.999Z</time></trkpt><trkpt lat="48.32929587683536" lon="-3.8940169481850218"><ele>174.66666666666666</ele><time>2026-04-04T14:38:15.999Z</time></trkpt><trkpt lat="48.32931687348403" lon="-3.8938920463415725"><ele>175.83333333333334</ele><time>2026-04-04T14:38:17.999Z</time></trkpt><trkpt lat="48.32937127028769" lon="-3.8939545493403545"><ele>177.0</ele><time>2026-04-04T14:38:22.999Z</time></trkpt><trkpt lat="48.329354609257535" lon="-3.894068476601301"><ele>177.0</ele><time>2026-04-04T14:38:43.999Z</time></trkpt><trkpt lat="48.32937734325835" lon="-3.894156938387673"><ele>177.0</ele><time>2026-04-04T14:38:45.999Z</time></trkpt><trkpt lat="48.32945101506907" lon="-3.8942119029886597"><ele>177.0</ele><time>2026-04-04T14:38:50.999Z</time></trkpt><trkpt lat="48.329542417889805" lon="-3.894283132347411"><ele>177.0</ele><time>2026-04-04T14:38:52.999Z</time></trkpt><trkpt lat="48.32961131823592" lon="-3.8943420825249753"><ele>177.0</ele><time>2026-04-04T14:38:56Z</time></trkpt><trkpt lat="48.32967367048792" lon="-3.894396745217045"><ele>177.0</ele><time>2026-04-04T14:38:58Z</time></trkpt><trkpt lat="48.329740228505344" lon="-3.894488235504259"><ele>178.16666666666666</ele><time>2026-04-04T14:39:07Z</time></trkpt><trkpt lat="48.329767244557125" lon="-3.894618244319406"><ele>179.33333333333334</ele><time>2026-04-04T14:39:09Z</time></trkpt><trkpt lat="48.329827087421364" lon="-3.8946853128032672"><ele>180.5</ele><time>2026-04-04T14:39:11Z</time></trkpt><trkpt lat="48.329805495625216" lon="-3.8947757621317027"><ele>181.66666666666669</ele><time>2026-04-04T14:40:21.999Z</time></trkpt><trkpt lat="48.32986273538135" lon="-3.894864873952843"><ele>182.83333333333334</ele><time>2026-04-04T14:40:24.999Z</time></trkpt><trkpt lat="48.329926191266885" lon="-3.8949759173639946"><ele>184.0</ele><time>2026-04-04T14:40:26.999Z</time></trkpt><trkpt lat="48.32998796264489" lon="-3.8950492352926007"><ele>185.16666666666669</ele><time>2026-04-04T14:40:28.999Z</time></trkpt><trkpt lat="48.33004126543896" lon="-3.8951305365245537"><ele>186.33333333333334</ele><time>2026-04-04T14:40:32.999Z</time></trkpt><trkpt lat="48.330086735493786" lon="-3.895247566399344"><ele>187.5</ele><time>2026-04-04T14:41:00.999Z</time></trkpt><trkpt lat="48.33013710523769" lon="-3.8954121648517783"><ele>188.66666666666666</ele><time>2026-04-04T14:41:03Z</time></trkpt><trkpt lat="48.330215861171254" lon="-3.8954511995299783"><ele>189.83333333333331</ele><time>2026-04-04T14:41:05Z</time></trkpt><trkpt lat="48.330276142030236" lon="-3.8953988943907594"><ele>191.0</ele><time>2026-04-04T14:41:07Z</time></trkpt><trkpt lat="48.33034989636111" lon="-3.895387206535978"><ele>191.0</ele><time>2026-04-04T14:41:10Z</time></trkpt><trkpt lat="48.330414575937496" lon="-3.895320448996811"><ele>191.0</ele><time>2026-04-04T14:41:16Z</time></trkpt><trkpt lat="48.33047200555669" lon="-3.89538411632183"><ele>191.0</ele><time>2026-04-04T14:41:18Z</time></trkpt><trkpt lat="48.3305324032308" lon="-3.8954591420205924"><ele>191.0</ele><time>2026-04-04T14:41:20Z</time></trkpt><trkpt lat="48.33060141185845" lon="-3.895499324755801"><ele>191.0</ele><time>2026-04-04T14:41:23Z</time></trkpt><trkpt lat="48.330672971957185" lon="-3.8954654747944097"><ele>191.0</ele><time>2026-04-04T14:41:29Z</time></trkpt><trkpt lat="48.330737080490564" lon="-3.8954211592257284"><ele>191.0</ele><time>2026-04-04T14:41:33Z</time></trkpt><trkpt lat="48.33081219069194" lon="-3.895442789440456"><ele>190.4</ele><time>2026-04-04T14:41:35Z</time></trkpt><trkpt lat="48.33092573456098" lon="-3.8954639813501224"><ele>189.8</ele><time>2026-04-04T14:41:37Z</time></trkpt><trkpt lat="48.33102219178728" lon="-3.8954643636801127"><ele>189.20000000000002</ele><time>2026-04-04T14:41:40Z</time></trkpt><trkpt lat="48.33109023423617" lon="-3.8954778517209014"><ele>188.60000000000002</ele><time>2026-04-04T14:41:42Z</time></trkpt><trkpt lat="48.33119663843056" lon="-3.8954901071010712"><ele>188.0</ele><time>2026-04-04T14:41:44Z</time></trkpt><trkpt lat="48.33127494035879" lon="-3.895530666690512"><ele>188.0</ele><time>2026-04-04T14:41:46Z</time></trkpt><trkpt lat="48.33135703170372" lon="-3.8955592815538047"><ele>188.0</ele><time>2026-04-04T14:41:48Z</time></trkpt><trkpt lat="48.331421456259335" lon="-3.8955758063040853"><ele>188.0</ele><time>2026-04-04T14:42:03.999Z</time></trkpt><trkpt lat="48.33147650145627" lon="-3.8956374814430452"><ele>188.0</ele><time>2026-04-04T14:42:06.999Z</time></trkpt><trkpt lat="48.33154802605135" lon="-3.8957225417028383"><ele>188.0</ele><time>2026-04-04T14:42:10.999Z</time></trkpt><trkpt lat="48.331619104515255" lon="-3.895732101630423"><ele>188.0</ele><time>2026-04-04T14:42:36.999Z</time></trkpt><trkpt lat="48.331673353769325" lon="-3.895823498100798"><ele>188.42857142857142</ele><time>2026-04-04T14:42:39.999Z</time></trkpt><trkpt lat="48.33174010101883" lon="-3.8958181411223816"><ele>188.85714285714283</ele><time>2026-04-04T14:42:41.999Z</time></trkpt><trkpt lat="48.331810134702295" lon="-3.8957812840672816"><ele>189.28571428571428</ele><time>2026-04-04T14:42:44.999Z</time></trkpt><trkpt lat="48.33188323559301" lon="-3.895830849738485"><ele>189.71428571428572</ele><time>2026-04-04T14:42:46.999Z</time></trkpt><trkpt lat="48.33195098104836" lon="-3.8958070311822373"><ele>190.14285714285714</ele><time>2026-04-04T14:42:58.999Z</time></trkpt><trkpt lat="48.331969501696776" lon="-3.895923477528018"><ele>190.57142857142858</ele><time>2026-04-04T14:43:28Z</time></trkpt><trkpt lat="48.33201297733421" lon="-3.8959977339751473"><ele>191.0</ele><time>2026-04-04T14:43:32Z</time></trkpt><trkpt lat="48.332054457979964" lon="-3.896079504593035"><ele>191.5</ele><time>2026-04-04T14:43:34Z</time></trkpt><trkpt lat="48.33214273701608" lon="-3.8960962510332093"><ele>192.0</ele><time>2026-04-04T14:43:37Z</time></trkpt><trkpt lat="48.332213310918924" lon="-3.896110134171309"><ele>192.5</ele><time>2026-04-04T14:43:58.999Z</time></trkpt><trkpt lat="48.332301284320764" lon="-3.8961940003826396"><ele>193.0</ele><time>2026-04-04T14:44:00.999Z</time></trkpt><trkpt lat="48.332358522002544" lon="-3.896260407416212"><ele>193.50000000000003</ele><time>2026-04-04T14:44:02.999Z</time></trkpt><trkpt lat="48.332427177150315" lon="-3.896244868239147"><ele>194.0</ele><time>2026-04-04T14:44:05.999Z</time></trkpt><trkpt lat="48.33248036575025" lon="-3.896134562326299"><ele>194.00000000000003</ele><time>2026-04-04T14:44:07.999Z</time></trkpt><trkpt lat="48.33256741357367" lon="-3.8961377140712736"><ele>194.0</ele><time>2026-04-04T14:44:09.999Z</time></trkpt><trkpt lat="48.33263362893549" lon="-3.896098656462732"><ele>194.0</ele><time>2026-04-04T14:44:11.999Z</time></trkpt><trkpt lat="48.332699443725595" lon="-3.89600188523289"><ele>194.0</ele><time>2026-04-04T14:44:14.999Z</time></trkpt><trkpt lat="48.332685643506366" lon="-3.8958896421262024"><ele>194.00000000000003</ele><time>2026-04-04T14:44:16.999Z</time></trkpt><trkpt lat="48.332688740455055" lon="-3.8957425450240826"><ele>194.0</ele><time>2026-04-04T14:44:19.999Z</time></trkpt><trkpt lat="48.33266541086944" lon="-3.895606850624019"><ele>194.66666666666669</ele><time>2026-04-04T14:44:21.999Z</time></trkpt><trkpt lat="48.332673960133555" lon="-3.8955009429733023"><ele>195.33333333333334</ele><time>2026-04-04T14:44:24.999Z</time></trkpt><trkpt lat="48.33276154530969" lon="-3.895467493170505"><ele>196.0</ele><time>2026-04-04T14:44:29.999Z</time></trkpt><trkpt lat="48.33282014492016" lon="-3.895321065247461"><ele>196.66666666666669</ele><time>2026-04-04T14:44:31.999Z</time></trkpt><trkpt lat="48.33285384142544" lon="-3.895232059835249"><ele>197.33333333333334</ele><time>2026-04-04T14:44:33.999Z</time></trkpt><trkpt lat="48.33290711842667" lon="-3.8951296213395934"><ele>198.0</ele><time>2026-04-04T14:44:48.999Z</time></trkpt><trkpt lat="48.33292827416274" lon="-3.894955717396172"><ele>199.66666666666666</ele><time>2026-04-04T14:44:51.999Z</time></trkpt><trkpt lat="48.33298222304254" lon="-3.8948604966808658"><ele>201.33333333333331</ele><time>2026-04-04T14:44:53.999Z</time></trkpt><trkpt lat="48.333003734440716" lon="-3.894765832809978"><ele>203.0</ele><time>2026-04-04T14:44:55.999Z</time></trkpt><trkpt lat="48.332994975993934" lon="-3.8946446415459057"><ele>204.66666666666666</ele><time>2026-04-04T14:44:57.999Z</time></trkpt><trkpt lat="48.33299362680855" lon="-3.8945010972522236"><ele>206.33333333333331</ele><time>2026-04-04T14:44:59.999Z</time></trkpt><trkpt lat="48.33302977626526" lon="-3.894416175483114"><ele>208.0</ele><time>2026-04-04T14:45:01.999Z</time></trkpt><trkpt lat="48.333068930931894" lon="-3.894321705531828"><ele>210.33333333333331</ele><time>2026-04-04T14:45:05.999Z</time></trkpt><trkpt lat="48.33307049760158" lon="-3.894221826771462"><ele>212.66666666666666</ele><time>2026-04-04T14:45:08.999Z</time></trkpt><trkpt lat="48.33312818237362" lon="-3.8941433623573727"><ele>215.0</ele><time>2026-04-04T14:45:11.999Z</time></trkpt><trkpt lat="48.33315853054931" lon="-3.8940186461234387"><ele>217.33333333333331</ele><time>2026-04-04T14:45:15Z</time></trkpt><trkpt lat="48.33317651464225" lon="-3.893891330647513"><ele>219.66666666666666</ele><time>2026-04-04T14:45:17Z</time></trkpt><trkpt lat="48.33309364002355" lon="-3.8938080260662677"><ele>222.0</ele><time>2026-04-04T14:45:20Z</time></trkpt><trkpt lat="48.33307689587177" lon="-3.8936902168497642"><ele>223.16666666666666</ele><time>2026-04-04T14:45:23Z</time></trkpt><trkpt lat="48.333044972068016" lon="-3.893604529128381"><ele>224.33333333333331</ele><time>2026-04-04T14:45:25Z</time></trkpt><trkpt lat="48.333024497078654" lon="-3.8934761591719593"><ele>225.5</ele><time>2026-04-04T14:45:32Z</time></trkpt><trkpt lat="48.33301726425314" lon="-3.8933737364228675"><ele>226.66666666666666</ele><time>2026-04-04T14:45:34Z</time></trkpt><trkpt lat="48.332967131747075" lon="-3.8932447111821484"><ele>227.83333333333331</ele><time>2026-04-04T14:45:37Z</time></trkpt><trkpt lat="48.33293707120768" lon="-3.8931428956809433"><ele>229.0</ele><time>2026-04-04T14:45:41Z</time></trkpt><trkpt lat="48.332937957668726" lon="-3.892983205408837"><ele>231.28571428571428</ele><time>2026-04-04T14:45:44Z</time></trkpt><trkpt lat="48.33288752818193" lon="-3.892894398856163"><ele>233.57142857142858</ele><time>2026-04-04T14:45:48Z</time></trkpt><trkpt lat="48.33282001262421" lon="-3.8928609912540564"><ele>235.85714285714286</ele><time>2026-04-04T14:45:54Z</time></trkpt><trkpt lat="48.332742816154195" lon="-3.892858477438248"><ele>238.14285714285714</ele><time>2026-04-04T14:46:08.999Z</time></trkpt><trkpt lat="48.332681126541495" lon="-3.892833877198505"><ele>240.42857142857144</ele><time>2026-04-04T14:46:12.999Z</time></trkpt><trkpt lat="48.33260520819241" lon="-3.892880068681116"><ele>242.71428571428572</ele><time>2026-04-04T14:46:15.999Z</time></trkpt><trkpt lat="48.33254798311738" lon="-3.8928160512339116"><ele>245.0</ele><time>2026-04-04T14:46:17.999Z</time></trkpt><trkpt lat="48.33257600017139" lon="-3.8926646095943935"><ele>245.16666666666669</ele><time>2026-04-04T14:46:20.999Z</time></trkpt><trkpt lat="48.3325725563783" lon="-3.8925489161939244"><ele>245.33333333333334</ele><time>2026-04-04T14:46:22.999Z</time></trkpt><trkpt lat="48.33254874312433" lon="-3.8923944693013075"><ele>245.5</ele><time>2026-04-04T14:46:24.999Z</time></trkpt><trkpt lat="48.332586444061285" lon="-3.8923081246144644"><ele>245.66666666666669</ele><time>2026-04-04T14:46:26.999Z</time></trkpt><trkpt lat="48.332617363777935" lon="-3.892184674638032"><ele>245.83333333333334</ele><time>2026-04-04T14:46:29.999Z</time></trkpt><trkpt lat="48.33260954841666" lon="-3.8920832396182696"><ele>246.0</ele><time>2026-04-04T14:46:31.999Z</time></trkpt><trkpt lat="48.33257144966757" lon="-3.8919803884685846"><ele>246.0</ele><time>2026-04-04T14:46:33.999Z</time></trkpt><trkpt lat="48.3325198473253" lon="-3.89187048463428"><ele>246.0</ele><time>2026-04-04T14:46:35.999Z</time></trkpt><trkpt lat="48.33246581482335" lon="-3.891743911193388"><ele>246.0</ele><time>2026-04-04T14:46:37.999Z</time></trkpt><trkpt lat="48.332393911227" lon="-3.891654438982516"><ele>246.0</ele><time>2026-04-04T14:46:39.999Z</time></trkpt><trkpt lat="48.332356641166825" lon="-3.8915672538010946"><ele>246.0</ele><time>2026-04-04T14:46:41.999Z</time></trkpt><trkpt lat="48.33234354222238" lon="-3.8914382315258544"><ele>246.0</ele><time>2026-04-04T14:46:43.999Z</time></trkpt><trkpt lat="48.332296162381645" lon="-3.891358263065627"><ele>245.66666666666666</ele><time>2026-04-04T14:47:23Z</time></trkpt><trkpt lat="48.332274781879136" lon="-3.8912516300423303"><ele>245.33333333333331</ele><time>2026-04-04T14:47:34Z</time></trkpt><trkpt lat="48.3322543731635" lon="-3.8911007682524286"><ele>245.0</ele><time>2026-04-04T14:47:40Z</time></trkpt><trkpt lat="48.33223130637688" lon="-3.890953890822714"><ele>244.66666666666666</ele><time>2026-04-04T14:47:42Z</time></trkpt><trkpt lat="48.33223683208572" lon="-3.8908374821576728"><ele>244.33333333333331</ele><time>2026-04-04T14:47:44Z</time></trkpt><trkpt lat="48.332212702895006" lon="-3.890723525541961"><ele>244.0</ele><time>2026-04-04T14:47:47Z</time></trkpt><trkpt lat="48.33214988682462" lon="-3.8907161467158864"><ele>240.83333333333331</ele><time>2026-04-04T14:47:49Z</time></trkpt><trkpt lat="48.33209006805811" lon="-3.890650746835328"><ele>237.66666666666666</ele><time>2026-04-04T14:47:52Z</time></trkpt><trkpt lat="48.33204073183716" lon="-3.890540791557001"><ele>234.5</ele><time>2026-04-04T14:47:54Z</time></trkpt><trkpt lat="48.33205446451014" lon="-3.8904145436392903"><ele>231.33333333333331</ele><time>2026-04-04T14:47:56Z</time></trkpt><trkpt lat="48.33202393149127" lon="-3.8903062637821524"><ele>228.16666666666666</ele><time>2026-04-04T14:47:59Z</time></trkpt><trkpt lat="48.33201185622573" lon="-3.8902045714038898"><ele>225.0</ele><time>2026-04-04T14:48:01Z</time></trkpt><trkpt lat="48.33197822012402" lon="-3.890065798048685"><ele>224.33333333333334</ele><time>2026-04-04T14:48:03Z</time></trkpt><trkpt lat="48.331985936673966" lon="-3.889964556017196"><ele>223.66666666666669</ele><time>2026-04-04T14:48:06Z</time></trkpt><trkpt lat="48.33196054944543" lon="-3.889845711229241"><ele>223.0</ele><time>2026-04-04T14:48:08Z</time></trkpt><trkpt lat="48.33195102978942" lon="-3.889735657354341"><ele>222.33333333333334</ele><time>2026-04-04T14:48:10Z</time></trkpt><trkpt lat="48.331906503858846" lon="-3.889647787360165"><ele>221.66666666666669</ele><time>2026-04-04T14:48:13Z</time></trkpt><trkpt lat="48.33183713419507" lon="-3.889651285515983"><ele>221.0</ele><time>2026-04-04T14:48:16Z</time></trkpt><trkpt lat="48.331782692841074" lon="-3.889764315774609"><ele>221.00000000000003</ele><time>2026-04-04T14:48:18.999Z</time></trkpt><trkpt lat="48.33173613846007" lon="-3.889865967854923"><ele>221.0</ele><time>2026-04-04T14:48:21.999Z</time></trkpt><trkpt lat="48.33171281607853" lon="-3.8899545859652385"><ele>221.0</ele><time>2026-04-04T14:48:23.999Z</time></trkpt><trkpt lat="48.331677001499074" lon="-3.890061596009622"><ele>221.0</ele><time>2026-04-04T14:48:25.999Z</time></trkpt><trkpt lat="48.331671455533375" lon="-3.8901772025253853"><ele>221.00000000000003</ele><time>2026-04-04T14:48:27.999Z</time></trkpt><trkpt lat="48.3316604948915" lon="-3.890285869491192"><ele>221.0</ele><time>2026-04-04T14:48:29.999Z</time></trkpt><trkpt lat="48.33158737094781" lon="-3.8903387600876416"><ele>221.66666666666669</ele><time>2026-04-04T14:48:32.999Z</time></trkpt><trkpt lat="48.33156565118423" lon="-3.890453193106435"><ele>222.33333333333334</ele><time>2026-04-04T14:48:35.999Z</time></trkpt><trkpt lat="48.331540865051856" lon="-3.8905500591190774"><ele>223.0</ele><time>2026-04-04T14:48:38.999Z</time></trkpt><trkpt lat="48.3315138858513" lon="-3.8906507936498453"><ele>223.66666666666669</ele><time>2026-04-04T14:48:41.999Z</time></trkpt><trkpt lat="48.33147745911064" lon="-3.8907487389316744"><ele>224.33333333333334</ele><time>2026-04-04T14:48:45.999Z</time></trkpt><trkpt lat="48.33143766241402" lon="-3.890864069854896"><ele>225.0</ele><time>2026-04-04T14:48:48.999Z</time></trkpt><trkpt lat="48.33134471245091" lon="-3.8908937472952547"><ele>223.0</ele><time>2026-04-04T14:48:51.999Z</time></trkpt><trkpt lat="48.33127505033228" lon="-3.8909418795549504"><ele>221.0</ele><time>2026-04-04T14:48:53.999Z</time></trkpt><trkpt lat="48.33119210987642" lon="-3.8909675981334884"><ele>219.0</ele><time>2026-04-04T14:48:56.999Z</time></trkpt><trkpt lat="48.33110590913958" lon="-3.891042694276828"><ele>217.0</ele><time>2026-04-04T14:48:57.999Z</time></trkpt><trkpt lat="48.33103362363421" lon="-3.8910447866231386"><ele>215.0</ele><time>2026-04-04T14:49:00.999Z</time></trkpt><trkpt lat="48.3309718865364" lon="-3.891094674115117"><ele>213.0</ele><time>2026-04-04T14:49:02.999Z</time></trkpt><trkpt lat="48.330906049684984" lon="-3.891174711125368"><ele>212.99999999999997</ele><time>2026-04-04T14:49:05.999Z</time></trkpt><trkpt lat="48.33082288149173" lon="-3.8912306756202732"><ele>213.0</ele><time>2026-04-04T14:49:08.999Z</time></trkpt><trkpt lat="48.33076390235217" lon="-3.8912789193406163"><ele>213.0</ele><time>2026-04-04T14:49:10.999Z</time></trkpt><trkpt lat="48.330694631450456" lon="-3.891288296642993"><ele>213.0</ele><time>2026-04-04T14:49:12.999Z</time></trkpt><trkpt lat="48.330623903172224" lon="-3.8913299638197913"><ele>213.0</ele><time>2026-04-04T14:49:14.999Z</time></trkpt><trkpt lat="48.33059536128085" lon="-3.8914183252741377"><ele>212.99999999999997</ele><time>2026-04-04T14:49:16.999Z</time></trkpt><trkpt lat="48.330525896674075" lon="-3.891470405017323"><ele>213.0</ele><time>2026-04-04T14:49:18.999Z</time></trkpt><trkpt lat="48.33047794553317" lon="-3.8915673106434023"><ele>212.33333333333334</ele><time>2026-04-04T14:49:20.999Z</time></trkpt><trkpt lat="48.33041475987827" lon="-3.891673086404996"><ele>211.66666666666669</ele><time>2026-04-04T14:49:22.999Z</time></trkpt><trkpt lat="48.330404602726475" lon="-3.8917866308621685"><ele>211.0</ele><time>2026-04-04T14:49:24.999Z</time></trkpt><trkpt lat="48.33034744035266" lon="-3.8918887538179514"><ele>210.33333333333334</ele><time>2026-04-04T14:49:28Z</time></trkpt><trkpt lat="48.33027390639826" lon="-3.8919348944481498"><ele>209.66666666666669</ele><time>2026-04-04T14:49:30Z</time></trkpt><trkpt lat="48.33021771634987" lon="-3.8920586514526683"><ele>209.0</ele><time>2026-04-04T14:49:32Z</time></trkpt><trkpt lat="48.33014424406325" lon="-3.8921601440512643"><ele>207.50000000000003</ele><time>2026-04-04T14:49:34Z</time></trkpt><trkpt lat="48.33007075255635" lon="-3.8922752125714486"><ele>206.0</ele><time>2026-04-04T14:49:36Z</time></trkpt><trkpt lat="48.33003591114977" lon="-3.892401879085403"><ele>204.5</ele><time>2026-04-04T14:49:38Z</time></trkpt><trkpt lat="48.330004438168956" lon="-3.892541211976067"><ele>203.0</ele><time>2026-04-04T14:49:40Z</time></trkpt><trkpt lat="48.32997869490133" lon="-3.892637677715026"><ele>201.50000000000003</ele><time>2026-04-04T14:49:42Z</time></trkpt><trkpt lat="48.329898859855" lon="-3.8926640731138975"><ele>200.0</ele><time>2026-04-04T14:49:44Z</time></trkpt><trkpt lat="48.32985089978864" lon="-3.8927269660830097"><ele>200.00000000000003</ele><time>2026-04-04T14:49:48Z</time></trkpt><trkpt lat="48.32983434927823" lon="-3.8928350147527073"><ele>200.0</ele><time>2026-04-04T14:49:50Z</time></trkpt><trkpt lat="48.329795625011535" lon="-3.892920697893899"><ele>200.0</ele><time>2026-04-04T14:50:00Z</time></trkpt><trkpt lat="48.32971452611239" lon="-3.892890367706029"><ele>200.0</ele><time>2026-04-04T14:50:05Z</time></trkpt><trkpt lat="48.329644275249144" lon="-3.8929213255891773"><ele>200.0</ele><time>2026-04-04T14:50:07Z</time></trkpt><trkpt lat="48.3296114962432" lon="-3.893024659760733"><ele>200.00000000000003</ele><time>2026-04-04T14:50:10Z</time></trkpt><trkpt lat="48.32959330495233" lon="-3.8931209955541113"><ele>200.0</ele><time>2026-04-04T14:50:14Z</time></trkpt><trkpt lat="48.329548981545464" lon="-3.8931897116823504"><ele>197.4</ele><time>2026-04-04T14:50:17Z</time></trkpt><trkpt lat="48.32946317285071" lon="-3.8932804372601684"><ele>194.8</ele><time>2026-04-04T14:50:19Z</time></trkpt><trkpt lat="48.32939419348433" lon="-3.893358689016884"><ele>192.2</ele><time>2026-04-04T14:50:21Z</time></trkpt><trkpt lat="48.32935381454452" lon="-3.893495074698879"><ele>189.6</ele><time>2026-04-04T14:50:23Z</time></trkpt><trkpt lat="48.32935045765735" lon="-3.8936550553542904"><ele>187.0</ele><time>2026-04-04T14:50:25Z</time></trkpt><trkpt lat="48.32933294373828" lon="-3.893767614393465"><ele>185.57142857142856</ele><time>2026-04-04T14:50:28Z</time></trkpt><trkpt lat="48.329343326899334" lon="-3.893863053411653"><ele>184.14285714285717</ele><time>2026-04-04T14:50:33Z</time></trkpt><trkpt lat="48.329295703672805" lon="-3.893934318785513"><ele>182.71428571428572</ele><time>2026-04-04T14:50:36.999Z</time></trkpt><trkpt lat="48.329273036787384" lon="-3.894040578498809"><ele>181.28571428571428</ele><time>2026-04-04T14:50:39.999Z</time></trkpt><trkpt lat="48.329188112373366" lon="-3.8939778031812136"><ele>179.85714285714283</ele><time>2026-04-04T14:50:44.999Z</time></trkpt><trkpt lat="48.32912351441966" lon="-3.8939703051320924"><ele>178.42857142857144</ele><time>2026-04-04T14:50:47.999Z</time></trkpt><trkpt lat="48.32905878865143" lon="-3.893998234301586"><ele>177.0</ele><time>2026-04-04T14:50:51.999Z</time></trkpt><trkpt lat="48.32898434589686" lon="-3.8940362227513785"><ele>177.0</ele><time>2026-04-04T14:50:54.999Z</time></trkpt><trkpt lat="48.328907600143616" lon="-3.89412532472637"><ele>177.0</ele><time>2026-04-04T14:50:57.999Z</time></trkpt><trkpt lat="48.32886805979993" lon="-3.8942048698460012"><ele>177.0</ele><time>2026-04-04T14:51:08.999Z</time></trkpt><trkpt lat="48.32879878240015" lon="-3.8942174050555733"><ele>177.0</ele><time>2026-04-04T14:51:43Z</time></trkpt><trkpt lat="48.32875126310698" lon="-3.8942895616277085"><ele>177.0</ele><time>2026-04-04T14:51:46Z</time></trkpt><trkpt lat="48.32871535074746" lon="-3.894377485548652"><ele>177.0</ele><time>2026-04-04T14:51:48Z</time></trkpt><trkpt lat="48.32864730786424" lon="-3.894460714136827"><ele>175.83333333333334</ele><time>2026-04-04T14:51:50Z</time></trkpt><trkpt lat="48.32858892571158" lon="-3.8945008041268605"><ele>174.66666666666666</ele><time>2026-04-04T14:51:51Z</time></trkpt><trkpt lat="48.32852505036609" lon="-3.894509825259187"><ele>173.5</ele><time>2026-04-04T14:51:52Z</time></trkpt><trkpt lat="48.328437147499734" lon="-3.8945242416132784"><ele>172.33333333333331</ele><time>2026-04-04T14:51:53Z</time></trkpt><trkpt lat="48.32836864235314" lon="-3.8945470982804062"><ele>171.16666666666666</ele><time>2026-04-04T14:51:54Z</time></trkpt><trkpt lat="48.32826900076242" lon="-3.8945556789131803"><ele>170.0</ele><time>2026-04-04T14:51:56Z</time></trkpt><trkpt lat="48.32819597512477" lon="-3.8945619917574996"><ele>170.0</ele><time>2026-04-04T14:53:31.999Z</time></trkpt><trkpt lat="48.32814238367965" lon="-3.89461701926333"><ele>170.0</ele><time>2026-04-04T14:53:35.999Z</time></trkpt><trkpt lat="48.3280614409876" lon="-3.8946454639879393"><ele>170.0</ele><time>2026-04-04T14:53:40Z</time></trkpt><trkpt lat="48.32801777215515" lon="-3.8947374978968377"><ele>170.0</ele><time>2026-04-04T14:53:43Z</time></trkpt><trkpt lat="48.327954615099486" lon="-3.894776400216443"><ele>170.0</ele><time>2026-04-04T14:53:45Z</time></trkpt><trkpt lat="48.3278971094252" lon="-3.8948194730202887"><ele>170.0</ele><time>2026-04-04T14:53:47Z</time></trkpt><trkpt lat="48.32782761607894" lon="-3.8948608794820907"><ele>170.0</ele><time>2026-04-04T14:53:50Z</time></trkpt><trkpt lat="48.327744309693145" lon="-3.8949182269436786"><ele>169.83333333333331</ele><time>2026-04-04T14:53:53Z</time></trkpt><trkpt lat="48.3276682485996" lon="-3.894913637153057"><ele>169.66666666666666</ele><time>2026-04-04T14:53:55Z</time></trkpt><trkpt lat="48.327581644375485" lon="-3.8948973031703007"><ele>169.5</ele><time>2026-04-04T14:53:58Z</time></trkpt><trkpt lat="48.327500755642966" lon="-3.8949053615199385"><ele>169.33333333333334</ele><time>2026-04-04T14:54:00Z</time></trkpt><trkpt lat="48.32743210241228" lon="-3.894917846039567"><ele>169.16666666666669</ele><time>2026-04-04T14:54:04Z</time></trkpt><trkpt lat="48.32746507942712" lon="-3.895004621124302"><ele>169.0</ele><time>2026-04-04T14:54:23Z</time></trkpt><trkpt lat="48.32754727208867" lon="-3.895053903402736"><ele>169.0</ele><time>2026-04-04T14:54:27Z</time></trkpt><trkpt lat="48.32761081284496" lon="-3.89505003651393"><ele>169.0</ele><time>2026-04-04T14:55:09.999Z</time></trkpt><trkpt lat="48.32769036879382" lon="-3.8950232467438277"><ele>169.0</ele><time>2026-04-04T14:55:12.999Z</time></trkpt><trkpt lat="48.32778280520086" lon="-3.8950278983458415"><ele>169.0</ele><time>2026-04-04T14:55:15.999Z</time></trkpt><trkpt lat="48.32784367683423" lon="-3.895079317054213"><ele>169.0</ele><time>2026-04-04T14:55:18.999Z</time></trkpt><trkpt lat="48.32788411502153" lon="-3.8951705438753725"><ele>169.0</ele><time>2026-04-04T14:55:29.999Z</time></trkpt><trkpt lat="48.327966156217705" lon="-3.8952210278111288"><ele>168.16666666666669</ele><time>2026-04-04T14:55:33.999Z</time></trkpt><trkpt lat="48.32801651720604" lon="-3.8952865718303213"><ele>167.33333333333334</ele><time>2026-04-04T14:55:35.999Z</time></trkpt><trkpt lat="48.32798880346146" lon="-3.8954148595730156"><ele>166.5</ele><time>2026-04-04T14:55:37.999Z</time></trkpt><trkpt lat="48.327952197100586" lon="-3.8955606996718424"><ele>165.66666666666666</ele><time>2026-04-04T14:55:39.999Z</time></trkpt><trkpt lat="48.327918556922135" lon="-3.895643366386388"><ele>164.83333333333331</ele><time>2026-04-04T14:55:41.999Z</time></trkpt><trkpt lat="48.32790525536321" lon="-3.895813244767049"><ele>164.0</ele><time>2026-04-04T14:55:44Z</time></trkpt><trkpt lat="48.32785207419666" lon="-3.8959005682903745"><ele>162.79999999999998</ele><time>2026-04-04T14:55:47Z</time></trkpt><trkpt lat="48.3277972316775" lon="-3.895999864052493"><ele>161.6</ele><time>2026-04-04T14:55:49Z</time></trkpt><trkpt lat="48.32772171299581" lon="-3.896072292665733"><ele>160.4</ele><time>2026-04-04T14:55:51Z</time></trkpt><trkpt lat="48.32764170796546" lon="-3.896141662277463"><ele>159.2</ele><time>2026-04-04T14:55:53Z</time></trkpt><trkpt lat="48.32752509558103" lon="-3.8962034708630635"><ele>158.0</ele><time>2026-04-04T14:55:55Z</time></trkpt><trkpt lat="48.3274612097678" lon="-3.896238066038827"><ele>158.0</ele><time>2026-04-04T14:55:56Z</time></trkpt><trkpt lat="48.327400546931614" lon="-3.896280369501637"><ele>158.0</ele><time>2026-04-04T14:55:58Z</time></trkpt><trkpt lat="48.32734023015393" lon="-3.896313307908366"><ele>158.0</ele><time>2026-04-04T14:56:02Z</time></trkpt><trkpt lat="48.32726741553456" lon="-3.8962830275531997"><ele>158.0</ele><time>2026-04-04T14:56:06Z</time></trkpt><trkpt lat="48.327226073001505" lon="-3.8960851228675475"><ele>158.0</ele><time>2026-04-04T14:56:08Z</time></trkpt><trkpt lat="48.32719716971408" lon="-3.8959812136606504"><ele>158.0</ele><time>2026-04-04T14:56:09Z</time></trkpt><trkpt lat="48.32715104308907" lon="-3.895910307262881"><ele>159.0</ele><time>2026-04-04T14:56:10Z</time></trkpt><trkpt lat="48.32705978214707" lon="-3.895859241931669"><ele>160.0</ele><time>2026-04-04T14:56:12Z</time></trkpt><trkpt lat="48.326986498305494" lon="-3.8958085009764476"><ele>161.0</ele><time>2026-04-04T14:56:15Z</time></trkpt><trkpt lat="48.32692336635186" lon="-3.895741969469782"><ele>162.0</ele><time>2026-04-04T14:56:20Z</time></trkpt><trkpt lat="48.326829012433976" lon="-3.8956736122713234"><ele>163.0</ele><time>2026-04-04T14:56:24Z</time></trkpt><trkpt lat="48.32673980191256" lon="-3.8956493110944175"><ele>163.0</ele><time>2026-04-04T14:56:26Z</time></trkpt><trkpt lat="48.32667450821582" lon="-3.89563218129214"><ele>163.0</ele><time>2026-04-04T14:56:33Z</time></trkpt><trkpt lat="48.32660165107589" lon="-3.8956087886932713"><ele>163.0</ele><time>2026-04-04T14:56:35Z</time></trkpt><trkpt lat="48.32648651493812" lon="-3.8955670503984745"><ele>163.0</ele><time>2026-04-04T14:56:37Z</time></trkpt><trkpt lat="48.32640608605015" lon="-3.8955102298510713"><ele>163.0</ele><time>2026-04-04T14:56:38Z</time></trkpt><trkpt lat="48.32633632528309" lon="-3.895463199080055"><ele>163.0</ele><time>2026-04-04T14:56:38.999Z</time></trkpt><trkpt lat="48.3262598893536" lon="-3.895412791187211"><ele>162.16666666666669</ele><time>2026-04-04T14:56:40.999Z</time></trkpt><trkpt lat="48.32618615018865" lon="-3.8954648255370965"><ele>161.33333333333334</ele><time>2026-04-04T14:56:45.999Z</time></trkpt><trkpt lat="48.32618644379638" lon="-3.895588153668719"><ele>160.5</ele><time>2026-04-04T14:56:49.999Z</time></trkpt><trkpt lat="48.326222455395104" lon="-3.895673649190255"><ele>159.66666666666666</ele><time>2026-04-04T14:56:51.999Z</time></trkpt><trkpt lat="48.32624223859822" lon="-3.89577461652535"><ele>158.83333333333331</ele><time>2026-04-04T14:56:53.999Z</time></trkpt><trkpt lat="48.32626896576144" lon="-3.8958876229621615"><ele>158.0</ele><time>2026-04-04T14:56:56.999Z</time></trkpt><trkpt lat="48.3262817689968" lon="-3.8960116425548463"><ele>157.14285714285717</ele><time>2026-04-04T14:56:59.999Z</time></trkpt><trkpt lat="48.32625925113134" lon="-3.896118126950803"><ele>156.28571428571428</ele><time>2026-04-04T14:57:02.999Z</time></trkpt><trkpt lat="48.32625606172651" lon="-3.8962219757995977"><ele>155.42857142857144</ele><time>2026-04-04T14:57:06.999Z</time></trkpt><trkpt lat="48.3262069641976" lon="-3.8963219506980855"><ele>154.57142857142858</ele><time>2026-04-04T14:57:25.999Z</time></trkpt><trkpt lat="48.32613913467364" lon="-3.896348613433788"><ele>153.71428571428572</ele><time>2026-04-04T14:57:28.999Z</time></trkpt><trkpt lat="48.326092823430116" lon="-3.8964394352960485"><ele>152.85714285714286</ele><time>2026-04-04T14:57:31.999Z</time></trkpt><trkpt lat="48.32603454702263" lon="-3.8965129732818298"><ele>152.0</ele><time>2026-04-04T14:57:34.999Z</time></trkpt><trkpt lat="48.32595403060503" lon="-3.896528985963506"><ele>152.0</ele><time>2026-04-04T14:57:36.999Z</time></trkpt><trkpt lat="48.32588666224994" lon="-3.89652316194687"><ele>152.0</ele><time>2026-04-04T14:57:37.999Z</time></trkpt><trkpt lat="48.32576842551398" lon="-3.8965005739678453"><ele>152.0</ele><time>2026-04-04T14:57:39.999Z</time></trkpt><trkpt lat="48.32570430573725" lon="-3.8965310793990735"><ele>152.0</ele><time>2026-04-04T14:57:42.999Z</time></trkpt><trkpt lat="48.32564317160734" lon="-3.8965872358666416"><ele>152.0</ele><time>2026-04-04T14:57:45.999Z</time></trkpt><trkpt lat="48.325578873807416" lon="-3.896575456369374"><ele>152.0</ele><time>2026-04-04T14:57:50Z</time></trkpt><trkpt lat="48.32549985981148" lon="-3.8965457498102496"><ele>151.66666666666666</ele><time>2026-04-04T14:57:53Z</time></trkpt><trkpt lat="48.325442521095866" lon="-3.896501777905238"><ele>151.33333333333331</ele><time>2026-04-04T14:57:56Z</time></trkpt><trkpt lat="48.32536646093391" lon="-3.8965132667589417"><ele>151.0</ele><time>2026-04-04T14:58:05Z</time></trkpt><trkpt lat="48.32528650214241" lon="-3.8966015863728627"><ele>150.66666666666666</ele><time>2026-04-04T14:58:08Z</time></trkpt><trkpt lat="48.325207964681326" lon="-3.896683689284685"><ele>150.33333333333334</ele><time>2026-04-04T14:58:10Z</time></trkpt><trkpt lat="48.32513578059437" lon="-3.896694295854764"><ele>150.0</ele><time>2026-04-04T14:58:11Z</time></trkpt><trkpt lat="48.325036087527074" lon="-3.8966776845425293"><ele>150.0</ele><time>2026-04-04T14:58:14Z</time></trkpt><trkpt lat="48.32495556145027" lon="-3.896749762612034"><ele>150.0</ele><time>2026-04-04T14:58:17Z</time></trkpt><trkpt lat="48.32489258131467" lon="-3.8967610207181558"><ele>150.0</ele><time>2026-04-04T14:58:20Z</time></trkpt><trkpt lat="48.324833103966725" lon="-3.896795550154363"><ele>150.0</ele><time>2026-04-04T14:58:24Z</time></trkpt><trkpt lat="48.324765992051944" lon="-3.896854198383942"><ele>150.0</ele><time>2026-04-04T14:58:30Z</time></trkpt><trkpt lat="48.32471341370584" lon="-3.8969818860921897"><ele>150.0</ele><time>2026-04-04T14:58:33Z</time></trkpt><trkpt lat="48.324651149724005" lon="-3.8970048849650762"><ele>149.2</ele><time>2026-04-04T14:58:35Z</time></trkpt><trkpt lat="48.32457304790833" lon="-3.897023083354103"><ele>148.4</ele><time>2026-04-04T14:58:37Z</time></trkpt><trkpt lat="48.32447949843227" lon="-3.8970576892657642"><ele>147.6</ele><time>2026-04-04T14:58:39Z</time></trkpt><trkpt lat="48.32442226858391" lon="-3.89713096972868"><ele>146.8</ele><time>2026-04-04T14:58:40.999Z</time></trkpt><trkpt lat="48.32434076804823" lon="-3.8972098750644"><ele>146.0</ele><time>2026-04-04T14:58:42.999Z</time></trkpt><trkpt lat="48.324230145832374" lon="-3.8972708158600162"><ele>146.0</ele><time>2026-04-04T14:58:44.999Z</time></trkpt><trkpt lat="48.32416772368873" lon="-3.8972988012401437"><ele>146.0</ele><time>2026-04-04T14:58:46.999Z</time></trkpt><trkpt lat="48.324107666371226" lon="-3.8973299913672603"><ele>146.0</ele><time>2026-04-04T14:58:48.999Z</time></trkpt><trkpt lat="48.32402008370566" lon="-3.8973598084575856"><ele>146.0</ele><time>2026-04-04T14:59:17.999Z</time></trkpt><trkpt lat="48.323978357851495" lon="-3.897444229634983"><ele>146.0</ele><time>2026-04-04T14:59:20.999Z</time></trkpt><trkpt lat="48.323917226129076" lon="-3.8975477507038403"><ele>146.0</ele><time>2026-04-04T14:59:24.999Z</time></trkpt><trkpt lat="48.32388216295367" lon="-3.8976286799523314"><ele>146.0</ele><time>2026-04-04T14:59:27.999Z</time></trkpt><trkpt lat="48.32381698078095" lon="-3.897668253050624"><ele>145.2</ele><time>2026-04-04T14:59:31.999Z</time></trkpt><trkpt lat="48.32371469598165" lon="-3.8977770672251535"><ele>144.39999999999998</ele><time>2026-04-04T14:59:34.999Z</time></trkpt><trkpt lat="48.3235792814635" lon="-3.8978398055243892"><ele>143.6</ele><time>2026-04-04T14:59:36.999Z</time></trkpt><trkpt lat="48.323513876831804" lon="-3.897861199020618"><ele>142.79999999999998</ele><time>2026-04-04T14:59:37.999Z</time></trkpt><trkpt lat="48.32343488836354" lon="-3.897885416889891"><ele>142.0</ele><time>2026-04-04T14:59:38.999Z</time></trkpt><trkpt lat="48.32333644701951" lon="-3.8979163891180333"><ele>142.0</ele><time>2026-04-04T14:59:39.999Z</time></trkpt><trkpt lat="48.323263244645474" lon="-3.897971015315605"><ele>142.0</ele><time>2026-04-04T14:59:40.999Z</time></trkpt><trkpt lat="48.3231834395461" lon="-3.8980036816781887"><ele>142.0</ele><time>2026-04-04T14:59:41.999Z</time></trkpt><trkpt lat="48.32310213297831" lon="-3.8980415239500705"><ele>142.0</ele><time>2026-04-04T14:59:42.999Z</time></trkpt><trkpt lat="48.323027138315005" lon="-3.898080735621603"><ele>142.0</ele><time>2026-04-04T14:59:43.999Z</time></trkpt><trkpt lat="48.32297768107996" lon="-3.8981829512633044"><ele>142.0</ele><time>2026-04-04T14:59:44.999Z</time></trkpt><trkpt lat="48.32295167180209" lon="-3.898281783845012"><ele>141.66666666666669</ele><time>2026-04-04T14:59:45.999Z</time></trkpt><trkpt lat="48.322926462111376" lon="-3.8983714598017096"><ele>141.33333333333334</ele><time>2026-04-04T14:59:46.999Z</time></trkpt><trkpt lat="48.32287637053355" lon="-3.89843660683175"><ele>141.0</ele><time>2026-04-04T14:59:48.999Z</time></trkpt><trkpt lat="48.3228609067852" lon="-3.898553322706338"><ele>140.66666666666666</ele><time>2026-04-04T14:59:52.999Z</time></trkpt><trkpt lat="48.32277267766234" lon="-3.8986029102946467"><ele>140.33333333333331</ele><time>2026-04-04T14:59:54.999Z</time></trkpt><trkpt lat="48.322701213217535" lon="-3.898760609167254"><ele>140.0</ele><time>2026-04-04T14:59:57Z</time></trkpt><trkpt lat="48.32265957206921" lon="-3.8988571991317427"><ele>139.66666666666666</ele><time>2026-04-04T14:59:58Z</time></trkpt><trkpt lat="48.322625216071366" lon="-3.89893991776324"><ele>139.33333333333331</ele><time>2026-04-04T14:59:59Z</time></trkpt><trkpt lat="48.32260591499061" lon="-3.899035865262101"><ele>139.0</ele><time>2026-04-04T15:00:00Z</time></trkpt><trkpt lat="48.322554763843236" lon="-3.8991408618423193"><ele>138.66666666666666</ele><time>2026-04-04T15:00:01Z</time></trkpt><trkpt lat="48.32252723534304" lon="-3.899234365528521"><ele>138.33333333333334</ele><time>2026-04-04T15:00:02Z</time></trkpt><trkpt lat="48.32246407084701" lon="-3.8993783760908323"><ele>138.0</ele><time>2026-04-04T15:00:03Z</time></trkpt><trkpt lat="48.32242274244104" lon="-3.8995113111192623"><ele>138.0</ele><time>2026-04-04T15:00:04Z</time></trkpt><trkpt lat="48.32237007324677" lon="-3.899673379101294"><ele>138.0</ele><time>2026-04-04T15:00:06Z</time></trkpt><trkpt lat="48.32232973486178" lon="-3.8997806195397606"><ele>138.0</ele><time>2026-04-04T15:00:08Z</time></trkpt><trkpt lat="48.32230963738093" lon="-3.8999222035029004"><ele>138.0</ele><time>2026-04-04T15:00:10Z</time></trkpt><trkpt lat="48.322307468380174" lon="-3.9000170704933255"><ele>138.0</ele><time>2026-04-04T15:00:13Z</time></trkpt><trkpt lat="48.32235177369859" lon="-3.900114089088262"><ele>138.0</ele><time>2026-04-04T15:00:16Z</time></trkpt><trkpt lat="48.322429212676774" lon="-3.9001540284293013"><ele>138.66666666666666</ele><time>2026-04-04T15:00:18Z</time></trkpt><trkpt lat="48.322442003364905" lon="-3.900255908795139"><ele>139.33333333333334</ele><time>2026-04-04T15:00:24Z</time></trkpt><trkpt lat="48.322486530822744" lon="-3.9003622625970897"><ele>140.0</ele><time>2026-04-04T15:00:26Z</time></trkpt><trkpt lat="48.32248732103609" lon="-3.9004653644168856"><ele>140.66666666666669</ele><time>2026-04-04T15:00:28Z</time></trkpt><trkpt lat="48.32240152973153" lon="-3.900482098772405"><ele>141.33333333333334</ele><time>2026-04-04T15:00:31Z</time></trkpt><trkpt lat="48.32230555440053" lon="-3.9005075977276222"><ele>142.0</ele><time>2026-04-04T15:00:33Z</time></trkpt><trkpt lat="48.32224687989516" lon="-3.9005844354191153"><ele>141.28571428571428</ele><time>2026-04-04T15:00:36Z</time></trkpt><trkpt lat="48.32217007148001" lon="-3.9006083725582923"><ele>140.57142857142856</ele><time>2026-04-04T15:00:41Z</time></trkpt><trkpt lat="48.32208762486313" lon="-3.9006362920053532"><ele>139.85714285714286</ele><time>2026-04-04T15:00:44Z</time></trkpt><trkpt lat="48.32202238712782" lon="-3.9006812381594864"><ele>139.14285714285714</ele><time>2026-04-04T15:00:46.999Z</time></trkpt><trkpt lat="48.3219550493995" lon="-3.9006776053992867"><ele>138.42857142857144</ele><time>2026-04-04T15:00:50.999Z</time></trkpt><trkpt lat="48.32187520032192" lon="-3.9006942359302967"><ele>137.71428571428572</ele><time>2026-04-04T15:00:53.999Z</time></trkpt><trkpt lat="48.32182782022966" lon="-3.9007622850340504"><ele>137.0</ele><time>2026-04-04T15:00:59.999Z</time></trkpt><trkpt lat="48.321845932150666" lon="-3.9008698347131907"><ele>137.5</ele><time>2026-04-04T15:01:02.999Z</time></trkpt><trkpt lat="48.32182847764015" lon="-3.9009617767635505"><ele>138.0</ele><time>2026-04-04T15:01:04.999Z</time></trkpt><trkpt lat="48.32176492905586" lon="-3.901030541148354"><ele>138.5</ele><time>2026-04-04T15:01:06.999Z</time></trkpt><trkpt lat="48.3217192724545" lon="-3.9011123450824"><ele>139.0</ele><time>2026-04-04T15:01:08.999Z</time></trkpt><trkpt lat="48.321695968919194" lon="-3.9012273165332414"><ele>139.5</ele><time>2026-04-04T15:01:11.999Z</time></trkpt><trkpt lat="48.32163160255647" lon="-3.901316547502405"><ele>140.0</ele><time>2026-04-04T15:01:14.999Z</time></trkpt><trkpt lat="48.3215394864052" lon="-3.9013883752849234"><ele>140.0</ele><time>2026-04-04T15:01:17.999Z</time></trkpt><trkpt lat="48.32148298463" lon="-3.9014600786610236"><ele>140.0</ele><time>2026-04-04T15:01:19.999Z</time></trkpt><trkpt lat="48.32142140411167" lon="-3.901556564903584"><ele>140.0</ele><time>2026-04-04T15:01:23.999Z</time></trkpt><trkpt lat="48.32135950453196" lon="-3.9016375826418686"><ele>140.0</ele><time>2026-04-04T15:01:26.999Z</time></trkpt><trkpt lat="48.32129930152805" lon="-3.901668628223099"><ele>140.0</ele><time>2026-04-04T15:01:32.999Z</time></trkpt><trkpt lat="48.32122220612557" lon="-3.9016349309048457"><ele>140.0</ele><time>2026-04-04T15:01:35.999Z</time></trkpt><trkpt lat="48.32114835195944" lon="-3.901672662150791"><ele>139.28571428571428</ele><time>2026-04-04T15:01:38.999Z</time></trkpt><trkpt lat="48.321101939988964" lon="-3.9017457626920073"><ele>138.57142857142856</ele><time>2026-04-04T15:01:42.999Z</time></trkpt><trkpt lat="48.321026384360565" lon="-3.901792210197413"><ele>137.85714285714286</ele><time>2026-04-04T15:01:46.999Z</time></trkpt><trkpt lat="48.32096456868267" lon="-3.9018437014112326"><ele>137.14285714285714</ele><time>2026-04-04T15:01:49.999Z</time></trkpt><trkpt lat="48.320922912747946" lon="-3.9017328317070743"><ele>136.42857142857142</ele><time>2026-04-04T15:01:52.999Z</time></trkpt><trkpt lat="48.32087122712984" lon="-3.9016765798885973"><ele>135.71428571428572</ele><time>2026-04-04T15:01:56.999Z</time></trkpt><trkpt lat="48.32079180010959" lon="-3.901660621704449"><ele>135.0</ele><time>2026-04-04T15:02:02Z</time></trkpt><trkpt lat="48.32077580726451" lon="-3.9015537520736068"><ele>135.0</ele><time>2026-04-04T15:02:07Z</time></trkpt><trkpt lat="48.32071945517304" lon="-3.901447582013407"><ele>135.0</ele><time>2026-04-04T15:02:10Z</time></trkpt><trkpt lat="48.32072855059162" lon="-3.9013223704704685"><ele>135.0</ele><time>2026-04-04T15:02:17Z</time></trkpt><trkpt lat="48.32073766742756" lon="-3.901225934879234"><ele>135.0</ele><time>2026-04-04T15:02:20Z</time></trkpt><trkpt lat="48.32076279037611" lon="-3.9011158597385114"><ele>135.0</ele><time>2026-04-04T15:02:23Z</time></trkpt><trkpt lat="48.32080372972728" lon="-3.901007300743509"><ele>135.0</ele><time>2026-04-04T15:02:26Z</time></trkpt><trkpt lat="48.32085360738194" lon="-3.900914382576701"><ele>135.0</ele><time>2026-04-04T15:02:29Z</time></trkpt><trkpt lat="48.32090753336049" lon="-3.9007970842278588"><ele>135.0</ele><time>2026-04-04T15:02:31Z</time></trkpt><trkpt lat="48.320845215021784" lon="-3.900718545393028"><ele>135.0</ele><time>2026-04-04T15:02:34Z</time></trkpt><trkpt lat="48.32083151710592" lon="-3.900588785480147"><ele>135.0</ele><time>2026-04-04T15:02:37Z</time></trkpt><trkpt lat="48.3207754456067" lon="-3.900524098603956"><ele>135.0</ele><time>2026-04-04T15:02:39Z</time></trkpt><trkpt lat="48.32070387207521" lon="-3.9005563776342327"><ele>135.0</ele><time>2026-04-04T15:02:41Z</time></trkpt><trkpt lat="48.32062957232099" lon="-3.9005782528920325"><ele>135.0</ele><time>2026-04-04T15:02:44Z</time></trkpt><trkpt lat="48.32057549311286" lon="-3.9006481253866534"><ele>135.0</ele><time>2026-04-04T15:02:48Z</time></trkpt><trkpt lat="48.320530887451675" lon="-3.900742755337341"><ele>135.0</ele><time>2026-04-04T15:02:50Z</time></trkpt><trkpt lat="48.320463358151535" lon="-3.9007463370605175"><ele>135.0</ele><time>2026-04-04T15:02:52Z</time></trkpt><trkpt lat="48.32038420457888" lon="-3.9007435445489618"><ele>135.0</ele><time>2026-04-04T15:02:55Z</time></trkpt><trkpt lat="48.3203368891451" lon="-3.9008318857544766"><ele>135.0</ele><time>2026-04-04T15:02:56.999Z</time></trkpt><trkpt lat="48.32026522499125" lon="-3.9009327944330545"><ele>135.85714285714286</ele><time>2026-04-04T15:02:58.999Z</time></trkpt><trkpt lat="48.32020239236234" lon="-3.9009912195347245"><ele>136.7142857142857</ele><time>2026-04-04T15:03:01.999Z</time></trkpt><trkpt lat="48.320165055495906" lon="-3.9010818058184333"><ele>137.57142857142856</ele><time>2026-04-04T15:03:04.999Z</time></trkpt><trkpt lat="48.32012849541246" lon="-3.9011735240576746"><ele>138.42857142857142</ele><time>2026-04-04T15:03:07.999Z</time></trkpt><trkpt lat="48.32007105442577" lon="-3.9012628673489043"><ele>139.28571428571428</ele><time>2026-04-04T15:03:10.999Z</time></trkpt><trkpt lat="48.32000970359658" lon="-3.9013319744086"><ele>140.14285714285714</ele><time>2026-04-04T15:03:13.999Z</time></trkpt><trkpt lat="48.31999501020869" lon="-3.901428741277315"><ele>141.0</ele><time>2026-04-04T15:03:44.999Z</time></trkpt><trkpt lat="48.31998259272088" lon="-3.90152991492529"><ele>141.0</ele><time>2026-04-04T15:04:51Z</time></trkpt><trkpt lat="48.320051050115765" lon="-3.9015454291039715"><ele>141.0</ele><time>2026-04-04T15:04:58Z</time></trkpt><trkpt lat="48.32010316737183" lon="-3.9014893004322335"><ele>141.0</ele><time>2026-04-04T15:05:01Z</time></trkpt><trkpt lat="48.32016778008482" lon="-3.9014959417299617"><ele>141.0</ele><time>2026-04-04T15:05:06.999Z</time></trkpt><trkpt lat="48.32020245230128" lon="-3.9015814527385846"><ele>141.0</ele><time>2026-04-04T15:05:12.999Z</time></trkpt><trkpt lat="48.32015385049379" lon="-3.901648669424815"><ele>141.0</ele><time>2026-04-04T15:05:27.999Z</time></trkpt><trkpt lat="48.32010562296037" lon="-3.9017260560213294"><ele>141.0</ele><time>2026-04-04T15:05:35.999Z</time></trkpt><trkpt lat="48.320032763490545" lon="-3.9017357376844775"><ele>140.16666666666666</ele><time>2026-04-04T15:05:38.999Z</time></trkpt><trkpt lat="48.31995612156974" lon="-3.9018370535211027"><ele>139.33333333333334</ele><time>2026-04-04T15:05:40.999Z</time></trkpt><trkpt lat="48.31990214189266" lon="-3.9019053966930732"><ele>138.5</ele><time>2026-04-04T15:05:42.999Z</time></trkpt><trkpt lat="48.31995649772189" lon="-3.901977845035473"><ele>137.66666666666669</ele><time>2026-04-04T15:05:45.999Z</time></trkpt><trkpt lat="48.31985403145045" lon="-3.902048282817579"><ele>136.83333333333334</ele><time>2026-04-04T15:06:29Z</time></trkpt><trkpt lat="48.31977945643273" lon="-3.9020788866330256"><ele>136.0</ele><time>2026-04-04T15:06:38Z</time></trkpt><trkpt lat="48.31970355481406" lon="-3.9020028662525243"><ele>138.14285714285714</ele><time>2026-04-04T15:07:10.999Z</time></trkpt><trkpt lat="48.31963283581824" lon="-3.9019965818690534"><ele>140.28571428571428</ele><time>2026-04-04T15:07:13.999Z</time></trkpt><trkpt lat="48.31962039513257" lon="-3.902104771027649"><ele>142.42857142857144</ele><time>2026-04-04T15:07:18.999Z</time></trkpt><trkpt lat="48.319595890115664" lon="-3.902196025919915"><ele>144.57142857142856</ele><time>2026-04-04T15:07:21.999Z</time></trkpt><trkpt lat="48.319594208813676" lon="-3.9023094965734004"><ele>146.71428571428572</ele><time>2026-04-04T15:07:34.999Z</time></trkpt><trkpt lat="48.31962444077095" lon="-3.9021967973950504"><ele>148.85714285714286</ele><time>2026-04-04T15:07:48.999Z</time></trkpt><trkpt lat="48.31959709075162" lon="-3.9020855156760335"><ele>151.0</ele><time>2026-04-04T15:07:49.999Z</time></trkpt><trkpt lat="48.31956078452239" lon="-3.9019779387922147"><ele>151.0</ele><time>2026-04-04T15:07:51.999Z</time></trkpt><trkpt lat="48.319507805211174" lon="-3.9018730967820896"><ele>151.0</ele><time>2026-04-04T15:08:22Z</time></trkpt><trkpt lat="48.31948714028553" lon="-3.9017546458989654"><ele>151.0</ele><time>2026-04-04T15:08:26Z</time></trkpt><trkpt lat="48.319424533702964" lon="-3.901798881435565"><ele>151.0</ele><time>2026-04-04T15:08:46Z</time></trkpt><trkpt lat="48.31933179238088" lon="-3.9018847530689595"><ele>151.0</ele><time>2026-04-04T15:11:28.999Z</time></trkpt><trkpt lat="48.31922407068958" lon="-3.9020025068205277"><ele>151.0</ele><time>2026-04-04T15:11:30.999Z</time></trkpt><trkpt lat="48.31914392807039" lon="-3.9020561982767528"><ele>151.0</ele><time>2026-04-04T15:11:31.999Z</time></trkpt><trkpt lat="48.31909001393115" lon="-3.902134888962332"><ele>151.0</ele><time>2026-04-04T15:11:32.999Z</time></trkpt><trkpt lat="48.31903595652304" lon="-3.902230009889947"><ele>151.0</ele><time>2026-04-04T15:11:33.999Z</time></trkpt><trkpt lat="48.31897314778308" lon="-3.902303171211392"><ele>151.0</ele><time>2026-04-04T15:11:34.999Z</time></trkpt><trkpt lat="48.31884234273984" lon="-3.9024042878196603"><ele>153.66666666666669</ele><time>2026-04-04T15:11:36.999Z</time></trkpt><trkpt lat="48.31878690987849" lon="-3.902485919038611"><ele>156.33333333333334</ele><time>2026-04-04T15:11:37.999Z</time></trkpt><trkpt lat="48.31875115321606" lon="-3.9025949310048387"><ele>159.0</ele><time>2026-04-04T15:11:38.999Z</time></trkpt><trkpt lat="48.318735485897065" lon="-3.9026962195277908"><ele>161.66666666666666</ele><time>2026-04-04T15:11:39.999Z</time></trkpt><trkpt lat="48.3186559892004" lon="-3.9028531795515424"><ele>164.33333333333331</ele><time>2026-04-04T15:11:41.999Z</time></trkpt><trkpt lat="48.31865164298547" lon="-3.9029581793428054"><ele>167.0</ele><time>2026-04-04T15:11:42.999Z</time></trkpt><trkpt lat="48.31865447624016" lon="-3.9030953127865904"><ele>167.0</ele><time>2026-04-04T15:11:43.999Z</time></trkpt><trkpt lat="48.31866384475313" lon="-3.9032421982201053"><ele>167.0</ele><time>2026-04-04T15:11:44.999Z</time></trkpt><trkpt lat="48.31868431180577" lon="-3.903389485348708"><ele>167.0</ele><time>2026-04-04T15:11:45.999Z</time></trkpt><trkpt lat="48.31870897741465" lon="-3.9034950232318724"><ele>167.0</ele><time>2026-04-04T15:11:46.999Z</time></trkpt><trkpt lat="48.31873681559655" lon="-3.9036068451003687"><ele>167.0</ele><time>2026-04-04T15:11:47.999Z</time></trkpt><trkpt lat="48.31878545945356" lon="-3.903727632856927"><ele>167.0</ele><time>2026-04-04T15:11:48.999Z</time></trkpt><trkpt lat="48.31883824171576" lon="-3.9038664302479105"><ele>166.6</ele><time>2026-04-04T15:11:49.999Z</time></trkpt><trkpt lat="48.31889912435753" lon="-3.9040005624132057"><ele>166.2</ele><time>2026-04-04T15:11:50.999Z</time></trkpt><trkpt lat="48.31896995384639" lon="-3.9041461414438148"><ele>165.8</ele><time>2026-04-04T15:11:51.999Z</time></trkpt><trkpt lat="48.319020299744864" lon="-3.904263613047166"><ele>165.4</ele><time>2026-04-04T15:11:52.999Z</time></trkpt><trkpt lat="48.31906851481998" lon="-3.904373657900929"><ele>165.0</ele><time>2026-04-04T15:11:53.999Z</time></trkpt><trkpt lat="48.319101651496325" lon="-3.9044904787961405"><ele>162.66666666666666</ele><time>2026-04-04T15:11:54.999Z</time></trkpt><trkpt lat="48.319136199775784" lon="-3.9046090123912114"><ele>160.33333333333334</ele><time>2026-04-04T15:11:55.999Z</time></trkpt><trkpt lat="48.319155031202534" lon="-3.9047370110963078"><ele>158.0</ele><time>2026-04-04T15:11:56.999Z</time></trkpt><trkpt lat="48.31916683458639" lon="-3.904870857662743"><ele>155.66666666666669</ele><time>2026-04-04T15:11:57.999Z</time></trkpt><trkpt lat="48.31917492233795" lon="-3.904975827923821"><ele>153.33333333333334</ele><time>2026-04-04T15:11:58.999Z</time></trkpt><trkpt lat="48.319179002861866" lon="-3.9050760670804907"><ele>151.0</ele><time>2026-04-04T15:11:59.999Z</time></trkpt><trkpt lat="48.31917445701213" lon="-3.905187237901963"><ele>149.66666666666669</ele><time>2026-04-04T15:12:00.999Z</time></trkpt><trkpt lat="48.31915570501933" lon="-3.9052948748730363"><ele>148.33333333333334</ele><time>2026-04-04T15:12:01.999Z</time></trkpt><trkpt lat="48.319132689647134" lon="-3.9054015437067204"><ele>147.0</ele><time>2026-04-04T15:12:02.999Z</time></trkpt><trkpt lat="48.319111315564506" lon="-3.9054913439922836"><ele>145.66666666666666</ele><time>2026-04-04T15:12:03.999Z</time></trkpt><trkpt lat="48.319087892561086" lon="-3.905586417252591"><ele>144.33333333333331</ele><time>2026-04-04T15:12:04.999Z</time></trkpt><trkpt lat="48.31905632642861" lon="-3.9056704744214175"><ele>143.0</ele><time>2026-04-04T15:12:05.999Z</time></trkpt><trkpt lat="48.31899733230691" lon="-3.905803952432107"><ele>144.8</ele><time>2026-04-04T15:12:07.999Z</time></trkpt><trkpt lat="48.318931787810996" lon="-3.9059460312453473"><ele>146.60000000000002</ele><time>2026-04-04T15:12:09.999Z</time></trkpt><trkpt lat="48.31890765743219" lon="-3.9061148891547512"><ele>148.39999999999998</ele><time>2026-04-04T15:12:11.999Z</time></trkpt><trkpt lat="48.3187946493335" lon="-3.9061841527432946"><ele>150.2</ele><time>2026-04-04T15:12:12.999Z</time></trkpt><trkpt lat="48.31874087122661" lon="-3.9062569757432954"><ele>152.0</ele><time>2026-04-04T15:12:13.999Z</time></trkpt><trkpt lat="48.31868522181715" lon="-3.906331699302798"><ele>152.0</ele><time>2026-04-04T15:12:14.999Z</time></trkpt><trkpt lat="48.318627431874226" lon="-3.9064067443930175"><ele>152.0</ele><time>2026-04-04T15:12:15.999Z</time></trkpt><trkpt lat="48.31857423628498" lon="-3.9064864195948537"><ele>152.0</ele><time>2026-04-04T15:12:16.999Z</time></trkpt><trkpt lat="48.318517091506614" lon="-3.9065679429452547"><ele>152.0</ele><time>2026-04-04T15:12:17.999Z</time></trkpt><trkpt lat="48.318461561159374" lon="-3.906662315129147"><ele>152.0</ele><time>2026-04-04T15:12:18.999Z</time></trkpt><trkpt lat="48.31840092078738" lon="-3.906750303252078"><ele>152.0</ele><time>2026-04-04T15:12:19.999Z</time></trkpt><trkpt lat="48.31834681027801" lon="-3.9068441683618804"><ele>153.33333333333331</ele><time>2026-04-04T15:12:20.999Z</time></trkpt><trkpt lat="48.318292441550966" lon="-3.906937420614517"><ele>154.66666666666666</ele><time>2026-04-04T15:12:21.999Z</time></trkpt><trkpt lat="48.31823387367562" lon="-3.9070416941975528"><ele>156.0</ele><time>2026-04-04T15:12:22.999Z</time></trkpt><trkpt lat="48.318178487721745" lon="-3.90713422553801"><ele>157.33333333333334</ele><time>2026-04-04T15:12:23.999Z</time></trkpt><trkpt lat="48.318120188437874" lon="-3.9072246148560406"><ele>158.66666666666669</ele><time>2026-04-04T15:12:24.999Z</time></trkpt><trkpt lat="48.31806253382535" lon="-3.907318223850843"><ele>160.0</ele><time>2026-04-04T15:12:25.999Z</time></trkpt><trkpt lat="48.31799847836206" lon="-3.907429747995969"><ele>160.0</ele><time>2026-04-04T15:12:26.999Z</time></trkpt><trkpt lat="48.31792539449452" lon="-3.9075719928384203"><ele>160.0</ele><time>2026-04-04T15:12:27.999Z</time></trkpt><trkpt lat="48.31785318613939" lon="-3.907722828248939"><ele>160.0</ele><time>2026-04-04T15:12:28.999Z</time></trkpt><trkpt lat="48.31777499701431" lon="-3.9078692625777305"><ele>160.0</ele><time>2026-04-04T15:12:29.999Z</time></trkpt><trkpt lat="48.31769503153015" lon="-3.908017024135136"><ele>156.5</ele><time>2026-04-04T15:12:30.999Z</time></trkpt><trkpt lat="48.31761673623781" lon="-3.908165097361848"><ele>153.0</ele><time>2026-04-04T15:12:32Z</time></trkpt><trkpt lat="48.31754068034721" lon="-3.9083193974503705"><ele>149.5</ele><time>2026-04-04T15:12:33Z</time></trkpt><trkpt lat="48.317455330858245" lon="-3.9084603276747156"><ele>146.0</ele><time>2026-04-04T15:12:34Z</time></trkpt><trkpt lat="48.317361645778846" lon="-3.908586740979184"><ele>144.5</ele><time>2026-04-04T15:12:35Z</time></trkpt><trkpt lat="48.3172604992116" lon="-3.908703222915653"><ele>143.0</ele><time>2026-04-04T15:12:36Z</time></trkpt><trkpt lat="48.317146050917124" lon="-3.9087918888324618"><ele>141.5</ele><time>2026-04-04T15:12:37Z</time></trkpt><trkpt lat="48.3170215612113" lon="-3.9088647268687624"><ele>140.0</ele><time>2026-04-04T15:12:38Z</time></trkpt><trkpt lat="48.31689666925054" lon="-3.9089290593899557"><ele>140.0</ele><time>2026-04-04T15:12:39Z</time></trkpt><trkpt lat="48.316770743363406" lon="-3.9089794944656675"><ele>140.0</ele><time>2026-04-04T15:12:40Z</time></trkpt><trkpt lat="48.31663677547739" lon="-3.9090307272668863"><ele>140.0</ele><time>2026-04-04T15:12:41Z</time></trkpt><trkpt lat="48.31650170859933" lon="-3.909070683114675"><ele>140.0</ele><time>2026-04-04T15:12:42Z</time></trkpt><trkpt lat="48.31634268371743" lon="-3.9090790369031136"><ele>139.25</ele><time>2026-04-04T15:12:43Z</time></trkpt><trkpt lat="48.3161960858003" lon="-3.909074850702345"><ele>138.5</ele><time>2026-04-04T15:12:44Z</time></trkpt><trkpt lat="48.316040069584766" lon="-3.9090446278310336"><ele>137.75</ele><time>2026-04-04T15:12:45Z</time></trkpt><trkpt lat="48.31591451319902" lon="-3.9089923531502584"><ele>137.0</ele><time>2026-04-04T15:12:46Z</time></trkpt><trkpt lat="48.31579541575521" lon="-3.9089186541001726"><ele>137.0</ele><time>2026-04-04T15:12:47Z</time></trkpt><trkpt lat="48.31566578021349" lon="-3.908840101187943"><ele>137.0</ele><time>2026-04-04T15:12:48Z</time></trkpt><trkpt lat="48.3155354490666" lon="-3.908737864560737"><ele>137.0</ele><time>2026-04-04T15:12:49Z</time></trkpt><trkpt lat="48.31541272701034" lon="-3.9085873313556325"><ele>137.0</ele><time>2026-04-04T15:12:50Z</time></trkpt><trkpt lat="48.31529282829257" lon="-3.908410091405704"><ele>136.0</ele><time>2026-04-04T15:12:51Z</time></trkpt><trkpt lat="48.315188710737765" lon="-3.908278646513123"><ele>135.0</ele><time>2026-04-04T15:12:52Z</time></trkpt><trkpt lat="48.315064290928994" lon="-3.9081907772593394"><ele>134.0</ele><time>2026-04-04T15:12:53Z</time></trkpt><trkpt lat="48.3149860401482" lon="-3.908116005382345"><ele>133.0</ele><time>2026-04-04T15:12:54Z</time></trkpt><trkpt lat="48.31492923539097" lon="-3.908051907112191"><ele>132.0</ele><time>2026-04-04T15:12:55Z</time></trkpt><trkpt lat="48.31486307524137" lon="-3.9080768169992934"><ele>132.0</ele><time>2026-04-04T15:12:57Z</time></trkpt><trkpt lat="48.3148310860139" lon="-3.9082704979090974"><ele>132.0</ele><time>2026-04-04T15:12:59Z</time></trkpt><trkpt lat="48.31478213610121" lon="-3.9084186771603258"><ele>132.0</ele><time>2026-04-04T15:13:00Z</time></trkpt><trkpt lat="48.31469778316232" lon="-3.90858944775734"><ele>132.0</ele><time>2026-04-04T15:13:01Z</time></trkpt><trkpt lat="48.314606389879" lon="-3.9087334316111852"><ele>130.0</ele><time>2026-04-04T15:13:02Z</time></trkpt><trkpt lat="48.31452271837937" lon="-3.908868824688419"><ele>128.0</ele><time>2026-04-04T15:13:03Z</time></trkpt><trkpt lat="48.31444265502046" lon="-3.9089956996941733"><ele>126.0</ele><time>2026-04-04T15:13:04Z</time></trkpt><trkpt lat="48.31434878110978" lon="-3.909087802290392"><ele>124.0</ele><time>2026-04-04T15:13:05Z</time></trkpt><trkpt lat="48.314246595766235" lon="-3.909135858465305"><ele>124.0</ele><time>2026-04-04T15:13:06Z</time></trkpt><trkpt lat="48.31414239168086" lon="-3.909161621899807"><ele>124.0</ele><time>2026-04-04T15:13:07Z</time></trkpt><trkpt lat="48.31405295871336" lon="-3.9091943494458357"><ele>124.0</ele><time>2026-04-04T15:13:08Z</time></trkpt><trkpt lat="48.31397336525311" lon="-3.9092602497374163"><ele>124.0</ele><time>2026-04-04T15:13:09Z</time></trkpt><trkpt lat="48.31390369348384" lon="-3.909349669797693"><ele>124.0</ele><time>2026-04-04T15:13:10Z</time></trkpt><trkpt lat="48.31383895466091" lon="-3.909420592696088"><ele>123.0</ele><time>2026-04-04T15:13:11Z</time></trkpt><trkpt lat="48.31378724257714" lon="-3.909482087750743"><ele>122.0</ele><time>2026-04-04T15:13:12Z</time></trkpt><trkpt lat="48.313755512298314" lon="-3.9096626336276494"><ele>121.0</ele><time>2026-04-04T15:13:14Z</time></trkpt><trkpt lat="48.31374290632893" lon="-3.909841290335587"><ele>120.0</ele><time>2026-04-04T15:13:16Z</time></trkpt><trkpt lat="48.313718580555204" lon="-3.9099573441229096"><ele>119.0</ele><time>2026-04-04T15:13:18Z</time></trkpt><trkpt lat="48.31376467920465" lon="-3.9100912053012813"><ele>118.16666666666666</ele><time>2026-04-04T15:13:21.999Z</time></trkpt><trkpt lat="48.31369493695856" lon="-3.9101608216535224"><ele>117.33333333333333</ele><time>2026-04-04T15:13:24.999Z</time></trkpt><trkpt lat="48.313628087915006" lon="-3.9102137296115735"><ele>116.5</ele><time>2026-04-04T15:13:27.999Z</time></trkpt><trkpt lat="48.31363519146368" lon="-3.910342176900858"><ele>115.66666666666666</ele><time>2026-04-04T15:13:29.999Z</time></trkpt><trkpt lat="48.31360796047659" lon="-3.9104341568863186"><ele>114.83333333333333</ele><time>2026-04-04T15:13:31.999Z</time></trkpt><trkpt lat="48.313547374732856" lon="-3.910472631407971"><ele>114.0</ele><time>2026-04-04T15:13:33.999Z</time></trkpt><trkpt lat="48.313450702096205" lon="-3.9105683355661562"><ele>114.0</ele><time>2026-04-04T15:13:35.999Z</time></trkpt><trkpt lat="48.31334856156944" lon="-3.910651395336963"><ele>114.0</ele><time>2026-04-04T15:13:38.999Z</time></trkpt><trkpt lat="48.31329776735088" lon="-3.9107351548594327"><ele>114.0</ele><time>2026-04-04T15:13:40.999Z</time></trkpt><trkpt lat="48.31319341027289" lon="-3.9108313617372654"><ele>114.0</ele><time>2026-04-04T15:13:42.999Z</time></trkpt><trkpt lat="48.313125986968004" lon="-3.9108948397221663"><ele>114.0</ele><time>2026-04-04T15:13:43.999Z</time></trkpt><trkpt lat="48.31311400837132" lon="-3.9110238904406263"><ele>113.80000000000001</ele><time>2026-04-04T15:13:44.999Z</time></trkpt><trkpt lat="48.31301692184661" lon="-3.911113514529469"><ele>113.60000000000001</ele><time>2026-04-04T15:13:46.999Z</time></trkpt><trkpt lat="48.312936520823726" lon="-3.9111061924227646"><ele>113.4</ele><time>2026-04-04T15:13:47.999Z</time></trkpt><trkpt lat="48.31285949560827" lon="-3.911163577804784"><ele>113.2</ele><time>2026-04-04T15:13:48.999Z</time></trkpt><trkpt lat="48.312814080503756" lon="-3.911313753451868"><ele>113.0</ele><time>2026-04-04T15:13:49.999Z</time></trkpt><trkpt lat="48.31274687662642" lon="-3.9114506186990745"><ele>113.0</ele><time>2026-04-04T15:13:50.999Z</time></trkpt><trkpt lat="48.312677216744" lon="-3.911590823609707"><ele>113.00000000000001</ele><time>2026-04-04T15:13:51.999Z</time></trkpt><trkpt lat="48.3126068297361" lon="-3.911707129722273"><ele>113.00000000000001</ele><time>2026-04-04T15:13:52.999Z</time></trkpt><trkpt lat="48.312554234864535" lon="-3.9118418229392904"><ele>113.0</ele><time>2026-04-04T15:13:53.999Z</time></trkpt><trkpt lat="48.31250219117171" lon="-3.911956258570827"><ele>113.0</ele><time>2026-04-04T15:13:54.999Z</time></trkpt><trkpt lat="48.31245046763169" lon="-3.912082414031221"><ele>112.4</ele><time>2026-04-04T15:13:55.999Z</time></trkpt><trkpt lat="48.312409595785" lon="-3.9122122676350704"><ele>111.80000000000001</ele><time>2026-04-04T15:13:56.999Z</time></trkpt><trkpt lat="48.312375074397664" lon="-3.9123565241733083"><ele>111.2</ele><time>2026-04-04T15:13:57.999Z</time></trkpt><trkpt lat="48.31233109165931" lon="-3.912531464282869"><ele>110.6</ele><time>2026-04-04T15:13:58.999Z</time></trkpt><trkpt lat="48.31230379086959" lon="-3.912687497990413"><ele>110.0</ele><time>2026-04-04T15:13:59.999Z</time></trkpt><trkpt lat="48.312270089471255" lon="-3.912881847704342"><ele>109.66666666666666</ele><time>2026-04-04T15:14:00.999Z</time></trkpt><trkpt lat="48.312246590616375" lon="-3.9130390367845775"><ele>109.33333333333333</ele><time>2026-04-04T15:14:01.999Z</time></trkpt><trkpt lat="48.312221658805655" lon="-3.9131591768097254"><ele>109.0</ele><time>2026-04-04T15:14:02.999Z</time></trkpt><trkpt lat="48.3121876201936" lon="-3.913252419368793"><ele>108.66666666666666</ele><time>2026-04-04T15:14:03.999Z</time></trkpt><trkpt lat="48.31214439179917" lon="-3.9133336616486103"><ele>108.33333333333333</ele><time>2026-04-04T15:14:04.999Z</time></trkpt><trkpt lat="48.31212413493759" lon="-3.913425454312812"><ele>108.0</ele><time>2026-04-04T15:14:05.999Z</time></trkpt><trkpt lat="48.31215638514017" lon="-3.9135678224079116"><ele>107.75</ele><time>2026-04-04T15:14:06.999Z</time></trkpt><trkpt lat="48.312143174030794" lon="-3.9137285605882655"><ele>107.5</ele><time>2026-04-04T15:14:07.999Z</time></trkpt><trkpt lat="48.31211035283751" lon="-3.913893332211218"><ele>107.25</ele><time>2026-04-04T15:14:08.999Z</time></trkpt><trkpt lat="48.3120120206881" lon="-3.9140335313486947"><ele>107.0</ele><time>2026-04-04T15:14:09.999Z</time></trkpt><trkpt lat="48.3119262759397" lon="-3.9141773315239825"><ele>107.75</ele><time>2026-04-04T15:14:10.999Z</time></trkpt><trkpt lat="48.311856142918174" lon="-3.9143465790529817"><ele>108.5</ele><time>2026-04-04T15:14:11.999Z</time></trkpt><trkpt lat="48.311782866092656" lon="-3.9145041623889805"><ele>109.25</ele><time>2026-04-04T15:14:12.999Z</time></trkpt><trkpt lat="48.31173311608821" lon="-3.914662812374726"><ele>110.0</ele><time>2026-04-04T15:14:13.999Z</time></trkpt><trkpt lat="48.31170217881331" lon="-3.914836991067624"><ele>110.0</ele><time>2026-04-04T15:14:14.999Z</time></trkpt><trkpt lat="48.3116743129429" lon="-3.915013891356288"><ele>110.0</ele><time>2026-04-04T15:14:15.999Z</time></trkpt><trkpt lat="48.31165144500482" lon="-3.915198136124568"><ele>110.0</ele><time>2026-04-04T15:14:16.999Z</time></trkpt><trkpt lat="48.3116437794761" lon="-3.9153903305030515"><ele>110.0</ele><time>2026-04-04T15:14:17.999Z</time></trkpt><trkpt lat="48.311644559507556" lon="-3.915580620145289"><ele>110.2</ele><time>2026-04-04T15:14:18.999Z</time></trkpt><trkpt lat="48.311667724123865" lon="-3.915759683852932"><ele>110.4</ele><time>2026-04-04T15:14:19.999Z</time></trkpt><trkpt lat="48.31171003812454" lon="-3.9159159070699148"><ele>110.6</ele><time>2026-04-04T15:14:20.999Z</time></trkpt><trkpt lat="48.3117772083165" lon="-3.9160366260161377"><ele>110.8</ele><time>2026-04-04T15:14:21.999Z</time></trkpt><trkpt lat="48.311846545530436" lon="-3.916166944206532"><ele>111.0</ele><time>2026-04-04T15:14:22.999Z</time></trkpt><trkpt lat="48.311915414812184" lon="-3.9162947298443322"><ele>111.75</ele><time>2026-04-04T15:14:23.999Z</time></trkpt><trkpt lat="48.3119964930995" lon="-3.9164357480034035"><ele>112.5</ele><time>2026-04-04T15:14:24.999Z</time></trkpt><trkpt lat="48.312083251108014" lon="-3.91655929279715"><ele>113.25</ele><time>2026-04-04T15:14:25.999Z</time></trkpt><trkpt lat="48.312186848084835" lon="-3.9166627880072618"><ele>114.0</ele><time>2026-04-04T15:14:26.999Z</time></trkpt><trkpt lat="48.31228380186009" lon="-3.916760158909577"><ele>116.75</ele><time>2026-04-04T15:14:27.999Z</time></trkpt><trkpt lat="48.31237977536207" lon="-3.9168614413839338"><ele>119.5</ele><time>2026-04-04T15:14:28.999Z</time></trkpt><trkpt lat="48.31247695430778" lon="-3.9169745014206994"><ele>122.25</ele><time>2026-04-04T15:14:29.999Z</time></trkpt><trkpt lat="48.31256605359272" lon="-3.917106059775278"><ele>125.0</ele><time>2026-04-04T15:14:30.999Z</time></trkpt><trkpt lat="48.31265133078497" lon="-3.9172389917427104"><ele>125.0</ele><time>2026-04-04T15:14:31.999Z</time></trkpt><trkpt lat="48.312733526250746" lon="-3.917348430266937"><ele>125.0</ele><time>2026-04-04T15:14:32.999Z</time></trkpt><trkpt lat="48.312796980009544" lon="-3.9174406813282485"><ele>125.0</ele><time>2026-04-04T15:14:33.999Z</time></trkpt><trkpt lat="48.31284754419916" lon="-3.9175013499172344"><ele>125.0</ele><time>2026-04-04T15:14:34.999Z</time></trkpt><trkpt lat="48.312917500337136" lon="-3.917586587834901"><ele>125.0</ele><time>2026-04-04T15:14:36.999Z</time></trkpt><trkpt lat="48.31284089100357" lon="-3.917779174873418"><ele>125.0</ele><time>2026-04-04T15:14:40Z</time></trkpt><trkpt lat="48.31274961157321" lon="-3.917873402260936"><ele>125.0</ele><time>2026-04-04T15:14:41Z</time></trkpt><trkpt lat="48.31263656524645" lon="-3.918015740999695"><ele>125.0</ele><time>2026-04-04T15:14:42Z</time></trkpt><trkpt lat="48.312516171501244" lon="-3.9181378564188085"><ele>125.0</ele><time>2026-04-04T15:14:43Z</time></trkpt><trkpt lat="48.31239990952108" lon="-3.9182551805922023"><ele>125.0</ele><time>2026-04-04T15:14:44Z</time></trkpt><trkpt lat="48.312280501883684" lon="-3.918380538284447"><ele>125.0</ele><time>2026-04-04T15:14:45Z</time></trkpt><trkpt lat="48.312151210135866" lon="-3.9185313361741523"><ele>125.0</ele><time>2026-04-04T15:14:46Z</time></trkpt><trkpt lat="48.312040520231555" lon="-3.918690653308055"><ele>122.0</ele><time>2026-04-04T15:14:47Z</time></trkpt><trkpt lat="48.31193210303793" lon="-3.9188681957929696"><ele>119.0</ele><time>2026-04-04T15:14:48Z</time></trkpt><trkpt lat="48.311836333408614" lon="-3.919024577956235"><ele>116.0</ele><time>2026-04-04T15:14:49Z</time></trkpt><trkpt lat="48.311731360408274" lon="-3.9191951824196614"><ele>115.0</ele><time>2026-04-04T15:14:50Z</time></trkpt><trkpt lat="48.31163257753745" lon="-3.919365029838114"><ele>114.0</ele><time>2026-04-04T15:14:51Z</time></trkpt><trkpt lat="48.31153790134196" lon="-3.9195326157490387"><ele>113.0</ele><time>2026-04-04T15:14:52Z</time></trkpt><trkpt lat="48.311441722121685" lon="-3.919716066818246"><ele>111.25</ele><time>2026-04-04T15:14:53Z</time></trkpt><trkpt lat="48.31134779234717" lon="-3.9198846405452175"><ele>109.5</ele><time>2026-04-04T15:14:54Z</time></trkpt><trkpt lat="48.31127444404034" lon="-3.920074965321053"><ele>107.75</ele><time>2026-04-04T15:14:55Z</time></trkpt><trkpt lat="48.31120406472571" lon="-3.9202650455483545"><ele>106.0</ele><time>2026-04-04T15:14:56Z</time></trkpt><trkpt lat="48.31113472239412" lon="-3.9204653899981396"><ele>105.0</ele><time>2026-04-04T15:14:57Z</time></trkpt><trkpt lat="48.3110713303259" lon="-3.920677879461663"><ele>104.0</ele><time>2026-04-04T15:14:58Z</time></trkpt><trkpt lat="48.31101219871008" lon="-3.9209010255944117"><ele>103.0</ele><time>2026-04-04T15:14:59Z</time></trkpt><trkpt lat="48.31097434645724" lon="-3.9211316804517957"><ele>102.66666666666667</ele><time>2026-04-04T15:15:00Z</time></trkpt><trkpt lat="48.310932647266995" lon="-3.921377002101988"><ele>102.33333333333334</ele><time>2026-04-04T15:15:01Z</time></trkpt><trkpt lat="48.310897456546435" lon="-3.9216392882811544"><ele>102.0</ele><time>2026-04-04T15:15:02Z</time></trkpt><trkpt lat="48.31085991428191" lon="-3.9219114913829207"><ele>102.0</ele><time>2026-04-04T15:15:03Z</time></trkpt><trkpt lat="48.31082922595141" lon="-3.9221706010214126"><ele>102.0</ele><time>2026-04-04T15:15:04Z</time></trkpt><trkpt lat="48.31081661473589" lon="-3.922387085954629"><ele>102.0</ele><time>2026-04-04T15:15:05Z</time></trkpt><trkpt lat="48.31083535541514" lon="-3.9225388798764107"><ele>102.0</ele><time>2026-04-04T15:15:06Z</time></trkpt><trkpt lat="48.31087367802399" lon="-3.922673121482622"><ele>102.0</ele><time>2026-04-04T15:15:07Z</time></trkpt><trkpt lat="48.31091793852246" lon="-3.922839493422985"><ele>102.0</ele><time>2026-04-04T15:15:08Z</time></trkpt><trkpt lat="48.31103097283805" lon="-3.922931050467278"><ele>102.0</ele><time>2026-04-04T15:15:09Z</time></trkpt><trkpt lat="48.311141274824884" lon="-3.9230521925314936"><ele>102.0</ele><time>2026-04-04T15:15:10Z</time></trkpt><trkpt lat="48.31126265125886" lon="-3.923172859817672"><ele>102.0</ele><time>2026-04-04T15:15:11Z</time></trkpt><trkpt lat="48.31138861817712" lon="-3.923297651588692"><ele>102.0</ele><time>2026-04-04T15:15:12Z</time></trkpt><trkpt lat="48.311515539551664" lon="-3.923426032153482"><ele>102.0</ele><time>2026-04-04T15:15:13Z</time></trkpt><trkpt lat="48.311633711528074" lon="-3.9235482792456926"><ele>102.0</ele><time>2026-04-04T15:15:14Z</time></trkpt><trkpt lat="48.3117208612549" lon="-3.923676675590337"><ele>103.8</ele><time>2026-04-04T15:15:15Z</time></trkpt><trkpt lat="48.311798596852505" lon="-3.9237780432611156"><ele>105.6</ele><time>2026-04-04T15:15:16Z</time></trkpt><trkpt lat="48.31185142751674" lon="-3.9238677669470547"><ele>107.39999999999999</ele><time>2026-04-04T15:15:17Z</time></trkpt><trkpt lat="48.31194560220986" lon="-3.9239085314632547"><ele>109.19999999999999</ele><time>2026-04-04T15:15:19Z</time></trkpt><trkpt lat="48.31203978340343" lon="-3.9238238300460786"><ele>111.0</ele><time>2026-04-04T15:15:21Z</time></trkpt><trkpt lat="48.31206499768307" lon="-3.9235064808464464"><ele>110.6</ele><time>2026-04-04T15:15:24Z</time></trkpt><trkpt lat="48.31209684182615" lon="-3.9233317598153277"><ele>110.19999999999999</ele><time>2026-04-04T15:15:26Z</time></trkpt><trkpt lat="48.31216480940831" lon="-3.923245621483677"><ele>109.80000000000001</ele><time>2026-04-04T15:15:28Z</time></trkpt><trkpt lat="48.31224093442085" lon="-3.9231718808613483"><ele>109.4</ele><time>2026-04-04T15:15:29.999Z</time></trkpt><trkpt lat="48.31230564200094" lon="-3.923231984820925"><ele>109.0</ele><time>2026-04-04T15:15:30.999Z</time></trkpt><trkpt lat="48.31239330114885" lon="-3.923216480076492"><ele>110.80000000000001</ele><time>2026-04-04T15:15:31.999Z</time></trkpt><trkpt lat="48.31249389721456" lon="-3.9233242422466295"><ele>112.60000000000001</ele><time>2026-04-04T15:15:33.999Z</time></trkpt><trkpt lat="48.31257784547601" lon="-3.923357963845289"><ele>114.4</ele><time>2026-04-04T15:15:34.999Z</time></trkpt><trkpt lat="48.31266767592471" lon="-3.923395295602767"><ele>116.2</ele><time>2026-04-04T15:15:36.999Z</time></trkpt><trkpt lat="48.31275793236977" lon="-3.9234340701138426"><ele>118.0</ele><time>2026-04-04T15:15:39.999Z</time></trkpt><trkpt lat="48.31282800570096" lon="-3.9234641739128233"><ele>118.33333333333334</ele><time>2026-04-04T15:15:40.999Z</time></trkpt><trkpt lat="48.312925754520926" lon="-3.923505530075227"><ele>118.66666666666667</ele><time>2026-04-04T15:15:41.999Z</time></trkpt><trkpt lat="48.313020643288354" lon="-3.9235421023659205"><ele>119.0</ele><time>2026-04-04T15:15:42.999Z</time></trkpt><trkpt lat="48.31312167260797" lon="-3.923574205667454"><ele>119.33333333333334</ele><time>2026-04-04T15:15:43.999Z</time></trkpt><trkpt lat="48.31319422437437" lon="-3.9235946603472316"><ele>119.66666666666667</ele><time>2026-04-04T15:15:44.999Z</time></trkpt><trkpt lat="48.313263427816636" lon="-3.9236163385362324"><ele>120.0</ele><time>2026-04-04T15:15:45.999Z</time></trkpt><trkpt lat="48.313329863578446" lon="-3.9236378541610546"><ele>125.0</ele><time>2026-04-04T15:15:46.999Z</time></trkpt><trkpt lat="48.313676935109505" lon="-3.92285618179719"><ele>125.0</ele><time>2026-04-04T15:15:51.999Z</time></trkpt><trkpt lat="48.3137604329156" lon="-3.9229067856167816"><ele>125.0</ele><time>2026-04-04T15:15:53.999Z</time></trkpt><trkpt lat="48.31390907355491" lon="-3.9228742071381024"><ele>125.0</ele><time>2026-04-04T15:15:55.999Z</time></trkpt><trkpt lat="48.31400598547373" lon="-3.9228906880771435"><ele>125.0</ele><time>2026-04-04T15:15:56.999Z</time></trkpt><trkpt lat="48.31408392623618" lon="-3.922943257510318"><ele>125.0</ele><time>2026-04-04T15:15:57.999Z</time></trkpt><trkpt lat="48.31415086598647" lon="-3.9230102739461397"><ele>124.8</ele><time>2026-04-04T15:15:58.999Z</time></trkpt><trkpt lat="48.31427149314231" lon="-3.923051901828088"><ele>124.6</ele><time>2026-04-04T15:16:00.999Z</time></trkpt><trkpt lat="48.31434387589607" lon="-3.9231146858365022"><ele>124.4</ele><time>2026-04-04T15:16:01.999Z</time></trkpt><trkpt lat="48.31444658353026" lon="-3.923170461840731"><ele>124.2</ele><time>2026-04-04T15:16:03.999Z</time></trkpt><trkpt lat="48.31451985761628" lon="-3.9232043842896327"><ele>124.0</ele><time>2026-04-04T15:16:09.999Z</time></trkpt><trkpt lat="48.31458974115471" lon="-3.9232682618864567"><ele>124.00000000000001</ele><time>2026-04-04T15:16:11.999Z</time></trkpt><trkpt lat="48.314648442389576" lon="-3.9233059955320626"><ele>124.0</ele><time>2026-04-04T15:16:12.999Z</time></trkpt><trkpt lat="48.31474215688477" lon="-3.9233142123487106"><ele>124.0</ele><time>2026-04-04T15:16:13.999Z</time></trkpt><trkpt lat="48.31483527851064" lon="-3.9233365450046547"><ele>124.0</ele><time>2026-04-04T15:16:14.999Z</time></trkpt><trkpt lat="48.31491117205135" lon="-3.923358002504297"><ele>124.00000000000001</ele><time>2026-04-04T15:16:15.999Z</time></trkpt><trkpt lat="48.31498194660747" lon="-3.923367083456329"><ele>124.0</ele><time>2026-04-04T15:16:16.999Z</time></trkpt><trkpt lat="48.315096861632426" lon="-3.9234254681728236"><ele>126.50000000000001</ele><time>2026-04-04T15:16:18.999Z</time></trkpt><trkpt lat="48.31517224510823" lon="-3.923457857312348"><ele>129.0</ele><time>2026-04-04T15:16:20.999Z</time></trkpt><trkpt lat="48.31523379755141" lon="-3.923561881572724"><ele>131.5</ele><time>2026-04-04T15:16:23.999Z</time></trkpt><trkpt lat="48.315292414641114" lon="-3.9236946449053622"><ele>134.0</ele><time>2026-04-04T15:16:25.999Z</time></trkpt><trkpt lat="48.315336066222834" lon="-3.92378078272288"><ele>136.5</ele><time>2026-04-04T15:16:26.999Z</time></trkpt><trkpt lat="48.31539420086458" lon="-3.9238999316030907"><ele>139.0</ele><time>2026-04-04T15:16:27.999Z</time></trkpt><trkpt lat="48.31544685915256" lon="-3.9240087799155434"><ele>139.0</ele><time>2026-04-04T15:16:28.999Z</time></trkpt><trkpt lat="48.315489293269124" lon="-3.9240790504446554"><ele>139.0</ele><time>2026-04-04T15:16:29.999Z</time></trkpt><trkpt lat="48.31556151897308" lon="-3.924146952740795"><ele>139.0</ele><time>2026-04-04T15:16:31.999Z</time></trkpt><trkpt lat="48.31565371652521" lon="-3.9242364960987826"><ele>139.0</ele><time>2026-04-04T15:16:33.999Z</time></trkpt><trkpt lat="48.315739738719465" lon="-3.9243653213449674"><ele>139.0</ele><time>2026-04-04T15:16:35.999Z</time></trkpt><trkpt lat="48.31578764781126" lon="-3.924434358669497"><ele>139.0</ele><time>2026-04-04T15:16:36.999Z</time></trkpt><trkpt lat="48.3158437733151" lon="-3.924485531616349"><ele>136.5</ele><time>2026-04-04T15:16:37.999Z</time></trkpt><trkpt lat="48.31590395177404" lon="-3.924534953887825"><ele>134.0</ele><time>2026-04-04T15:16:38.999Z</time></trkpt><trkpt lat="48.315956460538956" lon="-3.9246059897618517"><ele>131.5</ele><time>2026-04-04T15:16:39.999Z</time></trkpt><trkpt lat="48.31601324853965" lon="-3.924677523179781"><ele>129.0</ele><time>2026-04-04T15:16:40.999Z</time></trkpt><trkpt lat="48.31606918208034" lon="-3.9247697404404667"><ele>126.50000000000001</ele><time>2026-04-04T15:16:41.999Z</time></trkpt><trkpt lat="48.3161179469859" lon="-3.9248546319266215"><ele>124.0</ele><time>2026-04-04T15:16:42.999Z</time></trkpt><trkpt lat="48.31614963557639" lon="-3.9249934134764755"><ele>124.33333333333334</ele><time>2026-04-04T15:16:45Z</time></trkpt><trkpt lat="48.31616270597688" lon="-3.9250908602076393"><ele>124.66666666666667</ele><time>2026-04-04T15:16:47Z</time></trkpt><trkpt lat="48.316219598532015" lon="-3.9252160375506104"><ele>125.0</ele><time>2026-04-04T15:16:49Z</time></trkpt><trkpt lat="48.31626790185158" lon="-3.925289132412229"><ele>125.33333333333334</ele><time>2026-04-04T15:16:50Z</time></trkpt><trkpt lat="48.316319316213885" lon="-3.925417117762268"><ele>125.66666666666667</ele><time>2026-04-04T15:16:52Z</time></trkpt><trkpt lat="48.316388318093914" lon="-3.9255322405025495"><ele>126.0</ele><time>2026-04-04T15:16:54Z</time></trkpt><trkpt lat="48.316435227873704" lon="-3.925659183100255"><ele>126.0</ele><time>2026-04-04T15:16:57Z</time></trkpt><trkpt lat="48.31650057401472" lon="-3.9257669526836434"><ele>126.0</ele><time>2026-04-04T15:16:59Z</time></trkpt><trkpt lat="48.31656340552169" lon="-3.9258450932313846"><ele>126.0</ele><time>2026-04-04T15:17:01Z</time></trkpt><trkpt lat="48.31658756849102" lon="-3.925961397743626"><ele>126.0</ele><time>2026-04-04T15:17:22Z</time></trkpt><trkpt lat="48.316628828557995" lon="-3.9260469830352327"><ele>126.0</ele><time>2026-04-04T15:17:24Z</time></trkpt><trkpt lat="48.31668696680442" lon="-3.926117162660321"><ele>126.0</ele><time>2026-04-04T15:17:28Z</time></trkpt><trkpt lat="48.316736115290496" lon="-3.926205262868931"><ele>126.83333333333333</ele><time>2026-04-04T15:17:32Z</time></trkpt><trkpt lat="48.31680283884556" lon="-3.9263450328389746"><ele>127.66666666666666</ele><time>2026-04-04T15:17:35Z</time></trkpt><trkpt lat="48.31687844330311" lon="-3.926439787707868"><ele>128.5</ele><time>2026-04-04T15:17:36.999Z</time></trkpt><trkpt lat="48.31690988548251" lon="-3.926521842391353"><ele>129.33333333333331</ele><time>2026-04-04T15:17:37.999Z</time></trkpt><trkpt lat="48.31694918444396" lon="-3.926650438006753"><ele>130.16666666666666</ele><time>2026-04-04T15:17:39.999Z</time></trkpt><trkpt lat="48.31699647651988" lon="-3.926732627300857"><ele>131.0</ele><time>2026-04-04T15:17:40.999Z</time></trkpt><trkpt lat="48.317069712925395" lon="-3.9268498389619237"><ele>131.5</ele><time>2026-04-04T15:17:42.999Z</time></trkpt><trkpt lat="48.31702607650773" lon="-3.9269276686523993"><ele>132.0</ele><time>2026-04-04T15:17:43.999Z</time></trkpt><trkpt lat="48.317090620945734" lon="-3.927046497662304"><ele>132.5</ele><time>2026-04-04T15:17:45.999Z</time></trkpt><trkpt lat="48.31711835321617" lon="-3.9271584355962426"><ele>133.0</ele><time>2026-04-04T15:17:46.999Z</time></trkpt><trkpt lat="48.3171679606515" lon="-3.927253038775467"><ele>133.5</ele><time>2026-04-04T15:17:47.999Z</time></trkpt><trkpt lat="48.31720494271757" lon="-3.927349235661771"><ele>134.0</ele><time>2026-04-04T15:17:48.999Z</time></trkpt><trkpt lat="48.31724711880488" lon="-3.927461583795291"><ele>136.16666666666666</ele><time>2026-04-04T15:17:49.999Z</time></trkpt><trkpt lat="48.317291277151796" lon="-3.927565409343138"><ele>138.33333333333331</ele><time>2026-04-04T15:17:50.999Z</time></trkpt><trkpt lat="48.317343871490465" lon="-3.9276756958352212"><ele>140.5</ele><time>2026-04-04T15:17:51.999Z</time></trkpt><trkpt lat="48.31739487244874" lon="-3.9277807056140674"><ele>142.66666666666666</ele><time>2026-04-04T15:17:52.999Z</time></trkpt><trkpt lat="48.31744825428801" lon="-3.927884695646054"><ele>144.83333333333334</ele><time>2026-04-04T15:17:53.999Z</time></trkpt><trkpt lat="48.31750641994567" lon="-3.92799800478226"><ele>147.0</ele><time>2026-04-04T15:17:54.999Z</time></trkpt><trkpt lat="48.31754244708391" lon="-3.9281206658757415"><ele>147.0</ele><time>2026-04-04T15:17:55.999Z</time></trkpt><trkpt lat="48.31759909421777" lon="-3.928217307193522"><ele>147.0</ele><time>2026-04-04T15:17:56.999Z</time></trkpt><trkpt lat="48.317606486976395" lon="-3.928378477480772"><ele>147.0</ele><time>2026-04-04T15:17:58.999Z</time></trkpt><trkpt lat="48.31764314022768" lon="-3.9285126273395647"><ele>147.0</ele><time>2026-04-04T15:18:04.999Z</time></trkpt><trkpt lat="48.317651997877455" lon="-3.928697262104272"><ele>147.0</ele><time>2026-04-04T15:18:06.999Z</time></trkpt><trkpt lat="48.31766214521082" lon="-3.9288078911820135"><ele>148.0</ele><time>2026-04-04T15:18:07.999Z</time></trkpt><trkpt lat="48.31794729538553" lon="-3.9288472234719376"><ele>149.0</ele><time>2026-04-04T15:18:08.999Z</time></trkpt><trkpt lat="48.318034356785965" lon="-3.9289349629792243"><ele>150.0</ele><time>2026-04-04T15:18:09.999Z</time></trkpt><trkpt lat="48.31810826030009" lon="-3.9290085298094786"><ele>151.2</ele><time>2026-04-04T15:18:10.999Z</time></trkpt><trkpt lat="48.31819186883137" lon="-3.9290879784069976"><ele>152.4</ele><time>2026-04-04T15:18:11.999Z</time></trkpt><trkpt lat="48.31828369010457" lon="-3.9291890499571496"><ele>153.6</ele><time>2026-04-04T15:18:12.999Z</time></trkpt><trkpt lat="48.318358001040814" lon="-3.9292790359532783"><ele>154.8</ele><time>2026-04-04T15:18:13.999Z</time></trkpt><trkpt lat="48.31844509409958" lon="-3.9293717943102786"><ele>156.0</ele><time>2026-04-04T15:18:14.999Z</time></trkpt><trkpt lat="48.31853139091841" lon="-3.929456353132509"><ele>157.25</ele><time>2026-04-04T15:18:15.999Z</time></trkpt><trkpt lat="48.318623359133575" lon="-3.929544006792735"><ele>158.5</ele><time>2026-04-04T15:18:16.999Z</time></trkpt><trkpt lat="48.318720352114056" lon="-3.9296430654716437"><ele>159.75</ele><time>2026-04-04T15:18:17.999Z</time></trkpt><trkpt lat="48.31882271363513" lon="-3.9297433201310166"><ele>161.0</ele><time>2026-04-04T15:18:18.999Z</time></trkpt><trkpt lat="48.31891250766075" lon="-3.929855730784911"><ele>161.0</ele><time>2026-04-04T15:18:19.999Z</time></trkpt><trkpt lat="48.31899350877427" lon="-3.929976112469411"><ele>161.0</ele><time>2026-04-04T15:18:20.999Z</time></trkpt><trkpt lat="48.31908381156695" lon="-3.9300863917299522"><ele>161.0</ele><time>2026-04-04T15:18:21.999Z</time></trkpt><trkpt lat="48.3191693219205" lon="-3.9302107388615566"><ele>161.0</ele><time>2026-04-04T15:18:22.999Z</time></trkpt><trkpt lat="48.31924650895999" lon="-3.930314304624439"><ele>161.8</ele><time>2026-04-04T15:18:23.999Z</time></trkpt><trkpt lat="48.31932216780104" lon="-3.9304215793532795"><ele>162.60000000000002</ele><time>2026-04-04T15:18:24.999Z</time></trkpt><trkpt lat="48.31939072436595" lon="-3.930532135682031"><ele>163.4</ele><time>2026-04-04T15:18:25.999Z</time></trkpt><trkpt lat="48.31944234429239" lon="-3.930668728263507"><ele>164.2</ele><time>2026-04-04T15:18:26.999Z</time></trkpt><trkpt lat="48.31948244866469" lon="-3.930805077672937"><ele>165.0</ele><time>2026-04-04T15:18:27.999Z</time></trkpt><trkpt lat="48.31953148375605" lon="-3.930928854261283"><ele>165.33333333333334</ele><time>2026-04-04T15:18:28.999Z</time></trkpt><trkpt lat="48.319581293683775" lon="-3.9310214056976105"><ele>165.66666666666666</ele><time>2026-04-04T15:18:29.999Z</time></trkpt><trkpt lat="48.31963517256961" lon="-3.9311045541605463"><ele>166.0</ele><time>2026-04-04T15:18:30.999Z</time></trkpt><trkpt lat="48.31968914907849" lon="-3.9312089929211824"><ele>166.33333333333331</ele><time>2026-04-04T15:18:31.999Z</time></trkpt><trkpt lat="48.319724041132844" lon="-3.931299411932584"><ele>166.66666666666666</ele><time>2026-04-04T15:18:32.999Z</time></trkpt><trkpt lat="48.31977192756967" lon="-3.931467487252085"><ele>167.0</ele><time>2026-04-04T15:18:34.999Z</time></trkpt><trkpt lat="48.31980868224753" lon="-3.9316166692519903"><ele>166.75</ele><time>2026-04-04T15:18:36.999Z</time></trkpt><trkpt lat="48.319779204320824" lon="-3.9317837001479163"><ele>166.5</ele><time>2026-04-04T15:18:38.999Z</time></trkpt><trkpt lat="48.3197384403567" lon="-3.9318831823902385"><ele>166.25</ele><time>2026-04-04T15:18:39.999Z</time></trkpt><trkpt lat="48.31967643937665" lon="-3.9320158547382094"><ele>166.0</ele><time>2026-04-04T15:18:41.999Z</time></trkpt><trkpt lat="48.319607329541725" lon="-3.9322912509344543"><ele>166.0</ele><time>2026-04-04T15:18:45.999Z</time></trkpt><trkpt lat="48.31959384346714" lon="-3.9324111624446045"><ele>166.0</ele><time>2026-04-04T15:18:46.999Z</time></trkpt><trkpt lat="48.31956500069506" lon="-3.9325696699584785"><ele>166.0</ele><time>2026-04-04T15:18:47.999Z</time></trkpt><trkpt lat="48.31955415114351" lon="-3.9327718051266523"><ele>166.0</ele><time>2026-04-04T15:18:48.999Z</time></trkpt><trkpt lat="48.319550743410694" lon="-3.933015409799237"><ele>166.0</ele><time>2026-04-04T15:18:50Z</time></trkpt><trkpt lat="48.319539258200535" lon="-3.933257829834364"><ele>166.0</ele><time>2026-04-04T15:18:51Z</time></trkpt><trkpt lat="48.31953839463138" lon="-3.9334621396078937"><ele>166.0</ele><time>2026-04-04T15:18:52Z</time></trkpt><trkpt lat="48.319523202710194" lon="-3.9336647167385275"><ele>166.0</ele><time>2026-04-04T15:18:53Z</time></trkpt><trkpt lat="48.31951122432175" lon="-3.933843893088674"><ele>165.33333333333334</ele><time>2026-04-04T15:18:54Z</time></trkpt><trkpt lat="48.31949191953832" lon="-3.9339880640863654"><ele>164.66666666666669</ele><time>2026-04-04T15:18:55Z</time></trkpt><trkpt lat="48.31946999437885" lon="-3.9341040767455437"><ele>164.0</ele><time>2026-04-04T15:18:56Z</time></trkpt><trkpt lat="48.31942984369448" lon="-3.9342310791356923"><ele>163.33333333333334</ele><time>2026-04-04T15:18:57Z</time></trkpt><trkpt lat="48.319381407933285" lon="-3.934360713982738"><ele>162.66666666666666</ele><time>2026-04-04T15:18:58Z</time></trkpt><trkpt lat="48.31934926246113" lon="-3.9344548818570155"><ele>162.0</ele><time>2026-04-04T15:18:59Z</time></trkpt><trkpt lat="48.31932868573765" lon="-3.934580275158885"><ele>162.0</ele><time>2026-04-04T15:19:01Z</time></trkpt><trkpt lat="48.319331365573376" lon="-3.9346765243738084"><ele>162.0</ele><time>2026-04-04T15:19:09Z</time></trkpt><trkpt lat="48.31931379403151" lon="-3.9347683096389288"><ele>162.0</ele><time>2026-04-04T15:19:10Z</time></trkpt><trkpt lat="48.319318353873385" lon="-3.9348797608652877"><ele>162.0</ele><time>2026-04-04T15:19:11Z</time></trkpt><trkpt lat="48.319322152785546" lon="-3.9350238919786515"><ele>162.0</ele><time>2026-04-04T15:19:12Z</time></trkpt><trkpt lat="48.31932630930243" lon="-3.935172774803252"><ele>162.0</ele><time>2026-04-04T15:19:13Z</time></trkpt><trkpt lat="48.31933781772545" lon="-3.9353292400686573"><ele>161.25</ele><time>2026-04-04T15:19:14Z</time></trkpt><trkpt lat="48.31934652119931" lon="-3.9355291371690666"><ele>160.5</ele><time>2026-04-04T15:19:15Z</time></trkpt><trkpt lat="48.3193673469987" lon="-3.9357515492414774"><ele>159.75</ele><time>2026-04-04T15:19:16Z</time></trkpt><trkpt lat="48.31939323996654" lon="-3.9359690844053032"><ele>159.0</ele><time>2026-04-04T15:19:17Z</time></trkpt><trkpt lat="48.31940397230499" lon="-3.936159495326209"><ele>158.75</ele><time>2026-04-04T15:19:18Z</time></trkpt><trkpt lat="48.31939724219693" lon="-3.9363553220134793"><ele>158.5</ele><time>2026-04-04T15:19:19Z</time></trkpt><trkpt lat="48.319378132933224" lon="-3.936546251355909"><ele>158.25</ele><time>2026-04-04T15:19:20Z</time></trkpt><trkpt lat="48.31935725672595" lon="-3.9367031706135904"><ele>158.0</ele><time>2026-04-04T15:19:21Z</time></trkpt><trkpt lat="48.31936302718222" lon="-3.93684892726613"><ele>156.5</ele><time>2026-04-04T15:19:22Z</time></trkpt><trkpt lat="48.319364069170284" lon="-3.936992350210336"><ele>155.0</ele><time>2026-04-04T15:19:23Z</time></trkpt><trkpt lat="48.319341913525136" lon="-3.9371028543027298"><ele>153.5</ele><time>2026-04-04T15:19:24Z</time></trkpt><trkpt lat="48.319334456675875" lon="-3.9372124237589694"><ele>152.0</ele><time>2026-04-04T15:19:25Z</time></trkpt><trkpt lat="48.319317665043386" lon="-3.937353738523507"><ele>150.5</ele><time>2026-04-04T15:19:26Z</time></trkpt><trkpt lat="48.31929896258368" lon="-3.9374655436650046"><ele>149.0</ele><time>2026-04-04T15:19:27Z</time></trkpt><trkpt lat="48.319281583738075" lon="-3.9376087173486733"><ele>147.8</ele><time>2026-04-04T15:19:28Z</time></trkpt><trkpt lat="48.31927934795426" lon="-3.937735500780131"><ele>146.60000000000002</ele><time>2026-04-04T15:19:29Z</time></trkpt><trkpt lat="48.31928587857794" lon="-3.9378610609881863"><ele>145.4</ele><time>2026-04-04T15:19:30Z</time></trkpt><trkpt lat="48.319275612845395" lon="-3.937989394422431"><ele>144.20000000000002</ele><time>2026-04-04T15:19:31Z</time></trkpt><trkpt lat="48.3192336253851" lon="-3.938138464507393"><ele>143.0</ele><time>2026-04-04T15:19:32Z</time></trkpt><trkpt lat="48.31918725124361" lon="-3.9382836939816683"><ele>141.8</ele><time>2026-04-04T15:19:33Z</time></trkpt><trkpt lat="48.319142186433" lon="-3.9384293016169596"><ele>140.60000000000002</ele><time>2026-04-04T15:19:34Z</time></trkpt><trkpt lat="48.319091596173" lon="-3.938574219868525"><ele>139.39999999999998</ele><time>2026-04-04T15:19:35Z</time></trkpt><trkpt lat="48.319042466041246" lon="-3.9387442280471605"><ele>138.2</ele><time>2026-04-04T15:19:36Z</time></trkpt><trkpt lat="48.318996045647104" lon="-3.9388929186326123"><ele>137.0</ele><time>2026-04-04T15:19:37Z</time></trkpt><trkpt lat="48.3189562765179" lon="-3.939041763797067"><ele>137.0</ele><time>2026-04-04T15:19:38Z</time></trkpt><trkpt lat="48.31891330903871" lon="-3.939172878948404"><ele>137.0</ele><time>2026-04-04T15:19:39Z</time></trkpt><trkpt lat="48.31887614435269" lon="-3.9393161680529887"><ele>137.0</ele><time>2026-04-04T15:19:40Z</time></trkpt><trkpt lat="48.318839580055666" lon="-3.9394661109000104"><ele>137.0</ele><time>2026-04-04T15:19:40.999Z</time></trkpt><trkpt lat="48.318812738718435" lon="-3.9396005879285574"><ele>137.0</ele><time>2026-04-04T15:19:41.999Z</time></trkpt><trkpt lat="48.31878868543837" lon="-3.939709930048936"><ele>138.16666666666666</ele><time>2026-04-04T15:19:42.999Z</time></trkpt><trkpt lat="48.318750547901374" lon="-3.9398231748967967"><ele>139.33333333333331</ele><time>2026-04-04T15:19:43.999Z</time></trkpt><trkpt lat="48.31871370337932" lon="-3.939924681359261"><ele>140.5</ele><time>2026-04-04T15:19:44.999Z</time></trkpt><trkpt lat="48.31868841230324" lon="-3.9400233438027836"><ele>141.66666666666666</ele><time>2026-04-04T15:19:45.999Z</time></trkpt><trkpt lat="48.318657388413115" lon="-3.9401616461505236"><ele>142.83333333333334</ele><time>2026-04-04T15:19:47.999Z</time></trkpt><trkpt lat="48.31862944785631" lon="-3.940267168707992"><ele>144.0</ele><time>2026-04-04T15:19:49.999Z</time></trkpt><trkpt lat="48.31860056651079" lon="-3.9404897296495607"><ele>144.0</ele><time>2026-04-04T15:19:51.999Z</time></trkpt><trkpt lat="48.318583510349534" lon="-3.940666523354986"><ele>144.0</ele><time>2026-04-04T15:19:52.999Z</time></trkpt><trkpt lat="48.31855799993056" lon="-3.940861453503731"><ele>144.0</ele><time>2026-04-04T15:19:53.999Z</time></trkpt><trkpt lat="48.3185247471817" lon="-3.9410472080505246"><ele>144.0</ele><time>2026-04-04T15:19:54.999Z</time></trkpt><trkpt lat="48.318511733297605" lon="-3.941143576966122"><ele>144.0</ele><time>2026-04-04T15:19:55.999Z</time></trkpt><trkpt lat="48.31851256352287" lon="-3.941316643725887"><ele>142.66666666666666</ele><time>2026-04-04T15:19:59.999Z</time></trkpt><trkpt lat="48.31850207101992" lon="-3.9414277127442614"><ele>141.33333333333334</ele><time>2026-04-04T15:20:00.999Z</time></trkpt><trkpt lat="48.31848229445339" lon="-3.9415584732736098"><ele>140.0</ele><time>2026-04-04T15:20:01.999Z</time></trkpt><trkpt lat="48.31846708900511" lon="-3.941693288721019"><ele>138.66666666666669</ele><time>2026-04-04T15:20:02.999Z</time></trkpt><trkpt lat="48.318446900228615" lon="-3.941814021673747"><ele>137.33333333333334</ele><time>2026-04-04T15:20:03.999Z</time></trkpt><trkpt lat="48.31842097836066" lon="-3.9419344074782283"><ele>136.0</ele><time>2026-04-04T15:20:04.999Z</time></trkpt><trkpt lat="48.31839337549055" lon="-3.942040640508811"><ele>135.6</ele><time>2026-04-04T15:20:05.999Z</time></trkpt><trkpt lat="48.31836078329282" lon="-3.9421591850472604"><ele>135.2</ele><time>2026-04-04T15:20:06.999Z</time></trkpt><trkpt lat="48.318321867302416" lon="-3.9422962684624525"><ele>134.8</ele><time>2026-04-04T15:20:07.999Z</time></trkpt><trkpt lat="48.318288082097766" lon="-3.942447383413026"><ele>134.4</ele><time>2026-04-04T15:20:08.999Z</time></trkpt><trkpt lat="48.318248882621404" lon="-3.9425992707243878"><ele>134.0</ele><time>2026-04-04T15:20:09.999Z</time></trkpt><trkpt lat="48.31820267053956" lon="-3.942724480106065"><ele>133.8</ele><time>2026-04-04T15:20:10.999Z</time></trkpt><trkpt lat="48.3181875299129" lon="-3.9428309199341753"><ele>133.60000000000002</ele><time>2026-04-04T15:20:11.999Z</time></trkpt><trkpt lat="48.318163911610746" lon="-3.9429882123849684"><ele>133.4</ele><time>2026-04-04T15:20:12.999Z</time></trkpt><trkpt lat="48.31812513803186" lon="-3.943134078327525"><ele>133.20000000000002</ele><time>2026-04-04T15:20:13.999Z</time></trkpt><trkpt lat="48.318102224579434" lon="-3.943277629716123"><ele>133.0</ele><time>2026-04-04T15:20:14.999Z</time></trkpt><trkpt lat="48.318075309248165" lon="-3.943416308056401"><ele>134.25</ele><time>2026-04-04T15:20:15.999Z</time></trkpt><trkpt lat="48.31803604717363" lon="-3.9435766270220483"><ele>135.5</ele><time>2026-04-04T15:20:16.999Z</time></trkpt><trkpt lat="48.31801382016306" lon="-3.943751831271659"><ele>136.75</ele><time>2026-04-04T15:20:17.999Z</time></trkpt><trkpt lat="48.31801636674915" lon="-3.9439473137607184"><ele>138.0</ele><time>2026-04-04T15:20:18.999Z</time></trkpt><trkpt lat="48.3180140531739" lon="-3.9441228207102323"><ele>136.20000000000002</ele><time>2026-04-04T15:20:19.999Z</time></trkpt><trkpt lat="48.31799166386982" lon="-3.9442940495608245"><ele>134.4</ele><time>2026-04-04T15:20:20.999Z</time></trkpt><trkpt lat="48.317961025060065" lon="-3.9444400755843416"><ele>132.60000000000002</ele><time>2026-04-04T15:20:21.999Z</time></trkpt><trkpt lat="48.31794685792584" lon="-3.944582157140964"><ele>130.8</ele><time>2026-04-04T15:20:22.999Z</time></trkpt><trkpt lat="48.31791476520428" lon="-3.944726624974468"><ele>129.0</ele><time>2026-04-04T15:20:23.999Z</time></trkpt><trkpt lat="48.317866067661456" lon="-3.944872020723236"><ele>129.0</ele><time>2026-04-04T15:20:24.999Z</time></trkpt><trkpt lat="48.31781848140105" lon="-3.945001901021987"><ele>129.0</ele><time>2026-04-04T15:20:25.999Z</time></trkpt><trkpt lat="48.317774719567474" lon="-3.945108963960765"><ele>129.0</ele><time>2026-04-04T15:20:26.999Z</time></trkpt><trkpt lat="48.31772096853734" lon="-3.945202284670619"><ele>129.0</ele><time>2026-04-04T15:20:27.999Z</time></trkpt><trkpt lat="48.31766745648545" lon="-3.9452874726387495"><ele>129.0</ele><time>2026-04-04T15:20:28.999Z</time></trkpt><trkpt lat="48.317629486338255" lon="-3.945384261340488"><ele>129.0</ele><time>2026-04-04T15:20:29.999Z</time></trkpt><trkpt lat="48.31756859284654" lon="-3.9454854912163286"><ele>128.2</ele><time>2026-04-04T15:20:30.999Z</time></trkpt><trkpt lat="48.31751571879997" lon="-3.9455919325301823"><ele>127.4</ele><time>2026-04-04T15:20:31.999Z</time></trkpt><trkpt lat="48.31745971802705" lon="-3.9457138024784437"><ele>126.6</ele><time>2026-04-04T15:20:32.999Z</time></trkpt><trkpt lat="48.31740701507555" lon="-3.945827134290809"><ele>125.8</ele><time>2026-04-04T15:20:33.999Z</time></trkpt><trkpt lat="48.317337934270476" lon="-3.9459387418904868"><ele>125.0</ele><time>2026-04-04T15:20:34.999Z</time></trkpt><trkpt lat="48.31728184622584" lon="-3.946014682992655"><ele>124.83333333333333</ele><time>2026-04-04T15:20:35.999Z</time></trkpt><trkpt lat="48.31723134619519" lon="-3.9461203529590985"><ele>124.66666666666666</ele><time>2026-04-04T15:20:37.999Z</time></trkpt><trkpt lat="48.31718870096626" lon="-3.946207918731637"><ele>124.5</ele><time>2026-04-04T15:20:42.999Z</time></trkpt><trkpt lat="48.31723900575209" lon="-3.9462650091152707"><ele>124.33333333333334</ele><time>2026-04-04T15:20:48.999Z</time></trkpt><trkpt lat="48.317291740192935" lon="-3.9463823627512946"><ele>124.16666666666667</ele><time>2026-04-04T15:20:51.999Z</time></trkpt><trkpt lat="48.31724273796082" lon="-3.94646592434984"><ele>124.0</ele><time>2026-04-04T15:20:53.999Z</time></trkpt><trkpt lat="48.31719081147602" lon="-3.946598957524446"><ele>122.2</ele><time>2026-04-04T15:20:56Z</time></trkpt><trkpt lat="48.317130823218434" lon="-3.9467289624952286"><ele>120.4</ele><time>2026-04-04T15:20:58Z</time></trkpt><trkpt lat="48.317039850993325" lon="-3.946844463860094"><ele>118.6</ele><time>2026-04-04T15:21:00Z</time></trkpt><trkpt lat="48.317010975566184" lon="-3.94693522586484"><ele>116.8</ele><time>2026-04-04T15:21:02Z</time></trkpt><trkpt lat="48.31709880820489" lon="-3.9470190861554477"><ele>115.0</ele><time>2026-04-04T15:21:04Z</time></trkpt><trkpt lat="48.317189973685146" lon="-3.9470685390851283"><ele>116.0</ele><time>2026-04-04T15:21:05Z</time></trkpt><trkpt lat="48.31730155176617" lon="-3.947160433393052"><ele>117.0</ele><time>2026-04-04T15:21:06Z</time></trkpt><trkpt lat="48.31743951067321" lon="-3.947278667269152"><ele>118.0</ele><time>2026-04-04T15:21:07Z</time></trkpt><trkpt lat="48.31757445842991" lon="-3.9473337280003795"><ele>119.0</ele><time>2026-04-04T15:21:08Z</time></trkpt><trkpt lat="48.317686412449824" lon="-3.9473530127009013"><ele>119.0</ele><time>2026-04-04T15:21:09Z</time></trkpt><trkpt lat="48.317802708597284" lon="-3.9473147531607835"><ele>119.0</ele><time>2026-04-04T15:21:10Z</time></trkpt><trkpt lat="48.31792812927703" lon="-3.947264413978246"><ele>119.0</ele><time>2026-04-04T15:21:11Z</time></trkpt><trkpt lat="48.31804480454434" lon="-3.947191851744872"><ele>119.0</ele><time>2026-04-04T15:21:12Z</time></trkpt><trkpt lat="48.31815901137928" lon="-3.9471386441635965"><ele>119.5</ele><time>2026-04-04T15:21:13Z</time></trkpt><trkpt lat="48.31827332110154" lon="-3.947070823385283"><ele>120.0</ele><time>2026-04-04T15:21:14Z</time></trkpt><trkpt lat="48.3184088645787" lon="-3.946975835540294"><ele>120.5</ele><time>2026-04-04T15:21:15Z</time></trkpt><trkpt lat="48.318527782611994" lon="-3.9468906800762906"><ele>121.0</ele><time>2026-04-04T15:21:16Z</time></trkpt><trkpt lat="48.31864201772522" lon="-3.946840163442834"><ele>121.0</ele><time>2026-04-04T15:21:17Z</time></trkpt><trkpt lat="48.318760076848875" lon="-3.946822386728424"><ele>121.0</ele><time>2026-04-04T15:21:18Z</time></trkpt><trkpt lat="48.31887273755123" lon="-3.9468069406890347"><ele>121.0</ele><time>2026-04-04T15:21:19Z</time></trkpt><trkpt lat="48.31899517890139" lon="-3.9467931459237855"><ele>121.0</ele><time>2026-04-04T15:21:20Z</time></trkpt><trkpt lat="48.31912932677467" lon="-3.946781614620623"><ele>120.75</ele><time>2026-04-04T15:21:21Z</time></trkpt><trkpt lat="48.319240340157286" lon="-3.9467350616454464"><ele>120.5</ele><time>2026-04-04T15:21:22Z</time></trkpt><trkpt lat="48.31938549012588" lon="-3.946652127810082"><ele>120.25</ele><time>2026-04-04T15:21:23Z</time></trkpt><trkpt lat="48.31952437906372" lon="-3.946565692329306"><ele>120.0</ele><time>2026-04-04T15:21:24Z</time></trkpt><trkpt lat="48.31964448120582" lon="-3.9465340042518635"><ele>120.8</ele><time>2026-04-04T15:21:25Z</time></trkpt><trkpt lat="48.31973014292717" lon="-3.946477304235104"><ele>121.6</ele><time>2026-04-04T15:21:26Z</time></trkpt><trkpt lat="48.319793917491474" lon="-3.946382025905573"><ele>122.4</ele><time>2026-04-04T15:21:27Z</time></trkpt><trkpt lat="48.319861477607084" lon="-3.9462450579500246"><ele>123.2</ele><time>2026-04-04T15:21:28Z</time></trkpt><trkpt lat="48.31992977909711" lon="-3.946053081051314"><ele>124.0</ele><time>2026-04-04T15:21:29Z</time></trkpt><trkpt lat="48.320016340462985" lon="-3.945864628479794"><ele>127.33333333333334</ele><time>2026-04-04T15:21:30Z</time></trkpt><trkpt lat="48.3201201140109" lon="-3.9456981498531793"><ele>130.66666666666666</ele><time>2026-04-04T15:21:31Z</time></trkpt><trkpt lat="48.320226507033695" lon="-3.94552161867276"><ele>134.0</ele><time>2026-04-04T15:21:32Z</time></trkpt><trkpt lat="48.32031605471046" lon="-3.9453415173177726"><ele>134.0</ele><time>2026-04-04T15:21:33Z</time></trkpt><trkpt lat="48.32038652573578" lon="-3.9451768957054014"><ele>134.0</ele><time>2026-04-04T15:21:34Z</time></trkpt><trkpt lat="48.320474668051055" lon="-3.9450248859211987"><ele>134.0</ele><time>2026-04-04T15:21:35Z</time></trkpt><trkpt lat="48.32056954074458" lon="-3.944919496828863"><ele>134.0</ele><time>2026-04-04T15:21:36Z</time></trkpt><trkpt lat="48.32063924717246" lon="-3.944831197763005"><ele>134.2</ele><time>2026-04-04T15:21:37Z</time></trkpt><trkpt lat="48.320696096438645" lon="-3.9447237553802466"><ele>134.4</ele><time>2026-04-04T15:21:38Z</time></trkpt><trkpt lat="48.32076201845275" lon="-3.944647830709991"><ele>134.6</ele><time>2026-04-04T15:21:39Z</time></trkpt><trkpt lat="48.32083834491299" lon="-3.9445598925403176"><ele>134.8</ele><time>2026-04-04T15:21:40Z</time></trkpt><trkpt lat="48.32092356728764" lon="-3.9445010493960324"><ele>135.0</ele><time>2026-04-04T15:21:41Z</time></trkpt><trkpt lat="48.32101948522193" lon="-3.944454261256601"><ele>135.0</ele><time>2026-04-04T15:21:42Z</time></trkpt><trkpt lat="48.32109929321202" lon="-3.944379730189808"><ele>135.0</ele><time>2026-04-04T15:21:43Z</time></trkpt><trkpt lat="48.32117633780302" lon="-3.944263494723544"><ele>135.0</ele><time>2026-04-04T15:21:44Z</time></trkpt><trkpt lat="48.321259074621366" lon="-3.9441272832120853"><ele>135.0</ele><time>2026-04-04T15:21:45Z</time></trkpt><trkpt lat="48.321339879787985" lon="-3.9439867423761727"><ele>135.0</ele><time>2026-04-04T15:21:46Z</time></trkpt><trkpt lat="48.32143495104645" lon="-3.943880222349308"><ele>134.8</ele><time>2026-04-04T15:21:47Z</time></trkpt><trkpt lat="48.32153329435613" lon="-3.9438436397685708"><ele>134.6</ele><time>2026-04-04T15:21:48Z</time></trkpt><trkpt lat="48.3216208682408" lon="-3.9438318706154365"><ele>134.4</ele><time>2026-04-04T15:21:49Z</time></trkpt><trkpt lat="48.321700362628896" lon="-3.9437942761493887"><ele>134.2</ele><time>2026-04-04T15:21:50Z</time></trkpt><trkpt lat="48.32177987237381" lon="-3.9437148910658926"><ele>134.0</ele><time>2026-04-04T15:21:51Z</time></trkpt><trkpt lat="48.32188028061402" lon="-3.943654833708863"><ele>134.0</ele><time>2026-04-04T15:21:51.999Z</time></trkpt><trkpt lat="48.32197575592514" lon="-3.9436341468650924"><ele>134.0</ele><time>2026-04-04T15:21:52.999Z</time></trkpt><trkpt lat="48.32205492209227" lon="-3.943605450273827"><ele>134.0</ele><time>2026-04-04T15:21:53.999Z</time></trkpt><trkpt lat="48.322120702978715" lon="-3.9435515000540744"><ele>134.0</ele><time>2026-04-04T15:21:54.999Z</time></trkpt><trkpt lat="48.32219094143984" lon="-3.943520313714052"><ele>134.0</ele><time>2026-04-04T15:21:55.999Z</time></trkpt><trkpt lat="48.32226239392116" lon="-3.9435052188494826"><ele>134.0</ele><time>2026-04-04T15:21:56.999Z</time></trkpt><trkpt lat="48.32233120250967" lon="-3.943486958809665"><ele>134.0</ele><time>2026-04-04T15:21:57.999Z</time></trkpt><trkpt lat="48.32240487462994" lon="-3.9434399102270614"><ele>134.0</ele><time>2026-04-04T15:21:58.999Z</time></trkpt><trkpt lat="48.32247297682379" lon="-3.94336718350727"><ele>134.0</ele><time>2026-04-04T15:21:59.999Z</time></trkpt><trkpt lat="48.322549146108976" lon="-3.943296275871572"><ele>134.0</ele><time>2026-04-04T15:22:00.999Z</time></trkpt><trkpt lat="48.322630291073594" lon="-3.9432237074689427"><ele>134.0</ele><time>2026-04-04T15:22:01.999Z</time></trkpt><trkpt lat="48.32271701746462" lon="-3.9431617265151258"><ele>134.0</ele><time>2026-04-04T15:22:02.999Z</time></trkpt><trkpt lat="48.32277925184947" lon="-3.9430924166521986"><ele>135.0</ele><time>2026-04-04T15:22:03.999Z</time></trkpt><trkpt lat="48.322831690248755" lon="-3.943030060300789"><ele>136.0</ele><time>2026-04-04T15:22:04.999Z</time></trkpt><trkpt lat="48.32288696167822" lon="-3.9429493044679607"><ele>137.0</ele><time>2026-04-04T15:22:05.999Z</time></trkpt><trkpt lat="48.322988132162976" lon="-3.9428896591813776"><ele>138.0</ele><time>2026-04-04T15:22:07.999Z</time></trkpt><trkpt lat="48.32303476177804" lon="-3.942968342053564"><ele>139.0</ele><time>2026-04-04T15:22:10.999Z</time></trkpt><trkpt lat="48.32303878486701" lon="-3.943068362436406"><ele>140.0</ele><time>2026-04-04T15:22:12.999Z</time></trkpt><trkpt lat="48.32304307880463" lon="-3.943170356436188"><ele>139.66666666666666</ele><time>2026-04-04T15:22:20.999Z</time></trkpt><trkpt lat="48.323072401550455" lon="-3.9433750460957167"><ele>139.33333333333334</ele><time>2026-04-04T15:22:22.999Z</time></trkpt><trkpt lat="48.32311312155551" lon="-3.943573286972014"><ele>139.0</ele><time>2026-04-04T15:22:23.999Z</time></trkpt><trkpt lat="48.32316731597443" lon="-3.9438315766090617"><ele>139.0</ele><time>2026-04-04T15:22:24.999Z</time></trkpt><trkpt lat="48.32324210308395" lon="-3.9440981943419096"><ele>139.0</ele><time>2026-04-04T15:22:25.999Z</time></trkpt><trkpt lat="48.32329099297117" lon="-3.944300589964965"><ele>139.0</ele><time>2026-04-04T15:22:26.999Z</time></trkpt><trkpt lat="48.32333680448138" lon="-3.9444816109127205"><ele>139.75</ele><time>2026-04-04T15:22:27.999Z</time></trkpt><trkpt lat="48.32338833155748" lon="-3.9446626225815695"><ele>140.5</ele><time>2026-04-04T15:22:28.999Z</time></trkpt><trkpt lat="48.32346033057579" lon="-3.944844868531481"><ele>141.25</ele><time>2026-04-04T15:22:29.999Z</time></trkpt><trkpt lat="48.323555597489175" lon="-3.945001471800177"><ele>142.0</ele><time>2026-04-04T15:22:30.999Z</time></trkpt><trkpt lat="48.32365345971259" lon="-3.945144369517827"><ele>142.75</ele><time>2026-04-04T15:22:31.999Z</time></trkpt><trkpt lat="48.323763778808804" lon="-3.945262355594833"><ele>143.5</ele><time>2026-04-04T15:22:32.999Z</time></trkpt><trkpt lat="48.32387087330168" lon="-3.9453951388552673"><ele>144.25</ele><time>2026-04-04T15:22:33.999Z</time></trkpt><trkpt lat="48.32396752917044" lon="-3.945536614609976"><ele>145.0</ele><time>2026-04-04T15:22:34.999Z</time></trkpt><trkpt lat="48.32405639665216" lon="-3.9456991795825336"><ele>148.25</ele><time>2026-04-04T15:22:35.999Z</time></trkpt><trkpt lat="48.32413374172936" lon="-3.945881804338602"><ele>151.5</ele><time>2026-04-04T15:22:36.999Z</time></trkpt><trkpt lat="48.32417972960413" lon="-3.9460792945709056"><ele>154.75</ele><time>2026-04-04T15:22:37.999Z</time></trkpt><trkpt lat="48.32420895577241" lon="-3.9462828303595954"><ele>158.0</ele><time>2026-04-04T15:22:38.999Z</time></trkpt><trkpt lat="48.32421691126687" lon="-3.9464932243483446"><ele>158.25</ele><time>2026-04-04T15:22:39.999Z</time></trkpt><trkpt lat="48.324225346109536" lon="-3.946715158391411"><ele>158.5</ele><time>2026-04-04T15:22:40.999Z</time></trkpt><trkpt lat="48.324234552071964" lon="-3.9469472075368413"><ele>158.75</ele><time>2026-04-04T15:22:41.999Z</time></trkpt><trkpt lat="48.32424277815836" lon="-3.947140483318859"><ele>159.0</ele><time>2026-04-04T15:22:42.999Z</time></trkpt><trkpt lat="48.32424162656563" lon="-3.9473164086700137"><ele>159.0</ele><time>2026-04-04T15:22:43.999Z</time></trkpt><trkpt lat="48.324274514009815" lon="-3.947443354818737"><ele>159.0</ele><time>2026-04-04T15:22:44.999Z</time></trkpt><trkpt lat="48.32430184768076" lon="-3.9475731585525353"><ele>159.0</ele><time>2026-04-04T15:22:46.999Z</time></trkpt><trkpt lat="48.32440525641451" lon="-3.947543739235426"><ele>159.0</ele><time>2026-04-04T15:22:48.999Z</time></trkpt><trkpt lat="48.3244760268157" lon="-3.9475167608949016"><ele>159.0</ele><time>2026-04-04T15:22:49.999Z</time></trkpt><trkpt lat="48.32455025281429" lon="-3.947512570369206"><ele>159.0</ele><time>2026-04-04T15:22:50.999Z</time></trkpt><trkpt lat="48.324634793516296" lon="-3.9475529541920475"><ele>159.33333333333334</ele><time>2026-04-04T15:22:51.999Z</time></trkpt><trkpt lat="48.32470418002906" lon="-3.947554213936499"><ele>159.66666666666666</ele><time>2026-04-04T15:22:52.999Z</time></trkpt><trkpt lat="48.32477075828435" lon="-3.9475921460975436"><ele>160.0</ele><time>2026-04-04T15:22:53.999Z</time></trkpt><trkpt lat="48.324841033879565" lon="-3.9476174533786"><ele>160.33333333333331</ele><time>2026-04-04T15:22:54.999Z</time></trkpt><trkpt lat="48.32490954807411" lon="-3.947642126352193"><ele>160.66666666666666</ele><time>2026-04-04T15:22:55.999Z</time></trkpt><trkpt lat="48.324991238098406" lon="-3.9475792030447034"><ele>161.0</ele><time>2026-04-04T15:22:56.999Z</time></trkpt><trkpt lat="48.32506008257589" lon="-3.947645697847936"><ele>163.0</ele><time>2026-04-04T15:22:57.999Z</time></trkpt><trkpt lat="48.32514813229782" lon="-3.9477433301352733"><ele>165.0</ele><time>2026-04-04T15:22:58.999Z</time></trkpt><trkpt lat="48.3252261385744" lon="-3.9478217984058683"><ele>167.0</ele><time>2026-04-04T15:22:59.999Z</time></trkpt><trkpt lat="48.32531432525416" lon="-3.9478691326736883"><ele>169.0</ele><time>2026-04-04T15:23:00.999Z</time></trkpt><trkpt lat="48.32540353671992" lon="-3.9478624372185167"><ele>171.0</ele><time>2026-04-04T15:23:02Z</time></trkpt><trkpt lat="48.32550680690048" lon="-3.9478430631862715"><ele>173.25</ele><time>2026-04-04T15:23:03Z</time></trkpt><trkpt lat="48.32563622182186" lon="-3.9478105522173075"><ele>175.5</ele><time>2026-04-04T15:23:04Z</time></trkpt><trkpt lat="48.32577723802339" lon="-3.9477695679874536"><ele>177.75</ele><time>2026-04-04T15:23:05Z</time></trkpt><trkpt lat="48.325947139926114" lon="-3.947726285586969"><ele>180.0</ele><time>2026-04-04T15:23:06Z</time></trkpt><trkpt lat="48.326107550713516" lon="-3.947657073894975"><ele>180.0</ele><time>2026-04-04T15:23:07Z</time></trkpt><trkpt lat="48.32622397643973" lon="-3.947579289814316"><ele>180.0</ele><time>2026-04-04T15:23:08Z</time></trkpt><trkpt lat="48.326305651098544" lon="-3.9474868089878172"><ele>180.0</ele><time>2026-04-04T15:23:09Z</time></trkpt><trkpt lat="48.32637101958903" lon="-3.947368085360559"><ele>180.0</ele><time>2026-04-04T15:23:10Z</time></trkpt><trkpt lat="48.32642460159224" lon="-3.9473178511670173"><ele>180.0</ele><time>2026-04-04T15:23:11Z</time></trkpt><trkpt lat="48.32650756694571" lon="-3.947322163190332"><ele>182.5</ele><time>2026-04-04T15:23:12Z</time></trkpt><trkpt lat="48.32661582480508" lon="-3.9474049742826636"><ele>185.0</ele><time>2026-04-04T15:23:13Z</time></trkpt><trkpt lat="48.32675652138387" lon="-3.947498319330563"><ele>187.5</ele><time>2026-04-04T15:23:14Z</time></trkpt><trkpt lat="48.326895177902784" lon="-3.9475914099493985"><ele>190.0</ele><time>2026-04-04T15:23:15Z</time></trkpt><trkpt lat="48.32703083022969" lon="-3.947679066055387"><ele>190.6</ele><time>2026-04-04T15:23:16Z</time></trkpt><trkpt lat="48.327142710335536" lon="-3.9477516404552784"><ele>191.2</ele><time>2026-04-04T15:23:17Z</time></trkpt><trkpt lat="48.327229243325654" lon="-3.9478205598764133"><ele>191.8</ele><time>2026-04-04T15:23:18Z</time></trkpt><trkpt lat="48.327277359917424" lon="-3.947906076432793"><ele>192.4</ele><time>2026-04-04T15:23:19Z</time></trkpt><trkpt lat="48.32732853261027" lon="-3.9480482240046704"><ele>193.0</ele><time>2026-04-04T15:23:21Z</time></trkpt><trkpt lat="48.32735091177574" lon="-3.9481420230569513"><ele>195.2</ele><time>2026-04-04T15:23:23Z</time></trkpt><trkpt lat="48.32739020986359" lon="-3.9483252397081845"><ele>197.4</ele><time>2026-04-04T15:23:25Z</time></trkpt><trkpt lat="48.32744157434782" lon="-3.948467662642368"><ele>199.6</ele><time>2026-04-04T15:23:26Z</time></trkpt><trkpt lat="48.32747349261459" lon="-3.9486203281407715"><ele>201.79999999999998</ele><time>2026-04-04T15:23:27Z</time></trkpt><trkpt lat="48.327483175087906" lon="-3.9487229806004223"><ele>204.0</ele><time>2026-04-04T15:23:28Z</time></trkpt><trkpt lat="48.327484462291686" lon="-3.948854446435513"><ele>205.66666666666666</ele><time>2026-04-04T15:23:30Z</time></trkpt><trkpt lat="48.327563411778506" lon="-3.948910259171128"><ele>207.33333333333331</ele><time>2026-04-04T15:23:32Z</time></trkpt><trkpt lat="48.32763716528891" lon="-3.948923766071944"><ele>209.0</ele><time>2026-04-04T15:23:33Z</time></trkpt><trkpt lat="48.32774092445346" lon="-3.9489535190473815"><ele>210.66666666666666</ele><time>2026-04-04T15:23:34Z</time></trkpt><trkpt lat="48.32782317376239" lon="-3.9489579347113755"><ele>212.33333333333331</ele><time>2026-04-04T15:23:35Z</time></trkpt><trkpt lat="48.327888290958306" lon="-3.948959459455559"><ele>214.0</ele><time>2026-04-04T15:23:36Z</time></trkpt><trkpt lat="48.32796437580997" lon="-3.9489425025166787"><ele>214.0</ele><time>2026-04-04T15:23:37Z</time></trkpt><trkpt lat="48.32804773682093" lon="-3.948969915403381"><ele>213.99999999999997</ele><time>2026-04-04T15:23:38Z</time></trkpt><trkpt lat="48.32817105186318" lon="-3.948980988569321"><ele>213.99999999999997</ele><time>2026-04-04T15:23:39Z</time></trkpt><trkpt lat="48.328294008382684" lon="-3.948967705077795"><ele>214.0</ele><time>2026-04-04T15:23:40Z</time></trkpt><trkpt lat="48.3283947100485" lon="-3.948952149975413"><ele>214.0</ele><time>2026-04-04T15:23:41Z</time></trkpt><trkpt lat="48.32846877022531" lon="-3.9488958834622303"><ele>215.0</ele><time>2026-04-04T15:23:42Z</time></trkpt><trkpt lat="48.32855052626142" lon="-3.9488038519560504"><ele>216.0</ele><time>2026-04-04T15:23:43Z</time></trkpt><trkpt lat="48.328680081453065" lon="-3.94865120654284"><ele>217.0</ele><time>2026-04-04T15:23:44Z</time></trkpt><trkpt lat="48.32881500771794" lon="-3.9484917746280876"><ele>218.0</ele><time>2026-04-04T15:23:45Z</time></trkpt><trkpt lat="48.32893342401676" lon="-3.948371206909614"><ele>220.75</ele><time>2026-04-04T15:23:46Z</time></trkpt><trkpt lat="48.329032829877804" lon="-3.9482548440739547"><ele>223.5</ele><time>2026-04-04T15:23:47Z</time></trkpt><trkpt lat="48.32913511678255" lon="-3.948150034592409"><ele>226.25</ele><time>2026-04-04T15:23:48Z</time></trkpt><trkpt lat="48.32923318583801" lon="-3.9480617229852024"><ele>229.0</ele><time>2026-04-04T15:23:49Z</time></trkpt><trkpt lat="48.32933738291391" lon="-3.948001729242855"><ele>229.0</ele><time>2026-04-04T15:23:50Z</time></trkpt><trkpt lat="48.32940703570471" lon="-3.9479285400929593"><ele>228.99999999999997</ele><time>2026-04-04T15:23:51Z</time></trkpt><trkpt lat="48.32946775013916" lon="-3.947862700217676"><ele>228.99999999999997</ele><time>2026-04-04T15:23:52Z</time></trkpt><trkpt lat="48.32959428292406" lon="-3.9477272138522688"><ele>229.0</ele><time>2026-04-04T15:23:53.999Z</time></trkpt><trkpt lat="48.32969421256842" lon="-3.947612975330928"><ele>229.0</ele><time>2026-04-04T15:23:54.999Z</time></trkpt><trkpt lat="48.32979047796306" lon="-3.947531426151565"><ele>231.39999999999998</ele><time>2026-04-04T15:23:55.999Z</time></trkpt><trkpt lat="48.3298614379478" lon="-3.947464452966919"><ele>233.79999999999998</ele><time>2026-04-04T15:23:56.999Z</time></trkpt><trkpt lat="48.329953784836306" lon="-3.94735776674672"><ele>236.20000000000002</ele><time>2026-04-04T15:23:57.999Z</time></trkpt><trkpt lat="48.33005095307243" lon="-3.947229667425095"><ele>238.60000000000002</ele><time>2026-04-04T15:23:58.999Z</time></trkpt><trkpt lat="48.33013672672164" lon="-3.947148766023619"><ele>241.0</ele><time>2026-04-04T15:23:59.999Z</time></trkpt><trkpt lat="48.33019534409547" lon="-3.947084381396284"><ele>240.99999999999997</ele><time>2026-04-04T15:24:00.999Z</time></trkpt><trkpt lat="48.330238818820206" lon="-3.946993894829033"><ele>241.0</ele><time>2026-04-04T15:24:01.999Z</time></trkpt><trkpt lat="48.330318669419896" lon="-3.9468858700791407"><ele>241.0</ele><time>2026-04-04T15:24:09.999Z</time></trkpt><trkpt lat="48.33037102997479" lon="-3.9468234140024943"><ele>241.0</ele><time>2026-04-04T15:24:10.999Z</time></trkpt><trkpt lat="48.330431335132495" lon="-3.946726301926819"><ele>240.99999999999997</ele><time>2026-04-04T15:24:12.999Z</time></trkpt><trkpt lat="48.33051080731699" lon="-3.9466890726408237"><ele>241.0</ele><time>2026-04-04T15:24:13.999Z</time></trkpt><trkpt lat="48.33059667550766" lon="-3.946671894438847"><ele>243.16666666666666</ele><time>2026-04-04T15:24:14.999Z</time></trkpt><trkpt lat="48.33066910247229" lon="-3.946641304222162"><ele>245.33333333333331</ele><time>2026-04-04T15:24:15.999Z</time></trkpt><trkpt lat="48.33073816113852" lon="-3.9465525747822916"><ele>247.5</ele><time>2026-04-04T15:24:16.999Z</time></trkpt><trkpt lat="48.330818357839725" lon="-3.946472566052995"><ele>249.66666666666669</ele><time>2026-04-04T15:24:17.999Z</time></trkpt><trkpt lat="48.33089713304773" lon="-3.9463961507418457"><ele>251.83333333333334</ele><time>2026-04-04T15:24:18.999Z</time></trkpt><trkpt lat="48.330979913354575" lon="-3.946341662374562"><ele>254.0</ele><time>2026-04-04T15:24:19.999Z</time></trkpt><trkpt lat="48.33104613030591" lon="-3.9463018360854587"><ele>254.0</ele><time>2026-04-04T15:24:20.999Z</time></trkpt><trkpt lat="48.33110609916768" lon="-3.9462662587824036"><ele>253.99999999999997</ele><time>2026-04-04T15:24:21.999Z</time></trkpt><trkpt lat="48.33116647482181" lon="-3.946219376661354"><ele>253.99999999999997</ele><time>2026-04-04T15:24:23.999Z</time></trkpt><trkpt lat="48.33121163232626" lon="-3.946138394035896"><ele>254.0</ele><time>2026-04-04T15:24:33.999Z</time></trkpt><trkpt lat="48.33131208202739" lon="-3.94607768466617"><ele>254.0</ele><time>2026-04-04T15:24:42.999Z</time></trkpt><trkpt lat="48.33125787201703" lon="-3.9456277893706395"><ele>253.39999999999998</ele><time>2026-04-04T15:24:43.999Z</time></trkpt><trkpt lat="48.331336788802666" lon="-3.9455609742629325"><ele>252.79999999999998</ele><time>2026-04-04T15:24:44.999Z</time></trkpt><trkpt lat="48.33144889705995" lon="-3.945486461754716"><ele>252.20000000000002</ele><time>2026-04-04T15:24:45.999Z</time></trkpt><trkpt lat="48.33153593270056" lon="-3.945428613948156"><ele>251.60000000000002</ele><time>2026-04-04T15:24:46.999Z</time></trkpt><trkpt lat="48.33160841799917" lon="-3.9454027683577473"><ele>251.0</ele><time>2026-04-04T15:24:47.999Z</time></trkpt><trkpt lat="48.33192966339516" lon="-3.946211283418071"><ele>255.0</ele><time>2026-04-04T15:24:48.999Z</time></trkpt><trkpt lat="48.332070809352544" lon="-3.9462216523048728"><ele>259.0</ele><time>2026-04-04T15:24:49.999Z</time></trkpt><trkpt lat="48.33223390449125" lon="-3.9462275566745006"><ele>263.0</ele><time>2026-04-04T15:24:50.999Z</time></trkpt><trkpt lat="48.33241128198699" lon="-3.9462533217215396"><ele>266.25</ele><time>2026-04-04T15:24:51.999Z</time></trkpt><trkpt lat="48.33255668642439" lon="-3.9462613690834534"><ele>269.5</ele><time>2026-04-04T15:24:52.999Z</time></trkpt><trkpt lat="48.33268971569497" lon="-3.9462517495524976"><ele>272.75</ele><time>2026-04-04T15:24:53.999Z</time></trkpt><trkpt lat="48.33284143201549" lon="-3.9461993736726666"><ele>276.0</ele><time>2026-04-04T15:24:54.999Z</time></trkpt><trkpt lat="48.33296537997606" lon="-3.9461697923348367"><ele>279.25</ele><time>2026-04-04T15:24:55.999Z</time></trkpt><trkpt lat="48.33309038645344" lon="-3.9461751472201367"><ele>282.5</ele><time>2026-04-04T15:24:56.999Z</time></trkpt><trkpt lat="48.333229891332685" lon="-3.9462175091108125"><ele>285.75</ele><time>2026-04-04T15:24:57.999Z</time></trkpt><trkpt lat="48.33335782611302" lon="-3.9462343535016564"><ele>289.0</ele><time>2026-04-04T15:24:58.999Z</time></trkpt><trkpt lat="48.333462278468744" lon="-3.946246039998198"><ele>289.0</ele><time>2026-04-04T15:24:59.999Z</time></trkpt><trkpt lat="48.333558126954095" lon="-3.9462618709404467"><ele>289.0</ele><time>2026-04-04T15:25:00.999Z</time></trkpt><trkpt lat="48.333666622063944" lon="-3.9462903909606912"><ele>289.0</ele><time>2026-04-04T15:25:01.999Z</time></trkpt><trkpt lat="48.3337858465406" lon="-3.946310937850755"><ele>289.0</ele><time>2026-04-04T15:25:02.999Z</time></trkpt><trkpt lat="48.3339079430295" lon="-3.9463159212394667"><ele>289.0</ele><time>2026-04-04T15:25:03.999Z</time></trkpt><trkpt lat="48.334022285536605" lon="-3.946330430071119"><ele>290.16666666666663</ele><time>2026-04-04T15:25:04.999Z</time></trkpt><trkpt lat="48.33410531352001" lon="-3.9463607050163185"><ele>291.3333333333333</ele><time>2026-04-04T15:25:05.999Z</time></trkpt><trkpt lat="48.334165353468535" lon="-3.9464287325617557"><ele>292.5</ele><time>2026-04-04T15:25:06.998Z</time></trkpt><trkpt lat="48.334231224315786" lon="-3.946526087882408"><ele>293.6666666666667</ele><time>2026-04-04T15:25:08Z</time></trkpt><trkpt lat="48.33429770881506" lon="-3.946590075828804"><ele>294.83333333333337</ele><time>2026-04-04T15:25:09Z</time></trkpt><trkpt lat="48.33437213776647" lon="-3.9465886363487312"><ele>296.0</ele><time>2026-04-04T15:25:10Z</time></trkpt><trkpt lat="48.33445763635055" lon="-3.9465929057037163"><ele>296.0</ele><time>2026-04-04T15:25:11Z</time></trkpt><trkpt lat="48.334559165988296" lon="-3.946613573750297"><ele>296.0</ele><time>2026-04-04T15:25:12Z</time></trkpt><trkpt lat="48.33464459137047" lon="-3.9466512694187204"><ele>296.0</ele><time>2026-04-04T15:25:13Z</time></trkpt><trkpt lat="48.334740554577216" lon="-3.946715317465298"><ele>296.0</ele><time>2026-04-04T15:25:14Z</time></trkpt><trkpt lat="48.33483967536012" lon="-3.946762464700876"><ele>296.0</ele><time>2026-04-04T15:25:15Z</time></trkpt><trkpt lat="48.33494142531966" lon="-3.946803651238407"><ele>298.0</ele><time>2026-04-04T15:25:16Z</time></trkpt><trkpt lat="48.33506263257414" lon="-3.9468545753697444"><ele>300.0</ele><time>2026-04-04T15:25:17Z</time></trkpt><trkpt lat="48.33519341836926" lon="-3.9468989658954987"><ele>302.0</ele><time>2026-04-04T15:25:18Z</time></trkpt><trkpt lat="48.33531397585641" lon="-3.9469652324882087"><ele>304.0</ele><time>2026-04-04T15:25:19Z</time></trkpt><trkpt lat="48.335425297601695" lon="-3.9469808546727343"><ele>304.0</ele><time>2026-04-04T15:25:20Z</time></trkpt><trkpt lat="48.33554035622381" lon="-3.9469657770901896"><ele>304.0</ele><time>2026-04-04T15:25:21Z</time></trkpt><trkpt lat="48.33564566351564" lon="-3.9469267670104107"><ele>304.0</ele><time>2026-04-04T15:25:22Z</time></trkpt><trkpt lat="48.335731047557175" lon="-3.946944499849058"><ele>304.0</ele><time>2026-04-04T15:25:23Z</time></trkpt><trkpt lat="48.33582926225045" lon="-3.9470405033379454"><ele>304.0</ele><time>2026-04-04T15:25:24Z</time></trkpt><trkpt lat="48.33596728963862" lon="-3.947127972167534"><ele>304.66666666666663</ele><time>2026-04-04T15:25:25Z</time></trkpt><trkpt lat="48.3361375981537" lon="-3.9471978211572836"><ele>305.3333333333333</ele><time>2026-04-04T15:25:26Z</time></trkpt><trkpt lat="48.33629251185825" lon="-3.9472548518157016"><ele>306.0</ele><time>2026-04-04T15:25:27Z</time></trkpt><trkpt lat="48.33641056030346" lon="-3.947302483910126"><ele>306.0</ele><time>2026-04-04T15:25:28Z</time></trkpt><trkpt lat="48.33652497015625" lon="-3.9473433092313663"><ele>306.0</ele><time>2026-04-04T15:25:29Z</time></trkpt><trkpt lat="48.33663250609731" lon="-3.9473589273395757"><ele>306.0</ele><time>2026-04-04T15:25:30Z</time></trkpt><trkpt lat="48.33672251621547" lon="-3.9473421170511935"><ele>306.0</ele><time>2026-04-04T15:25:31Z</time></trkpt><trkpt lat="48.33681834326717" lon="-3.947356097692519"><ele>306.0</ele><time>2026-04-04T15:25:32Z</time></trkpt><trkpt lat="48.33693160290779" lon="-3.9473818300358743"><ele>306.0</ele><time>2026-04-04T15:25:33Z</time></trkpt><trkpt lat="48.33705312444068" lon="-3.9474058469840054"><ele>306.0</ele><time>2026-04-04T15:25:34Z</time></trkpt><trkpt lat="48.33717119863163" lon="-3.947424872786904"><ele>306.0</ele><time>2026-04-04T15:25:35Z</time></trkpt><trkpt lat="48.33728410557682" lon="-3.9474450700623698"><ele>306.0</ele><time>2026-04-04T15:25:36Z</time></trkpt><trkpt lat="48.33738640165211" lon="-3.947482743476508"><ele>306.0</ele><time>2026-04-04T15:25:37Z</time></trkpt><trkpt lat="48.33749429270168" lon="-3.9475245513248973"><ele>306.0</ele><time>2026-04-04T15:25:38Z</time></trkpt><trkpt lat="48.33760009592825" lon="-3.947557631015324"><ele>306.0</ele><time>2026-04-04T15:25:39Z</time></trkpt><trkpt lat="48.33771729159041" lon="-3.9475715178176594"><ele>306.0</ele><time>2026-04-04T15:25:40Z</time></trkpt><trkpt lat="48.33784488224993" lon="-3.947585128614926"><ele>306.0</ele><time>2026-04-04T15:25:41Z</time></trkpt><trkpt lat="48.33796957237312" lon="-3.947606875969365"><ele>306.0</ele><time>2026-04-04T15:25:42Z</time></trkpt><trkpt lat="48.338097521780114" lon="-3.94761758826755"><ele>306.0</ele><time>2026-04-04T15:25:43Z</time></trkpt><trkpt lat="48.33822175413642" lon="-3.9476082157073757"><ele>306.0</ele><time>2026-04-04T15:25:44Z</time></trkpt><trkpt lat="48.338328485327835" lon="-3.947579299049515"><ele>305.5</ele><time>2026-04-04T15:25:45Z</time></trkpt><trkpt lat="48.338419713004136" lon="-3.947523589381312"><ele>305.0</ele><time>2026-04-04T15:25:46Z</time></trkpt><trkpt lat="48.33848938638321" lon="-3.947470647681309"><ele>304.5</ele><time>2026-04-04T15:25:47Z</time></trkpt><trkpt lat="48.33855584510921" lon="-3.9474589248343506"><ele>304.0</ele><time>2026-04-04T15:25:48Z</time></trkpt><trkpt lat="48.338633155913215" lon="-3.9475442150293594"><ele>303.5</ele><time>2026-04-04T15:25:50Z</time></trkpt><trkpt lat="48.33864224037608" lon="-3.9476684712678525"><ele>303.0</ele><time>2026-04-04T15:25:52Z</time></trkpt><trkpt lat="48.33860466229046" lon="-3.9478103573651104"><ele>302.8333333333333</ele><time>2026-04-04T15:25:54Z</time></trkpt><trkpt lat="48.33857232921779" lon="-3.947940219785465"><ele>302.6666666666667</ele><time>2026-04-04T15:25:56Z</time></trkpt><trkpt lat="48.33854726220238" lon="-3.948032654041084"><ele>302.5</ele><time>2026-04-04T15:25:57.999Z</time></trkpt><trkpt lat="48.33851407416631" lon="-3.948119751875526"><ele>302.33333333333337</ele><time>2026-04-04T15:25:59.999Z</time></trkpt><trkpt lat="48.338464036945965" lon="-3.948254044887586"><ele>302.1666666666667</ele><time>2026-04-04T15:26:01.999Z</time></trkpt><trkpt lat="48.33843495406516" lon="-3.948378708410153"><ele>302.0</ele><time>2026-04-04T15:26:03.999Z</time></trkpt><trkpt lat="48.338400155403654" lon="-3.948505147003495"><ele>302.4</ele><time>2026-04-04T15:26:05.999Z</time></trkpt><trkpt lat="48.33835073894483" lon="-3.9486196287764845"><ele>302.79999999999995</ele><time>2026-04-04T15:26:07.999Z</time></trkpt><trkpt lat="48.33829920064883" lon="-3.9487473603744356"><ele>303.2</ele><time>2026-04-04T15:26:09.999Z</time></trkpt><trkpt lat="48.33825333756994" lon="-3.948885186079287"><ele>303.59999999999997</ele><time>2026-04-04T15:26:11.999Z</time></trkpt><trkpt lat="48.33819822572764" lon="-3.94904462857408"><ele>304.0</ele><time>2026-04-04T15:26:13.999Z</time></trkpt><trkpt lat="48.33818243873192" lon="-3.9491438242357946"><ele>304.16666666666663</ele><time>2026-04-04T15:26:14.999Z</time></trkpt><trkpt lat="48.33817678859501" lon="-3.949238630397441"><ele>304.3333333333333</ele><time>2026-04-04T15:26:15.999Z</time></trkpt><trkpt lat="48.338163718817384" lon="-3.9493351012268603"><ele>304.5</ele><time>2026-04-04T15:26:16.999Z</time></trkpt><trkpt lat="48.33811513832616" lon="-3.949414824481765"><ele>304.6666666666667</ele><time>2026-04-04T15:26:17.999Z</time></trkpt><trkpt lat="48.33808318955423" lon="-3.9495008490758674"><ele>304.83333333333337</ele><time>2026-04-04T15:26:18.999Z</time></trkpt><trkpt lat="48.33804871595082" lon="-3.949665501667527"><ele>305.0</ele><time>2026-04-04T15:26:20.999Z</time></trkpt><trkpt lat="48.33800342327214" lon="-3.9498274584011397"><ele>305.2</ele><time>2026-04-04T15:26:22.999Z</time></trkpt><trkpt lat="48.33797657895821" lon="-3.9499232376211304"><ele>305.4</ele><time>2026-04-04T15:26:23.999Z</time></trkpt><trkpt lat="48.33795070314958" lon="-3.950042903678965"><ele>305.6</ele><time>2026-04-04T15:26:24.999Z</time></trkpt><trkpt lat="48.337931560468306" lon="-3.9501674696138425"><ele>305.8</ele><time>2026-04-04T15:26:25.999Z</time></trkpt><trkpt lat="48.33790792738378" lon="-3.95034572843129"><ele>306.0</ele><time>2026-04-04T15:26:26.999Z</time></trkpt><trkpt lat="48.33787228578743" lon="-3.950523494089289"><ele>306.0</ele><time>2026-04-04T15:26:27.999Z</time></trkpt><trkpt lat="48.33782676374024" lon="-3.9506944950419722"><ele>306.0</ele><time>2026-04-04T15:26:28.999Z</time></trkpt><trkpt lat="48.33778762017668" lon="-3.950875557056243"><ele>306.0</ele><time>2026-04-04T15:26:29.999Z</time></trkpt><trkpt lat="48.33774213892779" lon="-3.9510568156283874"><ele>306.0</ele><time>2026-04-04T15:26:30.999Z</time></trkpt><trkpt lat="48.33770685169854" lon="-3.951245396409907"><ele>306.5</ele><time>2026-04-04T15:26:31.999Z</time></trkpt><trkpt lat="48.33767162706926" lon="-3.951414036257054"><ele>307.0</ele><time>2026-04-04T15:26:32.999Z</time></trkpt><trkpt lat="48.337618007330256" lon="-3.951559351766134"><ele>307.5</ele><time>2026-04-04T15:26:33.999Z</time></trkpt><trkpt lat="48.33756684462971" lon="-3.951737628750145"><ele>308.0</ele><time>2026-04-04T15:26:34.999Z</time></trkpt><trkpt lat="48.33757713982135" lon="-3.9519424040697744"><ele>308.5</ele><time>2026-04-04T15:26:35.999Z</time></trkpt><trkpt lat="48.337564688203855" lon="-3.9521175067371574"><ele>309.0</ele><time>2026-04-04T15:26:36.999Z</time></trkpt><trkpt lat="48.33752292386204" lon="-3.952298510761526"><ele>309.5</ele><time>2026-04-04T15:26:37.999Z</time></trkpt><trkpt lat="48.33747998447992" lon="-3.9525019447760528"><ele>310.0</ele><time>2026-04-04T15:26:38.999Z</time></trkpt><trkpt lat="48.3374277647878" lon="-3.9526907902577406"><ele>310.0</ele><time>2026-04-04T15:26:39.999Z</time></trkpt><trkpt lat="48.33739828689731" lon="-3.952877401372923"><ele>310.0</ele><time>2026-04-04T15:26:40.999Z</time></trkpt><trkpt lat="48.33739319153376" lon="-3.9530417266233666"><ele>310.0</ele><time>2026-04-04T15:26:41.999Z</time></trkpt><trkpt lat="48.33736766460387" lon="-3.9531800420909105"><ele>310.0</ele><time>2026-04-04T15:26:42.999Z</time></trkpt><trkpt lat="48.33735083179574" lon="-3.953323876279866"><ele>310.0</ele><time>2026-04-04T15:26:43.999Z</time></trkpt><trkpt lat="48.337337791003854" lon="-3.953434188064012"><ele>310.5</ele><time>2026-04-04T15:26:44.999Z</time></trkpt><trkpt lat="48.33734856842473" lon="-3.9535701679566975"><ele>311.0</ele><time>2026-04-04T15:26:47.999Z</time></trkpt><trkpt lat="48.33733020867984" lon="-3.953738951704675"><ele>311.5</ele><time>2026-04-04T15:26:49.999Z</time></trkpt><trkpt lat="48.3373155896855" lon="-3.9539409489226736"><ele>312.0</ele><time>2026-04-04T15:26:51.999Z</time></trkpt><trkpt lat="48.337308580074094" lon="-3.9541089783248737"><ele>311.4</ele><time>2026-04-04T15:26:52.999Z</time></trkpt><trkpt lat="48.337290644846554" lon="-3.9542681943429328"><ele>310.79999999999995</ele><time>2026-04-04T15:26:53.999Z</time></trkpt><trkpt lat="48.33726457922695" lon="-3.9544217444237484"><ele>310.2</ele><time>2026-04-04T15:26:54.999Z</time></trkpt><trkpt lat="48.33722742994329" lon="-3.954576040367535"><ele>309.59999999999997</ele><time>2026-04-04T15:26:55.999Z</time></trkpt><trkpt lat="48.33718909461247" lon="-3.954743542734262"><ele>309.0</ele><time>2026-04-04T15:26:56.999Z</time></trkpt><trkpt lat="48.337155886954704" lon="-3.9549110510683265"><ele>311.5</ele><time>2026-04-04T15:26:57.999Z</time></trkpt><trkpt lat="48.337144685027766" lon="-3.9551235372312106"><ele>314.0</ele><time>2026-04-04T15:26:58.999Z</time></trkpt><trkpt lat="48.33710112400458" lon="-3.9553259461996744"><ele>316.5</ele><time>2026-04-04T15:26:59.999Z</time></trkpt><trkpt lat="48.33706089139578" lon="-3.955519515787015"><ele>319.0</ele><time>2026-04-04T15:27:00.999Z</time></trkpt><trkpt lat="48.33702503397431" lon="-3.955692035205365"><ele>319.0</ele><time>2026-04-04T15:27:01.999Z</time></trkpt><trkpt lat="48.337008552084605" lon="-3.955873312435984"><ele>319.0</ele><time>2026-04-04T15:27:02.999Z</time></trkpt><trkpt lat="48.336989751760925" lon="-3.9560716835883"><ele>319.0</ele><time>2026-04-04T15:27:03.999Z</time></trkpt><trkpt lat="48.33697116085384" lon="-3.95626784506843"><ele>319.0</ele><time>2026-04-04T15:27:04.999Z</time></trkpt><trkpt lat="48.33695642484194" lon="-3.9564662450386683"><ele>319.0</ele><time>2026-04-04T15:27:05.999Z</time></trkpt><trkpt lat="48.33694521702071" lon="-3.9566548322817754"><ele>319.0</ele><time>2026-04-04T15:27:06.999Z</time></trkpt><trkpt lat="48.33693806270462" lon="-3.9568549144376384"><ele>319.0</ele><time>2026-04-04T15:27:07.999Z</time></trkpt><trkpt lat="48.336930431387614" lon="-3.9570584972768525"><ele>319.0</ele><time>2026-04-04T15:27:08.999Z</time></trkpt><trkpt lat="48.33691789623861" lon="-3.95722821072026"><ele>319.0</ele><time>2026-04-04T15:27:09.999Z</time></trkpt><trkpt lat="48.33690701055411" lon="-3.9573755920549445"><ele>319.0</ele><time>2026-04-04T15:27:10.998Z</time></trkpt><trkpt lat="48.336902615527244" lon="-3.9575264482510972"><ele>319.0</ele><time>2026-04-04T15:27:11.998Z</time></trkpt><trkpt lat="48.33689696716971" lon="-3.9576751844744926"><ele>319.0</ele><time>2026-04-04T15:27:12.998Z</time></trkpt><trkpt lat="48.33687236746474" lon="-3.957862790444716"><ele>319.0</ele><time>2026-04-04T15:27:14Z</time></trkpt><trkpt lat="48.33685705215157" lon="-3.9580494661231067"><ele>318.2</ele><time>2026-04-04T15:27:15Z</time></trkpt><trkpt lat="48.33685456173029" lon="-3.9582247146611786"><ele>317.4</ele><time>2026-04-04T15:27:16Z</time></trkpt><trkpt lat="48.3368290288291" lon="-3.9583812109737204"><ele>316.6</ele><time>2026-04-04T15:27:17Z</time></trkpt><trkpt lat="48.33679576547585" lon="-3.9585050623404676"><ele>315.8</ele><time>2026-04-04T15:27:18Z</time></trkpt><trkpt lat="48.33679554942148" lon="-3.9586046428526065"><ele>315.0</ele><time>2026-04-04T15:27:19Z</time></trkpt><trkpt lat="48.33677137989158" lon="-3.958759939835262"><ele>314.8</ele><time>2026-04-04T15:27:21Z</time></trkpt><trkpt lat="48.3367551096603" lon="-3.9588616082862322"><ele>314.6</ele><time>2026-04-04T15:27:22Z</time></trkpt><trkpt lat="48.33674000417689" lon="-3.9589559985316205"><ele>314.4</ele><time>2026-04-04T15:27:23Z</time></trkpt><trkpt lat="48.33671074122007" lon="-3.959138855135203"><ele>314.2</ele><time>2026-04-04T15:27:25Z</time></trkpt><trkpt lat="48.3366887006146" lon="-3.9592627773948172"><ele>314.0</ele><time>2026-04-04T15:27:26Z</time></trkpt><trkpt lat="48.336653264067415" lon="-3.959452793446536"><ele>314.0</ele><time>2026-04-04T15:27:27Z</time></trkpt><trkpt lat="48.336614630033836" lon="-3.9596599548995233"><ele>314.0</ele><time>2026-04-04T15:27:28Z</time></trkpt><trkpt lat="48.33658453436831" lon="-3.959821448974909"><ele>314.0</ele><time>2026-04-04T15:27:29Z</time></trkpt><trkpt lat="48.33656159916904" lon="-3.9599447250672335"><ele>314.0</ele><time>2026-04-04T15:27:30Z</time></trkpt><trkpt lat="48.33653089160494" lon="-3.96010977743119"><ele>313.75</ele><time>2026-04-04T15:27:31Z</time></trkpt><trkpt lat="48.33649173010863" lon="-3.9602685700608555"><ele>313.5</ele><time>2026-04-04T15:27:32Z</time></trkpt><trkpt lat="48.33645626150385" lon="-3.9604172601143204"><ele>313.25</ele><time>2026-04-04T15:27:33Z</time></trkpt><trkpt lat="48.336427457690796" lon="-3.960568120021428"><ele>313.0</ele><time>2026-04-04T15:27:34Z</time></trkpt><trkpt lat="48.33638105844377" lon="-3.9607536562052834"><ele>317.0</ele><time>2026-04-04T15:27:35Z</time></trkpt><trkpt lat="48.336332765344174" lon="-3.9609467653094086"><ele>321.0</ele><time>2026-04-04T15:27:36Z</time></trkpt><trkpt lat="48.33629062324213" lon="-3.9611152784869392"><ele>325.0</ele><time>2026-04-04T15:27:37Z</time></trkpt><trkpt lat="48.33625380610052" lon="-3.9612624988084315"><ele>329.0</ele><time>2026-04-04T15:27:38Z</time></trkpt><trkpt lat="48.33623088399991" lon="-3.9613934483616777"><ele>329.0</ele><time>2026-04-04T15:27:39Z</time></trkpt><trkpt lat="48.336204035547276" lon="-3.961539430754112"><ele>329.0</ele><time>2026-04-04T15:27:40Z</time></trkpt><trkpt lat="48.3361707674874" lon="-3.9617160724641134"><ele>329.0</ele><time>2026-04-04T15:27:41Z</time></trkpt><trkpt lat="48.33613253219757" lon="-3.9619120216277692"><ele>329.0</ele><time>2026-04-04T15:27:42Z</time></trkpt><trkpt lat="48.33610704767944" lon="-3.962122374796517"><ele>328.33333333333337</ele><time>2026-04-04T15:27:43Z</time></trkpt><trkpt lat="48.336085406207204" lon="-3.962372426764732"><ele>327.6666666666667</ele><time>2026-04-04T15:27:44Z</time></trkpt><trkpt lat="48.336068314071916" lon="-3.962601585583383"><ele>327.0</ele><time>2026-04-04T15:27:45Z</time></trkpt><trkpt lat="48.33605317671193" lon="-3.9628259562499033"><ele>325.6666666666667</ele><time>2026-04-04T15:27:46Z</time></trkpt><trkpt lat="48.33603679116764" lon="-3.963065400264527"><ele>324.33333333333337</ele><time>2026-04-04T15:27:47Z</time></trkpt><trkpt lat="48.33601829894088" lon="-3.963335629551719"><ele>323.0</ele><time>2026-04-04T15:27:48Z</time></trkpt><trkpt lat="48.336003867566774" lon="-3.9635845430697025"><ele>320.0</ele><time>2026-04-04T15:27:49Z</time></trkpt><trkpt lat="48.33599158981288" lon="-3.963805953118924"><ele>317.0</ele><time>2026-04-04T15:27:50Z</time></trkpt><trkpt lat="48.33598234942706" lon="-3.964041325454852"><ele>314.0</ele><time>2026-04-04T15:27:51Z</time></trkpt><trkpt lat="48.335977353184134" lon="-3.9642773210052855"><ele>313.0</ele><time>2026-04-04T15:27:52Z</time></trkpt><trkpt lat="48.335972879622915" lon="-3.964488627943308"><ele>312.0</ele><time>2026-04-04T15:27:53Z</time></trkpt><trkpt lat="48.33596037495923" lon="-3.964652233261124"><ele>311.0</ele><time>2026-04-04T15:27:54Z</time></trkpt><trkpt lat="48.33597616409214" lon="-3.96479294490909"><ele>310.0</ele><time>2026-04-04T15:27:55Z</time></trkpt><trkpt lat="48.33601052644464" lon="-3.9648849595342144"><ele>309.0</ele><time>2026-04-04T15:27:56Z</time></trkpt><trkpt lat="48.336049209642574" lon="-3.9649824098550255"><ele>308.4</ele><time>2026-04-04T15:27:58Z</time></trkpt><trkpt lat="48.33607963556809" lon="-3.965081550683649"><ele>307.79999999999995</ele><time>2026-04-04T15:29:06.999Z</time></trkpt><trkpt lat="48.33610219796143" lon="-3.9652567879941656"><ele>307.20000000000005</ele><time>2026-04-04T15:29:36Z</time></trkpt><trkpt lat="48.33614242274138" lon="-3.9653811642949326"><ele>306.6</ele><time>2026-04-04T15:29:37Z</time></trkpt><trkpt lat="48.33619942604771" lon="-3.965493894194049"><ele>306.0</ele><time>2026-04-04T15:29:38Z</time></trkpt><trkpt lat="48.336241595321596" lon="-3.9656518594646455"><ele>306.0</ele><time>2026-04-04T15:29:39Z</time></trkpt><trkpt lat="48.33628130014089" lon="-3.9658424464789968"><ele>306.0</ele><time>2026-04-04T15:29:40Z</time></trkpt><trkpt lat="48.33632092000786" lon="-3.9660326257144245"><ele>306.0</ele><time>2026-04-04T15:29:41Z</time></trkpt><trkpt lat="48.33635315687123" lon="-3.9661982971552283"><ele>306.0</ele><time>2026-04-04T15:29:42Z</time></trkpt><trkpt lat="48.33638488215967" lon="-3.966369535911628"><ele>307.0</ele><time>2026-04-04T15:29:43Z</time></trkpt><trkpt lat="48.336411970329706" lon="-3.9665497231644924"><ele>308.0</ele><time>2026-04-04T15:29:44Z</time></trkpt><trkpt lat="48.33643991127832" lon="-3.96673558301456"><ele>309.0</ele><time>2026-04-04T15:29:45Z</time></trkpt><trkpt lat="48.33645105433347" lon="-3.966918333627515"><ele>310.0</ele><time>2026-04-04T15:29:46Z</time></trkpt><trkpt lat="48.33645064894405" lon="-3.9670951258119156"><ele>310.0</ele><time>2026-04-04T15:29:47Z</time></trkpt><trkpt lat="48.33646089376222" lon="-3.9672680183664335"><ele>310.0</ele><time>2026-04-04T15:29:48Z</time></trkpt><trkpt lat="48.33647994099025" lon="-3.9674476336445115"><ele>310.0</ele><time>2026-04-04T15:29:49Z</time></trkpt><trkpt lat="48.33649040212277" lon="-3.9676158274404414"><ele>310.0</ele><time>2026-04-04T15:29:50Z</time></trkpt><trkpt lat="48.33647780812712" lon="-3.9677675806099586"><ele>309.5</ele><time>2026-04-04T15:29:51Z</time></trkpt><trkpt lat="48.33647519223026" lon="-3.9678936112634617"><ele>309.0</ele><time>2026-04-04T15:29:52Z</time></trkpt><trkpt lat="48.336471318246765" lon="-3.9680413937585994"><ele>308.5</ele><time>2026-04-04T15:29:53Z</time></trkpt><trkpt lat="48.33646582848143" lon="-3.968150492789093"><ele>308.0</ele><time>2026-04-04T15:29:54Z</time></trkpt><trkpt lat="48.33646063716742" lon="-3.9682536605446086"><ele>307.5</ele><time>2026-04-04T15:29:55Z</time></trkpt><trkpt lat="48.33645555564779" lon="-3.968354646378489"><ele>307.0</ele><time>2026-04-04T15:29:56Z</time></trkpt><trkpt lat="48.336456074419075" lon="-3.968570534384607"><ele>307.0</ele><time>2026-04-04T15:29:58Z</time></trkpt><trkpt lat="48.33645646049698" lon="-3.9686883541961384"><ele>307.0</ele><time>2026-04-04T15:29:59Z</time></trkpt><trkpt lat="48.33645429845162" lon="-3.968811297547781"><ele>307.0</ele><time>2026-04-04T15:30:00Z</time></trkpt><trkpt lat="48.33645238693757" lon="-3.9689199946209044"><ele>307.0</ele><time>2026-04-04T15:30:01Z</time></trkpt><trkpt lat="48.33644803065923" lon="-3.9690179754299617"><ele>307.0</ele><time>2026-04-04T15:30:02Z</time></trkpt><trkpt lat="48.3364432281709" lon="-3.9691287494637084"><ele>307.0</ele><time>2026-04-04T15:30:03Z</time></trkpt><trkpt lat="48.336432702638255" lon="-3.9692775855411275"><ele>307.0</ele><time>2026-04-04T15:30:04Z</time></trkpt><trkpt lat="48.33640053751527" lon="-3.969427045285401"><ele>307.0</ele><time>2026-04-04T15:30:05Z</time></trkpt><trkpt lat="48.336384279079866" lon="-3.9696001541544974"><ele>307.0</ele><time>2026-04-04T15:30:06Z</time></trkpt><trkpt lat="48.33636516303177" lon="-3.9697493174123126"><ele>307.0</ele><time>2026-04-04T15:30:07Z</time></trkpt><trkpt lat="48.33634868059154" lon="-3.969880046191901"><ele>307.0</ele><time>2026-04-04T15:30:09Z</time></trkpt><trkpt lat="48.336455990635386" lon="-3.969819002265802"><ele>307.0</ele><time>2026-04-04T15:30:11.999Z</time></trkpt><trkpt lat="48.33654415160729" lon="-3.969811543810695"><ele>307.0</ele><time>2026-04-04T15:30:12.999Z</time></trkpt><trkpt lat="48.336652701766205" lon="-3.9698099507250295"><ele>307.0</ele><time>2026-04-04T15:30:13.999Z</time></trkpt><trkpt lat="48.33676524776065" lon="-3.9698096583443627"><ele>307.0</ele><time>2026-04-04T15:30:14.999Z</time></trkpt><trkpt lat="48.33687146014075" lon="-3.9698077797772995"><ele>307.0</ele><time>2026-04-04T15:30:15.999Z</time></trkpt><trkpt lat="48.33696458204972" lon="-3.9698078635852276"><ele>307.0</ele><time>2026-04-04T15:30:16.999Z</time></trkpt><trkpt lat="48.33705384271451" lon="-3.9698088658547985"><ele>307.0</ele><time>2026-04-04T15:30:17.999Z</time></trkpt><trkpt lat="48.33714594777716" lon="-3.9698005574457977"><ele>307.0</ele><time>2026-04-04T15:30:18.999Z</time></trkpt><trkpt lat="48.33725021992865" lon="-3.9697972862960507"><ele>307.0</ele><time>2026-04-04T15:30:19.999Z</time></trkpt><trkpt lat="48.337350064358716" lon="-3.9697908591590165"><ele>307.0</ele><time>2026-04-04T15:30:20.999Z</time></trkpt><trkpt lat="48.33745096485695" lon="-3.9697882487792002"><ele>306.0</ele><time>2026-04-04T15:30:21.999Z</time></trkpt><trkpt lat="48.33755324376507" lon="-3.9697908713223433"><ele>305.0</ele><time>2026-04-04T15:30:22.999Z</time></trkpt><trkpt lat="48.33765445689629" lon="-3.96978877693688"><ele>304.0</ele><time>2026-04-04T15:30:23.999Z</time></trkpt><trkpt lat="48.33774811993017" lon="-3.9697849515515045"><ele>303.0</ele><time>2026-04-04T15:30:24.999Z</time></trkpt><trkpt lat="48.337837853258144" lon="-3.9697831416045246"><ele>302.0</ele><time>2026-04-04T15:30:25.999Z</time></trkpt><trkpt lat="48.337921095738885" lon="-3.969779900495435"><ele>302.0</ele><time>2026-04-04T15:30:26.999Z</time></trkpt><trkpt lat="48.33799975231239" lon="-3.969777508234958"><ele>302.0</ele><time>2026-04-04T15:30:27.999Z</time></trkpt><trkpt lat="48.33806588437974" lon="-3.9697719974200028"><ele>302.0</ele><time>2026-04-04T15:30:28.999Z</time></trkpt><trkpt lat="48.33817394679333" lon="-3.9697696576448083"><ele>302.0</ele><time>2026-04-04T15:30:30.999Z</time></trkpt><trkpt lat="48.33826383950913" lon="-3.969766707701487"><ele>302.0</ele><time>2026-04-04T15:30:32.999Z</time></trkpt><trkpt lat="48.338349229975684" lon="-3.96974080876376"><ele>302.0</ele><time>2026-04-04T15:30:33.999Z</time></trkpt><trkpt lat="48.33845168000161" lon="-3.9697330849801014"><ele>300.8</ele><time>2026-04-04T15:30:34.999Z</time></trkpt><trkpt lat="48.33854565755212" lon="-3.969725999942453"><ele>299.6</ele><time>2026-04-04T15:30:35.999Z</time></trkpt><trkpt lat="48.338639096588636" lon="-3.9697192781634025"><ele>298.40000000000003</ele><time>2026-04-04T15:30:36.999Z</time></trkpt><trkpt lat="48.33873666707657" lon="-3.9697129307824897"><ele>297.2</ele><time>2026-04-04T15:30:37.999Z</time></trkpt><trkpt lat="48.33882153030527" lon="-3.9697085107417402"><ele>296.0</ele><time>2026-04-04T15:30:38.999Z</time></trkpt><trkpt lat="48.33894464165571" lon="-3.9697107150256175"><ele>294.6666666666667</ele><time>2026-04-04T15:30:40.999Z</time></trkpt><trkpt lat="48.33901572723151" lon="-3.9697052314362433"><ele>293.33333333333337</ele><time>2026-04-04T15:30:41.999Z</time></trkpt><trkpt lat="48.33909022614806" lon="-3.969706110615417"><ele>292.0</ele><time>2026-04-04T15:30:42.999Z</time></trkpt><trkpt lat="48.33916172996721" lon="-3.9696965891133242"><ele>290.6666666666667</ele><time>2026-04-04T15:30:43.999Z</time></trkpt><trkpt lat="48.339228186330175" lon="-3.969691418275282"><ele>289.3333333333333</ele><time>2026-04-04T15:30:44.999Z</time></trkpt><trkpt lat="48.339356106405255" lon="-3.9696594383527235"><ele>288.0</ele><time>2026-04-04T15:30:46.999Z</time></trkpt><trkpt lat="48.339490106880596" lon="-3.969624407634202"><ele>288.0</ele><time>2026-04-04T15:30:48.999Z</time></trkpt><trkpt lat="48.3395635675066" lon="-3.969607684120848"><ele>288.0</ele><time>2026-04-04T15:30:49.999Z</time></trkpt><trkpt lat="48.33965382669917" lon="-3.9695933127537555"><ele>288.0</ele><time>2026-04-04T15:30:51.999Z</time></trkpt><trkpt lat="48.339766535143774" lon="-3.9695958515253413"><ele>288.0</ele><time>2026-04-04T15:30:53.999Z</time></trkpt><trkpt lat="48.33982832494093" lon="-3.969573431835202"><ele>288.0</ele><time>2026-04-04T15:30:54.999Z</time></trkpt><trkpt lat="48.33994303227721" lon="-3.9696054369150056"><ele>285.8571428571429</ele><time>2026-04-04T15:30:56.999Z</time></trkpt><trkpt lat="48.34000763091035" lon="-3.9696277617363664"><ele>283.7142857142857</ele><time>2026-04-04T15:30:57.999Z</time></trkpt><trkpt lat="48.340082038832165" lon="-3.9696539412605887"><ele>281.57142857142856</ele><time>2026-04-04T15:30:58.999Z</time></trkpt><trkpt lat="48.34014862655663" lon="-3.9696838048338265"><ele>279.42857142857144</ele><time>2026-04-04T15:30:59.999Z</time></trkpt><trkpt lat="48.34021466761085" lon="-3.969713955424039"><ele>277.2857142857143</ele><time>2026-04-04T15:31:00.999Z</time></trkpt><trkpt lat="48.34029294823889" lon="-3.9697512635041914"><ele>275.14285714285717</ele><time>2026-04-04T15:31:01.999Z</time></trkpt><trkpt lat="48.34035690001196" lon="-3.9697817425404165"><ele>273.0</ele><time>2026-04-04T15:31:02.999Z</time></trkpt><trkpt lat="48.34042154683867" lon="-3.9698121614425674"><ele>273.0</ele><time>2026-04-04T15:31:03.999Z</time></trkpt><trkpt lat="48.340492491968455" lon="-3.9698440425700445"><ele>273.0</ele><time>2026-04-04T15:31:04.999Z</time></trkpt><trkpt lat="48.34056949840112" lon="-3.969877638498817"><ele>273.0</ele><time>2026-04-04T15:31:05.999Z</time></trkpt><trkpt lat="48.34064083284174" lon="-3.969883982276698"><ele>273.0</ele><time>2026-04-04T15:31:06.999Z</time></trkpt><trkpt lat="48.340715934186875" lon="-3.969924863448809"><ele>273.0</ele><time>2026-04-04T15:31:07.999Z</time></trkpt><trkpt lat="48.34078348688061" lon="-3.9699417145206484"><ele>273.0</ele><time>2026-04-04T15:31:08.999Z</time></trkpt><trkpt lat="48.3408469252009" lon="-3.969997565966968"><ele>273.0</ele><time>2026-04-04T15:31:09.999Z</time></trkpt><trkpt lat="48.340926965069166" lon="-3.970011619278045"><ele>271.5</ele><time>2026-04-04T15:31:10.999Z</time></trkpt><trkpt lat="48.34098362933875" lon="-3.9700578624664344"><ele>270.0</ele><time>2026-04-04T15:31:11.999Z</time></trkpt><trkpt lat="48.341047833520214" lon="-3.970109507322051"><ele>268.5</ele><time>2026-04-04T15:31:12.999Z</time></trkpt><trkpt lat="48.34111695539724" lon="-3.9701364131777654"><ele>267.0</ele><time>2026-04-04T15:31:13.999Z</time></trkpt><trkpt lat="48.34119547828822" lon="-3.97016404075052"><ele>265.5</ele><time>2026-04-04T15:31:14.999Z</time></trkpt><trkpt lat="48.34127313085103" lon="-3.970190195333241"><ele>264.0</ele><time>2026-04-04T15:31:15.999Z</time></trkpt><trkpt lat="48.34138394523383" lon="-3.9702029432797827"><ele>258.59999999999997</ele><time>2026-04-04T15:31:17.999Z</time></trkpt><trkpt lat="48.341462825139196" lon="-3.97017961377115"><ele>253.2</ele><time>2026-04-04T15:31:21.999Z</time></trkpt><trkpt lat="48.34153360339134" lon="-3.970156822846145"><ele>247.79999999999998</ele><time>2026-04-04T15:31:27Z</time></trkpt><trkpt lat="48.34148063256207" lon="-3.969908986780708"><ele>242.39999999999998</ele><time>2026-04-04T15:31:30Z</time></trkpt><trkpt lat="48.34150491136877" lon="-3.9697267849299096"><ele>237.0</ele><time>2026-04-04T15:31:32Z</time></trkpt><trkpt lat="48.34154362504609" lon="-3.9696416721855567"><ele>237.0</ele><time>2026-04-04T15:31:33Z</time></trkpt><trkpt lat="48.34160029264963" lon="-3.9695922584641057"><ele>237.0</ele><time>2026-04-04T15:31:34Z</time></trkpt><trkpt lat="48.34171465498459" lon="-3.969550468207561"><ele>237.0</ele><time>2026-04-04T15:31:36Z</time></trkpt><trkpt lat="48.3418029087915" lon="-3.9695413510083064"><ele>237.0</ele><time>2026-04-04T15:31:38Z</time></trkpt><trkpt lat="48.3419097086684" lon="-3.969509658649959"><ele>237.0</ele><time>2026-04-04T15:31:40Z</time></trkpt><trkpt lat="48.34198590965527" lon="-3.9694955201173454"><ele>237.0</ele><time>2026-04-04T15:31:41Z</time></trkpt><trkpt lat="48.34205250554146" lon="-3.969497897000984"><ele>237.0</ele><time>2026-04-04T15:31:42Z</time></trkpt><trkpt lat="48.34211911101085" lon="-3.9694792791791236"><ele>237.0</ele><time>2026-04-04T15:31:43Z</time></trkpt><trkpt lat="48.3421863131053" lon="-3.9694839874136174"><ele>237.0</ele><time>2026-04-04T15:31:46Z</time></trkpt><trkpt lat="48.34218980875719" lon="-3.9696004861652407"><ele>237.0</ele><time>2026-04-04T15:31:52Z</time></trkpt><trkpt lat="48.34210974831818" lon="-3.969767106859833"><ele>237.0</ele><time>2026-04-04T15:31:54Z</time></trkpt><trkpt lat="48.342063206689865" lon="-3.9698549996457024"><ele>237.0</ele><time>2026-04-04T15:31:55Z</time></trkpt><trkpt lat="48.34200586547835" lon="-3.9699203022405984"><ele>237.0</ele><time>2026-04-04T15:31:56Z</time></trkpt><trkpt lat="48.34201441654847" lon="-3.970041650196333"><ele>237.0</ele><time>2026-04-04T15:31:58Z</time></trkpt><trkpt lat="48.3420266849577" lon="-3.970149824247449"><ele>237.0</ele><time>2026-04-04T15:32:01Z</time></trkpt><trkpt lat="48.342065236750074" lon="-3.970232491047107"><ele>237.0</ele><time>2026-04-04T15:32:04Z</time></trkpt><trkpt lat="48.34210607594527" lon="-3.970333155054726"><ele>237.0</ele><time>2026-04-04T15:32:11Z</time></trkpt><trkpt lat="48.34215587703653" lon="-3.9704322321491032"><ele>236.85714285714283</ele><time>2026-04-04T15:32:14Z</time></trkpt><trkpt lat="48.34214736162406" lon="-3.9705396255586116"><ele>236.71428571428572</ele><time>2026-04-04T15:32:16.999Z</time></trkpt><trkpt lat="48.342169856772145" lon="-3.9706375435205263"><ele>236.57142857142856</ele><time>2026-04-04T15:32:21.999Z</time></trkpt><trkpt lat="48.34215508126773" lon="-3.970755921076747"><ele>236.42857142857142</ele><time>2026-04-04T15:32:25.999Z</time></trkpt><trkpt lat="48.342147685644434" lon="-3.9708721954263155"><ele>236.28571428571428</ele><time>2026-04-04T15:32:30.999Z</time></trkpt><trkpt lat="48.34218321822395" lon="-3.970962048633667"><ele>236.14285714285714</ele><time>2026-04-04T15:32:33.999Z</time></trkpt><trkpt lat="48.34222374985135" lon="-3.971048352181283"><ele>236.0</ele><time>2026-04-04T15:32:35.999Z</time></trkpt><trkpt lat="48.342270816194606" lon="-3.9711537879212835"><ele>233.33333333333334</ele><time>2026-04-04T15:32:38.999Z</time></trkpt><trkpt lat="48.34232422821809" lon="-3.971229993013732"><ele>230.66666666666669</ele><time>2026-04-04T15:32:45.999Z</time></trkpt><trkpt lat="48.34238103344506" lon="-3.9713035953484774"><ele>228.0</ele><time>2026-04-04T15:32:48.999Z</time></trkpt><trkpt lat="48.34243885390633" lon="-3.971363920575205"><ele>225.33333333333331</ele><time>2026-04-04T15:32:51.999Z</time></trkpt><trkpt lat="48.342386232032254" lon="-3.971469051232822"><ele>222.66666666666666</ele><time>2026-04-04T15:33:09.999Z</time></trkpt><trkpt lat="48.342333402235255" lon="-3.971557713519118"><ele>220.0</ele><time>2026-04-04T15:33:12.999Z</time></trkpt><trkpt lat="48.34227781959482" lon="-3.971619276506471"><ele>219.83333333333331</ele><time>2026-04-04T15:33:15.999Z</time></trkpt><trkpt lat="48.342229531680886" lon="-3.9717448649378344"><ele>219.66666666666666</ele><time>2026-04-04T15:33:18.999Z</time></trkpt><trkpt lat="48.34223889624778" lon="-3.9718747177193285"><ele>219.5</ele><time>2026-04-04T15:33:20.999Z</time></trkpt><trkpt lat="48.34226303333028" lon="-3.9720224419054175"><ele>219.33333333333331</ele><time>2026-04-04T15:33:22.999Z</time></trkpt><trkpt lat="48.34228499012879" lon="-3.9721388271935822"><ele>219.16666666666666</ele><time>2026-04-04T15:33:23.999Z</time></trkpt><trkpt lat="48.342285512035886" lon="-3.972259249282126"><ele>219.0</ele><time>2026-04-04T15:33:24.999Z</time></trkpt><trkpt lat="48.342332480959044" lon="-3.972412421649424"><ele>219.0</ele><time>2026-04-04T15:33:26.998Z</time></trkpt><trkpt lat="48.34233368104855" lon="-3.972512007085502"><ele>219.0</ele><time>2026-04-04T15:33:28.998Z</time></trkpt><trkpt lat="48.34230911536872" lon="-3.9726001036675167"><ele>219.0</ele><time>2026-04-04T15:33:46Z</time></trkpt><trkpt lat="48.34228210722441" lon="-3.972711268539985"><ele>219.0</ele><time>2026-04-04T15:34:03Z</time></trkpt><trkpt lat="48.342287221260406" lon="-3.972852452468703"><ele>219.0</ele><time>2026-04-04T15:34:17Z</time></trkpt><trkpt lat="48.34233603495038" lon="-3.972964945026961"><ele>219.0</ele><time>2026-04-04T15:34:18.999Z</time></trkpt><trkpt lat="48.34237116945563" lon="-3.9731120935203417"><ele>219.14285714285714</ele><time>2026-04-04T15:34:20.999Z</time></trkpt><trkpt lat="48.34242017145826" lon="-3.973185835616538"><ele>219.28571428571428</ele><time>2026-04-04T15:34:25.999Z</time></trkpt><trkpt lat="48.34238758982488" lon="-3.973282180076175"><ele>219.42857142857142</ele><time>2026-04-04T15:34:28.999Z</time></trkpt><trkpt lat="48.3423956447283" lon="-3.973389692989101"><ele>219.57142857142856</ele><time>2026-04-04T15:34:30.999Z</time></trkpt><trkpt lat="48.34244493079862" lon="-3.9734694607875"><ele>219.71428571428572</ele><time>2026-04-04T15:34:33.999Z</time></trkpt><trkpt lat="48.34244093713875" lon="-3.973578338753295"><ele>219.85714285714283</ele><time>2026-04-04T15:34:35.999Z</time></trkpt><trkpt lat="48.342476224461606" lon="-3.9736628002614056"><ele>220.0</ele><time>2026-04-04T15:34:38.999Z</time></trkpt><trkpt lat="48.34252904282853" lon="-3.9738059759747637"><ele>220.33333333333331</ele><time>2026-04-04T15:34:40.999Z</time></trkpt><trkpt lat="48.34252635498028" lon="-3.9739732214041825"><ele>220.66666666666666</ele><time>2026-04-04T15:34:42.999Z</time></trkpt><trkpt lat="48.342532532520465" lon="-3.9740786935820664"><ele>221.0</ele><time>2026-04-04T15:34:43.999Z</time></trkpt><trkpt lat="48.34253231664454" lon="-3.9741757159037303"><ele>221.33333333333331</ele><time>2026-04-04T15:34:44.999Z</time></trkpt><trkpt lat="48.3425361307705" lon="-3.97433463199083"><ele>221.66666666666666</ele><time>2026-04-04T15:34:46.999Z</time></trkpt><trkpt lat="48.34259135955471" lon="-3.974409125385476"><ele>222.0</ele><time>2026-04-04T15:34:48.999Z</time></trkpt><trkpt lat="48.342570026422365" lon="-3.9745025575398283"><ele>222.33333333333334</ele><time>2026-04-04T15:34:51.999Z</time></trkpt><trkpt lat="48.342604541547125" lon="-3.9745925369576143"><ele>222.66666666666669</ele><time>2026-04-04T15:34:56.999Z</time></trkpt><trkpt lat="48.34269539836788" lon="-3.9746512908770897"><ele>223.0</ele><time>2026-04-04T15:35:27.999Z</time></trkpt><trkpt lat="48.34275694682875" lon="-3.974686831858449"><ele>223.33333333333334</ele><time>2026-04-04T15:35:33.998Z</time></trkpt><trkpt lat="48.34274671272044" lon="-3.974812416302808"><ele>223.66666666666669</ele><time>2026-04-04T15:35:36.998Z</time></trkpt><trkpt lat="48.342803079906155" lon="-3.9749223798785533"><ele>224.0</ele><time>2026-04-04T15:35:40Z</time></trkpt><trkpt lat="48.342802086778214" lon="-3.9750181009900882"><ele>223.0</ele><time>2026-04-04T15:35:43Z</time></trkpt><trkpt lat="48.34287053512241" lon="-3.9750593562789645"><ele>222.0</ele><time>2026-04-04T15:35:47Z</time></trkpt><trkpt lat="48.34288088610994" lon="-3.975164418451583"><ele>221.0</ele><time>2026-04-04T15:35:52Z</time></trkpt><trkpt lat="48.3428654532201" lon="-3.975261072182918"><ele>220.0</ele><time>2026-04-04T15:35:54Z</time></trkpt><trkpt lat="48.342824365384615" lon="-3.9753378342063894"><ele>219.0</ele><time>2026-04-04T15:35:58Z</time></trkpt><trkpt lat="48.34276181249381" lon="-3.975389617232132"><ele>218.0</ele><time>2026-04-04T15:36:01Z</time></trkpt><trkpt lat="48.34276169685858" lon="-3.9754867586392284"><ele>217.0</ele><time>2026-04-04T15:36:03Z</time></trkpt><trkpt lat="48.34275601333255" lon="-3.9755862010425997"><ele>216.99999999999997</ele><time>2026-04-04T15:36:06Z</time></trkpt><trkpt lat="48.34271381403307" lon="-3.9756756294061057"><ele>217.0</ele><time>2026-04-04T15:36:08Z</time></trkpt><trkpt lat="48.34269103485979" lon="-3.9757907896419384"><ele>217.0</ele><time>2026-04-04T15:36:11Z</time></trkpt><trkpt lat="48.342689074682085" lon="-3.9759001590969727"><ele>217.0</ele><time>2026-04-04T15:36:15Z</time></trkpt><trkpt lat="48.342641118213" lon="-3.97602098841472"><ele>216.99999999999997</ele><time>2026-04-04T15:36:29.999Z</time></trkpt><trkpt lat="48.34260095202019" lon="-3.976134409525616"><ele>217.0</ele><time>2026-04-04T15:36:31.999Z</time></trkpt><trkpt lat="48.34260733813119" lon="-3.976274442753563"><ele>215.66666666666666</ele><time>2026-04-04T15:36:33.999Z</time></trkpt><trkpt lat="48.34264660517697" lon="-3.976349278481373"><ele>214.33333333333331</ele><time>2026-04-04T15:36:35.999Z</time></trkpt><trkpt lat="48.34258950605349" lon="-3.976475162696594"><ele>213.0</ele><time>2026-04-04T15:36:41.999Z</time></trkpt><trkpt lat="48.34252147250566" lon="-3.976593498680406"><ele>211.66666666666669</ele><time>2026-04-04T15:36:42.999Z</time></trkpt><trkpt lat="48.342496616971715" lon="-3.9766864852314106"><ele>210.33333333333334</ele><time>2026-04-04T15:36:44.999Z</time></trkpt><trkpt lat="48.34255034561434" lon="-3.976776983215131"><ele>209.0</ele><time>2026-04-04T15:36:46.999Z</time></trkpt><trkpt lat="48.34253555181781" lon="-3.976887196802024"><ele>208.50000000000003</ele><time>2026-04-04T15:36:48.999Z</time></trkpt><trkpt lat="48.34251916089479" lon="-3.976997144873335"><ele>208.0</ele><time>2026-04-04T15:36:50.999Z</time></trkpt><trkpt lat="48.342488032964134" lon="-3.977125838869542"><ele>207.5</ele><time>2026-04-04T15:36:52.999Z</time></trkpt><trkpt lat="48.34246914375003" lon="-3.9772333979488175"><ele>207.0</ele><time>2026-04-04T15:36:54.999Z</time></trkpt><trkpt lat="48.34247551204697" lon="-3.9773324155339673"><ele>206.50000000000003</ele><time>2026-04-04T15:36:56.999Z</time></trkpt><trkpt lat="48.34241355461469" lon="-3.977461095846879"><ele>206.0</ele><time>2026-04-04T15:37:00.999Z</time></trkpt><trkpt lat="48.342343361395486" lon="-3.97748295112412"><ele>206.00000000000003</ele><time>2026-04-04T15:37:03.999Z</time></trkpt><trkpt lat="48.3422728866006" lon="-3.9775067529938797"><ele>206.0</ele><time>2026-04-04T15:37:07.999Z</time></trkpt><trkpt lat="48.34222048143771" lon="-3.9775762572227262"><ele>206.0</ele><time>2026-04-04T15:37:13.999Z</time></trkpt><trkpt lat="48.34215727583157" lon="-3.97763668194231"><ele>206.0</ele><time>2026-04-04T15:37:17.999Z</time></trkpt><trkpt lat="48.34209914427443" lon="-3.9777613092763873"><ele>206.00000000000003</ele><time>2026-04-04T15:37:20.999Z</time></trkpt><trkpt lat="48.34204393125914" lon="-3.9778929206582974"><ele>206.0</ele><time>2026-04-04T15:37:22.999Z</time></trkpt><trkpt lat="48.34197416471374" lon="-3.978068030568646"><ele>208.83333333333334</ele><time>2026-04-04T15:37:24.999Z</time></trkpt><trkpt lat="48.34193593401422" lon="-3.9781626972339668"><ele>211.66666666666669</ele><time>2026-04-04T15:37:25.999Z</time></trkpt><trkpt lat="48.34188842021674" lon="-3.97831323510169"><ele>214.5</ele><time>2026-04-04T15:37:27.999Z</time></trkpt><trkpt lat="48.34187368927135" lon="-3.9784102234289196"><ele>217.33333333333331</ele><time>2026-04-04T15:37:28.999Z</time></trkpt><trkpt lat="48.34184338358169" lon="-3.978498720360791"><ele>220.16666666666666</ele><time>2026-04-04T15:37:29.999Z</time></trkpt><trkpt lat="48.34179694700091" lon="-3.978609264946299"><ele>223.0</ele><time>2026-04-04T15:37:30.999Z</time></trkpt><trkpt lat="48.34174975836898" lon="-3.9786893401915795"><ele>223.0</ele><time>2026-04-04T15:37:31.998Z</time></trkpt><trkpt lat="48.34169952953531" lon="-3.978800282179795"><ele>223.0</ele><time>2026-04-04T15:37:32.998Z</time></trkpt><trkpt lat="48.341622750996684" lon="-3.9789518178441377"><ele>223.0</ele><time>2026-04-04T15:37:34.998Z</time></trkpt><trkpt lat="48.34156398223411" lon="-3.979059374659126"><ele>223.0</ele><time>2026-04-04T15:37:36.998Z</time></trkpt><trkpt lat="48.34152337840325" lon="-3.9791426868980144"><ele>223.0</ele><time>2026-04-04T15:37:47Z</time></trkpt><trkpt lat="48.3414788457537" lon="-3.97924690443318"><ele>221.14285714285714</ele><time>2026-04-04T15:37:52Z</time></trkpt><trkpt lat="48.3415313840513" lon="-3.9793137527800484"><ele>219.28571428571428</ele><time>2026-04-04T15:37:56Z</time></trkpt><trkpt lat="48.3415704624509" lon="-3.9793998806319104"><ele>217.42857142857144</ele><time>2026-04-04T15:37:58Z</time></trkpt><trkpt lat="48.3415710216162" lon="-3.9795112564294923"><ele>215.57142857142856</ele><time>2026-04-04T15:38:00Z</time></trkpt><trkpt lat="48.3415627022784" lon="-3.979618489720717"><ele>213.71428571428572</ele><time>2026-04-04T15:38:03Z</time></trkpt><trkpt lat="48.34160855757094" lon="-3.9797145980780666"><ele>211.85714285714286</ele><time>2026-04-04T15:38:06Z</time></trkpt><trkpt lat="48.341649227116044" lon="-3.9798183526302147"><ele>210.0</ele><time>2026-04-04T15:38:08Z</time></trkpt><trkpt lat="48.34169440545445" lon="-3.979891893157987"><ele>210.0</ele><time>2026-04-04T15:38:11Z</time></trkpt><trkpt lat="48.341705199521236" lon="-3.9799953390738105"><ele>210.0</ele><time>2026-04-04T15:38:14Z</time></trkpt><trkpt lat="48.34171802844488" lon="-3.9801070319036467"><ele>210.0</ele><time>2026-04-04T15:38:17Z</time></trkpt><trkpt lat="48.34177630748915" lon="-3.980157532979548"><ele>210.0</ele><time>2026-04-04T15:38:20Z</time></trkpt><trkpt lat="48.34183696292891" lon="-3.980099303467878"><ele>210.0</ele><time>2026-04-04T15:38:23Z</time></trkpt><trkpt lat="48.34189079015829" lon="-3.980045726018863"><ele>210.0</ele><time>2026-04-04T15:38:26Z</time></trkpt><trkpt lat="48.34196624664636" lon="-3.9800077718682974"><ele>210.0</ele><time>2026-04-04T15:38:30Z</time></trkpt><trkpt lat="48.34203951169172" lon="-3.980041518641325"><ele>210.0</ele><time>2026-04-04T15:38:33.999Z</time></trkpt><trkpt lat="48.342127514185854" lon="-3.9800220094047516"><ele>210.0</ele><time>2026-04-04T15:38:37.999Z</time></trkpt><trkpt lat="48.342171058267795" lon="-3.9799162387609583"><ele>210.0</ele><time>2026-04-04T15:38:40.999Z</time></trkpt><trkpt lat="48.34222884999227" lon="-3.979854399953007"><ele>210.0</ele><time>2026-04-04T15:38:43.999Z</time></trkpt><trkpt lat="48.34229203067817" lon="-3.9798046847501176"><ele>210.0</ele><time>2026-04-04T15:38:46.999Z</time></trkpt><trkpt lat="48.342359132345635" lon="-3.9797655070309035"><ele>210.0</ele><time>2026-04-04T15:38:49.999Z</time></trkpt><trkpt lat="48.3424239387237" lon="-3.9797852366254993"><ele>208.57142857142858</ele><time>2026-04-04T15:38:58.999Z</time></trkpt><trkpt lat="48.34248860862556" lon="-3.979750488820193"><ele>207.14285714285714</ele><time>2026-04-04T15:39:02.999Z</time></trkpt><trkpt lat="48.342524542783494" lon="-3.9798321672484662"><ele>205.71428571428572</ele><time>2026-04-04T15:39:06.999Z</time></trkpt><trkpt lat="48.34253236796923" lon="-3.979953857361739"><ele>204.28571428571428</ele><time>2026-04-04T15:39:08.999Z</time></trkpt><trkpt lat="48.34251459761368" lon="-3.9800762618186827"><ele>202.85714285714286</ele><time>2026-04-04T15:39:11.999Z</time></trkpt><trkpt lat="48.34251255941553" lon="-3.9801819024432596"><ele>201.42857142857144</ele><time>2026-04-04T15:39:19.999Z</time></trkpt><trkpt lat="48.34246507688509" lon="-3.980260995234401"><ele>200.0</ele><time>2026-04-04T15:39:22.999Z</time></trkpt><trkpt lat="48.34238895070309" lon="-3.980328563244348"><ele>199.33333333333334</ele><time>2026-04-04T15:39:25.999Z</time></trkpt><trkpt lat="48.34240327681248" lon="-3.980432788360083"><ele>198.66666666666669</ele><time>2026-04-04T15:39:32.999Z</time></trkpt><trkpt lat="48.34235710758128" lon="-3.9805092249643916"><ele>198.0</ele><time>2026-04-04T15:39:35.999Z</time></trkpt><trkpt lat="48.342303993069144" lon="-3.980614396839411"><ele>197.33333333333331</ele><time>2026-04-04T15:39:38.999Z</time></trkpt><trkpt lat="48.34228806626612" lon="-3.980740066235802"><ele>196.66666666666666</ele><time>2026-04-04T15:39:41.999Z</time></trkpt><trkpt lat="48.342308808566" lon="-3.980864154702618"><ele>196.0</ele><time>2026-04-04T15:39:44.998Z</time></trkpt><trkpt lat="48.34230183325572" lon="-3.9809593171133946"><ele>196.0</ele><time>2026-04-04T15:39:54Z</time></trkpt><trkpt lat="48.34230557528246" lon="-3.980839312463732"><ele>196.0</ele><time>2026-04-04T15:40:23Z</time></trkpt><trkpt lat="48.34231416008032" lon="-3.9807342326552972"><ele>196.0</ele><time>2026-04-04T15:40:27Z</time></trkpt><trkpt lat="48.34236961730691" lon="-3.9806821250185114"><ele>196.0</ele><time>2026-04-04T15:40:30Z</time></trkpt><trkpt lat="48.342434936772165" lon="-3.9807071691379137"><ele>196.0</ele><time>2026-04-04T15:40:33Z</time></trkpt><trkpt lat="48.342432900271675" lon="-3.9808086574894865"><ele>196.0</ele><time>2026-04-04T15:40:38Z</time></trkpt><trkpt lat="48.34242098096749" lon="-3.980926811911934"><ele>196.0</ele><time>2026-04-04T15:40:40Z</time></trkpt><trkpt lat="48.34240524428569" lon="-3.981035442633123"><ele>195.42857142857142</ele><time>2026-04-04T15:40:42Z</time></trkpt><trkpt lat="48.342348807425616" lon="-3.9810853530673067"><ele>194.85714285714286</ele><time>2026-04-04T15:40:46.999Z</time></trkpt><trkpt lat="48.3423288245191" lon="-3.9811841337829326"><ele>194.28571428571428</ele><time>2026-04-04T15:42:22Z</time></trkpt><trkpt lat="48.34235747682333" lon="-3.9812762015782983"><ele>193.71428571428572</ele><time>2026-04-04T15:42:33Z</time></trkpt><trkpt lat="48.342329114936874" lon="-3.9813755798355204"><ele>193.14285714285714</ele><time>2026-04-04T15:42:39Z</time></trkpt><trkpt lat="48.34228910629043" lon="-3.9814777909719976"><ele>192.57142857142856</ele><time>2026-04-04T15:42:42Z</time></trkpt><trkpt lat="48.34226223283296" lon="-3.9815792991482946"><ele>192.0</ele><time>2026-04-04T15:42:43.999Z</time></trkpt><trkpt lat="48.34231137321631" lon="-3.981650914172506"><ele>191.0</ele><time>2026-04-04T15:42:45.999Z</time></trkpt><trkpt lat="48.34232803945042" lon="-3.98177003815456"><ele>190.0</ele><time>2026-04-04T15:42:48.999Z</time></trkpt><trkpt lat="48.34233447461032" lon="-3.981916289094334"><ele>189.0</ele><time>2026-04-04T15:42:50.999Z</time></trkpt><trkpt lat="48.342328091933" lon="-3.982057117268281"><ele>188.0</ele><time>2026-04-04T15:42:52.999Z</time></trkpt><trkpt lat="48.34230630482003" lon="-3.982182047504071"><ele>187.0</ele><time>2026-04-04T15:42:55.999Z</time></trkpt><trkpt lat="48.34226825063437" lon="-3.9822988677067737"><ele>186.0</ele><time>2026-04-04T15:42:57.999Z</time></trkpt><trkpt lat="48.34226180612974" lon="-3.9824030349086446"><ele>186.0</ele><time>2026-04-04T15:43:03.999Z</time></trkpt><trkpt lat="48.34232034936232" lon="-3.98248059183753"><ele>186.0</ele><time>2026-04-04T15:43:07.999Z</time></trkpt><trkpt lat="48.34233840445618" lon="-3.982583783087827"><ele>186.0</ele><time>2026-04-04T15:43:19.999Z</time></trkpt><trkpt lat="48.34234255134128" lon="-3.9827359561725744"><ele>186.0</ele><time>2026-04-04T15:43:21.999Z</time></trkpt><trkpt lat="48.34238836898367" lon="-3.9828660186041422"><ele>186.0</ele><time>2026-04-04T15:43:23.999Z</time></trkpt><trkpt lat="48.34244196520881" lon="-3.9829806132988472"><ele>186.0</ele><time>2026-04-04T15:43:26.999Z</time></trkpt><trkpt lat="48.342514657596666" lon="-3.9830591319943496"><ele>186.33333333333334</ele><time>2026-04-04T15:43:28.999Z</time></trkpt><trkpt lat="48.342582092961536" lon="-3.9831584701827993"><ele>186.66666666666666</ele><time>2026-04-04T15:43:30.999Z</time></trkpt><trkpt lat="48.34259052612102" lon="-3.9832686210444455"><ele>187.0</ele><time>2026-04-04T15:43:32.999Z</time></trkpt><trkpt lat="48.342584525731105" lon="-3.9833806106532688"><ele>187.33333333333331</ele><time>2026-04-04T15:43:34.999Z</time></trkpt><trkpt lat="48.34258511787279" lon="-3.983509706650532"><ele>187.66666666666666</ele><time>2026-04-04T15:43:36.999Z</time></trkpt><trkpt lat="48.34258660156984" lon="-3.9836248099485285"><ele>188.0</ele><time>2026-04-04T15:43:40.999Z</time></trkpt><trkpt lat="48.342543130389316" lon="-3.9837215507251984"><ele>188.28571428571428</ele><time>2026-04-04T15:43:43.999Z</time></trkpt><trkpt lat="48.34251464498929" lon="-3.9838504043184066"><ele>188.57142857142856</ele><time>2026-04-04T15:43:59.998Z</time></trkpt><trkpt lat="48.342518506536265" lon="-3.9839511257251106"><ele>188.85714285714286</ele><time>2026-04-04T15:44:03Z</time></trkpt><trkpt lat="48.342470028783495" lon="-3.9840160077793967"><ele>189.14285714285714</ele><time>2026-04-04T15:44:07Z</time></trkpt><trkpt lat="48.342395147017335" lon="-3.9840601822545514"><ele>189.42857142857144</ele><time>2026-04-04T15:46:11Z</time></trkpt><trkpt lat="48.34234762985992" lon="-3.984156752654045"><ele>189.71428571428572</ele><time>2026-04-04T15:46:13Z</time></trkpt><trkpt lat="48.34234369302818" lon="-3.984253042675381"><ele>190.0</ele><time>2026-04-04T15:46:15Z</time></trkpt><trkpt lat="48.3423848951587" lon="-3.9843371128123857"><ele>190.66666666666669</ele><time>2026-04-04T15:46:17Z</time></trkpt><trkpt lat="48.34243635842418" lon="-3.9844524916252384"><ele>191.33333333333334</ele><time>2026-04-04T15:46:19Z</time></trkpt><trkpt lat="48.342506854008434" lon="-3.98453404268097"><ele>192.0</ele><time>2026-04-04T15:46:21Z</time></trkpt><trkpt lat="48.34258131931371" lon="-3.984611061651931"><ele>192.66666666666669</ele><time>2026-04-04T15:46:23Z</time></trkpt><trkpt lat="48.34266962800906" lon="-3.984657689821894"><ele>193.33333333333334</ele><time>2026-04-04T15:46:25Z</time></trkpt><trkpt lat="48.34272947475587" lon="-3.984625287987585"><ele>194.0</ele><time>2026-04-04T15:46:27Z</time></trkpt><trkpt lat="48.34277896638684" lon="-3.98469647934018"><ele>194.0</ele><time>2026-04-04T15:46:29Z</time></trkpt><trkpt lat="48.34282162877273" lon="-3.9847740351541066"><ele>194.0</ele><time>2026-04-04T15:46:30Z</time></trkpt><trkpt lat="48.34286451758898" lon="-3.984857285979098"><ele>194.0</ele><time>2026-04-04T15:46:31Z</time></trkpt><trkpt lat="48.342897275834225" lon="-3.9849435533303206"><ele>194.0</ele><time>2026-04-04T15:46:33Z</time></trkpt><trkpt lat="48.34293231162592" lon="-3.985052395756653"><ele>194.0</ele><time>2026-04-04T15:46:35Z</time></trkpt><trkpt lat="48.34297068944546" lon="-3.9851562588424048"><ele>194.0</ele><time>2026-04-04T15:46:37Z</time></trkpt><trkpt lat="48.34301153588461" lon="-3.985235957168592"><ele>194.0</ele><time>2026-04-04T15:46:38Z</time></trkpt><trkpt lat="48.34305190351219" lon="-3.9853871263396052"><ele>192.00000000000003</ele><time>2026-04-04T15:46:40Z</time></trkpt><trkpt lat="48.34310327940363" lon="-3.985487303936204"><ele>190.0</ele><time>2026-04-04T15:46:42Z</time></trkpt><trkpt lat="48.34311488959645" lon="-3.985584845337835"><ele>188.0</ele><time>2026-04-04T15:46:44Z</time></trkpt><trkpt lat="48.34319483774017" lon="-3.9856277735966863"><ele>186.0</ele><time>2026-04-04T15:46:47Z</time></trkpt><trkpt lat="48.34328768783279" lon="-3.9856471405713565"><ele>184.0</ele><time>2026-04-04T15:47:21.999Z</time></trkpt><trkpt lat="48.34336905430001" lon="-3.9856743449454757"><ele>182.0</ele><time>2026-04-04T15:47:33.999Z</time></trkpt><trkpt lat="48.34344652508218" lon="-3.9857457206659657"><ele>182.0</ele><time>2026-04-04T15:47:35.999Z</time></trkpt><trkpt lat="48.34354026437613" lon="-3.985828358128598"><ele>182.0</ele><time>2026-04-04T15:47:37.999Z</time></trkpt><trkpt lat="48.34358950947725" lon="-3.985890461024834"><ele>182.0</ele><time>2026-04-04T15:47:39.999Z</time></trkpt><trkpt lat="48.34367271006973" lon="-3.9859020839006054"><ele>182.0</ele><time>2026-04-04T15:47:48.999Z</time></trkpt><trkpt lat="48.34373109218266" lon="-3.9859488670007672"><ele>182.0</ele><time>2026-04-04T15:47:50.999Z</time></trkpt><trkpt lat="48.343801705853714" lon="-3.9859476386017363"><ele>182.0</ele><time>2026-04-04T15:47:52.999Z</time></trkpt><trkpt lat="48.34386841388876" lon="-3.9859908367451413"><ele>182.0</ele><time>2026-04-04T15:47:53.999Z</time></trkpt><trkpt lat="48.34387569346635" lon="-3.986087679728462"><ele>182.0</ele><time>2026-04-04T15:47:56.999Z</time></trkpt><trkpt lat="48.34391314707132" lon="-3.9861726335937493"><ele>182.0</ele><time>2026-04-04T15:47:59.999Z</time></trkpt><trkpt lat="48.343975710464996" lon="-3.9862752716190886"><ele>182.0</ele><time>2026-04-04T15:48:01.999Z</time></trkpt><trkpt lat="48.34402427460295" lon="-3.986370844808487"><ele>182.0</ele><time>2026-04-04T15:48:03.999Z</time></trkpt><trkpt lat="48.34409673709187" lon="-3.986404760638924"><ele>182.0</ele><time>2026-04-04T15:48:07.998Z</time></trkpt><trkpt lat="48.34414730575535" lon="-3.9865155182651755"><ele>181.14285714285714</ele><time>2026-04-04T15:48:10.998Z</time></trkpt><trkpt lat="48.34421625333513" lon="-3.9865816542562973"><ele>180.28571428571428</ele><time>2026-04-04T15:48:14Z</time></trkpt><trkpt lat="48.344309909633466" lon="-3.986591577336369"><ele>179.42857142857144</ele><time>2026-04-04T15:48:17Z</time></trkpt><trkpt lat="48.34437973176107" lon="-3.986613465537442"><ele>178.57142857142856</ele><time>2026-04-04T15:48:21Z</time></trkpt><trkpt lat="48.34444284534953" lon="-3.9866356140967714"><ele>177.71428571428572</ele><time>2026-04-04T15:48:27Z</time></trkpt><trkpt lat="48.34450227665807" lon="-3.9866848540859827"><ele>176.85714285714286</ele><time>2026-04-04T15:48:42Z</time></trkpt><trkpt lat="48.34454239684122" lon="-3.9867580141211025"><ele>176.0</ele><time>2026-04-04T15:49:04.999Z</time></trkpt><trkpt lat="48.344603907562636" lon="-3.9867990143552676"><ele>175.83333333333331</ele><time>2026-04-04T15:49:08.999Z</time></trkpt><trkpt lat="48.34466956094629" lon="-3.986757030222701"><ele>175.66666666666666</ele><time>2026-04-04T15:54:09.999Z</time></trkpt><trkpt lat="48.34472645097345" lon="-3.986711823613863"><ele>175.5</ele><time>2026-04-04T15:54:12.999Z</time></trkpt><trkpt lat="48.34480398173959" lon="-3.986701779352497"><ele>175.33333333333334</ele><time>2026-04-04T15:54:16.999Z</time></trkpt><trkpt lat="48.34487675149813" lon="-3.9866935463794975"><ele>175.16666666666669</ele><time>2026-04-04T15:54:18.999Z</time></trkpt><trkpt lat="48.344947275101816" lon="-3.986646884163267"><ele>175.0</ele><time>2026-04-04T15:54:20.999Z</time></trkpt><trkpt lat="48.34503439719132" lon="-3.986633287733753"><ele>176.33333333333334</ele><time>2026-04-04T15:54:21.999Z</time></trkpt><trkpt lat="48.34509085995528" lon="-3.9865842277264987"><ele>177.66666666666669</ele><time>2026-04-04T15:54:23.999Z</time></trkpt><trkpt lat="48.345214816006084" lon="-3.9864993222417575"><ele>179.0</ele><time>2026-04-04T15:54:26.999Z</time></trkpt><trkpt lat="48.34528554195468" lon="-3.9865280174429167"><ele>180.33333333333334</ele><time>2026-04-04T15:54:29.998Z</time></trkpt><trkpt lat="48.34536732556343" lon="-3.9864927115575206"><ele>181.66666666666666</ele><time>2026-04-04T15:54:36Z</time></trkpt><trkpt lat="48.3454358210752" lon="-3.9864991551622584"><ele>183.0</ele><time>2026-04-04T15:54:40Z</time></trkpt><trkpt lat="48.34550632348373" lon="-3.986485231389534"><ele>184.83333333333334</ele><time>2026-04-04T15:54:43Z</time></trkpt><trkpt lat="48.34559179876676" lon="-3.986489931655744"><ele>186.66666666666669</ele><time>2026-04-04T15:54:45Z</time></trkpt><trkpt lat="48.34565493001152" lon="-3.9864466181533733"><ele>188.5</ele><time>2026-04-04T15:54:49Z</time></trkpt><trkpt lat="48.345769226092514" lon="-3.986416342083589"><ele>190.33333333333334</ele><time>2026-04-04T15:54:51Z</time></trkpt><trkpt lat="48.34584320214056" lon="-3.9864286208543835"><ele>192.16666666666669</ele><time>2026-04-04T15:54:53Z</time></trkpt><trkpt lat="48.34592729032464" lon="-3.9864742658829737"><ele>194.0</ele><time>2026-04-04T15:54:56Z</time></trkpt><trkpt lat="48.34599037587327" lon="-3.986397622916188"><ele>194.00000000000003</ele><time>2026-04-04T15:54:59Z</time></trkpt><trkpt lat="48.34607639918612" lon="-3.9863701609774083"><ele>194.0</ele><time>2026-04-04T15:55:02Z</time></trkpt><trkpt lat="48.34616924360039" lon="-3.9863656713044344"><ele>194.0</ele><time>2026-04-04T15:55:19.999Z</time></trkpt><trkpt lat="48.346235162254125" lon="-3.9863925141781533"><ele>194.0</ele><time>2026-04-04T15:55:22.999Z</time></trkpt><trkpt lat="48.346229542032596" lon="-3.9865074583837354"><ele>194.00000000000003</ele><time>2026-04-04T15:55:27.999Z</time></trkpt><trkpt lat="48.34629468156574" lon="-3.986521164366452"><ele>194.0</ele><time>2026-04-04T15:55:30.999Z</time></trkpt><trkpt lat="48.34631758311644" lon="-3.9866229075586723"><ele>193.33333333333334</ele><time>2026-04-04T15:55:34.999Z</time></trkpt><trkpt lat="48.346360542330494" lon="-3.9867222928285946"><ele>192.66666666666669</ele><time>2026-04-04T15:55:37.999Z</time></trkpt><trkpt lat="48.34634460847822" lon="-3.9868829098248697"><ele>192.0</ele><time>2026-04-04T15:55:41.999Z</time></trkpt><trkpt lat="48.34627855245809" lon="-3.9869321551410697"><ele>191.33333333333334</ele><time>2026-04-04T15:55:46.999Z</time></trkpt><trkpt lat="48.346264368985246" lon="-3.9870403288718737"><ele>190.66666666666669</ele><time>2026-04-04T15:55:50.999Z</time></trkpt><trkpt lat="48.34630426697519" lon="-3.9871152236706875"><ele>190.0</ele><time>2026-04-04T15:55:52.999Z</time></trkpt><trkpt lat="48.34628663649617" lon="-3.9872122654100326"><ele>190.0</ele><time>2026-04-04T15:55:58.999Z</time></trkpt><trkpt lat="48.34628140868575" lon="-3.9873219875244144"><ele>190.0</ele><time>2026-04-04T15:56:05.999Z</time></trkpt><trkpt lat="48.346338506599984" lon="-3.9873896970537457"><ele>190.0</ele><time>2026-04-04T15:56:46Z</time></trkpt><trkpt lat="48.346430297894216" lon="-3.9874200725489226"><ele>190.0</ele><time>2026-04-04T15:56:48Z</time></trkpt><trkpt lat="48.34649752938774" lon="-3.987403576298614"><ele>190.0</ele><time>2026-04-04T15:56:50Z</time></trkpt><trkpt lat="48.346564438668615" lon="-3.9873444569595167"><ele>190.0</ele><time>2026-04-04T15:56:52Z</time></trkpt><trkpt lat="48.34665508583777" lon="-3.9873052342402358"><ele>190.16666666666669</ele><time>2026-04-04T15:56:54Z</time></trkpt><trkpt lat="48.346737520178564" lon="-3.9872857045798336"><ele>190.33333333333334</ele><time>2026-04-04T15:56:55Z</time></trkpt><trkpt lat="48.34684842511342" lon="-3.987206243277134"><ele>190.5</ele><time>2026-04-04T15:56:57Z</time></trkpt><trkpt lat="48.34690872537555" lon="-3.9871459757168535"><ele>190.66666666666666</ele><time>2026-04-04T15:57:00Z</time></trkpt><trkpt lat="48.34694820199402" lon="-3.98705009103824"><ele>190.83333333333331</ele><time>2026-04-04T15:57:02Z</time></trkpt><trkpt lat="48.34697984121877" lon="-3.98695677019226"><ele>191.0</ele><time>2026-04-04T15:57:04Z</time></trkpt><trkpt lat="48.347095118189245" lon="-3.9869214593276157"><ele>191.0</ele><time>2026-04-04T15:57:06Z</time></trkpt><trkpt lat="48.347198296745724" lon="-3.986898430453189"><ele>191.0</ele><time>2026-04-04T15:57:07Z</time></trkpt><trkpt lat="48.34730667649234" lon="-3.9868645579143283"><ele>191.0</ele><time>2026-04-04T15:57:08Z</time></trkpt><trkpt lat="48.34742746597514" lon="-3.9868313912603046"><ele>191.0</ele><time>2026-04-04T15:57:09Z</time></trkpt><trkpt lat="48.34755850988553" lon="-3.9867788444308534"><ele>193.66666666666666</ele><time>2026-04-04T15:57:10Z</time></trkpt><trkpt lat="48.34769936872579" lon="-3.986728474405593"><ele>196.33333333333331</ele><time>2026-04-04T15:57:11Z</time></trkpt><trkpt lat="48.34785638518804" lon="-3.9866833373908426"><ele>199.0</ele><time>2026-04-04T15:57:12Z</time></trkpt><trkpt lat="48.34801387273979" lon="-3.986645180035822"><ele>201.79999999999998</ele><time>2026-04-04T15:57:13Z</time></trkpt><trkpt lat="48.34813123749521" lon="-3.9866120013555055"><ele>204.6</ele><time>2026-04-04T15:57:14Z</time></trkpt><trkpt lat="48.34822354400612" lon="-3.98658003647135"><ele>207.4</ele><time>2026-04-04T15:57:15Z</time></trkpt><trkpt lat="48.348303875494246" lon="-3.986551982443102"><ele>210.2</ele><time>2026-04-04T15:57:16Z</time></trkpt><trkpt lat="48.34840413834319" lon="-3.9865142174437493"><ele>213.0</ele><time>2026-04-04T15:57:18Z</time></trkpt><trkpt lat="48.348449633818376" lon="-3.9864426748202284"><ele>213.0</ele><time>2026-04-04T15:57:24Z</time></trkpt><trkpt lat="48.3483581514786" lon="-3.9865477066529684"><ele>213.0</ele><time>2026-04-04T15:57:27Z</time></trkpt><trkpt lat="48.34822755456819" lon="-3.986567251686504"><ele>213.0</ele><time>2026-04-04T15:57:28Z</time></trkpt><trkpt lat="48.348129978700776" lon="-3.986595537399257"><ele>213.0</ele><time>2026-04-04T15:57:29Z</time></trkpt><trkpt lat="48.348023053641576" lon="-3.986623645060248"><ele>210.25</ele><time>2026-04-04T15:57:29.999Z</time></trkpt><trkpt lat="48.34788520591049" lon="-3.9866671187910034"><ele>207.5</ele><time>2026-04-04T15:57:30.999Z</time></trkpt><trkpt lat="48.34774822338962" lon="-3.986707512554116"><ele>204.75</ele><time>2026-04-04T15:57:31.999Z</time></trkpt><trkpt lat="48.3476523162457" lon="-3.986736278310227"><ele>202.0</ele><time>2026-04-04T15:57:32.999Z</time></trkpt><trkpt lat="48.34757089614286" lon="-3.9867611079672605"><ele>201.39999999999998</ele><time>2026-04-04T15:57:33.999Z</time></trkpt><trkpt lat="48.347478504027144" lon="-3.986796824167947"><ele>200.79999999999998</ele><time>2026-04-04T15:57:34.999Z</time></trkpt><trkpt lat="48.34738480485162" lon="-3.986812762621654"><ele>200.2</ele><time>2026-04-04T15:57:35.999Z</time></trkpt><trkpt lat="48.34721727608993" lon="-3.986860549531579"><ele>199.6</ele><time>2026-04-04T15:57:37.999Z</time></trkpt><trkpt lat="48.34713591216074" lon="-3.9868914140026273"><ele>199.0</ele><time>2026-04-04T15:57:38.999Z</time></trkpt><trkpt lat="48.34700978269719" lon="-3.9869337399279248"><ele>197.66666666666666</ele><time>2026-04-04T15:57:40.999Z</time></trkpt><trkpt lat="48.34694833542829" lon="-3.986995845299193"><ele>196.33333333333331</ele><time>2026-04-04T15:57:44.999Z</time></trkpt><trkpt lat="48.34690314838503" lon="-3.9871109655647823"><ele>195.0</ele><time>2026-04-04T15:58:31.999Z</time></trkpt><trkpt lat="48.34685374506107" lon="-3.987177420155517"><ele>193.66666666666666</ele><time>2026-04-04T15:58:32.999Z</time></trkpt><trkpt lat="48.34677122378922" lon="-3.9872123569714835"><ele>192.33333333333331</ele><time>2026-04-04T15:58:33.999Z</time></trkpt><trkpt lat="48.346659364457494" lon="-3.9872460806188474"><ele>191.0</ele><time>2026-04-04T15:58:34.999Z</time></trkpt><trkpt lat="48.346564556951506" lon="-3.9872687485737597"><ele>191.0</ele><time>2026-04-04T15:58:35.999Z</time></trkpt><trkpt lat="48.346484519308895" lon="-3.9872989238577494"><ele>191.0</ele><time>2026-04-04T15:58:36.999Z</time></trkpt><trkpt lat="48.34639694792227" lon="-3.98732186091546"><ele>191.0</ele><time>2026-04-04T15:58:37.999Z</time></trkpt><trkpt lat="48.34632745282198" lon="-3.9873372605408637"><ele>191.0</ele><time>2026-04-04T15:58:38.999Z</time></trkpt><trkpt lat="48.34628862043381" lon="-3.9874354796450238"><ele>191.0</ele><time>2026-04-04T15:58:47Z</time></trkpt><trkpt lat="48.3463017540241" lon="-3.987570865489811"><ele>191.0</ele><time>2026-04-04T15:58:49Z</time></trkpt><trkpt lat="48.34636237950311" lon="-3.9877239871327235"><ele>190.83333333333331</ele><time>2026-04-04T15:58:51Z</time></trkpt><trkpt lat="48.346413485483346" lon="-3.987877141865823"><ele>190.66666666666666</ele><time>2026-04-04T15:58:53Z</time></trkpt><trkpt lat="48.34646976696416" lon="-3.987971256947741"><ele>190.5</ele><time>2026-04-04T15:58:55Z</time></trkpt><trkpt lat="48.346513286668106" lon="-3.988090481100596"><ele>190.33333333333334</ele><time>2026-04-04T15:58:58Z</time></trkpt><trkpt lat="48.34653041167565" lon="-3.988182833172428"><ele>190.16666666666669</ele><time>2026-04-04T15:59:02Z</time></trkpt><trkpt lat="48.34645607937606" lon="-3.988224699422108"><ele>190.0</ele><time>2026-04-04T15:59:05Z</time></trkpt><trkpt lat="48.34645927494757" lon="-3.9881114940406186"><ele>190.0</ele><time>2026-04-04T15:59:14Z</time></trkpt><trkpt lat="48.34651310111186" lon="-3.9880059579644085"><ele>190.0</ele><time>2026-04-04T15:59:17Z</time></trkpt><trkpt lat="48.346462345132394" lon="-3.9879254491077276"><ele>190.0</ele><time>2026-04-04T15:59:19Z</time></trkpt><trkpt lat="48.34640833961383" lon="-3.9877990906276386"><ele>190.0</ele><time>2026-04-04T15:59:22Z</time></trkpt><trkpt lat="48.34636723598778" lon="-3.987688803324194"><ele>190.0</ele><time>2026-04-04T15:59:24Z</time></trkpt><trkpt lat="48.34633810624865" lon="-3.9875996388713175"><ele>190.0</ele><time>2026-04-04T15:59:26Z</time></trkpt><trkpt lat="48.34632241501478" lon="-3.987493784738714"><ele>190.0</ele><time>2026-04-04T15:59:32.999Z</time></trkpt><trkpt lat="48.34630188337213" lon="-3.98738102425115"><ele>190.0</ele><time>2026-04-04T15:59:35.999Z</time></trkpt><trkpt lat="48.34631671996397" lon="-3.987481054262305"><ele>190.0</ele><time>2026-04-04T15:59:56.999Z</time></trkpt><trkpt lat="48.34632996139525" lon="-3.987576348109474"><ele>190.0</ele><time>2026-04-04T15:59:59.999Z</time></trkpt><trkpt lat="48.346358598658824" lon="-3.9876922691549836"><ele>190.0</ele><time>2026-04-04T16:00:09.999Z</time></trkpt><trkpt lat="48.34639789727052" lon="-3.987801651548792"><ele>190.0</ele><time>2026-04-04T16:00:11.999Z</time></trkpt><trkpt lat="48.3464411422998" lon="-3.987889868019463"><ele>190.0</ele><time>2026-04-04T16:00:14.999Z</time></trkpt><trkpt lat="48.34650091775739" lon="-3.987981936518893"><ele>190.0</ele><time>2026-04-04T16:00:17.999Z</time></trkpt><trkpt lat="48.34655165524432" lon="-3.9880805229720417"><ele>190.0</ele><time>2026-04-04T16:00:20.999Z</time></trkpt><trkpt lat="48.346626417603495" lon="-3.9881177254267497"><ele>190.0</ele><time>2026-04-04T16:00:23.999Z</time></trkpt><trkpt lat="48.34670489262511" lon="-3.988103814572406"><ele>190.0</ele><time>2026-04-04T16:00:25.999Z</time></trkpt><trkpt lat="48.346810237531486" lon="-3.9880782518921"><ele>190.0</ele><time>2026-04-04T16:00:27.999Z</time></trkpt><trkpt lat="48.34687520120256" lon="-3.988050362841878"><ele>190.0</ele><time>2026-04-04T16:00:29.999Z</time></trkpt><trkpt lat="48.34694236736847" lon="-3.9880540998082794"><ele>190.0</ele><time>2026-04-04T16:00:31.999Z</time></trkpt><trkpt lat="48.34699447505955" lon="-3.9879931388196432"><ele>190.0</ele><time>2026-04-04T16:00:34.999Z</time></trkpt><trkpt lat="48.346977111723035" lon="-3.987882547675172"><ele>190.0</ele><time>2026-04-04T16:00:37.999Z</time></trkpt><trkpt lat="48.34696760569197" lon="-3.9877588198947227"><ele>190.0</ele><time>2026-04-04T16:00:40.999Z</time></trkpt><trkpt lat="48.3469738732136" lon="-3.987656313813202"><ele>190.0</ele><time>2026-04-04T16:00:42.998Z</time></trkpt><trkpt lat="48.346953991635345" lon="-3.9875650452875795"><ele>190.0</ele><time>2026-04-04T16:00:44.998Z</time></trkpt><trkpt lat="48.34694307580498" lon="-3.9874672993619624"><ele>190.0</ele><time>2026-04-04T16:00:46.998Z</time></trkpt><trkpt lat="48.346922708260735" lon="-3.987363561500651"><ele>190.2</ele><time>2026-04-04T16:00:48.998Z</time></trkpt><trkpt lat="48.34687398462994" lon="-3.98729638282428"><ele>190.4</ele><time>2026-04-04T16:00:51Z</time></trkpt><trkpt lat="48.34681010818115" lon="-3.9872494551661757"><ele>190.60000000000002</ele><time>2026-04-04T16:00:53Z</time></trkpt><trkpt lat="48.34670991008928" lon="-3.987230530757022"><ele>190.8</ele><time>2026-04-04T16:00:55Z</time></trkpt><trkpt lat="48.34664958110804" lon="-3.9872651254453415"><ele>191.0</ele><time>2026-04-04T16:00:57Z</time></trkpt><trkpt lat="48.34644858738771" lon="-3.9872981654968362"><ele>191.0</ele><time>2026-04-04T16:00:58Z</time></trkpt><trkpt lat="48.34638460887417" lon="-3.987318943434601"><ele>191.0</ele><time>2026-04-04T16:00:59Z</time></trkpt><trkpt lat="48.34630046351909" lon="-3.987352223515386"><ele>191.0</ele><time>2026-04-04T16:01:01Z</time></trkpt><trkpt lat="48.34628444174968" lon="-3.987477170696688"><ele>191.0</ele><time>2026-04-04T16:01:31Z</time></trkpt><trkpt lat="48.34632061033365" lon="-3.9875731968749464"><ele>191.0</ele><time>2026-04-04T16:01:33Z</time></trkpt><trkpt lat="48.34635459187279" lon="-3.987656004723172"><ele>191.0</ele><time>2026-04-04T16:02:41.999Z</time></trkpt><trkpt lat="48.34641454009181" lon="-3.9876019696968354"><ele>191.0</ele><time>2026-04-04T16:02:45.999Z</time></trkpt><trkpt lat="48.346494571730574" lon="-3.9875263509300005"><ele>191.0</ele><time>2026-04-04T16:02:47.998Z</time></trkpt><trkpt lat="48.346559816074716" lon="-3.9874326967363065"><ele>191.0</ele><time>2026-04-04T16:02:49.998Z</time></trkpt><trkpt lat="48.346613647855115" lon="-3.9873720826558015"><ele>191.0</ele><time>2026-04-04T16:02:50.998Z</time></trkpt><trkpt lat="48.34666907905597" lon="-3.9873145738732685"><ele>191.0</ele><time>2026-04-04T16:02:51.998Z</time></trkpt><trkpt lat="48.34672350611523" lon="-3.9872641927337726"><ele>191.0</ele><time>2026-04-04T16:02:52.998Z</time></trkpt><trkpt lat="48.346791014400864" lon="-3.98721289346777"><ele>191.0</ele><time>2026-04-04T16:02:53.998Z</time></trkpt><trkpt lat="48.34689282348327" lon="-3.98713859687031"><ele>191.0</ele><time>2026-04-04T16:02:54.998Z</time></trkpt><trkpt lat="48.34695554896526" lon="-3.987101200608668"><ele>191.0</ele><time>2026-04-04T16:02:56Z</time></trkpt><trkpt lat="48.346979254985136" lon="-3.987285177995721"><ele>191.0</ele><time>2026-04-04T16:03:10Z</time></trkpt><trkpt lat="48.346992954298855" lon="-3.9874022994805833"><ele>191.0</ele><time>2026-04-04T16:03:11Z</time></trkpt><trkpt lat="48.34700224309379" lon="-3.9875028046233876"><ele>191.0</ele><time>2026-04-04T16:03:12Z</time></trkpt><trkpt lat="48.34703469297138" lon="-3.9876946112248817"><ele>190.83333333333331</ele><time>2026-04-04T16:03:14Z</time></trkpt><trkpt lat="48.347039160168976" lon="-3.9877980320182425"><ele>190.66666666666666</ele><time>2026-04-04T16:03:15Z</time></trkpt><trkpt lat="48.34705393634862" lon="-3.9879017256552296"><ele>190.5</ele><time>2026-04-04T16:03:16Z</time></trkpt><trkpt lat="48.34707053248261" lon="-3.988018959297589"><ele>190.33333333333334</ele><time>2026-04-04T16:03:17Z</time></trkpt><trkpt lat="48.34707771792996" lon="-3.9881370243370373"><ele>190.16666666666669</ele><time>2026-04-04T16:03:18Z</time></trkpt><trkpt lat="48.34709009229723" lon="-3.9882745887056967"><ele>190.0</ele><time>2026-04-04T16:03:19Z</time></trkpt><trkpt lat="48.34710718427095" lon="-3.9883988188206883"><ele>190.0</ele><time>2026-04-04T16:03:20Z</time></trkpt><trkpt lat="48.34712184220128" lon="-3.9885154262616354"><ele>190.0</ele><time>2026-04-04T16:03:21Z</time></trkpt><trkpt lat="48.34711023093347" lon="-3.9886171620122526"><ele>190.0</ele><time>2026-04-04T16:03:22Z</time></trkpt><trkpt lat="48.347110269706945" lon="-3.9887360698136693"><ele>190.0</ele><time>2026-04-04T16:03:23Z</time></trkpt><trkpt lat="48.34712108696013" lon="-3.9888402810794914"><ele>190.0</ele><time>2026-04-04T16:03:24Z</time></trkpt><trkpt lat="48.34713233637523" lon="-3.9889591250952017"><ele>190.0</ele><time>2026-04-04T16:03:25Z</time></trkpt><trkpt lat="48.347147548522635" lon="-3.9890739854550343"><ele>189.2</ele><time>2026-04-04T16:03:26Z</time></trkpt><trkpt lat="48.34716036322867" lon="-3.989191157505919"><ele>188.4</ele><time>2026-04-04T16:03:27Z</time></trkpt><trkpt lat="48.347182962173854" lon="-3.9893182846447934"><ele>187.60000000000002</ele><time>2026-04-04T16:03:28Z</time></trkpt><trkpt lat="48.34720086715942" lon="-3.98944819939243"><ele>186.8</ele><time>2026-04-04T16:03:29Z</time></trkpt><trkpt lat="48.3472170084002" lon="-3.9896169935872687"><ele>186.0</ele><time>2026-04-04T16:03:30Z</time></trkpt><trkpt lat="48.347244041821924" lon="-3.989799159654694"><ele>187.25</ele><time>2026-04-04T16:03:31Z</time></trkpt><trkpt lat="48.34726417498603" lon="-3.98996393040643"><ele>188.5</ele><time>2026-04-04T16:03:32Z</time></trkpt><trkpt lat="48.347317072193285" lon="-3.9901128555131677"><ele>189.75</ele><time>2026-04-04T16:03:33Z</time></trkpt><trkpt lat="48.34737308789371" lon="-3.9902876232875952"><ele>191.0</ele><time>2026-04-04T16:03:34Z</time></trkpt><trkpt lat="48.34742171322945" lon="-3.99048056574543"><ele>191.0</ele><time>2026-04-04T16:03:35Z</time></trkpt><trkpt lat="48.34745073629316" lon="-3.990692406388325"><ele>191.0</ele><time>2026-04-04T16:03:36Z</time></trkpt><trkpt lat="48.3474522778516" lon="-3.9908716814385947"><ele>191.0</ele><time>2026-04-04T16:03:37Z</time></trkpt><trkpt lat="48.34750429975941" lon="-3.990993730936694"><ele>191.0</ele><time>2026-04-04T16:03:38Z</time></trkpt><trkpt lat="48.3475020967299" lon="-3.991148903034518"><ele>190.66666666666666</ele><time>2026-04-04T16:03:39Z</time></trkpt><trkpt lat="48.34752046448877" lon="-3.9912810764124833"><ele>190.33333333333331</ele><time>2026-04-04T16:03:40Z</time></trkpt><trkpt lat="48.347534614686815" lon="-3.9913952940356343"><ele>190.0</ele><time>2026-04-04T16:03:41Z</time></trkpt><trkpt lat="48.34755215040332" lon="-3.9915333462755687"><ele>189.66666666666666</ele><time>2026-04-04T16:03:42Z</time></trkpt><trkpt lat="48.347570725075585" lon="-3.9916521146371347"><ele>189.33333333333334</ele><time>2026-04-04T16:03:42.999Z</time></trkpt><trkpt lat="48.3475913526057" lon="-3.991773735638721"><ele>189.0</ele><time>2026-04-04T16:03:44.999Z</time></trkpt><trkpt lat="48.3475087700465" lon="-3.991850159234721"><ele>187.83333333333334</ele><time>2026-04-04T16:03:47.999Z</time></trkpt><trkpt lat="48.34745058505107" lon="-3.9918895908368213"><ele>186.66666666666666</ele><time>2026-04-04T16:03:48.999Z</time></trkpt><trkpt lat="48.347357718518026" lon="-3.9919620718393998"><ele>185.5</ele><time>2026-04-04T16:03:50.999Z</time></trkpt><trkpt lat="48.34726417587064" lon="-3.9920425263250996"><ele>184.33333333333331</ele><time>2026-04-04T16:03:52.999Z</time></trkpt><trkpt lat="48.34720426087791" lon="-3.9921448620025166"><ele>183.16666666666666</ele><time>2026-04-04T16:03:54.999Z</time></trkpt><trkpt lat="48.347156686940586" lon="-3.992225292399703"><ele>182.0</ele><time>2026-04-04T16:03:58.999Z</time></trkpt><trkpt lat="48.34710817525918" lon="-3.9923544480673896"><ele>178.6</ele><time>2026-04-04T16:04:00.999Z</time></trkpt><trkpt lat="48.347047753937325" lon="-3.992530044186651"><ele>175.2</ele><time>2026-04-04T16:04:02.999Z</time></trkpt><trkpt lat="48.347026874816336" lon="-3.9926443200525905"><ele>171.8</ele><time>2026-04-04T16:04:03.999Z</time></trkpt><trkpt lat="48.346997807888386" lon="-3.9927385474428756"><ele>168.4</ele><time>2026-04-04T16:04:04.999Z</time></trkpt><trkpt lat="48.34698110722801" lon="-3.9928944263491744"><ele>165.0</ele><time>2026-04-04T16:04:06.999Z</time></trkpt><trkpt lat="48.34698794784488" lon="-3.9929937767102737"><ele>165.0</ele><time>2026-04-04T16:04:07.999Z</time></trkpt><trkpt lat="48.346997739940946" lon="-3.993089255967773"><ele>165.0</ele><time>2026-04-04T16:04:08.999Z</time></trkpt><trkpt lat="48.34712757961553" lon="-3.9931725394215256"><ele>165.0</ele><time>2026-04-04T16:04:10.999Z</time></trkpt><trkpt lat="48.3471899226494" lon="-3.9933243619225793"><ele>165.0</ele><time>2026-04-04T16:04:12.999Z</time></trkpt><trkpt lat="48.34725548209319" lon="-3.993484015048197"><ele>165.0</ele><time>2026-04-04T16:04:14.999Z</time></trkpt><trkpt lat="48.34731404384269" lon="-3.9936269556092814"><ele>165.6</ele><time>2026-04-04T16:04:16.999Z</time></trkpt><trkpt lat="48.34736035832714" lon="-3.9937391646859512"><ele>166.2</ele><time>2026-04-04T16:04:18.999Z</time></trkpt><trkpt lat="48.347398910334434" lon="-3.9938228685442847"><ele>166.8</ele><time>2026-04-04T16:04:20.999Z</time></trkpt><trkpt lat="48.34744414667327" lon="-3.993903082261405"><ele>167.4</ele><time>2026-04-04T16:04:23.999Z</time></trkpt><trkpt lat="48.34748568879711" lon="-3.9939744029689623"><ele>168.0</ele><time>2026-04-04T16:04:26.999Z</time></trkpt><trkpt lat="48.34735869438904" lon="-3.994142502988976"><ele>167.2</ele><time>2026-04-04T16:04:42.999Z</time></trkpt><trkpt lat="48.34739674478919" lon="-3.99422144015681"><ele>166.4</ele><time>2026-04-04T16:06:47.999Z</time></trkpt><trkpt lat="48.34744502515762" lon="-3.994300786602664"><ele>165.6</ele><time>2026-04-04T16:06:48.999Z</time></trkpt><trkpt lat="48.3475090366104" lon="-3.994412141862873"><ele>164.79999999999998</ele><time>2026-04-04T16:06:49.999Z</time></trkpt><trkpt lat="48.3475778917829" lon="-3.994540667324017"><ele>164.0</ele><time>2026-04-04T16:06:50.999Z</time></trkpt><trkpt lat="48.347645433835034" lon="-3.9946880664174427"><ele>164.0</ele><time>2026-04-04T16:06:51.999Z</time></trkpt><trkpt lat="48.347716757073606" lon="-3.994837452426527"><ele>164.0</ele><time>2026-04-04T16:06:52.999Z</time></trkpt><trkpt lat="48.347798966914965" lon="-3.9950020797021675"><ele>164.0</ele><time>2026-04-04T16:06:53.999Z</time></trkpt><trkpt lat="48.347950203086434" lon="-3.9951095647182795"><ele>164.0</ele><time>2026-04-04T16:06:54.999Z</time></trkpt><trkpt lat="48.34805146180032" lon="-3.995263942341468"><ele>165.33333333333331</ele><time>2026-04-04T16:06:55.999Z</time></trkpt><trkpt lat="48.348169822077395" lon="-3.9954332300118445"><ele>166.66666666666666</ele><time>2026-04-04T16:06:56.999Z</time></trkpt><trkpt lat="48.34828820782508" lon="-3.995589843141159"><ele>168.0</ele><time>2026-04-04T16:06:57.999Z</time></trkpt><trkpt lat="48.348407390360286" lon="-3.995736329479809"><ele>167.5</ele><time>2026-04-04T16:06:58.998Z</time></trkpt><trkpt lat="48.34851899464272" lon="-3.99586429106964"><ele>167.0</ele><time>2026-04-04T16:06:59.998Z</time></trkpt><trkpt lat="48.34861761394976" lon="-3.9959692630086074"><ele>166.5</ele><time>2026-04-04T16:07:00.998Z</time></trkpt><trkpt lat="48.34870791966209" lon="-3.996043049742977"><ele>166.0</ele><time>2026-04-04T16:07:01.998Z</time></trkpt><trkpt lat="48.34879177379198" lon="-3.996082036317548"><ele>166.0</ele><time>2026-04-04T16:07:02.998Z</time></trkpt><trkpt lat="48.348859634489386" lon="-3.996102453617731"><ele>166.0</ele><time>2026-04-04T16:07:03.998Z</time></trkpt><trkpt lat="48.34889653637503" lon="-3.996410914139292"><ele>166.0</ele><time>2026-04-04T16:07:05.998Z</time></trkpt><trkpt lat="48.34892971525598" lon="-3.9965631613263506"><ele>166.0</ele><time>2026-04-04T16:07:06.998Z</time></trkpt><trkpt lat="48.34895620752614" lon="-3.996687122120649"><ele>167.0</ele><time>2026-04-04T16:07:08Z</time></trkpt><trkpt lat="48.348986382918014" lon="-3.996831026104601"><ele>168.0</ele><time>2026-04-04T16:07:09Z</time></trkpt><trkpt lat="48.349013586250635" lon="-3.9969597286567855"><ele>169.0</ele><time>2026-04-04T16:07:10Z</time></trkpt><trkpt lat="48.34904039092457" lon="-3.9970843926885933"><ele>170.0</ele><time>2026-04-04T16:07:11Z</time></trkpt><trkpt lat="48.34906822449288" lon="-3.9972193532276936"><ele>171.0</ele><time>2026-04-04T16:07:12Z</time></trkpt><trkpt lat="48.34908810203244" lon="-3.997351557168188"><ele>171.0</ele><time>2026-04-04T16:07:13Z</time></trkpt><trkpt lat="48.34909951432291" lon="-3.9974738529158786"><ele>171.0</ele><time>2026-04-04T16:07:14Z</time></trkpt><trkpt lat="48.349131808261355" lon="-3.9975830006349584"><ele>171.0</ele><time>2026-04-04T16:07:15Z</time></trkpt><trkpt lat="48.34920554085629" lon="-3.9976346671782794"><ele>171.0</ele><time>2026-04-04T16:07:16Z</time></trkpt><trkpt lat="48.3492635132119" lon="-3.997734174679382"><ele>171.0</ele><time>2026-04-04T16:07:17Z</time></trkpt><trkpt lat="48.34932320040325" lon="-3.997836625310676"><ele>171.0</ele><time>2026-04-04T16:07:18Z</time></trkpt><trkpt lat="48.34938886185862" lon="-3.997953035250473"><ele>170.0</ele><time>2026-04-04T16:07:19Z</time></trkpt><trkpt lat="48.34945664547476" lon="-3.9980752066577807"><ele>169.0</ele><time>2026-04-04T16:07:20Z</time></trkpt><trkpt lat="48.349522220783314" lon="-3.998213563925839"><ele>168.0</ele><time>2026-04-04T16:07:21Z</time></trkpt><trkpt lat="48.349569329853566" lon="-3.998378972632973"><ele>167.0</ele><time>2026-04-04T16:07:22Z</time></trkpt><trkpt lat="48.34962483726408" lon="-3.9985566787840843"><ele>166.0</ele><time>2026-04-04T16:07:23Z</time></trkpt><trkpt lat="48.34969717192841" lon="-3.9987477227437966"><ele>165.0</ele><time>2026-04-04T16:07:24Z</time></trkpt><trkpt lat="48.34975946707486" lon="-3.9989667401305233"><ele>164.0</ele><time>2026-04-04T16:07:25Z</time></trkpt><trkpt lat="48.3498248549488" lon="-3.999199579069184"><ele>162.66666666666666</ele><time>2026-04-04T16:07:26Z</time></trkpt><trkpt lat="48.34987590969179" lon="-3.9994437574662256"><ele>161.33333333333334</ele><time>2026-04-04T16:07:27Z</time></trkpt><trkpt lat="48.34995731575154" lon="-3.9996687738267527"><ele>160.0</ele><time>2026-04-04T16:07:28Z</time></trkpt><trkpt lat="48.350029369439184" lon="-3.9998850437255165"><ele>160.0</ele><time>2026-04-04T16:07:29Z</time></trkpt><trkpt lat="48.35011718969806" lon="-4.00006242914978"><ele>160.0</ele><time>2026-04-04T16:07:30Z</time></trkpt><trkpt lat="48.3502270434995" lon="-4.000169540842996"><ele>160.0</ele><time>2026-04-04T16:07:31Z</time></trkpt><trkpt lat="48.35035553569422" lon="-4.0002665652528275"><ele>160.0</ele><time>2026-04-04T16:07:32Z</time></trkpt><trkpt lat="48.35050734641018" lon="-4.000386184291765"><ele>159.66666666666669</ele><time>2026-04-04T16:07:33Z</time></trkpt><trkpt lat="48.35064693749718" lon="-4.000530689622158"><ele>159.33333333333334</ele><time>2026-04-04T16:07:34Z</time></trkpt><trkpt lat="48.35076657885477" lon="-4.000685581417986"><ele>159.0</ele><time>2026-04-04T16:07:35Z</time></trkpt><trkpt lat="48.35087673755166" lon="-4.0008473286596775"><ele>157.75</ele><time>2026-04-04T16:07:36Z</time></trkpt><trkpt lat="48.350950270177876" lon="-4.001032399151837"><ele>156.5</ele><time>2026-04-04T16:07:37Z</time></trkpt><trkpt lat="48.351011935461415" lon="-4.001205119280188"><ele>155.25</ele><time>2026-04-04T16:07:38Z</time></trkpt><trkpt lat="48.351034327928936" lon="-4.001395934369742"><ele>154.0</ele><time>2026-04-04T16:07:39Z</time></trkpt><trkpt lat="48.35102865278738" lon="-4.00158263798735"><ele>154.0</ele><time>2026-04-04T16:07:40Z</time></trkpt><trkpt lat="48.35100345202703" lon="-4.001757511334771"><ele>154.0</ele><time>2026-04-04T16:07:41Z</time></trkpt><trkpt lat="48.35095922980847" lon="-4.001928012527291"><ele>154.0</ele><time>2026-04-04T16:07:42Z</time></trkpt><trkpt lat="48.35089224133837" lon="-4.002092423420836"><ele>154.0</ele><time>2026-04-04T16:07:43Z</time></trkpt><trkpt lat="48.35080921241856" lon="-4.002249188556074"><ele>154.0</ele><time>2026-04-04T16:07:44Z</time></trkpt><trkpt lat="48.35071437571752" lon="-4.002397845013879"><ele>154.0</ele><time>2026-04-04T16:07:45Z</time></trkpt><trkpt lat="48.35061562226505" lon="-4.00256577268953"><ele>154.0</ele><time>2026-04-04T16:07:46Z</time></trkpt><trkpt lat="48.35052221677222" lon="-4.0027383738561495"><ele>154.0</ele><time>2026-04-04T16:07:47Z</time></trkpt><trkpt lat="48.35042644448358" lon="-4.00291135279578"><ele>154.33333333333334</ele><time>2026-04-04T16:07:48Z</time></trkpt><trkpt lat="48.35033053546498" lon="-4.003088023264305"><ele>154.66666666666666</ele><time>2026-04-04T16:07:49Z</time></trkpt><trkpt lat="48.35023584899896" lon="-4.003264013037773"><ele>155.0</ele><time>2026-04-04T16:07:50Z</time></trkpt><trkpt lat="48.350140812595164" lon="-4.003440985448759"><ele>156.0</ele><time>2026-04-04T16:07:51Z</time></trkpt><trkpt lat="48.350053018739025" lon="-4.0036271339342715"><ele>157.0</ele><time>2026-04-04T16:07:52Z</time></trkpt><trkpt lat="48.34995510781571" lon="-4.003799676038969"><ele>158.0</ele><time>2026-04-04T16:07:53Z</time></trkpt><trkpt lat="48.349851226205594" lon="-4.00396345799639"><ele>158.0</ele><time>2026-04-04T16:07:54Z</time></trkpt><trkpt lat="48.34973799953225" lon="-4.004120929969302"><ele>158.0</ele><time>2026-04-04T16:07:55Z</time></trkpt><trkpt lat="48.34962381516285" lon="-4.0042813496975915"><ele>158.0</ele><time>2026-04-04T16:07:55.999Z</time></trkpt><trkpt lat="48.34950870669098" lon="-4.004436404470335"><ele>159.5</ele><time>2026-04-04T16:07:56.999Z</time></trkpt><trkpt lat="48.349396148399435" lon="-4.004591509589931"><ele>161.0</ele><time>2026-04-04T16:07:57.999Z</time></trkpt><trkpt lat="48.3492793700568" lon="-4.004735144714887"><ele>162.5</ele><time>2026-04-04T16:07:58.999Z</time></trkpt><trkpt lat="48.34916897557725" lon="-4.004858318402088"><ele>164.0</ele><time>2026-04-04T16:07:59.999Z</time></trkpt><trkpt lat="48.34902322976164" lon="-4.004912503067921"><ele>163.0</ele><time>2026-04-04T16:08:00.999Z</time></trkpt><trkpt lat="48.34887474324653" lon="-4.004966038860392"><ele>162.0</ele><time>2026-04-04T16:08:01.999Z</time></trkpt><trkpt lat="48.348733815832084" lon="-4.004984928173551"><ele>161.0</ele><time>2026-04-04T16:08:02.999Z</time></trkpt><trkpt lat="48.34858938344442" lon="-4.005018832799737"><ele>160.0</ele><time>2026-04-04T16:08:03.999Z</time></trkpt><trkpt lat="48.34843959256328" lon="-4.005079006690199"><ele>162.75</ele><time>2026-04-04T16:08:04.999Z</time></trkpt><trkpt lat="48.34830611691118" lon="-4.005160123295479"><ele>165.5</ele><time>2026-04-04T16:08:05.999Z</time></trkpt><trkpt lat="48.34816818630857" lon="-4.005254541438998"><ele>168.25</ele><time>2026-04-04T16:08:06.999Z</time></trkpt><trkpt lat="48.34803193203396" lon="-4.005339651052402"><ele>171.0</ele><time>2026-04-04T16:08:07.999Z</time></trkpt><trkpt lat="48.3478872453411" lon="-4.005395895039389"><ele>172.33333333333334</ele><time>2026-04-04T16:08:08.999Z</time></trkpt><trkpt lat="48.347741479453134" lon="-4.005441989014118"><ele>173.66666666666669</ele><time>2026-04-04T16:08:09.999Z</time></trkpt><trkpt lat="48.347593625509965" lon="-4.005480523351332"><ele>175.0</ele><time>2026-04-04T16:08:10.999Z</time></trkpt><trkpt lat="48.347440295260334" lon="-4.005517592215455"><ele>175.0</ele><time>2026-04-04T16:08:11.999Z</time></trkpt><trkpt lat="48.347279120420254" lon="-4.005566195215338"><ele>175.0</ele><time>2026-04-04T16:08:12.999Z</time></trkpt><trkpt lat="48.34712366269232" lon="-4.005618707639534"><ele>175.0</ele><time>2026-04-04T16:08:13.999Z</time></trkpt><trkpt lat="48.34697263517874" lon="-4.005690693768189"><ele>174.66666666666669</ele><time>2026-04-04T16:08:14.999Z</time></trkpt><trkpt lat="48.346816559053245" lon="-4.005784273902105"><ele>174.33333333333334</ele><time>2026-04-04T16:08:15.999Z</time></trkpt><trkpt lat="48.3466696846711" lon="-4.0058452888973965"><ele>174.0</ele><time>2026-04-04T16:08:16.999Z</time></trkpt><trkpt lat="48.3465099816379" lon="-4.005868855878868"><ele>178.66666666666666</ele><time>2026-04-04T16:08:17.999Z</time></trkpt><trkpt lat="48.346337106347576" lon="-4.005878934606676"><ele>183.33333333333331</ele><time>2026-04-04T16:08:18.999Z</time></trkpt><trkpt lat="48.3461767217213" lon="-4.005888476495453"><ele>188.0</ele><time>2026-04-04T16:08:19.999Z</time></trkpt><trkpt lat="48.34601724671066" lon="-4.005914059416729"><ele>188.0</ele><time>2026-04-04T16:08:20.999Z</time></trkpt><trkpt lat="48.34585299423704" lon="-4.005963561007135"><ele>188.0</ele><time>2026-04-04T16:08:21.999Z</time></trkpt><trkpt lat="48.345718401440614" lon="-4.00602782650415"><ele>188.0</ele><time>2026-04-04T16:08:22.999Z</time></trkpt><trkpt lat="48.34559566115068" lon="-4.006145899798999"><ele>184.0</ele><time>2026-04-04T16:08:23.999Z</time></trkpt><trkpt lat="48.34546339172642" lon="-4.006274298455535"><ele>180.0</ele><time>2026-04-04T16:08:24.999Z</time></trkpt><trkpt lat="48.34535140899464" lon="-4.006448584792594"><ele>176.0</ele><time>2026-04-04T16:08:25.999Z</time></trkpt><trkpt lat="48.34525352231788" lon="-4.006640715064451"><ele>180.33333333333331</ele><time>2026-04-04T16:08:26.999Z</time></trkpt><trkpt lat="48.34512454363524" lon="-4.006794989247154"><ele>184.66666666666666</ele><time>2026-04-04T16:08:27.999Z</time></trkpt><trkpt lat="48.345000554674534" lon="-4.006929800291237"><ele>189.0</ele><time>2026-04-04T16:08:28.999Z</time></trkpt><trkpt lat="48.34485717321243" lon="-4.007051606333049"><ele>189.0</ele><time>2026-04-04T16:08:29.999Z</time></trkpt><trkpt lat="48.344740558561064" lon="-4.007219948178796"><ele>189.0</ele><time>2026-04-04T16:08:30.999Z</time></trkpt><trkpt lat="48.344633898111795" lon="-4.0074103459762656"><ele>189.0</ele><time>2026-04-04T16:08:31.999Z</time></trkpt><trkpt lat="48.34454985154292" lon="-4.007607684192287"><ele>187.33333333333334</ele><time>2026-04-04T16:08:32.999Z</time></trkpt><trkpt lat="48.34446830669095" lon="-4.007831479239895"><ele>185.66666666666669</ele><time>2026-04-04T16:08:33.999Z</time></trkpt><trkpt lat="48.3444015976393" lon="-4.008062457579779"><ele>184.0</ele><time>2026-04-04T16:08:34.999Z</time></trkpt><trkpt lat="48.34436432743282" lon="-4.00828934032183"><ele>187.33333333333334</ele><time>2026-04-04T16:08:35.999Z</time></trkpt><trkpt lat="48.344348975241246" lon="-4.00853308824359"><ele>190.66666666666669</ele><time>2026-04-04T16:08:36.999Z</time></trkpt><trkpt lat="48.344358020455275" lon="-4.008782224313376"><ele>194.0</ele><time>2026-04-04T16:08:37.999Z</time></trkpt><trkpt lat="48.34437282584515" lon="-4.009021075661645"><ele>195.33333333333334</ele><time>2026-04-04T16:08:38.999Z</time></trkpt><trkpt lat="48.34438978741092" lon="-4.009277611793038"><ele>196.66666666666669</ele><time>2026-04-04T16:08:39.999Z</time></trkpt><trkpt lat="48.34440753192398" lon="-4.009525882002977"><ele>198.0</ele><time>2026-04-04T16:08:40.999Z</time></trkpt><trkpt lat="48.34443263069856" lon="-4.0097407248072106"><ele>198.0</ele><time>2026-04-04T16:08:41.999Z</time></trkpt><trkpt lat="48.34446564032798" lon="-4.009944430581469"><ele>198.0</ele><time>2026-04-04T16:08:42.999Z</time></trkpt><trkpt lat="48.34450378473563" lon="-4.01013321702198"><ele>198.0</ele><time>2026-04-04T16:08:43.999Z</time></trkpt><trkpt lat="48.34454218292661" lon="-4.010317537506678"><ele>198.0</ele><time>2026-04-04T16:08:44.999Z</time></trkpt><trkpt lat="48.34457901167264" lon="-4.0104912625710885"><ele>197.5</ele><time>2026-04-04T16:08:45.999Z</time></trkpt><trkpt lat="48.34461728203403" lon="-4.010661869876812"><ele>197.0</ele><time>2026-04-04T16:08:46.999Z</time></trkpt><trkpt lat="48.344653799515775" lon="-4.010831780139989"><ele>196.5</ele><time>2026-04-04T16:08:47.999Z</time></trkpt><trkpt lat="48.34466388926867" lon="-4.011010846213534"><ele>196.0</ele><time>2026-04-04T16:08:48.999Z</time></trkpt><trkpt lat="48.34467319674298" lon="-4.011187249026887"><ele>196.0</ele><time>2026-04-04T16:08:49.999Z</time></trkpt><trkpt lat="48.34466306217996" lon="-4.011364993755233"><ele>196.0</ele><time>2026-04-04T16:08:50.999Z</time></trkpt><trkpt lat="48.3446309435985" lon="-4.011543529603648"><ele>196.0</ele><time>2026-04-04T16:08:51.999Z</time></trkpt><trkpt lat="48.34458177155175" lon="-4.0117253516453815"><ele>196.0</ele><time>2026-04-04T16:08:52.999Z</time></trkpt><trkpt lat="48.34452797995972" lon="-4.011907691749663"><ele>196.0</ele><time>2026-04-04T16:08:53.999Z</time></trkpt><trkpt lat="48.34447754480631" lon="-4.0120924261986834"><ele>196.0</ele><time>2026-04-04T16:08:54.999Z</time></trkpt><trkpt lat="48.34440603673714" lon="-4.012264712328314"><ele>196.0</ele><time>2026-04-04T16:08:55.999Z</time></trkpt><trkpt lat="48.34433972290005" lon="-4.0124306742199165"><ele>196.0</ele><time>2026-04-04T16:08:56.999Z</time></trkpt><trkpt lat="48.34427747758005" lon="-4.01258296580195"><ele>195.83333333333331</ele><time>2026-04-04T16:08:57.999Z</time></trkpt><trkpt lat="48.34422432992971" lon="-4.012731226535342"><ele>195.66666666666666</ele><time>2026-04-04T16:08:58.999Z</time></trkpt><trkpt lat="48.344177478534284" lon="-4.0128540816116045"><ele>195.5</ele><time>2026-04-04T16:08:59.999Z</time></trkpt><trkpt lat="48.34413005398888" lon="-4.012967993404655"><ele>195.33333333333331</ele><time>2026-04-04T16:09:00.999Z</time></trkpt><trkpt lat="48.344103472639134" lon="-4.013075437157761"><ele>195.16666666666666</ele><time>2026-04-04T16:09:01.999Z</time></trkpt><trkpt lat="48.34406161657065" lon="-4.013152836801108"><ele>195.0</ele><time>2026-04-04T16:09:02.999Z</time></trkpt><trkpt lat="48.34411968973343" lon="-4.01328208617053"><ele>195.16666666666666</ele><time>2026-04-04T16:09:04.999Z</time></trkpt><trkpt lat="48.344185062053555" lon="-4.013349998273075"><ele>195.33333333333331</ele><time>2026-04-04T16:09:05.999Z</time></trkpt><trkpt lat="48.3442468737935" lon="-4.013416388437159"><ele>195.5</ele><time>2026-04-04T16:09:06.998Z</time></trkpt><trkpt lat="48.34429811895818" lon="-4.013478430919139"><ele>195.66666666666666</ele><time>2026-04-04T16:09:07.998Z</time></trkpt><trkpt lat="48.344348909047085" lon="-4.0135424431050035"><ele>195.83333333333331</ele><time>2026-04-04T16:09:08.998Z</time></trkpt><trkpt lat="48.34447394999858" lon="-4.013457324950809"><ele>196.0</ele><time>2026-04-04T16:09:10.998Z</time></trkpt><trkpt lat="48.3445289521038" lon="-4.013350321447141"><ele>195.8</ele><time>2026-04-04T16:09:11.998Z</time></trkpt><trkpt lat="48.34460996789185" lon="-4.013271373253948"><ele>195.60000000000002</ele><time>2026-04-04T16:09:12.998Z</time></trkpt><trkpt lat="48.34467317533036" lon="-4.013170873026873"><ele>195.4</ele><time>2026-04-04T16:09:14Z</time></trkpt><trkpt lat="48.344740471302146" lon="-4.013068782524358"><ele>195.2</ele><time>2026-04-04T16:09:15Z</time></trkpt><trkpt lat="48.34480543572252" lon="-4.012970254411532"><ele>195.0</ele><time>2026-04-04T16:09:16Z</time></trkpt><trkpt lat="48.34486792893018" lon="-4.012862797858707"><ele>196.2</ele><time>2026-04-04T16:09:17Z</time></trkpt><trkpt lat="48.34494048699133" lon="-4.012746872104405"><ele>197.4</ele><time>2026-04-04T16:09:18Z</time></trkpt><trkpt lat="48.345006456693135" lon="-4.012623501377886"><ele>198.60000000000002</ele><time>2026-04-04T16:09:19Z</time></trkpt><trkpt lat="48.3450741021505" lon="-4.012498158039715"><ele>199.8</ele><time>2026-04-04T16:09:20Z</time></trkpt><trkpt lat="48.34514363184091" lon="-4.012384511041246"><ele>201.0</ele><time>2026-04-04T16:09:21Z</time></trkpt><trkpt lat="48.34518969731501" lon="-4.012228457283046"><ele>201.25</ele><time>2026-04-04T16:09:22Z</time></trkpt><trkpt lat="48.34521387436208" lon="-4.012071605169754"><ele>201.5</ele><time>2026-04-04T16:09:23Z</time></trkpt><trkpt lat="48.34525005877194" lon="-4.0118966556680835"><ele>201.75</ele><time>2026-04-04T16:09:24Z</time></trkpt><trkpt lat="48.34529256723485" lon="-4.011729774312631"><ele>202.0</ele><time>2026-04-04T16:09:25Z</time></trkpt><trkpt lat="48.3453227459932" lon="-4.011564433798042"><ele>202.6</ele><time>2026-04-04T16:09:26Z</time></trkpt><trkpt lat="48.345352909828094" lon="-4.01141354397667"><ele>203.2</ele><time>2026-04-04T16:09:27Z</time></trkpt><trkpt lat="48.345378885130835" lon="-4.011271096742874"><ele>203.8</ele><time>2026-04-04T16:09:28Z</time></trkpt><trkpt lat="48.345405154636815" lon="-4.0111276002912115"><ele>204.4</ele><time>2026-04-04T16:09:29Z</time></trkpt><trkpt lat="48.345430808401446" lon="-4.0109698947486265"><ele>205.0</ele><time>2026-04-04T16:09:30Z</time></trkpt><trkpt lat="48.345454121288185" lon="-4.010834078371296"><ele>205.33333333333331</ele><time>2026-04-04T16:09:31Z</time></trkpt><trkpt lat="48.34547589750861" lon="-4.010694663467044"><ele>205.66666666666666</ele><time>2026-04-04T16:09:32Z</time></trkpt><trkpt lat="48.345494641007605" lon="-4.010558479853128"><ele>206.0</ele><time>2026-04-04T16:09:33Z</time></trkpt><trkpt lat="48.345514755941" lon="-4.010428842362845"><ele>206.33333333333331</ele><time>2026-04-04T16:09:34Z</time></trkpt><trkpt lat="48.345529592917586" lon="-4.01030698869468"><ele>206.66666666666666</ele><time>2026-04-04T16:09:35Z</time></trkpt><trkpt lat="48.3455461173813" lon="-4.010181475905681"><ele>207.0</ele><time>2026-04-04T16:09:36Z</time></trkpt><trkpt lat="48.34557411135024" lon="-4.0100690677984465"><ele>209.5</ele><time>2026-04-04T16:09:37Z</time></trkpt><trkpt lat="48.345596074898985" lon="-4.00992883006848"><ele>212.0</ele><time>2026-04-04T16:09:38Z</time></trkpt><trkpt lat="48.34560833366665" lon="-4.009809822006939"><ele>214.5</ele><time>2026-04-04T16:09:39Z</time></trkpt><trkpt lat="48.34564510703723" lon="-4.009691476384062"><ele>217.0</ele><time>2026-04-04T16:09:40Z</time></trkpt><trkpt lat="48.345686980176005" lon="-4.0095671942996045"><ele>219.5</ele><time>2026-04-04T16:09:41Z</time></trkpt><trkpt lat="48.34574302808243" lon="-4.009456602432691"><ele>222.0</ele><time>2026-04-04T16:09:42Z</time></trkpt><trkpt lat="48.34579662098414" lon="-4.009346810550313"><ele>222.0</ele><time>2026-04-04T16:09:43Z</time></trkpt><trkpt lat="48.34588060963899" lon="-4.0093302825760775"><ele>222.0</ele><time>2026-04-04T16:09:44Z</time></trkpt><trkpt lat="48.34594578627024" lon="-4.0093187471624345"><ele>222.0</ele><time>2026-04-04T16:09:45Z</time></trkpt><trkpt lat="48.346014720592" lon="-4.009246468155812"><ele>222.0</ele><time>2026-04-04T16:09:46Z</time></trkpt><trkpt lat="48.34612612182769" lon="-4.009177138618634"><ele>222.0</ele><time>2026-04-04T16:09:48Z</time></trkpt><trkpt lat="48.34607556087417" lon="-4.008676381693493"><ele>221.66666666666666</ele><time>2026-04-04T16:09:49Z</time></trkpt><trkpt lat="48.346114129291685" lon="-4.008573612805749"><ele>221.33333333333331</ele><time>2026-04-04T16:09:50Z</time></trkpt><trkpt lat="48.34614738902182" lon="-4.008480307083806"><ele>221.0</ele><time>2026-04-04T16:09:51Z</time></trkpt><trkpt lat="48.34616948138066" lon="-4.008386731417493"><ele>220.66666666666666</ele><time>2026-04-04T16:09:52Z</time></trkpt><trkpt lat="48.34620146641454" lon="-4.008244749876575"><ele>220.33333333333331</ele><time>2026-04-04T16:09:54Z</time></trkpt><trkpt lat="48.346228436977405" lon="-4.008145904210881"><ele>220.0</ele><time>2026-04-04T16:09:56Z</time></trkpt><trkpt lat="48.346200767205275" lon="-4.008056033156389"><ele>213.0</ele><time>2026-04-04T16:10:01Z</time></trkpt></trkseg></trk></gpx>